<?xml version='1.0' encoding='UTF-8'?><gpx version="1.1" creator="JPX - https://github.com/jenetics/jpx" xmlns="http://www.topografix.com/GPX/1/1"><trk><trkseg><trkpt lat="44.99306863288609" lon="7.495269402836688"><ele>282.0</ele><time>2026-03-29T09:54:06.462Z</time></trkpt><trkpt lat="44.99310908720064" lon="7.495138627068637"><ele>282.0</ele><time>2026-03-29T09:54:31.654Z</time></trkpt><trkpt lat="44.9929484695675" lon="7.495249926027183"><ele>282.0</ele><time>2026-03-29T09:55:07.978Z</time></trkpt><trkpt lat="44.9929880629581" lon="7.495321009756107"><ele>282.0</ele><time>2026-03-29T09:55:42.978Z</time></trkpt><trkpt lat="44.993004331657495" lon="7.495467801274347"><ele>282.0</ele><time>2026-03-29T09:56:09.977Z</time></trkpt><trkpt lat="44.99305963458513" lon="7.495564284409123"><ele>282.0</ele><time>2026-03-29T09:56:11.977Z</time></trkpt><trkpt lat="44.99313362001952" lon="7.495535612688388"><ele>282.0</ele><time>2026-03-29T09:56:14.977Z</time></trkpt><trkpt lat="44.99318540473073" lon="7.495442707746908"><ele>282.0</ele><time>2026-03-29T09:56:16.977Z</time></trkpt><trkpt lat="44.99329810776616" lon="7.49543113261262"><ele>282.0</ele><time>2026-03-29T09:59:09Z</time></trkpt><trkpt lat="44.993294341457386" lon="7.4953240752336265"><ele>282.0</ele><time>2026-03-29T09:59:10Z</time></trkpt><trkpt lat="44.9933597057176" lon="7.4952673442681235"><ele>282.0</ele><time>2026-03-29T09:59:11Z</time></trkpt><trkpt lat="44.99341584391319" lon="7.495208579160667"><ele>282.2</ele><time>2026-03-29T09:59:12Z</time></trkpt><trkpt lat="44.99347808253409" lon="7.495128794100067"><ele>282.4</ele><time>2026-03-29T09:59:14Z</time></trkpt><trkpt lat="44.99355789789974" lon="7.49512926375785"><ele>282.6</ele><time>2026-03-29T09:59:17Z</time></trkpt><trkpt lat="44.99358768307714" lon="7.495222419722829"><ele>282.8</ele><time>2026-03-29T09:59:18Z</time></trkpt><trkpt lat="44.99363583797894" lon="7.495406926885006"><ele>283.0</ele><time>2026-03-29T09:59:20Z</time></trkpt><trkpt lat="44.99366909476227" lon="7.495526159009921"><ele>283.0</ele><time>2026-03-29T09:59:21Z</time></trkpt><trkpt lat="44.9937077568617" lon="7.495663732806796"><ele>283.0</ele><time>2026-03-29T09:59:22Z</time></trkpt><trkpt lat="44.99374491901961" lon="7.4958021896947455"><ele>283.0</ele><time>2026-03-29T09:59:23Z</time></trkpt><trkpt lat="44.993782814198674" lon="7.495946981061488"><ele>283.0</ele><time>2026-03-29T09:59:24Z</time></trkpt><trkpt lat="44.99382226216582" lon="7.496091917725962"><ele>283.0</ele><time>2026-03-29T09:59:25Z</time></trkpt><trkpt lat="44.993864859989095" lon="7.496239789397881"><ele>283.0</ele><time>2026-03-29T09:59:26Z</time></trkpt><trkpt lat="44.99390669233806" lon="7.496393081993952"><ele>283.0</ele><time>2026-03-29T09:59:27Z</time></trkpt><trkpt lat="44.99394801408321" lon="7.496548920956968"><ele>283.0</ele><time>2026-03-29T09:59:28Z</time></trkpt><trkpt lat="44.99398777413128" lon="7.496709808487091"><ele>283.0</ele><time>2026-03-29T09:59:29Z</time></trkpt><trkpt lat="44.99402401619436" lon="7.496849160244209"><ele>283.0</ele><time>2026-03-29T09:59:30Z</time></trkpt><trkpt lat="44.99406276252592" lon="7.496977343339775"><ele>283.0</ele><time>2026-03-29T09:59:31Z</time></trkpt><trkpt lat="44.994098134958556" lon="7.497095931318137"><ele>283.0</ele><time>2026-03-29T09:59:32Z</time></trkpt><trkpt lat="44.99413025158181" lon="7.497206774046039"><ele>283.0</ele><time>2026-03-29T09:59:33Z</time></trkpt><trkpt lat="44.99416187291236" lon="7.497333736604627"><ele>283.0</ele><time>2026-03-29T09:59:34Z</time></trkpt><trkpt lat="44.99419984942137" lon="7.497480122175143"><ele>283.0</ele><time>2026-03-29T09:59:35Z</time></trkpt><trkpt lat="44.994239419211866" lon="7.497630922480699"><ele>283.0</ele><time>2026-03-29T09:59:36Z</time></trkpt><trkpt lat="44.994272452578606" lon="7.497784515040487"><ele>283.0</ele><time>2026-03-29T09:59:37Z</time></trkpt><trkpt lat="44.994282865776555" lon="7.497943678803862"><ele>283.0</ele><time>2026-03-29T09:59:38Z</time></trkpt><trkpt lat="44.9943039050312" lon="7.498082550814778"><ele>283.0</ele><time>2026-03-29T09:59:39Z</time></trkpt><trkpt lat="44.99434801050263" lon="7.498192495087914"><ele>283.16666666666663</ele><time>2026-03-29T09:59:40Z</time></trkpt><trkpt lat="44.99440516926101" lon="7.498284498967392"><ele>283.3333333333333</ele><time>2026-03-29T09:59:41Z</time></trkpt><trkpt lat="44.99445477913799" lon="7.4983807540103795"><ele>283.5</ele><time>2026-03-29T09:59:42Z</time></trkpt><trkpt lat="44.99449178524803" lon="7.498477150874091"><ele>283.6666666666667</ele><time>2026-03-29T09:59:43Z</time></trkpt><trkpt lat="44.99452637754721" lon="7.498581807998796"><ele>283.83333333333337</ele><time>2026-03-29T09:59:44Z</time></trkpt><trkpt lat="44.994551476630356" lon="7.4986986909668145"><ele>284.0</ele><time>2026-03-29T09:59:45Z</time></trkpt><trkpt lat="44.99458189622193" lon="7.498811587590063"><ele>283.59999999999997</ele><time>2026-03-29T09:59:46Z</time></trkpt><trkpt lat="44.994616713188535" lon="7.498936174911674"><ele>283.2</ele><time>2026-03-29T09:59:47Z</time></trkpt><trkpt lat="44.99466052358115" lon="7.499074437785174"><ele>282.79999999999995</ele><time>2026-03-29T09:59:48Z</time></trkpt><trkpt lat="44.99470610904459" lon="7.4992281936993805"><ele>282.4</ele><time>2026-03-29T09:59:49Z</time></trkpt><trkpt lat="44.994753147578564" lon="7.499383854188573"><ele>282.0</ele><time>2026-03-29T09:59:50Z</time></trkpt><trkpt lat="44.99480037795035" lon="7.499551275396083"><ele>282.0</ele><time>2026-03-29T09:59:51Z</time></trkpt><trkpt lat="44.994848928989505" lon="7.4997275460807815"><ele>282.0</ele><time>2026-03-29T09:59:52Z</time></trkpt><trkpt lat="44.99490428678894" lon="7.499927657100126"><ele>282.0</ele><time>2026-03-29T09:59:53Z</time></trkpt><trkpt lat="44.99496503465878" lon="7.5001369810380085"><ele>282.0</ele><time>2026-03-29T09:59:53.999Z</time></trkpt><trkpt lat="44.99502830752919" lon="7.5003650049157065"><ele>283.3333333333333</ele><time>2026-03-29T09:59:54.999Z</time></trkpt><trkpt lat="44.99510014098298" lon="7.500600874978564"><ele>284.66666666666663</ele><time>2026-03-29T09:59:55.999Z</time></trkpt><trkpt lat="44.99516495528868" lon="7.500830859372903"><ele>286.0</ele><time>2026-03-29T09:59:56.999Z</time></trkpt><trkpt lat="44.9952325644982" lon="7.501066479658795"><ele>285.3333333333333</ele><time>2026-03-29T09:59:57.999Z</time></trkpt><trkpt lat="44.99530135938278" lon="7.501293755321796"><ele>284.6666666666667</ele><time>2026-03-29T09:59:58.999Z</time></trkpt><trkpt lat="44.995371923261985" lon="7.501523110167859"><ele>284.0</ele><time>2026-03-29T09:59:59.999Z</time></trkpt><trkpt lat="44.99544035817462" lon="7.501778355725969"><ele>284.0</ele><time>2026-03-29T10:00:00.999Z</time></trkpt><trkpt lat="44.995510773311935" lon="7.502032932200864"><ele>284.0</ele><time>2026-03-29T10:00:01.999Z</time></trkpt><trkpt lat="44.995583343371436" lon="7.502291836556529"><ele>284.0</ele><time>2026-03-29T10:00:02.999Z</time></trkpt><trkpt lat="44.995657061375226" lon="7.5025503079879305"><ele>283.33333333333337</ele><time>2026-03-29T10:00:03.999Z</time></trkpt><trkpt lat="44.99572955838249" lon="7.50280932001954"><ele>282.6666666666667</ele><time>2026-03-29T10:00:04.999Z</time></trkpt><trkpt lat="44.99580431103516" lon="7.503068913270353"><ele>282.0</ele><time>2026-03-29T10:00:05.999Z</time></trkpt><trkpt lat="44.995878143437196" lon="7.503326942037603"><ele>283.3333333333333</ele><time>2026-03-29T10:00:06.999Z</time></trkpt><trkpt lat="44.99595161238813" lon="7.503584893412651"><ele>284.66666666666663</ele><time>2026-03-29T10:00:07.999Z</time></trkpt><trkpt lat="44.996024077766045" lon="7.503839491757857"><ele>286.0</ele><time>2026-03-29T10:00:08.999Z</time></trkpt><trkpt lat="44.99609452841364" lon="7.504097571459819"><ele>286.0</ele><time>2026-03-29T10:00:09.999Z</time></trkpt><trkpt lat="44.99616545689122" lon="7.504350238522746"><ele>286.0</ele><time>2026-03-29T10:00:10.999Z</time></trkpt><trkpt lat="44.996237201618236" lon="7.504597143671906"><ele>286.0</ele><time>2026-03-29T10:00:11.999Z</time></trkpt><trkpt lat="44.99630678883486" lon="7.5048448853743395"><ele>285.0</ele><time>2026-03-29T10:00:12.999Z</time></trkpt><trkpt lat="44.99637493048547" lon="7.505080171879057"><ele>284.0</ele><time>2026-03-29T10:00:13.999Z</time></trkpt><trkpt lat="44.99643976988277" lon="7.505301870067782"><ele>283.0</ele><time>2026-03-29T10:00:14.999Z</time></trkpt><trkpt lat="44.99649602140119" lon="7.505507883559304"><ele>283.0</ele><time>2026-03-29T10:00:15.999Z</time></trkpt><trkpt lat="44.996529867083346" lon="7.5057162681860925"><ele>283.0</ele><time>2026-03-29T10:00:16.999Z</time></trkpt><trkpt lat="44.996547565158984" lon="7.505903479320726"><ele>283.0</ele><time>2026-03-29T10:00:17.999Z</time></trkpt><trkpt lat="44.996595493442605" lon="7.506071459517258"><ele>283.0</ele><time>2026-03-29T10:00:18.999Z</time></trkpt><trkpt lat="44.996679200095194" lon="7.506219125467342"><ele>282.66666666666663</ele><time>2026-03-29T10:00:19.999Z</time></trkpt><trkpt lat="44.996757447186965" lon="7.506393729442518"><ele>282.3333333333333</ele><time>2026-03-29T10:00:20.999Z</time></trkpt><trkpt lat="44.996823840127334" lon="7.506616763243234"><ele>282.0</ele><time>2026-03-29T10:00:21.999Z</time></trkpt><trkpt lat="44.99689017210933" lon="7.506872987178994"><ele>282.0</ele><time>2026-03-29T10:00:22.999Z</time></trkpt><trkpt lat="44.99696609014272" lon="7.507140466095224"><ele>282.0</ele><time>2026-03-29T10:00:23.999Z</time></trkpt><trkpt lat="44.99703660435942" lon="7.507385857714521"><ele>282.0</ele><time>2026-03-29T10:00:24.999Z</time></trkpt><trkpt lat="44.997100208863735" lon="7.50761775111485"><ele>282.0</ele><time>2026-03-29T10:00:25.999Z</time></trkpt><trkpt lat="44.99716147752106" lon="7.507840242648851"><ele>282.0</ele><time>2026-03-29T10:00:26.999Z</time></trkpt><trkpt lat="44.99722374960598" lon="7.508063632828082"><ele>282.0</ele><time>2026-03-29T10:00:27.999Z</time></trkpt><trkpt lat="44.997287761576885" lon="7.508288031575463"><ele>282.3333333333333</ele><time>2026-03-29T10:00:28.999Z</time></trkpt><trkpt lat="44.99735589007493" lon="7.508516289360619"><ele>282.66666666666663</ele><time>2026-03-29T10:00:29.999Z</time></trkpt><trkpt lat="44.99742566674628" lon="7.508745285452848"><ele>283.0</ele><time>2026-03-29T10:00:30.999Z</time></trkpt><trkpt lat="44.997496323968434" lon="7.508980287987177"><ele>283.0</ele><time>2026-03-29T10:00:31.999Z</time></trkpt><trkpt lat="44.99756548020098" lon="7.509215331902508"><ele>283.0</ele><time>2026-03-29T10:00:32.999Z</time></trkpt><trkpt lat="44.99763236249748" lon="7.509445060340042"><ele>283.0</ele><time>2026-03-29T10:00:33.999Z</time></trkpt><trkpt lat="44.997696474001934" lon="7.509665385183625"><ele>283.0</ele><time>2026-03-29T10:00:34.999Z</time></trkpt><trkpt lat="44.997757371239416" lon="7.5098745163941745"><ele>283.0</ele><time>2026-03-29T10:00:35.999Z</time></trkpt><trkpt lat="44.997811505570986" lon="7.510072185982638"><ele>283.0</ele><time>2026-03-29T10:00:36.999Z</time></trkpt><trkpt lat="44.99786088041795" lon="7.510257972901051"><ele>283.25</ele><time>2026-03-29T10:00:37.999Z</time></trkpt><trkpt lat="44.99791358484386" lon="7.510436132567471"><ele>283.5</ele><time>2026-03-29T10:00:38.999Z</time></trkpt><trkpt lat="44.99796622592385" lon="7.510616019559658"><ele>283.75</ele><time>2026-03-29T10:00:39.999Z</time></trkpt><trkpt lat="44.99801715763052" lon="7.510799743114079"><ele>284.0</ele><time>2026-03-29T10:00:40.999Z</time></trkpt><trkpt lat="44.99806728367976" lon="7.510977164617582"><ele>284.0</ele><time>2026-03-29T10:00:41.999Z</time></trkpt><trkpt lat="44.9981134811496" lon="7.5111455573636565"><ele>284.0</ele><time>2026-03-29T10:00:42.999Z</time></trkpt><trkpt lat="44.99815404520237" lon="7.511298733193974"><ele>284.0</ele><time>2026-03-29T10:00:43.999Z</time></trkpt><trkpt lat="44.99819403332376" lon="7.511444537475472"><ele>284.0</ele><time>2026-03-29T10:00:44.999Z</time></trkpt><trkpt lat="44.998234330662235" lon="7.511590031655327"><ele>284.0</ele><time>2026-03-29T10:00:45.999Z</time></trkpt><trkpt lat="44.99827537364342" lon="7.511736168876784"><ele>284.0</ele><time>2026-03-29T10:00:46.999Z</time></trkpt><trkpt lat="44.99831098907527" lon="7.51187855543252"><ele>284.0</ele><time>2026-03-29T10:00:47.999Z</time></trkpt><trkpt lat="44.99833884027627" lon="7.512015306198628"><ele>284.0</ele><time>2026-03-29T10:00:48.999Z</time></trkpt><trkpt lat="44.9983473930911" lon="7.512149734518019"><ele>284.0</ele><time>2026-03-29T10:00:49.999Z</time></trkpt><trkpt lat="44.998327049902386" lon="7.512270548503624"><ele>283.83333333333337</ele><time>2026-03-29T10:00:50.999Z</time></trkpt><trkpt lat="44.998325008814604" lon="7.512391551447323"><ele>283.6666666666667</ele><time>2026-03-29T10:00:51.999Z</time></trkpt><trkpt lat="44.9983714600077" lon="7.512489698960996"><ele>283.5</ele><time>2026-03-29T10:00:52.999Z</time></trkpt><trkpt lat="44.99844465468605" lon="7.512566615411007"><ele>283.3333333333333</ele><time>2026-03-29T10:00:53.999Z</time></trkpt><trkpt lat="44.9985210803163" lon="7.51265011276184"><ele>283.16666666666663</ele><time>2026-03-29T10:00:55Z</time></trkpt><trkpt lat="44.99856955947012" lon="7.512752003309486"><ele>283.0</ele><time>2026-03-29T10:00:56Z</time></trkpt><trkpt lat="44.99858823123248" lon="7.5128605923003"><ele>283.16666666666663</ele><time>2026-03-29T10:00:57Z</time></trkpt><trkpt lat="44.99860857169452" lon="7.512956514980007"><ele>283.3333333333333</ele><time>2026-03-29T10:00:58Z</time></trkpt><trkpt lat="44.99865027513445" lon="7.513116429847589"><ele>283.5</ele><time>2026-03-29T10:01:00Z</time></trkpt><trkpt lat="44.99868881211763" lon="7.513281329878601"><ele>283.6666666666667</ele><time>2026-03-29T10:01:02Z</time></trkpt><trkpt lat="44.99871564071427" lon="7.513362925404288"><ele>283.83333333333337</ele><time>2026-03-29T10:01:03Z</time></trkpt><trkpt lat="44.998752510571286" lon="7.513442122143739"><ele>284.0</ele><time>2026-03-29T10:01:04Z</time></trkpt><trkpt lat="44.99878892243487" lon="7.513531975699859"><ele>284.0</ele><time>2026-03-29T10:01:05Z</time></trkpt><trkpt lat="44.99882515146204" lon="7.513649466798319"><ele>284.0</ele><time>2026-03-29T10:01:06Z</time></trkpt><trkpt lat="44.998864394596495" lon="7.5137831107615085"><ele>284.0</ele><time>2026-03-29T10:01:07Z</time></trkpt><trkpt lat="44.998901661957255" lon="7.513921951466514"><ele>284.0</ele><time>2026-03-29T10:01:08Z</time></trkpt><trkpt lat="44.99893903972437" lon="7.514061339792169"><ele>284.0</ele><time>2026-03-29T10:01:09Z</time></trkpt><trkpt lat="44.998974126225555" lon="7.514195720952871"><ele>284.33333333333337</ele><time>2026-03-29T10:01:10Z</time></trkpt><trkpt lat="44.99900681216394" lon="7.514318651544233"><ele>284.6666666666667</ele><time>2026-03-29T10:01:11Z</time></trkpt><trkpt lat="44.99903872288968" lon="7.514438179788666"><ele>285.0</ele><time>2026-03-29T10:01:12Z</time></trkpt><trkpt lat="44.99907272152561" lon="7.514555426065898"><ele>285.3333333333333</ele><time>2026-03-29T10:01:13Z</time></trkpt><trkpt lat="44.99910472983967" lon="7.514671564283222"><ele>285.66666666666663</ele><time>2026-03-29T10:01:14Z</time></trkpt><trkpt lat="44.999132242757206" lon="7.5147843406289985"><ele>286.0</ele><time>2026-03-29T10:01:15Z</time></trkpt><trkpt lat="44.999158937048456" lon="7.5148888112682135"><ele>286.0</ele><time>2026-03-29T10:01:16Z</time></trkpt><trkpt lat="44.999192286727435" lon="7.514998553442028"><ele>286.0</ele><time>2026-03-29T10:01:17Z</time></trkpt><trkpt lat="44.99922739720398" lon="7.515119611588993"><ele>286.0</ele><time>2026-03-29T10:01:18Z</time></trkpt><trkpt lat="44.99926908081255" lon="7.515270113949081"><ele>286.0</ele><time>2026-03-29T10:01:19Z</time></trkpt><trkpt lat="44.99931722437422" lon="7.515441037395251"><ele>286.0</ele><time>2026-03-29T10:01:20Z</time></trkpt><trkpt lat="44.99936525791566" lon="7.515616521517992"><ele>285.5</ele><time>2026-03-29T10:01:21Z</time></trkpt><trkpt lat="44.99941301268673" lon="7.51579549376318"><ele>285.0</ele><time>2026-03-29T10:01:22Z</time></trkpt><trkpt lat="44.99946086595974" lon="7.515973475349625"><ele>284.5</ele><time>2026-03-29T10:01:23Z</time></trkpt><trkpt lat="44.99950579919953" lon="7.516150127965719"><ele>284.0</ele><time>2026-03-29T10:01:24Z</time></trkpt><trkpt lat="44.99955250853866" lon="7.516319880474812"><ele>283.4</ele><time>2026-03-29T10:01:25Z</time></trkpt><trkpt lat="44.999595050651436" lon="7.5164768646951226"><ele>282.79999999999995</ele><time>2026-03-29T10:01:26Z</time></trkpt><trkpt lat="44.99963409613153" lon="7.516620126478434"><ele>282.20000000000005</ele><time>2026-03-29T10:01:27Z</time></trkpt><trkpt lat="44.999670312063635" lon="7.516750541106946"><ele>281.6</ele><time>2026-03-29T10:01:28Z</time></trkpt><trkpt lat="44.99970340256011" lon="7.516869685721009"><ele>281.0</ele><time>2026-03-29T10:01:29Z</time></trkpt><trkpt lat="44.999732836934314" lon="7.516977108943548"><ele>280.8</ele><time>2026-03-29T10:01:30Z</time></trkpt><trkpt lat="44.99975907441885" lon="7.517073956738192"><ele>280.6</ele><time>2026-03-29T10:01:31Z</time></trkpt><trkpt lat="44.999787953614906" lon="7.517180487032792"><ele>280.4</ele><time>2026-03-29T10:01:32Z</time></trkpt><trkpt lat="44.99982162068488" lon="7.517307124887219"><ele>280.2</ele><time>2026-03-29T10:01:33Z</time></trkpt><trkpt lat="44.99985997794577" lon="7.517448059441302"><ele>280.0</ele><time>2026-03-29T10:01:34Z</time></trkpt><trkpt lat="44.99989980392746" lon="7.5175888983638135"><ele>280.0</ele><time>2026-03-29T10:01:35Z</time></trkpt><trkpt lat="44.99993908733796" lon="7.5177226398215655"><ele>280.0</ele><time>2026-03-29T10:01:36Z</time></trkpt><trkpt lat="44.99997432858587" lon="7.51785127036936"><ele>280.0</ele><time>2026-03-29T10:01:37Z</time></trkpt><trkpt lat="45.0000077945961" lon="7.517973954830262"><ele>280.0</ele><time>2026-03-29T10:01:38Z</time></trkpt><trkpt lat="45.00004212556547" lon="7.518097251926639"><ele>280.0</ele><time>2026-03-29T10:01:39Z</time></trkpt><trkpt lat="45.00007593540985" lon="7.51821878604074"><ele>280.0</ele><time>2026-03-29T10:01:40Z</time></trkpt><trkpt lat="45.00011066436471" lon="7.518350819854032"><ele>280.0</ele><time>2026-03-29T10:01:41Z</time></trkpt><trkpt lat="45.00014941583938" lon="7.518497840270574"><ele>280.0</ele><time>2026-03-29T10:01:42Z</time></trkpt><trkpt lat="45.00019052345859" lon="7.518650795024966"><ele>280.0</ele><time>2026-03-29T10:01:43Z</time></trkpt><trkpt lat="45.00023042635803" lon="7.518801952217869"><ele>280.0</ele><time>2026-03-29T10:01:44Z</time></trkpt><trkpt lat="45.00026723221771" lon="7.51894924724661"><ele>279.4</ele><time>2026-03-29T10:01:45Z</time></trkpt><trkpt lat="45.00030263487304" lon="7.519085169587395"><ele>278.8</ele><time>2026-03-29T10:01:46Z</time></trkpt><trkpt lat="45.00032523617922" lon="7.5192045713218665"><ele>278.2</ele><time>2026-03-29T10:01:47Z</time></trkpt><trkpt lat="45.00033756187529" lon="7.519320191054767"><ele>277.6</ele><time>2026-03-29T10:01:48Z</time></trkpt><trkpt lat="45.00032914913563" lon="7.519444976041156"><ele>277.0</ele><time>2026-03-29T10:01:49Z</time></trkpt><trkpt lat="45.00029004335327" lon="7.519572732492932"><ele>276.75</ele><time>2026-03-29T10:01:50Z</time></trkpt><trkpt lat="45.00022230991638" lon="7.51968318084791"><ele>276.5</ele><time>2026-03-29T10:01:51Z</time></trkpt><trkpt lat="45.00012890055494" lon="7.519761121754667"><ele>276.25</ele><time>2026-03-29T10:01:51.999Z</time></trkpt><trkpt lat="45.00001391600089" lon="7.519811211627299"><ele>276.0</ele><time>2026-03-29T10:01:52.999Z</time></trkpt><trkpt lat="44.999866740832836" lon="7.519850619084577"><ele>276.0</ele><time>2026-03-29T10:01:53.999Z</time></trkpt><trkpt lat="44.99970418689289" lon="7.519896750197653"><ele>276.0</ele><time>2026-03-29T10:01:54.999Z</time></trkpt><trkpt lat="44.99952163110964" lon="7.519949969861138"><ele>276.0</ele><time>2026-03-29T10:01:55.999Z</time></trkpt><trkpt lat="44.999324172804144" lon="7.520005486115747"><ele>276.0</ele><time>2026-03-29T10:01:56.999Z</time></trkpt><trkpt lat="44.99911471831881" lon="7.520063806788426"><ele>276.0</ele><time>2026-03-29T10:01:57.999Z</time></trkpt><trkpt lat="44.99889631641187" lon="7.520123086111644"><ele>276.0</ele><time>2026-03-29T10:01:58.999Z</time></trkpt><trkpt lat="44.99866718173848" lon="7.52018746148264"><ele>276.0</ele><time>2026-03-29T10:01:59.999Z</time></trkpt><trkpt lat="44.998434363008606" lon="7.520256688857714"><ele>276.0</ele><time>2026-03-29T10:02:00.999Z</time></trkpt><trkpt lat="44.99819963274113" lon="7.520325400212597"><ele>275.5</ele><time>2026-03-29T10:02:01.999Z</time></trkpt><trkpt lat="44.99796617593363" lon="7.520395607044885"><ele>275.0</ele><time>2026-03-29T10:02:02.999Z</time></trkpt><trkpt lat="44.99773287165715" lon="7.520467227914037"><ele>275.0</ele><time>2026-03-29T10:02:03.999Z</time></trkpt><trkpt lat="44.99750529997049" lon="7.52054053429984"><ele>275.0</ele><time>2026-03-29T10:02:04.999Z</time></trkpt><trkpt lat="44.997276573159944" lon="7.520614420412727"><ele>276.0</ele><time>2026-03-29T10:02:05.999Z</time></trkpt><trkpt lat="44.99704955388018" lon="7.520686283399275"><ele>277.0</ele><time>2026-03-29T10:02:06.999Z</time></trkpt><trkpt lat="44.99682328285802" lon="7.520753136350204"><ele>276.3333333333333</ele><time>2026-03-29T10:02:07.999Z</time></trkpt><trkpt lat="44.99660131211893" lon="7.520817887805973"><ele>275.6666666666667</ele><time>2026-03-29T10:02:08.999Z</time></trkpt><trkpt lat="44.99638360262379" lon="7.520882323334369"><ele>275.0</ele><time>2026-03-29T10:02:09.999Z</time></trkpt><trkpt lat="44.99617423983598" lon="7.5209470256101785"><ele>275.0</ele><time>2026-03-29T10:02:10.999Z</time></trkpt><trkpt lat="44.99596930044135" lon="7.52101747676385"><ele>275.0</ele><time>2026-03-29T10:02:11.999Z</time></trkpt><trkpt lat="44.99577601442683" lon="7.521098423795142"><ele>275.0</ele><time>2026-03-29T10:02:12.999Z</time></trkpt><trkpt lat="44.99558690693102" lon="7.521184697596751"><ele>275.33333333333337</ele><time>2026-03-29T10:02:13.999Z</time></trkpt><trkpt lat="44.99540850039964" lon="7.521273832729819"><ele>275.6666666666667</ele><time>2026-03-29T10:02:14.999Z</time></trkpt><trkpt lat="44.995241795528024" lon="7.521363297149257"><ele>276.0</ele><time>2026-03-29T10:02:15.999Z</time></trkpt><trkpt lat="44.995093128453696" lon="7.521442465659159"><ele>276.6666666666667</ele><time>2026-03-29T10:02:16.999Z</time></trkpt><trkpt lat="44.9949517985272" lon="7.521530775827139"><ele>277.33333333333337</ele><time>2026-03-29T10:02:17.999Z</time></trkpt><trkpt lat="44.99481379387964" lon="7.521627060033525"><ele>278.0</ele><time>2026-03-29T10:02:18.999Z</time></trkpt><trkpt lat="44.99464365374398" lon="7.521773678396545"><ele>278.0</ele><time>2026-03-29T10:02:19.999Z</time></trkpt><trkpt lat="44.99451861300498" lon="7.521906531266559"><ele>278.0</ele><time>2026-03-29T10:02:20.999Z</time></trkpt><trkpt lat="44.99439789341721" lon="7.5220503051732654"><ele>278.0</ele><time>2026-03-29T10:02:21.999Z</time></trkpt><trkpt lat="44.99428962459147" lon="7.522203060019521"><ele>276.33333333333337</ele><time>2026-03-29T10:02:22.999Z</time></trkpt><trkpt lat="44.99419524515623" lon="7.522377051273792"><ele>274.6666666666667</ele><time>2026-03-29T10:02:23.999Z</time></trkpt><trkpt lat="44.99411918072415" lon="7.522568128629966"><ele>273.0</ele><time>2026-03-29T10:02:24.999Z</time></trkpt><trkpt lat="44.99407500375861" lon="7.5227703760788645"><ele>272.6666666666667</ele><time>2026-03-29T10:02:25.999Z</time></trkpt><trkpt lat="44.99406068349526" lon="7.522980670698375"><ele>272.33333333333337</ele><time>2026-03-29T10:02:26.999Z</time></trkpt><trkpt lat="44.994075080097105" lon="7.5231987973301955"><ele>272.0</ele><time>2026-03-29T10:02:27.999Z</time></trkpt><trkpt lat="44.99411719888118" lon="7.5234116545487835"><ele>271.6666666666667</ele><time>2026-03-29T10:02:28.999Z</time></trkpt><trkpt lat="44.99419377164848" lon="7.52362142865036"><ele>271.3333333333333</ele><time>2026-03-29T10:02:29.999Z</time></trkpt><trkpt lat="44.994303083085526" lon="7.523810712142725"><ele>271.0</ele><time>2026-03-29T10:02:30.999Z</time></trkpt><trkpt lat="44.9944380046774" lon="7.523967855836822"><ele>271.0</ele><time>2026-03-29T10:02:31.999Z</time></trkpt><trkpt lat="44.99459233471165" lon="7.524089684526155"><ele>271.0</ele><time>2026-03-29T10:02:32.999Z</time></trkpt><trkpt lat="44.99479232343325" lon="7.524093389060281"><ele>271.0</ele><time>2026-03-29T10:02:33.999Z</time></trkpt><trkpt lat="44.99496207695255" lon="7.5241948389897075"><ele>271.3333333333333</ele><time>2026-03-29T10:02:34.999Z</time></trkpt><trkpt lat="44.99512919248119" lon="7.524279770306816"><ele>271.6666666666667</ele><time>2026-03-29T10:02:35.999Z</time></trkpt><trkpt lat="44.995302049321" lon="7.524336883904098"><ele>272.0</ele><time>2026-03-29T10:02:36.999Z</time></trkpt><trkpt lat="44.995456742149415" lon="7.524421107402254"><ele>272.0</ele><time>2026-03-29T10:02:37.999Z</time></trkpt><trkpt lat="44.995601004380525" lon="7.524540364804962"><ele>272.0</ele><time>2026-03-29T10:02:38.999Z</time></trkpt><trkpt lat="44.99573971072471" lon="7.524686225710012"><ele>272.0</ele><time>2026-03-29T10:02:39.999Z</time></trkpt><trkpt lat="44.99587455677606" lon="7.5248517933499315"><ele>272.0</ele><time>2026-03-29T10:02:40.999Z</time></trkpt><trkpt lat="44.99600123564593" lon="7.525039648678988"><ele>272.0</ele><time>2026-03-29T10:02:41.999Z</time></trkpt><trkpt lat="44.99611233471445" lon="7.525242964684388"><ele>272.0</ele><time>2026-03-29T10:02:42.999Z</time></trkpt><trkpt lat="44.996208443797464" lon="7.5254645862572564"><ele>272.6666666666667</ele><time>2026-03-29T10:02:43.999Z</time></trkpt><trkpt lat="44.99629625890245" lon="7.525693106579921"><ele>273.3333333333333</ele><time>2026-03-29T10:02:44.999Z</time></trkpt><trkpt lat="44.996375757120376" lon="7.525912262250218"><ele>274.0</ele><time>2026-03-29T10:02:45.999Z</time></trkpt><trkpt lat="44.996442096470105" lon="7.526127047223698"><ele>274.3333333333333</ele><time>2026-03-29T10:02:46.999Z</time></trkpt><trkpt lat="44.996481155481774" lon="7.526347258530294"><ele>274.6666666666667</ele><time>2026-03-29T10:02:47.999Z</time></trkpt><trkpt lat="44.996498932090496" lon="7.526572065450229"><ele>275.0</ele><time>2026-03-29T10:02:48.999Z</time></trkpt><trkpt lat="44.99654918997033" lon="7.5267754952604955"><ele>275.0</ele><time>2026-03-29T10:02:49.999Z</time></trkpt><trkpt lat="44.99649531772415" lon="7.52704516305432"><ele>275.0</ele><time>2026-03-29T10:02:50.999Z</time></trkpt><trkpt lat="44.99649520204188" lon="7.527308443318257"><ele>275.0</ele><time>2026-03-29T10:02:51.999Z</time></trkpt><trkpt lat="44.99650267868269" lon="7.527595960783076"><ele>272.5</ele><time>2026-03-29T10:02:52.999Z</time></trkpt><trkpt lat="44.99648282998789" lon="7.527918510124868"><ele>270.0</ele><time>2026-03-29T10:02:53.999Z</time></trkpt><trkpt lat="44.996468104831536" lon="7.528260213773867"><ele>270.0</ele><time>2026-03-29T10:02:54.999Z</time></trkpt><trkpt lat="44.99641407520705" lon="7.528611232111601"><ele>270.0</ele><time>2026-03-29T10:02:55.999Z</time></trkpt><trkpt lat="44.9963731658175" lon="7.52897780339426"><ele>270.0</ele><time>2026-03-29T10:02:56.999Z</time></trkpt><trkpt lat="44.99634839347391" lon="7.529348337676777"><ele>270.0</ele><time>2026-03-29T10:02:57.999Z</time></trkpt><trkpt lat="44.99632287609521" lon="7.529698853879906"><ele>270.0</ele><time>2026-03-29T10:02:58.999Z</time></trkpt><trkpt lat="44.99629461561604" lon="7.530020116969552"><ele>270.0</ele><time>2026-03-29T10:03:00Z</time></trkpt><trkpt lat="44.99626961931859" lon="7.530323663574405"><ele>270.0</ele><time>2026-03-29T10:03:01Z</time></trkpt><trkpt lat="44.996247520732034" lon="7.530609881622398"><ele>270.3333333333333</ele><time>2026-03-29T10:03:02Z</time></trkpt><trkpt lat="44.996226373916215" lon="7.530881813969784"><ele>270.66666666666663</ele><time>2026-03-29T10:03:03Z</time></trkpt><trkpt lat="44.996201368240094" lon="7.531130377604788"><ele>271.0</ele><time>2026-03-29T10:03:04Z</time></trkpt><trkpt lat="44.996174706370056" lon="7.531350259284404"><ele>271.0</ele><time>2026-03-29T10:03:05Z</time></trkpt><trkpt lat="44.996155263649335" lon="7.531534736109092"><ele>271.0</ele><time>2026-03-29T10:03:06Z</time></trkpt><trkpt lat="44.996131867740495" lon="7.531670839152744"><ele>271.0</ele><time>2026-03-29T10:03:07Z</time></trkpt><trkpt lat="44.996105086462" lon="7.5317587434940565"><ele>271.0</ele><time>2026-03-29T10:03:08Z</time></trkpt><trkpt lat="44.99607599712895" lon="7.531840524121516"><ele>271.0</ele><time>2026-03-29T10:03:09Z</time></trkpt><trkpt lat="44.99601915331844" lon="7.531914131581606"><ele>271.0</ele><time>2026-03-29T10:03:10Z</time></trkpt><trkpt lat="44.99590331012957" lon="7.531832808790072"><ele>270.75</ele><time>2026-03-29T10:03:11Z</time></trkpt><trkpt lat="44.99579122576734" lon="7.5318202485219174"><ele>270.5</ele><time>2026-03-29T10:03:12Z</time></trkpt><trkpt lat="44.99565477911723" lon="7.53175749648349"><ele>270.25</ele><time>2026-03-29T10:03:13Z</time></trkpt><trkpt lat="44.99550438597151" lon="7.531680737775909"><ele>270.0</ele><time>2026-03-29T10:03:14Z</time></trkpt><trkpt lat="44.99533064074452" lon="7.531599386745898"><ele>270.0</ele><time>2026-03-29T10:03:15Z</time></trkpt><trkpt lat="44.99512060837313" lon="7.531503906800195"><ele>270.0</ele><time>2026-03-29T10:03:16Z</time></trkpt><trkpt lat="44.994902253302016" lon="7.53139510438215"><ele>269.5</ele><time>2026-03-29T10:03:17Z</time></trkpt><trkpt lat="44.99467118880684" lon="7.531271733504021"><ele>269.0</ele><time>2026-03-29T10:03:18Z</time></trkpt><trkpt lat="44.99442322532549" lon="7.531158110748276"><ele>269.5</ele><time>2026-03-29T10:03:19Z</time></trkpt><trkpt lat="44.99415112179292" lon="7.531073920624419"><ele>270.0</ele><time>2026-03-29T10:03:20Z</time></trkpt><trkpt lat="44.993911657035696" lon="7.530977766194269"><ele>270.0</ele><time>2026-03-29T10:03:21Z</time></trkpt><trkpt lat="44.99368343899603" lon="7.530918631320714"><ele>270.0</ele><time>2026-03-29T10:03:22Z</time></trkpt><trkpt lat="44.993468013141594" lon="7.530887356017839"><ele>270.0</ele><time>2026-03-29T10:03:23Z</time></trkpt><trkpt lat="44.993261649882044" lon="7.530874466930796"><ele>269.3333333333333</ele><time>2026-03-29T10:03:24Z</time></trkpt><trkpt lat="44.993066238452506" lon="7.5308725669870755"><ele>268.66666666666663</ele><time>2026-03-29T10:03:25Z</time></trkpt><trkpt lat="44.99287733115449" lon="7.5308794991413155"><ele>268.0</ele><time>2026-03-29T10:03:26Z</time></trkpt><trkpt lat="44.99269349154001" lon="7.530885511036273"><ele>268.0</ele><time>2026-03-29T10:03:27Z</time></trkpt><trkpt lat="44.99252156383973" lon="7.530883035931095"><ele>268.0</ele><time>2026-03-29T10:03:28Z</time></trkpt><trkpt lat="44.99235997755704" lon="7.530877107101639"><ele>268.0</ele><time>2026-03-29T10:03:29Z</time></trkpt><trkpt lat="44.992218723073194" lon="7.5308737688844065"><ele>268.0</ele><time>2026-03-29T10:03:30Z</time></trkpt><trkpt lat="44.99209884761907" lon="7.530877265872961"><ele>268.0</ele><time>2026-03-29T10:03:31Z</time></trkpt><trkpt lat="44.991993859385296" lon="7.530883041453875"><ele>268.0</ele><time>2026-03-29T10:03:32Z</time></trkpt><trkpt lat="44.99189687753836" lon="7.530886986138287"><ele>268.0</ele><time>2026-03-29T10:03:33Z</time></trkpt><trkpt lat="44.99180746985318" lon="7.530865039519594"><ele>268.0</ele><time>2026-03-29T10:03:34Z</time></trkpt><trkpt lat="44.991729105545886" lon="7.530865039519311"><ele>268.0</ele><time>2026-03-29T10:03:35Z</time></trkpt><trkpt lat="44.991660479098435" lon="7.530865039518694"><ele>268.0</ele><time>2026-03-29T10:03:36Z</time></trkpt><trkpt lat="44.99160279072179" lon="7.531077253292388"><ele>268.0</ele><time>2026-03-29T10:03:37Z</time></trkpt><trkpt lat="44.99155412222056" lon="7.531242319936937"><ele>268.0</ele><time>2026-03-29T10:03:38Z</time></trkpt><trkpt lat="44.99149441214634" lon="7.531443608254889"><ele>268.0</ele><time>2026-03-29T10:03:39Z</time></trkpt><trkpt lat="44.991424653293286" lon="7.5316561921593586"><ele>268.0</ele><time>2026-03-29T10:03:40Z</time></trkpt><trkpt lat="44.991336581635835" lon="7.5318894828747744"><ele>268.0</ele><time>2026-03-29T10:03:41Z</time></trkpt><trkpt lat="44.99123328703125" lon="7.532142817702183"><ele>267.5</ele><time>2026-03-29T10:03:42Z</time></trkpt><trkpt lat="44.99111185677267" lon="7.5324074176730935"><ele>267.0</ele><time>2026-03-29T10:03:43Z</time></trkpt><trkpt lat="44.99097379559906" lon="7.532670893834846"><ele>266.0</ele><time>2026-03-29T10:03:44Z</time></trkpt><trkpt lat="44.99081327717096" lon="7.532932621852957"><ele>265.0</ele><time>2026-03-29T10:03:45Z</time></trkpt><trkpt lat="44.99063880977613" lon="7.533190840444424"><ele>265.0</ele><time>2026-03-29T10:03:46Z</time></trkpt><trkpt lat="44.990456542311016" lon="7.533443571308835"><ele>265.0</ele><time>2026-03-29T10:03:47Z</time></trkpt><trkpt lat="44.99026602581861" lon="7.533697619413737"><ele>265.5</ele><time>2026-03-29T10:03:48Z</time></trkpt><trkpt lat="44.990080241718786" lon="7.53395648683707"><ele>266.0</ele><time>2026-03-29T10:03:49Z</time></trkpt><trkpt lat="44.989900237444324" lon="7.534212934659641"><ele>266.0</ele><time>2026-03-29T10:03:50Z</time></trkpt><trkpt lat="44.98972192351304" lon="7.534466735691454"><ele>266.0</ele><time>2026-03-29T10:03:51Z</time></trkpt><trkpt lat="44.98954382014816" lon="7.534714573024346"><ele>266.0</ele><time>2026-03-29T10:03:52Z</time></trkpt><trkpt lat="44.98936547803287" lon="7.534961347966001"><ele>266.0</ele><time>2026-03-29T10:03:53Z</time></trkpt><trkpt lat="44.989190331938154" lon="7.535206471820381"><ele>265.5</ele><time>2026-03-29T10:03:54Z</time></trkpt><trkpt lat="44.98901417430476" lon="7.535452444547096"><ele>265.0</ele><time>2026-03-29T10:03:54.999Z</time></trkpt><trkpt lat="44.98883803218272" lon="7.535697278396978"><ele>265.0</ele><time>2026-03-29T10:03:55.999Z</time></trkpt><trkpt lat="44.988654819968424" lon="7.535951379761424"><ele>265.0</ele><time>2026-03-29T10:03:56.999Z</time></trkpt><trkpt lat="44.98846749755616" lon="7.536212346831493"><ele>263.5</ele><time>2026-03-29T10:03:57.999Z</time></trkpt><trkpt lat="44.988272060621966" lon="7.536482615104013"><ele>262.0</ele><time>2026-03-29T10:03:58.999Z</time></trkpt><trkpt lat="44.98807016410174" lon="7.53676973588198"><ele>263.0</ele><time>2026-03-29T10:03:59.999Z</time></trkpt><trkpt lat="44.98786526205861" lon="7.5370623580618545"><ele>264.0</ele><time>2026-03-29T10:04:00.999Z</time></trkpt><trkpt lat="44.98765674021614" lon="7.537357386766422"><ele>263.5</ele><time>2026-03-29T10:04:01.999Z</time></trkpt><trkpt lat="44.987446926269804" lon="7.5376572238420945"><ele>263.0</ele><time>2026-03-29T10:04:02.999Z</time></trkpt><trkpt lat="44.98723503602359" lon="7.5379544166966665"><ele>262.5</ele><time>2026-03-29T10:04:03.999Z</time></trkpt><trkpt lat="44.987021048701436" lon="7.538252320447143"><ele>262.0</ele><time>2026-03-29T10:04:04.999Z</time></trkpt><trkpt lat="44.98680690847162" lon="7.538550950626967"><ele>261.5</ele><time>2026-03-29T10:04:05.999Z</time></trkpt><trkpt lat="44.98659191432629" lon="7.5388494817990415"><ele>261.0</ele><time>2026-03-29T10:04:06.999Z</time></trkpt><trkpt lat="44.98638173410062" lon="7.539157121620547"><ele>261.0</ele><time>2026-03-29T10:04:07.999Z</time></trkpt><trkpt lat="44.98618305831862" lon="7.539483968512938"><ele>261.0</ele><time>2026-03-29T10:04:08.999Z</time></trkpt><trkpt lat="44.98599351155115" lon="7.539844133706181"><ele>261.0</ele><time>2026-03-29T10:04:09.999Z</time></trkpt><trkpt lat="44.98580354287802" lon="7.5402230426677335"><ele>261.0</ele><time>2026-03-29T10:04:10.999Z</time></trkpt><trkpt lat="44.98562344018365" lon="7.540595974855772"><ele>261.0</ele><time>2026-03-29T10:04:11.999Z</time></trkpt><trkpt lat="44.9854494475222" lon="7.540958237341247"><ele>261.0</ele><time>2026-03-29T10:04:12.999Z</time></trkpt><trkpt lat="44.98527925648604" lon="7.541309709098176"><ele>260.0</ele><time>2026-03-29T10:04:13.999Z</time></trkpt><trkpt lat="44.9851108170364" lon="7.541652500495211"><ele>259.0</ele><time>2026-03-29T10:04:14.999Z</time></trkpt><trkpt lat="44.984938954470316" lon="7.54199463243396"><ele>259.0</ele><time>2026-03-29T10:04:15.999Z</time></trkpt><trkpt lat="44.984768471860114" lon="7.542342054998211"><ele>259.0</ele><time>2026-03-29T10:04:16.999Z</time></trkpt><trkpt lat="44.984600480552885" lon="7.54268731734681"><ele>259.0</ele><time>2026-03-29T10:04:17.999Z</time></trkpt><trkpt lat="44.98443353114197" lon="7.543033185139751"><ele>259.0</ele><time>2026-03-29T10:04:18.999Z</time></trkpt><trkpt lat="44.98426683513571" lon="7.543378300272115"><ele>259.5</ele><time>2026-03-29T10:04:19.999Z</time></trkpt><trkpt lat="44.98410057652404" lon="7.543722800318387"><ele>260.0</ele><time>2026-03-29T10:04:20.999Z</time></trkpt><trkpt lat="44.98393842311499" lon="7.544062425525625"><ele>260.0</ele><time>2026-03-29T10:04:21.999Z</time></trkpt><trkpt lat="44.98378514058448" lon="7.5444067607697285"><ele>260.0</ele><time>2026-03-29T10:04:22.999Z</time></trkpt><trkpt lat="44.98363782140024" lon="7.544759498658625"><ele>260.0</ele><time>2026-03-29T10:04:23.999Z</time></trkpt><trkpt lat="44.983494848817244" lon="7.545111374920911"><ele>260.0</ele><time>2026-03-29T10:04:24.999Z</time></trkpt><trkpt lat="44.98334730589638" lon="7.545464903311581"><ele>258.5</ele><time>2026-03-29T10:04:25.999Z</time></trkpt><trkpt lat="44.98319983110661" lon="7.545820918451555"><ele>257.0</ele><time>2026-03-29T10:04:26.999Z</time></trkpt><trkpt lat="44.98305313218068" lon="7.546172706713552"><ele>256.5</ele><time>2026-03-29T10:04:27.999Z</time></trkpt><trkpt lat="44.982909376317245" lon="7.54652176975098"><ele>256.0</ele><time>2026-03-29T10:04:28.999Z</time></trkpt><trkpt lat="44.98276757887488" lon="7.546867719694107"><ele>256.0</ele><time>2026-03-29T10:04:29.999Z</time></trkpt><trkpt lat="44.98262824488676" lon="7.5472093863561245"><ele>256.0</ele><time>2026-03-29T10:04:30.999Z</time></trkpt><trkpt lat="44.98249078247203" lon="7.5475439413998835"><ele>256.0</ele><time>2026-03-29T10:04:31.999Z</time></trkpt><trkpt lat="44.98235744502354" lon="7.5478720826508034"><ele>256.0</ele><time>2026-03-29T10:04:32.999Z</time></trkpt><trkpt lat="44.98222525461401" lon="7.54819232674808"><ele>255.5</ele><time>2026-03-29T10:04:33.999Z</time></trkpt><trkpt lat="44.98209990799213" lon="7.548499749581179"><ele>255.0</ele><time>2026-03-29T10:04:34.999Z</time></trkpt><trkpt lat="44.98198162292804" lon="7.548786587249926"><ele>255.66666666666669</ele><time>2026-03-29T10:04:35.999Z</time></trkpt><trkpt lat="44.981869356279155" lon="7.549058903493219"><ele>256.33333333333337</ele><time>2026-03-29T10:04:36.999Z</time></trkpt><trkpt lat="44.98176039715509" lon="7.549315710205686"><ele>257.0</ele><time>2026-03-29T10:04:37.999Z</time></trkpt><trkpt lat="44.981654620458464" lon="7.5495569875673425"><ele>257.33333333333337</ele><time>2026-03-29T10:04:38.999Z</time></trkpt><trkpt lat="44.981551690933294" lon="7.549786531775107"><ele>257.6666666666667</ele><time>2026-03-29T10:04:39.999Z</time></trkpt><trkpt lat="44.98145282523771" lon="7.550003643536846"><ele>258.0</ele><time>2026-03-29T10:04:40.999Z</time></trkpt><trkpt lat="44.981357354003755" lon="7.5502062754324335"><ele>257.6666666666667</ele><time>2026-03-29T10:04:41.999Z</time></trkpt><trkpt lat="44.981263577995776" lon="7.550394561525399"><ele>257.33333333333337</ele><time>2026-03-29T10:04:42.999Z</time></trkpt><trkpt lat="44.98116872267252" lon="7.550567447417067"><ele>257.0</ele><time>2026-03-29T10:04:43.999Z</time></trkpt><trkpt lat="44.98107084478556" lon="7.550717936895815"><ele>257.0</ele><time>2026-03-29T10:04:44.999Z</time></trkpt><trkpt lat="44.98097058581503" lon="7.550841798575897"><ele>257.0</ele><time>2026-03-29T10:04:45.999Z</time></trkpt><trkpt lat="44.980867249216175" lon="7.550950842997414"><ele>257.0</ele><time>2026-03-29T10:04:46.999Z</time></trkpt><trkpt lat="44.98075560962378" lon="7.551051741557858"><ele>257.0</ele><time>2026-03-29T10:04:47.999Z</time></trkpt><trkpt lat="44.98064529419447" lon="7.5511463089159205"><ele>257.25</ele><time>2026-03-29T10:04:48.999Z</time></trkpt><trkpt lat="44.98055043516224" lon="7.551273069450042"><ele>257.5</ele><time>2026-03-29T10:04:49.999Z</time></trkpt><trkpt lat="44.9804169786071" lon="7.551359433874134"><ele>257.75</ele><time>2026-03-29T10:04:50.999Z</time></trkpt><trkpt lat="44.98030153620986" lon="7.551488777433757"><ele>258.0</ele><time>2026-03-29T10:04:51.999Z</time></trkpt><trkpt lat="44.98019649706695" lon="7.551638748637387"><ele>258.0</ele><time>2026-03-29T10:04:52.999Z</time></trkpt><trkpt lat="44.98010014069166" lon="7.551826675152333"><ele>258.0</ele><time>2026-03-29T10:04:53.999Z</time></trkpt><trkpt lat="44.98002630362297" lon="7.552056376230917"><ele>258.0</ele><time>2026-03-29T10:04:54.999Z</time></trkpt><trkpt lat="44.979972435238814" lon="7.552310367517607"><ele>257.3333333333333</ele><time>2026-03-29T10:04:55.999Z</time></trkpt><trkpt lat="44.97998778178633" lon="7.5525452859176045"><ele>256.66666666666663</ele><time>2026-03-29T10:04:56.999Z</time></trkpt><trkpt lat="44.97995430827025" lon="7.552746475965289"><ele>256.0</ele><time>2026-03-29T10:04:57.999Z</time></trkpt><trkpt lat="44.9799367619088" lon="7.5529582094819885"><ele>255.33333333333331</ele><time>2026-03-29T10:04:58.999Z</time></trkpt><trkpt lat="44.97992841951918" lon="7.553179562337014"><ele>254.66666666666669</ele><time>2026-03-29T10:04:59.999Z</time></trkpt><trkpt lat="44.97989410632508" lon="7.553406891562562"><ele>254.0</ele><time>2026-03-29T10:05:00.999Z</time></trkpt><trkpt lat="44.979823399170726" lon="7.5536378118548075"><ele>254.0</ele><time>2026-03-29T10:05:01.999Z</time></trkpt><trkpt lat="44.97972035815701" lon="7.5538834218003075"><ele>254.0</ele><time>2026-03-29T10:05:02.999Z</time></trkpt><trkpt lat="44.97959179290531" lon="7.554151611126222"><ele>254.0</ele><time>2026-03-29T10:05:03.999Z</time></trkpt><trkpt lat="44.97943077011419" lon="7.554438825499752"><ele>253.5</ele><time>2026-03-29T10:05:05Z</time></trkpt><trkpt lat="44.97924989762451" lon="7.554724559859543"><ele>253.0</ele><time>2026-03-29T10:05:06Z</time></trkpt><trkpt lat="44.979058169293445" lon="7.555011414782436"><ele>253.0</ele><time>2026-03-29T10:05:07Z</time></trkpt><trkpt lat="44.97887887799882" lon="7.55530775876948"><ele>253.0</ele><time>2026-03-29T10:05:08Z</time></trkpt><trkpt lat="44.978712114091614" lon="7.555603115880335"><ele>253.0</ele><time>2026-03-29T10:05:09Z</time></trkpt><trkpt lat="44.978551830218734" lon="7.555888223620736"><ele>253.0</ele><time>2026-03-29T10:05:10Z</time></trkpt><trkpt lat="44.978398568270045" lon="7.556153046448947"><ele>253.66666666666666</ele><time>2026-03-29T10:05:11Z</time></trkpt><trkpt lat="44.97825946758458" lon="7.556396256518415"><ele>254.33333333333331</ele><time>2026-03-29T10:05:12Z</time></trkpt><trkpt lat="44.978135496115385" lon="7.55661796537555"><ele>255.0</ele><time>2026-03-29T10:05:13Z</time></trkpt><trkpt lat="44.97801707133149" lon="7.556825398781582"><ele>255.0</ele><time>2026-03-29T10:05:14Z</time></trkpt><trkpt lat="44.9779017044819" lon="7.5570232157691"><ele>255.0</ele><time>2026-03-29T10:05:15Z</time></trkpt><trkpt lat="44.97779052634311" lon="7.557209757596165"><ele>255.0</ele><time>2026-03-29T10:05:16Z</time></trkpt><trkpt lat="44.9776844384756" lon="7.557388845748127"><ele>255.33333333333331</ele><time>2026-03-29T10:05:17Z</time></trkpt><trkpt lat="44.977577117749405" lon="7.557572797867043"><ele>255.66666666666666</ele><time>2026-03-29T10:05:18Z</time></trkpt><trkpt lat="44.977466174059714" lon="7.5577646421941"><ele>256.0</ele><time>2026-03-29T10:05:19Z</time></trkpt><trkpt lat="44.97735111442445" lon="7.557963056424407"><ele>255.0</ele><time>2026-03-29T10:05:20Z</time></trkpt><trkpt lat="44.97723241140203" lon="7.558162936266306"><ele>254.0</ele><time>2026-03-29T10:05:21Z</time></trkpt><trkpt lat="44.977090402546736" lon="7.558351994965848"><ele>253.0</ele><time>2026-03-29T10:05:22Z</time></trkpt><trkpt lat="44.976941897245155" lon="7.558556833189054"><ele>252.66666666666666</ele><time>2026-03-29T10:05:23Z</time></trkpt><trkpt lat="44.97679599130888" lon="7.55877157123044"><ele>252.33333333333331</ele><time>2026-03-29T10:05:24Z</time></trkpt><trkpt lat="44.97663665381889" lon="7.558959903799063"><ele>252.0</ele><time>2026-03-29T10:05:25Z</time></trkpt><trkpt lat="44.9764678660355" lon="7.5591143127412"><ele>251.0</ele><time>2026-03-29T10:05:26Z</time></trkpt><trkpt lat="44.97628970648743" lon="7.559291918372753"><ele>250.0</ele><time>2026-03-29T10:05:27Z</time></trkpt><trkpt lat="44.976075758736286" lon="7.5594963598492"><ele>251.5</ele><time>2026-03-29T10:05:28Z</time></trkpt><trkpt lat="44.97585164727204" lon="7.559711661110102"><ele>253.0</ele><time>2026-03-29T10:05:29Z</time></trkpt><trkpt lat="44.97564232609027" lon="7.559922114961725"><ele>253.0</ele><time>2026-03-29T10:05:30Z</time></trkpt><trkpt lat="44.97544813312841" lon="7.560105756410016"><ele>253.0</ele><time>2026-03-29T10:05:31Z</time></trkpt><trkpt lat="44.97527077971641" lon="7.560289249665645"><ele>254.0</ele><time>2026-03-29T10:05:32Z</time></trkpt><trkpt lat="44.97510206315519" lon="7.560469336757103"><ele>255.0</ele><time>2026-03-29T10:05:33Z</time></trkpt><trkpt lat="44.974941406281516" lon="7.560647744847021"><ele>256.0</ele><time>2026-03-29T10:05:34Z</time></trkpt><trkpt lat="44.97478375806385" lon="7.560838018967597"><ele>256.0</ele><time>2026-03-29T10:05:35Z</time></trkpt><trkpt lat="44.97463301014841" lon="7.561033029640115"><ele>256.0</ele><time>2026-03-29T10:05:36Z</time></trkpt><trkpt lat="44.9744960071513" lon="7.561212490273043"><ele>256.0</ele><time>2026-03-29T10:05:37Z</time></trkpt><trkpt lat="44.97435650172879" lon="7.5613974104104695"><ele>255.66666666666666</ele><time>2026-03-29T10:05:38Z</time></trkpt><trkpt lat="44.97421516140187" lon="7.561584503854972"><ele>255.33333333333331</ele><time>2026-03-29T10:05:39Z</time></trkpt><trkpt lat="44.974079697707545" lon="7.561765860852764"><ele>255.0</ele><time>2026-03-29T10:05:40Z</time></trkpt><trkpt lat="44.973946609252266" lon="7.561948715411861"><ele>256.0</ele><time>2026-03-29T10:05:41Z</time></trkpt><trkpt lat="44.973810991804065" lon="7.562128879467275"><ele>257.0</ele><time>2026-03-29T10:05:42Z</time></trkpt><trkpt lat="44.973666592820955" lon="7.5623086974723055"><ele>258.0</ele><time>2026-03-29T10:05:43Z</time></trkpt><trkpt lat="44.97351676511772" lon="7.562477396237675"><ele>258.0</ele><time>2026-03-29T10:05:44Z</time></trkpt><trkpt lat="44.973360119310875" lon="7.562627222893398"><ele>258.0</ele><time>2026-03-29T10:05:45Z</time></trkpt><trkpt lat="44.973191923168955" lon="7.562759076970422"><ele>258.0</ele><time>2026-03-29T10:05:46Z</time></trkpt><trkpt lat="44.97300596175235" lon="7.562885880974454"><ele>257.0</ele><time>2026-03-29T10:05:47Z</time></trkpt><trkpt lat="44.972791614722716" lon="7.5629918463268435"><ele>256.0</ele><time>2026-03-29T10:05:48Z</time></trkpt><trkpt lat="44.97256900744106" lon="7.563084809632801"><ele>256.0</ele><time>2026-03-29T10:05:49Z</time></trkpt><trkpt lat="44.972326121762705" lon="7.563180641440162"><ele>256.0</ele><time>2026-03-29T10:05:50Z</time></trkpt><trkpt lat="44.972095876425264" lon="7.56322798768383"><ele>256.0</ele><time>2026-03-29T10:05:51Z</time></trkpt><trkpt lat="44.97187222940892" lon="7.563305725190968"><ele>256.0</ele><time>2026-03-29T10:05:52Z</time></trkpt><trkpt lat="44.97164058519195" lon="7.563392375016922"><ele>256.0</ele><time>2026-03-29T10:05:53Z</time></trkpt><trkpt lat="44.97142531723645" lon="7.563466653768325"><ele>256.0</ele><time>2026-03-29T10:05:54Z</time></trkpt><trkpt lat="44.971214662922364" lon="7.563531181402762"><ele>256.0</ele><time>2026-03-29T10:05:55Z</time></trkpt><trkpt lat="44.97101057523411" lon="7.563604307894352"><ele>255.66666666666666</ele><time>2026-03-29T10:05:55.999Z</time></trkpt><trkpt lat="44.97082141525771" lon="7.563710501940459"><ele>255.33333333333331</ele><time>2026-03-29T10:05:56.999Z</time></trkpt><trkpt lat="44.970651484750945" lon="7.563831262972891"><ele>255.0</ele><time>2026-03-29T10:05:57.999Z</time></trkpt><trkpt lat="44.97049237012494" lon="7.563953408873146"><ele>255.0</ele><time>2026-03-29T10:05:58.999Z</time></trkpt><trkpt lat="44.97033348524759" lon="7.56409805646011"><ele>255.0</ele><time>2026-03-29T10:05:59.999Z</time></trkpt><trkpt lat="44.970178980206306" lon="7.564272051686289"><ele>255.0</ele><time>2026-03-29T10:06:00.999Z</time></trkpt><trkpt lat="44.97001440143351" lon="7.564471171742316"><ele>254.5</ele><time>2026-03-29T10:06:01.999Z</time></trkpt><trkpt lat="44.969841765040634" lon="7.564724673883091"><ele>254.0</ele><time>2026-03-29T10:06:02.999Z</time></trkpt><trkpt lat="44.96967498680809" lon="7.565020394714762"><ele>254.0</ele><time>2026-03-29T10:06:03.999Z</time></trkpt><trkpt lat="44.96948285035973" lon="7.565297167927067"><ele>254.0</ele><time>2026-03-29T10:06:04.999Z</time></trkpt><trkpt lat="44.9693559007498" lon="7.565500260945892"><ele>254.0</ele><time>2026-03-29T10:06:05.999Z</time></trkpt><trkpt lat="44.96919985004407" lon="7.565756792137497"><ele>254.0</ele><time>2026-03-29T10:06:06.999Z</time></trkpt><trkpt lat="44.96904586466629" lon="7.565989164729287"><ele>254.0</ele><time>2026-03-29T10:06:07.999Z</time></trkpt><trkpt lat="44.96890262398638" lon="7.566199143062985"><ele>254.0</ele><time>2026-03-29T10:06:08.999Z</time></trkpt><trkpt lat="44.968762532974054" lon="7.566400962512549"><ele>254.0</ele><time>2026-03-29T10:06:09.999Z</time></trkpt><trkpt lat="44.968631024873666" lon="7.566591880091812"><ele>254.0</ele><time>2026-03-29T10:06:10.999Z</time></trkpt><trkpt lat="44.96850875961398" lon="7.566773415761924"><ele>254.0</ele><time>2026-03-29T10:06:11.999Z</time></trkpt><trkpt lat="44.96838890646926" lon="7.5669276556489775"><ele>254.0</ele><time>2026-03-29T10:06:12.999Z</time></trkpt><trkpt lat="44.96826601208111" lon="7.567044281586758"><ele>253.39999999999998</ele><time>2026-03-29T10:06:13.999Z</time></trkpt><trkpt lat="44.96814294538067" lon="7.567067151370791"><ele>252.79999999999998</ele><time>2026-03-29T10:06:14.999Z</time></trkpt><trkpt lat="44.9680646964922" lon="7.567151677153634"><ele>252.20000000000002</ele><time>2026-03-29T10:06:15.999Z</time></trkpt><trkpt lat="44.96801037471874" lon="7.567252416961318"><ele>251.60000000000002</ele><time>2026-03-29T10:06:16.999Z</time></trkpt><trkpt lat="44.96801886764108" lon="7.5674197447615486"><ele>251.0</ele><time>2026-03-29T10:06:17.999Z</time></trkpt><trkpt lat="44.96795741416697" lon="7.567611448604904"><ele>251.0</ele><time>2026-03-29T10:06:18.999Z</time></trkpt><trkpt lat="44.96784298662239" lon="7.567812535135658"><ele>251.0</ele><time>2026-03-29T10:06:19.999Z</time></trkpt><trkpt lat="44.96773564604586" lon="7.568045555025783"><ele>251.0</ele><time>2026-03-29T10:06:20.999Z</time></trkpt><trkpt lat="44.9675992325283" lon="7.568276012960713"><ele>250.33333333333334</ele><time>2026-03-29T10:06:21.999Z</time></trkpt><trkpt lat="44.967473126236285" lon="7.5684962929360795"><ele>249.66666666666669</ele><time>2026-03-29T10:06:22.999Z</time></trkpt><trkpt lat="44.96734614774384" lon="7.5687150983406974"><ele>249.0</ele><time>2026-03-29T10:06:23.999Z</time></trkpt><trkpt lat="44.96721740262254" lon="7.568938343918429"><ele>250.33333333333331</ele><time>2026-03-29T10:06:24.999Z</time></trkpt><trkpt lat="44.96708768009132" lon="7.569159163220659"><ele>251.66666666666666</ele><time>2026-03-29T10:06:25.999Z</time></trkpt><trkpt lat="44.966954878449805" lon="7.569377399740582"><ele>253.0</ele><time>2026-03-29T10:06:26.999Z</time></trkpt><trkpt lat="44.96681986410312" lon="7.569592916878172"><ele>252.0</ele><time>2026-03-29T10:06:27.999Z</time></trkpt><trkpt lat="44.966692266627014" lon="7.569801926730962"><ele>251.0</ele><time>2026-03-29T10:06:28.999Z</time></trkpt><trkpt lat="44.966569156372124" lon="7.570004602298781"><ele>250.0</ele><time>2026-03-29T10:06:29.999Z</time></trkpt><trkpt lat="44.966447767397355" lon="7.570197505765038"><ele>249.33333333333331</ele><time>2026-03-29T10:06:30.999Z</time></trkpt><trkpt lat="44.96631569285422" lon="7.570409681879672"><ele>248.66666666666669</ele><time>2026-03-29T10:06:31.999Z</time></trkpt><trkpt lat="44.966167782646856" lon="7.570646343415018"><ele>248.0</ele><time>2026-03-29T10:06:32.999Z</time></trkpt><trkpt lat="44.96602416561448" lon="7.570861717251089"><ele>248.0</ele><time>2026-03-29T10:06:33.999Z</time></trkpt><trkpt lat="44.96588967925507" lon="7.571055294540725"><ele>248.0</ele><time>2026-03-29T10:06:34.999Z</time></trkpt><trkpt lat="44.96575900502831" lon="7.571235854516822"><ele>248.0</ele><time>2026-03-29T10:06:35.999Z</time></trkpt><trkpt lat="44.9656326575977" lon="7.57143263930044"><ele>248.0</ele><time>2026-03-29T10:06:36.999Z</time></trkpt><trkpt lat="44.96551842306984" lon="7.571624494732445"><ele>248.0</ele><time>2026-03-29T10:06:37.999Z</time></trkpt><trkpt lat="44.965409250314494" lon="7.571827159322056"><ele>248.0</ele><time>2026-03-29T10:06:38.999Z</time></trkpt><trkpt lat="44.96529941374805" lon="7.572036009816642"><ele>247.33333333333334</ele><time>2026-03-29T10:06:39.999Z</time></trkpt><trkpt lat="44.96518324797049" lon="7.572231974278305"><ele>246.66666666666669</ele><time>2026-03-29T10:06:40.999Z</time></trkpt><trkpt lat="44.965062331775705" lon="7.572418254384338"><ele>246.0</ele><time>2026-03-29T10:06:41.999Z</time></trkpt><trkpt lat="44.96493241366703" lon="7.572613433107297"><ele>246.0</ele><time>2026-03-29T10:06:42.999Z</time></trkpt><trkpt lat="44.96479844777425" lon="7.572826540198225"><ele>246.0</ele><time>2026-03-29T10:06:43.999Z</time></trkpt><trkpt lat="44.96466428257729" lon="7.573053734534145"><ele>246.0</ele><time>2026-03-29T10:06:44.999Z</time></trkpt><trkpt lat="44.96452127092516" lon="7.573286096867791"><ele>246.5</ele><time>2026-03-29T10:06:45.999Z</time></trkpt><trkpt lat="44.96435700094367" lon="7.573564652619674"><ele>247.0</ele><time>2026-03-29T10:06:46.999Z</time></trkpt><trkpt lat="44.96416626858141" lon="7.573838785945436"><ele>247.0</ele><time>2026-03-29T10:06:47.999Z</time></trkpt><trkpt lat="44.96399145093882" lon="7.574118227048555"><ele>247.0</ele><time>2026-03-29T10:06:48.999Z</time></trkpt><trkpt lat="44.96383620894683" lon="7.574377179074938"><ele>247.0</ele><time>2026-03-29T10:06:49.999Z</time></trkpt><trkpt lat="44.963683966927064" lon="7.574600896709423"><ele>247.0</ele><time>2026-03-29T10:06:50.999Z</time></trkpt><trkpt lat="44.96354849269833" lon="7.574816926184377"><ele>247.0</ele><time>2026-03-29T10:06:51.999Z</time></trkpt><trkpt lat="44.96342166980281" lon="7.5750277159494805"><ele>246.0</ele><time>2026-03-29T10:06:52.999Z</time></trkpt><trkpt lat="44.963300781092215" lon="7.575222060712051"><ele>245.0</ele><time>2026-03-29T10:06:53.999Z</time></trkpt><trkpt lat="44.96318306809107" lon="7.575413489404472"><ele>244.0</ele><time>2026-03-29T10:06:54.999Z</time></trkpt><trkpt lat="44.96307384527278" lon="7.5755912091788415"><ele>244.0</ele><time>2026-03-29T10:06:55.999Z</time></trkpt><trkpt lat="44.96297165130843" lon="7.575755109276534"><ele>244.0</ele><time>2026-03-29T10:06:56.999Z</time></trkpt><trkpt lat="44.962877683589014" lon="7.575904316559007"><ele>244.0</ele><time>2026-03-29T10:06:57.999Z</time></trkpt><trkpt lat="44.96279319937947" lon="7.576042280666406"><ele>244.0</ele><time>2026-03-29T10:06:58.999Z</time></trkpt><trkpt lat="44.96272190216789" lon="7.576163044085888"><ele>243.6</ele><time>2026-03-29T10:06:59.999Z</time></trkpt><trkpt lat="44.96265260999548" lon="7.576265994495013"><ele>243.2</ele><time>2026-03-29T10:07:00.999Z</time></trkpt><trkpt lat="44.962573680051136" lon="7.576335095148752"><ele>242.79999999999998</ele><time>2026-03-29T10:07:01.999Z</time></trkpt><trkpt lat="44.96252127331133" lon="7.576396581567423"><ele>242.39999999999998</ele><time>2026-03-29T10:07:02.999Z</time></trkpt><trkpt lat="44.96238645571886" lon="7.576345523756598"><ele>242.0</ele><time>2026-03-29T10:07:03.999Z</time></trkpt><trkpt lat="44.96229379406738" lon="7.576336122298044"><ele>242.0</ele><time>2026-03-29T10:07:04.999Z</time></trkpt><trkpt lat="44.962212141376284" lon="7.576343803887349"><ele>241.99999999999997</ele><time>2026-03-29T10:07:05.999Z</time></trkpt><trkpt lat="44.96213851962988" lon="7.576368190002729"><ele>242.0</ele><time>2026-03-29T10:07:06.999Z</time></trkpt><trkpt lat="44.962072480259714" lon="7.576406595036448"><ele>242.0</ele><time>2026-03-29T10:07:07.999Z</time></trkpt><trkpt lat="44.962016762717745" lon="7.576457593208223"><ele>241.99999999999997</ele><time>2026-03-29T10:07:08.999Z</time></trkpt><trkpt lat="44.961965409610926" lon="7.576532178994552"><ele>242.0</ele><time>2026-03-29T10:07:09.999Z</time></trkpt><trkpt lat="44.96192027995134" lon="7.576611055212226"><ele>242.0</ele><time>2026-03-29T10:07:11Z</time></trkpt><trkpt lat="44.96188004749198" lon="7.576684309764754"><ele>242.0</ele><time>2026-03-29T10:07:12Z</time></trkpt><trkpt lat="44.96184381855831" lon="7.576852825287391"><ele>242.0</ele><time>2026-03-29T10:07:14Z</time></trkpt><trkpt lat="44.96167299432323" lon="7.576840686179973"><ele>242.0</ele><time>2026-03-29T10:07:15Z</time></trkpt><trkpt lat="44.9615673955707" lon="7.576812855865293"><ele>242.0</ele><time>2026-03-29T10:07:16Z</time></trkpt><trkpt lat="44.961445737104846" lon="7.5767990482598195"><ele>242.0</ele><time>2026-03-29T10:07:17Z</time></trkpt><trkpt lat="44.96130846779763" lon="7.576800114147132"><ele>242.0</ele><time>2026-03-29T10:07:18Z</time></trkpt><trkpt lat="44.96117747331402" lon="7.576793251490119"><ele>242.0</ele><time>2026-03-29T10:07:19Z</time></trkpt><trkpt lat="44.961051602879756" lon="7.576816515497428"><ele>242.0</ele><time>2026-03-29T10:07:20Z</time></trkpt><trkpt lat="44.9609320287399" lon="7.576874204446485"><ele>242.0</ele><time>2026-03-29T10:07:21Z</time></trkpt><trkpt lat="44.96081522804603" lon="7.576962596219929"><ele>242.0</ele><time>2026-03-29T10:07:22Z</time></trkpt><trkpt lat="44.96069829005645" lon="7.577076463631685"><ele>242.0</ele><time>2026-03-29T10:07:23Z</time></trkpt><trkpt lat="44.96057772242981" lon="7.5772138923191905"><ele>242.0</ele><time>2026-03-29T10:07:24Z</time></trkpt><trkpt lat="44.960462630133335" lon="7.577376346390773"><ele>242.0</ele><time>2026-03-29T10:07:25Z</time></trkpt><trkpt lat="44.960350783411066" lon="7.577579756699743"><ele>242.0</ele><time>2026-03-29T10:07:26Z</time></trkpt><trkpt lat="44.96025863239947" lon="7.577792358101898"><ele>242.0</ele><time>2026-03-29T10:07:27Z</time></trkpt><trkpt lat="44.96017817052783" lon="7.578006778743997"><ele>242.0</ele><time>2026-03-29T10:07:28Z</time></trkpt><trkpt lat="44.960094810804485" lon="7.578224531247732"><ele>242.0</ele><time>2026-03-29T10:07:29Z</time></trkpt><trkpt lat="44.95999740822233" lon="7.578453635904109"><ele>242.0</ele><time>2026-03-29T10:07:30Z</time></trkpt><trkpt lat="44.9598858903373" lon="7.578705102280951"><ele>242.0</ele><time>2026-03-29T10:07:31Z</time></trkpt><trkpt lat="44.95974933747037" lon="7.578975135427973"><ele>242.0</ele><time>2026-03-29T10:07:32Z</time></trkpt><trkpt lat="44.95961779111508" lon="7.579270857233365"><ele>241.0</ele><time>2026-03-29T10:07:33Z</time></trkpt><trkpt lat="44.95948219677341" lon="7.579580482138093"><ele>240.0</ele><time>2026-03-29T10:07:34Z</time></trkpt><trkpt lat="44.959338097253344" lon="7.579906186335816"><ele>240.0</ele><time>2026-03-29T10:07:35Z</time></trkpt><trkpt lat="44.95920355131982" lon="7.580222275162827"><ele>240.0</ele><time>2026-03-29T10:07:36Z</time></trkpt><trkpt lat="44.95902523178583" lon="7.580493742582237"><ele>241.0</ele><time>2026-03-29T10:07:37Z</time></trkpt><trkpt lat="44.958842269519025" lon="7.58079321567152"><ele>242.0</ele><time>2026-03-29T10:07:38Z</time></trkpt><trkpt lat="44.95862405389224" lon="7.581058752730802"><ele>241.5</ele><time>2026-03-29T10:07:39Z</time></trkpt><trkpt lat="44.95838408065998" lon="7.581311116849068"><ele>241.0</ele><time>2026-03-29T10:07:40Z</time></trkpt><trkpt lat="44.95811847791132" lon="7.5815439113022505"><ele>240.5</ele><time>2026-03-29T10:07:41Z</time></trkpt><trkpt lat="44.95785100464387" lon="7.58173589700242"><ele>240.0</ele><time>2026-03-29T10:07:42Z</time></trkpt><trkpt lat="44.95759519462511" lon="7.5818919300131675"><ele>240.0</ele><time>2026-03-29T10:07:43Z</time></trkpt><trkpt lat="44.957329219286144" lon="7.582038847122367"><ele>240.0</ele><time>2026-03-29T10:07:44Z</time></trkpt><trkpt lat="44.957064580836686" lon="7.582181854737027"><ele>240.0</ele><time>2026-03-29T10:07:45Z</time></trkpt><trkpt lat="44.956830035790325" lon="7.582307293146695"><ele>240.0</ele><time>2026-03-29T10:07:46Z</time></trkpt><trkpt lat="44.956620623294526" lon="7.5824213831158165"><ele>240.0</ele><time>2026-03-29T10:07:47Z</time></trkpt><trkpt lat="44.956432291816455" lon="7.582525393355284"><ele>240.0</ele><time>2026-03-29T10:07:48Z</time></trkpt><trkpt lat="44.956261272175595" lon="7.58262065369669"><ele>240.0</ele><time>2026-03-29T10:07:49Z</time></trkpt><trkpt lat="44.95609468753767" lon="7.582710256712764"><ele>240.0</ele><time>2026-03-29T10:07:50Z</time></trkpt><trkpt lat="44.955928087109555" lon="7.582798540354357"><ele>240.0</ele><time>2026-03-29T10:07:51Z</time></trkpt><trkpt lat="44.95576963877204" lon="7.582885890593736"><ele>240.0</ele><time>2026-03-29T10:07:52Z</time></trkpt><trkpt lat="44.95561625517205" lon="7.582971986698405"><ele>240.0</ele><time>2026-03-29T10:07:53Z</time></trkpt><trkpt lat="44.95547071789172" lon="7.583062307357993"><ele>240.0</ele><time>2026-03-29T10:07:54Z</time></trkpt><trkpt lat="44.955330938893006" lon="7.583159286196834"><ele>240.0</ele><time>2026-03-29T10:07:54.999Z</time></trkpt><trkpt lat="44.95519854471779" lon="7.583266091362755"><ele>240.0</ele><time>2026-03-29T10:07:55.999Z</time></trkpt><trkpt lat="44.955070886085785" lon="7.583400341436714"><ele>240.0</ele><time>2026-03-29T10:07:56.999Z</time></trkpt><trkpt lat="44.95495688909049" lon="7.583538920403717"><ele>240.0</ele><time>2026-03-29T10:07:57.999Z</time></trkpt><trkpt lat="44.95485535634453" lon="7.583667386622364"><ele>240.0</ele><time>2026-03-29T10:07:58.999Z</time></trkpt><trkpt lat="44.95475718283011" lon="7.5837830380962234"><ele>239.4</ele><time>2026-03-29T10:07:59.999Z</time></trkpt><trkpt lat="44.95466550794332" lon="7.583883588096446"><ele>238.8</ele><time>2026-03-29T10:08:00.999Z</time></trkpt><trkpt lat="44.95457860802234" lon="7.583972502221211"><ele>238.2</ele><time>2026-03-29T10:08:01.999Z</time></trkpt><trkpt lat="44.954503839101775" lon="7.584043718045549"><ele>237.6</ele><time>2026-03-29T10:08:02.999Z</time></trkpt><trkpt lat="44.9544331082575" lon="7.584099421204999"><ele>237.0</ele><time>2026-03-29T10:08:03.999Z</time></trkpt><trkpt lat="44.954360040219164" lon="7.584129615258638"><ele>237.0</ele><time>2026-03-29T10:08:04.999Z</time></trkpt><trkpt lat="44.954285787702844" lon="7.584137873156865"><ele>237.0</ele><time>2026-03-29T10:08:05.999Z</time></trkpt><trkpt lat="44.95421001999023" lon="7.584144121815133"><ele>237.0</ele><time>2026-03-29T10:08:06.999Z</time></trkpt><trkpt lat="44.954131254226034" lon="7.58416981312475"><ele>237.0</ele><time>2026-03-29T10:08:07.999Z</time></trkpt><trkpt lat="44.95406559258672" lon="7.584232900201456"><ele>237.0</ele><time>2026-03-29T10:08:08.999Z</time></trkpt><trkpt lat="44.95401296884631" lon="7.584340399695061"><ele>237.0</ele><time>2026-03-29T10:08:09.999Z</time></trkpt><trkpt lat="44.9539649289929" lon="7.584460103899684"><ele>237.6</ele><time>2026-03-29T10:08:10.999Z</time></trkpt><trkpt lat="44.953953184700886" lon="7.584604499065539"><ele>238.2</ele><time>2026-03-29T10:08:11.999Z</time></trkpt><trkpt lat="44.95391708668348" lon="7.5847313821965"><ele>238.8</ele><time>2026-03-29T10:08:12.999Z</time></trkpt><trkpt lat="44.95386144444376" lon="7.584849155638463"><ele>239.4</ele><time>2026-03-29T10:08:13.999Z</time></trkpt><trkpt lat="44.95378219638205" lon="7.584963805479206"><ele>240.0</ele><time>2026-03-29T10:08:14.999Z</time></trkpt><trkpt lat="44.953694904663124" lon="7.585075807756352"><ele>240.0</ele><time>2026-03-29T10:08:15.999Z</time></trkpt><trkpt lat="44.95360671472195" lon="7.585187841622708"><ele>240.0</ele><time>2026-03-29T10:08:16.999Z</time></trkpt><trkpt lat="44.95350908951607" lon="7.585325424430863"><ele>240.0</ele><time>2026-03-29T10:08:17.999Z</time></trkpt><trkpt lat="44.953405337743106" lon="7.585475659083115"><ele>240.0</ele><time>2026-03-29T10:08:18.999Z</time></trkpt><trkpt lat="44.953296702962" lon="7.5856346745766325"><ele>240.33333333333331</ele><time>2026-03-29T10:08:19.999Z</time></trkpt><trkpt lat="44.95318370726864" lon="7.585800903452933"><ele>240.66666666666666</ele><time>2026-03-29T10:08:20.999Z</time></trkpt><trkpt lat="44.95306762519142" lon="7.58598524793605"><ele>241.0</ele><time>2026-03-29T10:08:21.999Z</time></trkpt><trkpt lat="44.95297278569419" lon="7.5861801132634055"><ele>241.0</ele><time>2026-03-29T10:08:22.999Z</time></trkpt><trkpt lat="44.952900275522104" lon="7.586384334918786"><ele>241.0</ele><time>2026-03-29T10:08:23.999Z</time></trkpt><trkpt lat="44.95284203913887" lon="7.586610954251084"><ele>241.0</ele><time>2026-03-29T10:08:24.999Z</time></trkpt><trkpt lat="44.952801014773065" lon="7.586859562704322"><ele>240.66666666666666</ele><time>2026-03-29T10:08:25.999Z</time></trkpt><trkpt lat="44.95277386244415" lon="7.587114129162629"><ele>240.33333333333331</ele><time>2026-03-29T10:08:26.999Z</time></trkpt><trkpt lat="44.952759053348665" lon="7.587365970768561"><ele>240.0</ele><time>2026-03-29T10:08:27.999Z</time></trkpt><trkpt lat="44.952761863606824" lon="7.587614770213387"><ele>239.66666666666669</ele><time>2026-03-29T10:08:28.999Z</time></trkpt><trkpt lat="44.952795437007836" lon="7.587869368717044"><ele>239.33333333333334</ele><time>2026-03-29T10:08:29.999Z</time></trkpt><trkpt lat="44.95285163619657" lon="7.588131136187317"><ele>239.0</ele><time>2026-03-29T10:08:30.999Z</time></trkpt><trkpt lat="44.95291940545591" lon="7.588390809692731"><ele>239.0</ele><time>2026-03-29T10:08:31.999Z</time></trkpt><trkpt lat="44.952989167143855" lon="7.588653383052748"><ele>239.0</ele><time>2026-03-29T10:08:32.999Z</time></trkpt><trkpt lat="44.95305897215317" lon="7.588909524588081"><ele>239.0</ele><time>2026-03-29T10:08:33.999Z</time></trkpt><trkpt lat="44.95313254635432" lon="7.58916719506885"><ele>239.0</ele><time>2026-03-29T10:08:34.999Z</time></trkpt><trkpt lat="44.95320467235276" lon="7.58943178926981"><ele>239.0</ele><time>2026-03-29T10:08:35.999Z</time></trkpt><trkpt lat="44.9532745473048" lon="7.589695485689267"><ele>239.0</ele><time>2026-03-29T10:08:36.999Z</time></trkpt><trkpt lat="44.95335445308871" lon="7.589945827463569"><ele>239.66666666666669</ele><time>2026-03-29T10:08:37.999Z</time></trkpt><trkpt lat="44.95345465510088" lon="7.59018709806041"><ele>240.33333333333331</ele><time>2026-03-29T10:08:38.999Z</time></trkpt><trkpt lat="44.95358289366924" lon="7.590437655439587"><ele>241.0</ele><time>2026-03-29T10:08:39.999Z</time></trkpt><trkpt lat="44.953731483632005" lon="7.590699172165739"><ele>241.0</ele><time>2026-03-29T10:08:40.999Z</time></trkpt><trkpt lat="44.95389041430789" lon="7.590964604547188"><ele>241.0</ele><time>2026-03-29T10:08:41.999Z</time></trkpt><trkpt lat="44.95404563523182" lon="7.5912826560861095"><ele>240.0</ele><time>2026-03-29T10:08:42.999Z</time></trkpt><trkpt lat="44.954228515232295" lon="7.59161419067129"><ele>239.0</ele><time>2026-03-29T10:08:43.999Z</time></trkpt><trkpt lat="44.954408248067814" lon="7.591939074689985"><ele>239.0</ele><time>2026-03-29T10:08:44.999Z</time></trkpt><trkpt lat="44.954577786952996" lon="7.5922379583863835"><ele>239.0</ele><time>2026-03-29T10:08:45.999Z</time></trkpt><trkpt lat="44.95471163849342" lon="7.592537062644666"><ele>239.0</ele><time>2026-03-29T10:08:46.999Z</time></trkpt><trkpt lat="44.95482489792302" lon="7.5928312776575355"><ele>239.0</ele><time>2026-03-29T10:08:47.999Z</time></trkpt><trkpt lat="44.954892562399685" lon="7.593149302285342"><ele>240.0</ele><time>2026-03-29T10:08:48.999Z</time></trkpt><trkpt lat="44.954918212098285" lon="7.5934891321947715"><ele>241.0</ele><time>2026-03-29T10:08:49.999Z</time></trkpt><trkpt lat="44.95488722391611" lon="7.593837466022544"><ele>239.0</ele><time>2026-03-29T10:08:50.999Z</time></trkpt><trkpt lat="44.954827910798926" lon="7.594170535484496"><ele>237.0</ele><time>2026-03-29T10:08:51.999Z</time></trkpt><trkpt lat="44.95474440966484" lon="7.594502119699337"><ele>236.5</ele><time>2026-03-29T10:08:52.999Z</time></trkpt><trkpt lat="44.954671252708685" lon="7.594849184284209"><ele>236.0</ele><time>2026-03-29T10:08:53.999Z</time></trkpt><trkpt lat="44.954582825046465" lon="7.5951772876490775"><ele>235.66666666666669</ele><time>2026-03-29T10:08:54.999Z</time></trkpt><trkpt lat="44.95450778701517" lon="7.595476715349762"><ele>235.33333333333331</ele><time>2026-03-29T10:08:55.999Z</time></trkpt><trkpt lat="44.954433310790044" lon="7.595748456317877"><ele>235.0</ele><time>2026-03-29T10:08:56.999Z</time></trkpt><trkpt lat="44.95434455586825" lon="7.595994463373447"><ele>236.0</ele><time>2026-03-29T10:08:57.999Z</time></trkpt><trkpt lat="44.9542449428133" lon="7.596215187923636"><ele>237.0</ele><time>2026-03-29T10:08:58.999Z</time></trkpt><trkpt lat="44.95414402608762" lon="7.5964132580753265"><ele>238.0</ele><time>2026-03-29T10:08:59.999Z</time></trkpt><trkpt lat="44.954045907913844" lon="7.596591488692015"><ele>238.0</ele><time>2026-03-29T10:09:00.999Z</time></trkpt><trkpt lat="44.95394536722153" lon="7.596734084942089"><ele>238.0</ele><time>2026-03-29T10:09:01.999Z</time></trkpt><trkpt lat="44.95383663141515" lon="7.596831573605253"><ele>238.0</ele><time>2026-03-29T10:09:02.999Z</time></trkpt><trkpt lat="44.95372793843851" lon="7.596912626353886"><ele>238.0</ele><time>2026-03-29T10:09:03.999Z</time></trkpt><trkpt lat="44.9536831451554" lon="7.59704881186731"><ele>238.0</ele><time>2026-03-29T10:09:04.999Z</time></trkpt><trkpt lat="44.95371259005928" lon="7.597204572953242"><ele>238.0</ele><time>2026-03-29T10:09:05.999Z</time></trkpt><trkpt lat="44.953783275018964" lon="7.5973626122443125"><ele>238.0</ele><time>2026-03-29T10:09:06.999Z</time></trkpt><trkpt lat="44.953778794259215" lon="7.597617874509256"><ele>238.0</ele><time>2026-03-29T10:09:07.999Z</time></trkpt><trkpt lat="44.953728928044214" lon="7.597866168157363"><ele>237.33333333333331</ele><time>2026-03-29T10:09:08.999Z</time></trkpt><trkpt lat="44.95364972988653" lon="7.5981236038561315"><ele>236.66666666666669</ele><time>2026-03-29T10:09:09.999Z</time></trkpt><trkpt lat="44.953524933038494" lon="7.598375538705874"><ele>236.0</ele><time>2026-03-29T10:09:10.999Z</time></trkpt><trkpt lat="44.95335485068676" lon="7.59859966119172"><ele>239.0</ele><time>2026-03-29T10:09:11.999Z</time></trkpt><trkpt lat="44.95316040971481" lon="7.598757600970719"><ele>242.0</ele><time>2026-03-29T10:09:12.999Z</time></trkpt><trkpt lat="44.95293961750977" lon="7.598879398113453"><ele>242.0</ele><time>2026-03-29T10:09:13.999Z</time></trkpt><trkpt lat="44.95269383029517" lon="7.5988915553635925"><ele>242.0</ele><time>2026-03-29T10:09:14.999Z</time></trkpt><trkpt lat="44.95244825055541" lon="7.598870427727443"><ele>241.5</ele><time>2026-03-29T10:09:16Z</time></trkpt><trkpt lat="44.952224781137126" lon="7.598866807160045"><ele>241.0</ele><time>2026-03-29T10:09:17Z</time></trkpt><trkpt lat="44.951999663491854" lon="7.598935219845337"><ele>241.0</ele><time>2026-03-29T10:09:18Z</time></trkpt><trkpt lat="44.95176201026657" lon="7.599070230515081"><ele>241.0</ele><time>2026-03-29T10:09:19Z</time></trkpt><trkpt lat="44.9515083830363" lon="7.5992409962206"><ele>240.0</ele><time>2026-03-29T10:09:20Z</time></trkpt><trkpt lat="44.95123703428228" lon="7.5994234303479615"><ele>239.0</ele><time>2026-03-29T10:09:21Z</time></trkpt><trkpt lat="44.950944325138536" lon="7.5996124998580585"><ele>237.0</ele><time>2026-03-29T10:09:22Z</time></trkpt><trkpt lat="44.95063695678031" lon="7.599816389874548"><ele>235.0</ele><time>2026-03-29T10:09:23Z</time></trkpt><trkpt lat="44.950312006808375" lon="7.600030976396666"><ele>235.0</ele><time>2026-03-29T10:09:24Z</time></trkpt><trkpt lat="44.949977063692806" lon="7.600253456952139"><ele>235.0</ele><time>2026-03-29T10:09:25Z</time></trkpt><trkpt lat="44.949631371800535" lon="7.600484997965641"><ele>235.5</ele><time>2026-03-29T10:09:26Z</time></trkpt><trkpt lat="44.94928923835671" lon="7.600714319172479"><ele>236.0</ele><time>2026-03-29T10:09:27Z</time></trkpt><trkpt lat="44.948948148293326" lon="7.600944045816477"><ele>236.0</ele><time>2026-03-29T10:09:28Z</time></trkpt><trkpt lat="44.94858067108962" lon="7.601194672120175"><ele>236.0</ele><time>2026-03-29T10:09:29Z</time></trkpt><trkpt lat="44.948239191012654" lon="7.6014166606278195"><ele>236.0</ele><time>2026-03-29T10:09:30Z</time></trkpt><trkpt lat="44.94792193325943" lon="7.60162371712867"><ele>236.0</ele><time>2026-03-29T10:09:31Z</time></trkpt><trkpt lat="44.9476059877686" lon="7.601830141962042"><ele>235.0</ele><time>2026-03-29T10:09:32Z</time></trkpt><trkpt lat="44.94729601363188" lon="7.602037571585394"><ele>234.0</ele><time>2026-03-29T10:09:33Z</time></trkpt><trkpt lat="44.946992308910644" lon="7.602236449769238"><ele>234.0</ele><time>2026-03-29T10:09:34Z</time></trkpt><trkpt lat="44.94669305256861" lon="7.602431221393417"><ele>234.0</ele><time>2026-03-29T10:09:35Z</time></trkpt><trkpt lat="44.94640192785877" lon="7.602622774619153"><ele>234.0</ele><time>2026-03-29T10:09:36Z</time></trkpt><trkpt lat="44.94611468922589" lon="7.602817232098414"><ele>234.0</ele><time>2026-03-29T10:09:37Z</time></trkpt><trkpt lat="44.9458339447317" lon="7.603005438846571"><ele>234.5</ele><time>2026-03-29T10:09:38Z</time></trkpt><trkpt lat="44.945552326492596" lon="7.6031912289734125"><ele>235.0</ele><time>2026-03-29T10:09:39Z</time></trkpt><trkpt lat="44.945269676101404" lon="7.6033797487142065"><ele>235.0</ele><time>2026-03-29T10:09:40Z</time></trkpt><trkpt lat="44.944983356848404" lon="7.6035663748951325"><ele>235.0</ele><time>2026-03-29T10:09:41Z</time></trkpt><trkpt lat="44.94469194963877" lon="7.603755142642698"><ele>235.0</ele><time>2026-03-29T10:09:42Z</time></trkpt><trkpt lat="44.944393153380524" lon="7.603951657387682"><ele>235.0</ele><time>2026-03-29T10:09:43Z</time></trkpt><trkpt lat="44.94409176200444" lon="7.604152705876424"><ele>234.5</ele><time>2026-03-29T10:09:44Z</time></trkpt><trkpt lat="44.94379469017682" lon="7.60435240841344"><ele>234.0</ele><time>2026-03-29T10:09:45Z</time></trkpt><trkpt lat="44.94350704046228" lon="7.60454160961818"><ele>235.0</ele><time>2026-03-29T10:09:46Z</time></trkpt><trkpt lat="44.94322462048136" lon="7.604730687374829"><ele>236.0</ele><time>2026-03-29T10:09:47Z</time></trkpt><trkpt lat="44.942946845503926" lon="7.604902329066906"><ele>236.0</ele><time>2026-03-29T10:09:48Z</time></trkpt><trkpt lat="44.94267223281806" lon="7.605055008345768"><ele>236.0</ele><time>2026-03-29T10:09:49Z</time></trkpt><trkpt lat="44.942411346125844" lon="7.605175438210707"><ele>234.0</ele><time>2026-03-29T10:09:50Z</time></trkpt><trkpt lat="44.94217225460194" lon="7.605263666924784"><ele>232.0</ele><time>2026-03-29T10:09:51Z</time></trkpt><trkpt lat="44.94193709476525" lon="7.605360169797489"><ele>231.5</ele><time>2026-03-29T10:09:52Z</time></trkpt><trkpt lat="44.941713401406645" lon="7.60545581083975"><ele>231.0</ele><time>2026-03-29T10:09:53Z</time></trkpt><trkpt lat="44.94148966918865" lon="7.605551282278408"><ele>231.0</ele><time>2026-03-29T10:09:54Z</time></trkpt><trkpt lat="44.94126986617079" lon="7.605645543372802"><ele>231.0</ele><time>2026-03-29T10:09:55Z</time></trkpt><trkpt lat="44.94105120804947" lon="7.605743597266788"><ele>231.5</ele><time>2026-03-29T10:09:56Z</time></trkpt><trkpt lat="44.940830321428436" lon="7.605838198502109"><ele>232.0</ele><time>2026-03-29T10:09:57Z</time></trkpt><trkpt lat="44.94061029735752" lon="7.605929646625198"><ele>232.0</ele><time>2026-03-29T10:09:58Z</time></trkpt><trkpt lat="44.94039533678916" lon="7.606016190230472"><ele>232.0</ele><time>2026-03-29T10:09:59Z</time></trkpt><trkpt lat="44.94018592643195" lon="7.606106904217646"><ele>232.0</ele><time>2026-03-29T10:09:59.999Z</time></trkpt><trkpt lat="44.93998439020207" lon="7.606216850581662"><ele>232.33333333333331</ele><time>2026-03-29T10:10:00.999Z</time></trkpt><trkpt lat="44.93978740971631" lon="7.60635558792658"><ele>232.66666666666669</ele><time>2026-03-29T10:10:01.999Z</time></trkpt><trkpt lat="44.93959817004772" lon="7.60652677453869"><ele>233.0</ele><time>2026-03-29T10:10:02.999Z</time></trkpt><trkpt lat="44.93941376301685" lon="7.606725022654386"><ele>233.0</ele><time>2026-03-29T10:10:03.999Z</time></trkpt><trkpt lat="44.93923513128777" lon="7.606943301540353"><ele>233.0</ele><time>2026-03-29T10:10:04.999Z</time></trkpt><trkpt lat="44.93906864411676" lon="7.6071775790585985"><ele>232.5</ele><time>2026-03-29T10:10:05.999Z</time></trkpt><trkpt lat="44.938910559111584" lon="7.607430033608598"><ele>232.0</ele><time>2026-03-29T10:10:06.999Z</time></trkpt><trkpt lat="44.93875252241098" lon="7.607683599657814"><ele>232.0</ele><time>2026-03-29T10:10:07.999Z</time></trkpt><trkpt lat="44.938591265615635" lon="7.607935647186304"><ele>232.0</ele><time>2026-03-29T10:10:08.999Z</time></trkpt><trkpt lat="44.93842753920659" lon="7.608189910863439"><ele>232.0</ele><time>2026-03-29T10:10:09.999Z</time></trkpt><trkpt lat="44.93826384580999" lon="7.6084458272024165"><ele>232.0</ele><time>2026-03-29T10:10:10.999Z</time></trkpt><trkpt lat="44.93809938323128" lon="7.608701951934427"><ele>232.0</ele><time>2026-03-29T10:10:11.999Z</time></trkpt><trkpt lat="44.93793597354931" lon="7.608959908901954"><ele>232.0</ele><time>2026-03-29T10:10:12.999Z</time></trkpt><trkpt lat="44.93776990137387" lon="7.609219063012053"><ele>232.0</ele><time>2026-03-29T10:10:13.999Z</time></trkpt><trkpt lat="44.93760381402401" lon="7.609479182026128"><ele>232.0</ele><time>2026-03-29T10:10:14.999Z</time></trkpt><trkpt lat="44.937444199427816" lon="7.609727726975436"><ele>232.33333333333331</ele><time>2026-03-29T10:10:15.999Z</time></trkpt><trkpt lat="44.93729918331782" lon="7.609949683625827"><ele>232.66666666666669</ele><time>2026-03-29T10:10:16.999Z</time></trkpt><trkpt lat="44.93716533396334" lon="7.610151005429923"><ele>233.0</ele><time>2026-03-29T10:10:17.999Z</time></trkpt><trkpt lat="44.937037271218976" lon="7.610344451563665"><ele>233.33333333333334</ele><time>2026-03-29T10:10:18.999Z</time></trkpt><trkpt lat="44.936918038487526" lon="7.610532326247254"><ele>233.66666666666669</ele><time>2026-03-29T10:10:19.999Z</time></trkpt><trkpt lat="44.93680091340575" lon="7.610712470364735"><ele>234.0</ele><time>2026-03-29T10:10:20.999Z</time></trkpt><trkpt lat="44.93669319628248" lon="7.6108848638146975"><ele>234.0</ele><time>2026-03-29T10:10:21.999Z</time></trkpt><trkpt lat="44.93658907487378" lon="7.611054853876445"><ele>234.0</ele><time>2026-03-29T10:10:22.999Z</time></trkpt><trkpt lat="44.93648394903726" lon="7.611212550014685"><ele>234.0</ele><time>2026-03-29T10:10:23.999Z</time></trkpt><trkpt lat="44.93638124213077" lon="7.611359700740039"><ele>234.5</ele><time>2026-03-29T10:10:24.999Z</time></trkpt><trkpt lat="44.936283392333074" lon="7.611506928519594"><ele>235.0</ele><time>2026-03-29T10:10:25.999Z</time></trkpt><trkpt lat="44.93618784290039" lon="7.611650069835557"><ele>235.5</ele><time>2026-03-29T10:10:26.999Z</time></trkpt><trkpt lat="44.93609383950132" lon="7.611789739447176"><ele>236.0</ele><time>2026-03-29T10:10:27.999Z</time></trkpt><trkpt lat="44.936006410966655" lon="7.611926103337409"><ele>236.0</ele><time>2026-03-29T10:10:28.999Z</time></trkpt><trkpt lat="44.93592673788979" lon="7.61205526414723"><ele>236.00000000000003</ele><time>2026-03-29T10:10:29.999Z</time></trkpt><trkpt lat="44.93585417109261" lon="7.612168442543282"><ele>236.00000000000003</ele><time>2026-03-29T10:10:30.999Z</time></trkpt><trkpt lat="44.93578741001611" lon="7.6122652597751825"><ele>236.0</ele><time>2026-03-29T10:10:31.999Z</time></trkpt><trkpt lat="44.93572651905421" lon="7.612350708680931"><ele>236.0</ele><time>2026-03-29T10:10:32.999Z</time></trkpt><trkpt lat="44.935665229349375" lon="7.612420855355591"><ele>235.83333333333334</ele><time>2026-03-29T10:10:33.999Z</time></trkpt><trkpt lat="44.93560641357061" lon="7.612471328211678"><ele>235.66666666666669</ele><time>2026-03-29T10:10:34.999Z</time></trkpt><trkpt lat="44.93555185388952" lon="7.612522018947515"><ele>235.5</ele><time>2026-03-29T10:10:35.999Z</time></trkpt><trkpt lat="44.93550765195536" lon="7.612606163188694"><ele>235.33333333333331</ele><time>2026-03-29T10:10:36.999Z</time></trkpt><trkpt lat="44.93546837173666" lon="7.612727969606866"><ele>235.16666666666666</ele><time>2026-03-29T10:10:37.999Z</time></trkpt><trkpt lat="44.935403476427254" lon="7.612890868872539"><ele>235.0</ele><time>2026-03-29T10:10:38.999Z</time></trkpt><trkpt lat="44.935291596558805" lon="7.613042132632286"><ele>235.0</ele><time>2026-03-29T10:10:39.999Z</time></trkpt><trkpt lat="44.93517352455399" lon="7.6132234189251236"><ele>235.0</ele><time>2026-03-29T10:10:40.999Z</time></trkpt><trkpt lat="44.93506144117837" lon="7.613446115903141"><ele>235.0</ele><time>2026-03-29T10:10:41.999Z</time></trkpt><trkpt lat="44.93491420526712" lon="7.613683639492557"><ele>236.0</ele><time>2026-03-29T10:10:42.999Z</time></trkpt><trkpt lat="44.93473798314549" lon="7.613947051588581"><ele>237.0</ele><time>2026-03-29T10:10:43.999Z</time></trkpt><trkpt lat="44.93454224294362" lon="7.614246167947055"><ele>237.0</ele><time>2026-03-29T10:10:44.999Z</time></trkpt><trkpt lat="44.93434319547417" lon="7.614546707375153"><ele>237.0</ele><time>2026-03-29T10:10:45.999Z</time></trkpt><trkpt lat="44.93415698956835" lon="7.614806364120933"><ele>235.5</ele><time>2026-03-29T10:10:46.999Z</time></trkpt><trkpt lat="44.93399225569568" lon="7.61504212135486"><ele>234.0</ele><time>2026-03-29T10:10:47.999Z</time></trkpt><trkpt lat="44.933843352297956" lon="7.615270876350759"><ele>233.66666666666669</ele><time>2026-03-29T10:10:48.999Z</time></trkpt><trkpt lat="44.933709873246535" lon="7.615482095728323"><ele>233.33333333333334</ele><time>2026-03-29T10:10:49.999Z</time></trkpt><trkpt lat="44.933588553028606" lon="7.615668117128937"><ele>233.0</ele><time>2026-03-29T10:10:50.999Z</time></trkpt><trkpt lat="44.933485016228644" lon="7.615822580720892"><ele>233.0</ele><time>2026-03-29T10:10:51.999Z</time></trkpt><trkpt lat="44.9333979904689" lon="7.615950869381918"><ele>233.0</ele><time>2026-03-29T10:10:52.999Z</time></trkpt><trkpt lat="44.93332288044779" lon="7.61605927997836"><ele>233.0</ele><time>2026-03-29T10:10:53.999Z</time></trkpt><trkpt lat="44.9332517718605" lon="7.616145764115387"><ele>233.0</ele><time>2026-03-29T10:10:54.999Z</time></trkpt><trkpt lat="44.93317703157133" lon="7.616208679901743"><ele>233.0</ele><time>2026-03-29T10:10:55.999Z</time></trkpt><trkpt lat="44.93308865306203" lon="7.616215378666715"><ele>233.50000000000003</ele><time>2026-03-29T10:10:56.999Z</time></trkpt><trkpt lat="44.933018274609296" lon="7.6162648317332415"><ele>234.0</ele><time>2026-03-29T10:10:57.999Z</time></trkpt><trkpt lat="44.93296789454432" lon="7.616337296382117"><ele>234.5</ele><time>2026-03-29T10:10:58.999Z</time></trkpt><trkpt lat="44.932955214889" lon="7.616437069532974"><ele>235.0</ele><time>2026-03-29T10:10:59.999Z</time></trkpt><trkpt lat="44.93298727445314" lon="7.616525058153293"><ele>235.50000000000003</ele><time>2026-03-29T10:11:00.999Z</time></trkpt><trkpt lat="44.93304511191787" lon="7.616587122268305"><ele>236.0</ele><time>2026-03-29T10:11:01.999Z</time></trkpt><trkpt lat="44.93312379897577" lon="7.616634972972846"><ele>236.0</ele><time>2026-03-29T10:11:02.999Z</time></trkpt><trkpt lat="44.93321140062564" lon="7.616716406857215"><ele>236.0</ele><time>2026-03-29T10:11:03.999Z</time></trkpt><trkpt lat="44.93329339845989" lon="7.61687645903807"><ele>236.0</ele><time>2026-03-29T10:11:04.999Z</time></trkpt><trkpt lat="44.93339363918788" lon="7.61709234221284"><ele>236.0</ele><time>2026-03-29T10:11:05.999Z</time></trkpt><trkpt lat="44.933520727535715" lon="7.617315600680311"><ele>236.33333333333334</ele><time>2026-03-29T10:11:06.999Z</time></trkpt><trkpt lat="44.9336595808417" lon="7.617532363006824"><ele>236.66666666666669</ele><time>2026-03-29T10:11:07.999Z</time></trkpt><trkpt lat="44.93379489458725" lon="7.6177422663409144"><ele>237.0</ele><time>2026-03-29T10:11:08.999Z</time></trkpt><trkpt lat="44.9339252709552" lon="7.617937010942442"><ele>237.0</ele><time>2026-03-29T10:11:09.999Z</time></trkpt><trkpt lat="44.93405338567972" lon="7.618105732508526"><ele>237.0</ele><time>2026-03-29T10:11:10.999Z</time></trkpt><trkpt lat="44.93418121951088" lon="7.618248321536386"><ele>237.0</ele><time>2026-03-29T10:11:11.999Z</time></trkpt><trkpt lat="44.93430645236098" lon="7.618364487709746"><ele>237.0</ele><time>2026-03-29T10:11:12.999Z</time></trkpt><trkpt lat="44.934419574671395" lon="7.618472277415529"><ele>237.0</ele><time>2026-03-29T10:11:13.999Z</time></trkpt><trkpt lat="44.934523504563124" lon="7.618575297486014"><ele>237.0</ele><time>2026-03-29T10:11:14.999Z</time></trkpt><trkpt lat="44.93461521510816" lon="7.6186697364958"><ele>237.0</ele><time>2026-03-29T10:11:15.999Z</time></trkpt><trkpt lat="44.934698040031755" lon="7.618749913841496"><ele>236.39999999999998</ele><time>2026-03-29T10:11:16.999Z</time></trkpt><trkpt lat="44.934767208930204" lon="7.6188247764856065"><ele>235.79999999999998</ele><time>2026-03-29T10:11:17.999Z</time></trkpt><trkpt lat="44.93481013281141" lon="7.618909655347391"><ele>235.2</ele><time>2026-03-29T10:11:18.999Z</time></trkpt><trkpt lat="44.934846633369" lon="7.619107603985575"><ele>234.6</ele><time>2026-03-29T10:11:21Z</time></trkpt><trkpt lat="44.93478101831298" lon="7.619226912026926"><ele>234.0</ele><time>2026-03-29T10:11:23Z</time></trkpt><trkpt lat="44.934599530400796" lon="7.6191255287215025"><ele>234.0</ele><time>2026-03-29T10:11:24Z</time></trkpt><trkpt lat="44.934478904012806" lon="7.619094674177544"><ele>234.0</ele><time>2026-03-29T10:11:25Z</time></trkpt><trkpt lat="44.93433861249299" lon="7.6190487403884335"><ele>234.0</ele><time>2026-03-29T10:11:26Z</time></trkpt><trkpt lat="44.934156946694614" lon="7.619006102396775"><ele>233.5</ele><time>2026-03-29T10:11:27Z</time></trkpt><trkpt lat="44.93392728067137" lon="7.618975068377666"><ele>233.0</ele><time>2026-03-29T10:11:28Z</time></trkpt><trkpt lat="44.93366987766281" lon="7.6189565281123395"><ele>233.0</ele><time>2026-03-29T10:11:29Z</time></trkpt><trkpt lat="44.933418305028134" lon="7.618952446901199"><ele>233.0</ele><time>2026-03-29T10:11:30Z</time></trkpt><trkpt lat="44.93319618852059" lon="7.6189676546066725"><ele>233.33333333333334</ele><time>2026-03-29T10:11:31Z</time></trkpt><trkpt lat="44.93298954952787" lon="7.618993874760176"><ele>233.66666666666669</ele><time>2026-03-29T10:11:32Z</time></trkpt><trkpt lat="44.93279426722788" lon="7.619029994295516"><ele>234.0</ele><time>2026-03-29T10:11:33Z</time></trkpt><trkpt lat="44.93259816590193" lon="7.619086111680719"><ele>233.66666666666669</ele><time>2026-03-29T10:11:34Z</time></trkpt><trkpt lat="44.93240374125708" lon="7.61916118060254"><ele>233.33333333333334</ele><time>2026-03-29T10:11:35Z</time></trkpt><trkpt lat="44.932203422944404" lon="7.619253876996119"><ele>233.0</ele><time>2026-03-29T10:11:36Z</time></trkpt><trkpt lat="44.931984758002095" lon="7.619363560726912"><ele>233.0</ele><time>2026-03-29T10:11:37Z</time></trkpt><trkpt lat="44.93173163964377" lon="7.619499209721136"><ele>233.0</ele><time>2026-03-29T10:11:38Z</time></trkpt><trkpt lat="44.9314760293969" lon="7.619645729490667"><ele>233.0</ele><time>2026-03-29T10:11:39Z</time></trkpt><trkpt lat="44.931241208162284" lon="7.619806690830032"><ele>233.0</ele><time>2026-03-29T10:11:40Z</time></trkpt><trkpt lat="44.93103471426289" lon="7.619976888640282"><ele>233.0</ele><time>2026-03-29T10:11:41Z</time></trkpt><trkpt lat="44.93084844402299" lon="7.620146492418999"><ele>233.0</ele><time>2026-03-29T10:11:42Z</time></trkpt><trkpt lat="44.93067827326697" lon="7.620316838483686"><ele>233.0</ele><time>2026-03-29T10:11:43Z</time></trkpt><trkpt lat="44.93052420541589" lon="7.620494643977371"><ele>233.66666666666669</ele><time>2026-03-29T10:11:44Z</time></trkpt><trkpt lat="44.93038781007878" lon="7.620674198102685"><ele>234.33333333333331</ele><time>2026-03-29T10:11:45Z</time></trkpt><trkpt lat="44.930267365959644" lon="7.620845819617288"><ele>235.0</ele><time>2026-03-29T10:11:46Z</time></trkpt><trkpt lat="44.930160861552466" lon="7.621011433631022"><ele>235.25</ele><time>2026-03-29T10:11:47Z</time></trkpt><trkpt lat="44.93006175500271" lon="7.621170496272001"><ele>235.5</ele><time>2026-03-29T10:11:48Z</time></trkpt><trkpt lat="44.929967956112215" lon="7.6212968541048935"><ele>235.75</ele><time>2026-03-29T10:11:49Z</time></trkpt><trkpt lat="44.92987497389999" lon="7.62138561201366"><ele>236.0</ele><time>2026-03-29T10:11:50Z</time></trkpt><trkpt lat="44.92977576491562" lon="7.621423696893213"><ele>236.0</ele><time>2026-03-29T10:11:51Z</time></trkpt><trkpt lat="44.929726286628316" lon="7.621542917702574"><ele>236.0</ele><time>2026-03-29T10:11:52Z</time></trkpt><trkpt lat="44.929681782835566" lon="7.621689973441487"><ele>236.0</ele><time>2026-03-29T10:11:53Z</time></trkpt><trkpt lat="44.92961603210922" lon="7.621865213930154"><ele>236.0</ele><time>2026-03-29T10:11:54Z</time></trkpt><trkpt lat="44.929511319300154" lon="7.622051866847578"><ele>236.33333333333334</ele><time>2026-03-29T10:11:55Z</time></trkpt><trkpt lat="44.92935328441096" lon="7.622247361215764"><ele>236.66666666666669</ele><time>2026-03-29T10:11:56Z</time></trkpt><trkpt lat="44.929194719306" lon="7.622488656613469"><ele>237.0</ele><time>2026-03-29T10:11:57Z</time></trkpt><trkpt lat="44.92904301684061" lon="7.622721495490077"><ele>235.5</ele><time>2026-03-29T10:11:58Z</time></trkpt><trkpt lat="44.92889806621971" lon="7.622943945524826"><ele>234.0</ele><time>2026-03-29T10:11:59Z</time></trkpt><trkpt lat="44.92873162399956" lon="7.623199377795982"><ele>234.0</ele><time>2026-03-29T10:12:00Z</time></trkpt><trkpt lat="44.928552118358766" lon="7.623523571149671"><ele>234.0</ele><time>2026-03-29T10:12:01Z</time></trkpt><trkpt lat="44.92833777799635" lon="7.623823221543225"><ele>234.5</ele><time>2026-03-29T10:12:02Z</time></trkpt><trkpt lat="44.92812521222661" lon="7.624158951149525"><ele>235.0</ele><time>2026-03-29T10:12:02.999Z</time></trkpt><trkpt lat="44.92790468320213" lon="7.6245101955884715"><ele>235.5</ele><time>2026-03-29T10:12:03.999Z</time></trkpt><trkpt lat="44.92766224092843" lon="7.624862247894666"><ele>236.0</ele><time>2026-03-29T10:12:04.999Z</time></trkpt><trkpt lat="44.92742075582846" lon="7.625217528080186"><ele>236.0</ele><time>2026-03-29T10:12:05.999Z</time></trkpt><trkpt lat="44.92720242166149" lon="7.625554666922331"><ele>236.0</ele><time>2026-03-29T10:12:06.999Z</time></trkpt><trkpt lat="44.92699874145083" lon="7.625872724216348"><ele>236.0</ele><time>2026-03-29T10:12:07.999Z</time></trkpt><trkpt lat="44.92680131745224" lon="7.626176887226001"><ele>236.0</ele><time>2026-03-29T10:12:08.999Z</time></trkpt><trkpt lat="44.92661424650182" lon="7.626465067024287"><ele>236.0</ele><time>2026-03-29T10:12:09.999Z</time></trkpt><trkpt lat="44.9264344017633" lon="7.626738526651952"><ele>236.0</ele><time>2026-03-29T10:12:10.999Z</time></trkpt><trkpt lat="44.92626374707913" lon="7.627002057411309"><ele>236.0</ele><time>2026-03-29T10:12:11.999Z</time></trkpt><trkpt lat="44.92608971622958" lon="7.627276279120655"><ele>236.0</ele><time>2026-03-29T10:12:12.999Z</time></trkpt><trkpt lat="44.925904310117794" lon="7.627562671023754"><ele>236.0</ele><time>2026-03-29T10:12:13.999Z</time></trkpt><trkpt lat="44.925726863874914" lon="7.627841507401039"><ele>236.0</ele><time>2026-03-29T10:12:14.999Z</time></trkpt><trkpt lat="44.92554351472105" lon="7.628131077416909"><ele>236.0</ele><time>2026-03-29T10:12:15.999Z</time></trkpt><trkpt lat="44.92535982388477" lon="7.6284263242993315"><ele>236.0</ele><time>2026-03-29T10:12:16.999Z</time></trkpt><trkpt lat="44.92516670284742" lon="7.628724744259359"><ele>236.0</ele><time>2026-03-29T10:12:17.999Z</time></trkpt><trkpt lat="44.92496262506294" lon="7.629024707434725"><ele>236.0</ele><time>2026-03-29T10:12:18.999Z</time></trkpt><trkpt lat="44.92475488827966" lon="7.629327157587392"><ele>236.0</ele><time>2026-03-29T10:12:19.999Z</time></trkpt><trkpt lat="44.924549449797865" lon="7.629643567107686"><ele>236.0</ele><time>2026-03-29T10:12:20.999Z</time></trkpt><trkpt lat="44.924344715570705" lon="7.629962554497503"><ele>236.5</ele><time>2026-03-29T10:12:21.999Z</time></trkpt><trkpt lat="44.9241404154924" lon="7.630277475131732"><ele>237.0</ele><time>2026-03-29T10:12:22.999Z</time></trkpt><trkpt lat="44.92393542666635" lon="7.630591381215613"><ele>237.0</ele><time>2026-03-29T10:12:23.999Z</time></trkpt><trkpt lat="44.923731380252136" lon="7.630897806533682"><ele>237.0</ele><time>2026-03-29T10:12:24.999Z</time></trkpt><trkpt lat="44.923524595268006" lon="7.631200075239493"><ele>237.5</ele><time>2026-03-29T10:12:25.999Z</time></trkpt><trkpt lat="44.92331813065665" lon="7.631494198599553"><ele>238.0</ele><time>2026-03-29T10:12:26.999Z</time></trkpt><trkpt lat="44.92311404767752" lon="7.631784840741492"><ele>237.0</ele><time>2026-03-29T10:12:27.999Z</time></trkpt><trkpt lat="44.92291378888124" lon="7.632073143685686"><ele>236.0</ele><time>2026-03-29T10:12:28.999Z</time></trkpt><trkpt lat="44.92271823695896" lon="7.632354848334119"><ele>235.5</ele><time>2026-03-29T10:12:29.999Z</time></trkpt><trkpt lat="44.92252695037779" lon="7.632627823739381"><ele>235.0</ele><time>2026-03-29T10:12:30.999Z</time></trkpt><trkpt lat="44.92234306427602" lon="7.632883425023427"><ele>235.0</ele><time>2026-03-29T10:12:31.999Z</time></trkpt><trkpt lat="44.92216598865775" lon="7.6331259617465275"><ele>235.0</ele><time>2026-03-29T10:12:32.999Z</time></trkpt><trkpt lat="44.92199157472429" lon="7.633357392007463"><ele>235.0</ele><time>2026-03-29T10:12:33.999Z</time></trkpt><trkpt lat="44.921827507985846" lon="7.633576220700464"><ele>235.0</ele><time>2026-03-29T10:12:34.999Z</time></trkpt><trkpt lat="44.92159526498162" lon="7.633890365850976"><ele>235.5</ele><time>2026-03-29T10:12:35.999Z</time></trkpt><trkpt lat="44.92141898633039" lon="7.634122931611527"><ele>236.0</ele><time>2026-03-29T10:12:36.999Z</time></trkpt><trkpt lat="44.921245120484485" lon="7.634350773886583"><ele>236.5</ele><time>2026-03-29T10:12:37.999Z</time></trkpt><trkpt lat="44.921077874403046" lon="7.634578077172742"><ele>237.0</ele><time>2026-03-29T10:12:38.999Z</time></trkpt><trkpt lat="44.92091230904495" lon="7.634799382229666"><ele>237.0</ele><time>2026-03-29T10:12:39.999Z</time></trkpt><trkpt lat="44.920741486533814" lon="7.635021850301057"><ele>237.0</ele><time>2026-03-29T10:12:40.999Z</time></trkpt><trkpt lat="44.92057170153826" lon="7.635247432616313"><ele>236.0</ele><time>2026-03-29T10:12:41.999Z</time></trkpt><trkpt lat="44.920385031437505" lon="7.635460019326303"><ele>235.0</ele><time>2026-03-29T10:12:42.999Z</time></trkpt><trkpt lat="44.920206024522365" lon="7.635726124619734"><ele>235.0</ele><time>2026-03-29T10:12:43.999Z</time></trkpt><trkpt lat="44.919992512932915" lon="7.63598816708135"><ele>235.0</ele><time>2026-03-29T10:12:44.999Z</time></trkpt><trkpt lat="44.91976966781323" lon="7.63624177941056"><ele>234.5</ele><time>2026-03-29T10:12:45.999Z</time></trkpt><trkpt lat="44.919558838616226" lon="7.636470959716949"><ele>234.0</ele><time>2026-03-29T10:12:46.999Z</time></trkpt><trkpt lat="44.91935670191544" lon="7.636703799928275"><ele>234.0</ele><time>2026-03-29T10:12:47.999Z</time></trkpt><trkpt lat="44.919161197520936" lon="7.636933248545625"><ele>234.0</ele><time>2026-03-29T10:12:48.999Z</time></trkpt><trkpt lat="44.91897135295648" lon="7.637158944527581"><ele>234.0</ele><time>2026-03-29T10:12:49.999Z</time></trkpt><trkpt lat="44.918782595128704" lon="7.637378608552667"><ele>234.0</ele><time>2026-03-29T10:12:50.999Z</time></trkpt><trkpt lat="44.91859119323103" lon="7.637594259550109"><ele>233.5</ele><time>2026-03-29T10:12:51.999Z</time></trkpt><trkpt lat="44.918400972794394" lon="7.637802363981814"><ele>233.0</ele><time>2026-03-29T10:12:52.999Z</time></trkpt><trkpt lat="44.91821552047631" lon="7.638014599583351"><ele>233.0</ele><time>2026-03-29T10:12:53.999Z</time></trkpt><trkpt lat="44.91802966482127" lon="7.638221882802779"><ele>233.0</ele><time>2026-03-29T10:12:54.999Z</time></trkpt><trkpt lat="44.91784387952401" lon="7.638425485745913"><ele>233.0</ele><time>2026-03-29T10:12:55.999Z</time></trkpt><trkpt lat="44.917658609145015" lon="7.638627153646282"><ele>233.0</ele><time>2026-03-29T10:12:56.999Z</time></trkpt><trkpt lat="44.91747450874131" lon="7.6388240477069145"><ele>233.0</ele><time>2026-03-29T10:12:57.999Z</time></trkpt><trkpt lat="44.91730285067159" lon="7.639004951488843"><ele>233.0</ele><time>2026-03-29T10:12:58.999Z</time></trkpt><trkpt lat="44.9171420960565" lon="7.6391777071001075"><ele>233.0</ele><time>2026-03-29T10:12:59.999Z</time></trkpt><trkpt lat="44.91698828286663" lon="7.639343920091407"><ele>233.0</ele><time>2026-03-29T10:13:00.999Z</time></trkpt><trkpt lat="44.91684022786365" lon="7.639504283890759"><ele>233.0</ele><time>2026-03-29T10:13:01.999Z</time></trkpt><trkpt lat="44.91669686244181" lon="7.639671130129957"><ele>233.0</ele><time>2026-03-29T10:13:02.999Z</time></trkpt><trkpt lat="44.9165595823592" lon="7.639851279332373"><ele>233.0</ele><time>2026-03-29T10:13:03.999Z</time></trkpt><trkpt lat="44.91643522035362" lon="7.640034895094999"><ele>233.0</ele><time>2026-03-29T10:13:04.999Z</time></trkpt><trkpt lat="44.91632875146556" lon="7.64019402759411"><ele>233.0</ele><time>2026-03-29T10:13:05.999Z</time></trkpt><trkpt lat="44.9162412785462" lon="7.64032122944065"><ele>233.2</ele><time>2026-03-29T10:13:06.999Z</time></trkpt><trkpt lat="44.916165640891165" lon="7.640425302995965"><ele>233.4</ele><time>2026-03-29T10:13:07.999Z</time></trkpt><trkpt lat="44.916091179533446" lon="7.640501580971561"><ele>233.59999999999997</ele><time>2026-03-29T10:13:08.999Z</time></trkpt><trkpt lat="44.91600961252538" lon="7.640554481556715"><ele>233.79999999999998</ele><time>2026-03-29T10:13:09.999Z</time></trkpt><trkpt lat="44.915938253896115" lon="7.640611854810087"><ele>234.0</ele><time>2026-03-29T10:13:10.999Z</time></trkpt><trkpt lat="44.91586652617408" lon="7.640683482314071"><ele>234.0</ele><time>2026-03-29T10:13:11.999Z</time></trkpt><trkpt lat="44.91577708773024" lon="7.640730425807467"><ele>233.99999999999997</ele><time>2026-03-29T10:13:12.999Z</time></trkpt><trkpt lat="44.91567256415217" lon="7.640760595997521"><ele>233.99999999999997</ele><time>2026-03-29T10:13:13.999Z</time></trkpt><trkpt lat="44.91556310425495" lon="7.640804944890778"><ele>234.0</ele><time>2026-03-29T10:13:14.999Z</time></trkpt><trkpt lat="44.915456135478074" lon="7.6408918306219284"><ele>234.0</ele><time>2026-03-29T10:13:15.999Z</time></trkpt><trkpt lat="44.91534803714593" lon="7.64101990082486"><ele>234.0</ele><time>2026-03-29T10:13:16.999Z</time></trkpt><trkpt lat="44.91520979249632" lon="7.64115891360987"><ele>234.0</ele><time>2026-03-29T10:13:17.999Z</time></trkpt><trkpt lat="44.91503404461403" lon="7.641326440745681"><ele>234.0</ele><time>2026-03-29T10:13:18.999Z</time></trkpt><trkpt lat="44.914835382190525" lon="7.64151502209191"><ele>234.0</ele><time>2026-03-29T10:13:19.999Z</time></trkpt><trkpt lat="44.91461894861874" lon="7.6417177712535915"><ele>234.0</ele><time>2026-03-29T10:13:20.999Z</time></trkpt><trkpt lat="44.914389010303125" lon="7.641933828666909"><ele>234.5</ele><time>2026-03-29T10:13:21.999Z</time></trkpt><trkpt lat="44.91414376332959" lon="7.64216358846338"><ele>235.0</ele><time>2026-03-29T10:13:22.999Z</time></trkpt><trkpt lat="44.91389530904662" lon="7.642409406095483"><ele>235.0</ele><time>2026-03-29T10:13:23.999Z</time></trkpt><trkpt lat="44.91363153602815" lon="7.642631852880822"><ele>235.0</ele><time>2026-03-29T10:13:24.999Z</time></trkpt><trkpt lat="44.9133837524859" lon="7.642856345017943"><ele>234.5</ele><time>2026-03-29T10:13:25.999Z</time></trkpt><trkpt lat="44.913151178076376" lon="7.643080224061202"><ele>234.0</ele><time>2026-03-29T10:13:27Z</time></trkpt><trkpt lat="44.912917812359794" lon="7.6432968519444575"><ele>234.0</ele><time>2026-03-29T10:13:28Z</time></trkpt><trkpt lat="44.912682274481014" lon="7.643505228268561"><ele>234.0</ele><time>2026-03-29T10:13:29Z</time></trkpt><trkpt lat="44.91244879125976" lon="7.643719929867992"><ele>233.0</ele><time>2026-03-29T10:13:30Z</time></trkpt><trkpt lat="44.91222269125447" lon="7.6439285874523035"><ele>232.0</ele><time>2026-03-29T10:13:31Z</time></trkpt><trkpt lat="44.912003024967035" lon="7.644133117287191"><ele>232.0</ele><time>2026-03-29T10:13:32Z</time></trkpt><trkpt lat="44.911793240050535" lon="7.644332347580238"><ele>232.0</ele><time>2026-03-29T10:13:33Z</time></trkpt><trkpt lat="44.9116035264618" lon="7.644512514096664"><ele>233.66666666666666</ele><time>2026-03-29T10:13:34Z</time></trkpt><trkpt lat="44.9114303703368" lon="7.6446734392816005"><ele>235.33333333333331</ele><time>2026-03-29T10:13:35Z</time></trkpt><trkpt lat="44.91126758253348" lon="7.644821365351351"><ele>237.0</ele><time>2026-03-29T10:13:36Z</time></trkpt><trkpt lat="44.91110904573929" lon="7.644964303111908"><ele>237.0</ele><time>2026-03-29T10:13:37Z</time></trkpt><trkpt lat="44.91095090630727" lon="7.645107970576316"><ele>237.0</ele><time>2026-03-29T10:13:38Z</time></trkpt><trkpt lat="44.91077980792372" lon="7.645273898328766"><ele>237.0</ele><time>2026-03-29T10:13:39Z</time></trkpt><trkpt lat="44.910588853925645" lon="7.645455774763316"><ele>235.0</ele><time>2026-03-29T10:13:40Z</time></trkpt><trkpt lat="44.91039220039392" lon="7.645637659059961"><ele>233.0</ele><time>2026-03-29T10:13:41Z</time></trkpt><trkpt lat="44.91019597045666" lon="7.64581717845382"><ele>233.5</ele><time>2026-03-29T10:13:42Z</time></trkpt><trkpt lat="44.909999480614765" lon="7.646000430290489"><ele>234.0</ele><time>2026-03-29T10:13:43Z</time></trkpt><trkpt lat="44.909801328276075" lon="7.646185983843553"><ele>234.0</ele><time>2026-03-29T10:13:44Z</time></trkpt><trkpt lat="44.90960185202917" lon="7.646365912601579"><ele>234.0</ele><time>2026-03-29T10:13:45Z</time></trkpt><trkpt lat="44.90940005405919" lon="7.646542440420676"><ele>235.5</ele><time>2026-03-29T10:13:46Z</time></trkpt><trkpt lat="44.909195992254" lon="7.646719801015302"><ele>237.0</ele><time>2026-03-29T10:13:47Z</time></trkpt><trkpt lat="44.908993682814895" lon="7.646901642869938"><ele>237.5</ele><time>2026-03-29T10:13:48Z</time></trkpt><trkpt lat="44.90878920402328" lon="7.647090718915738"><ele>238.0</ele><time>2026-03-29T10:13:49Z</time></trkpt><trkpt lat="44.908593552143174" lon="7.647274355849837"><ele>238.0</ele><time>2026-03-29T10:13:50Z</time></trkpt><trkpt lat="44.90841038946265" lon="7.647441651300091"><ele>238.0</ele><time>2026-03-29T10:13:51Z</time></trkpt><trkpt lat="44.908235979999986" lon="7.647601400589771"><ele>238.0</ele><time>2026-03-29T10:13:52Z</time></trkpt><trkpt lat="44.90807176904659" lon="7.647751663578006"><ele>237.66666666666666</ele><time>2026-03-29T10:13:53Z</time></trkpt><trkpt lat="44.907918374132215" lon="7.647892672384336"><ele>237.33333333333331</ele><time>2026-03-29T10:13:54Z</time></trkpt><trkpt lat="44.90777241238698" lon="7.648017714357005"><ele>237.0</ele><time>2026-03-29T10:13:55Z</time></trkpt><trkpt lat="44.90763199656427" lon="7.648107951093629"><ele>237.0</ele><time>2026-03-29T10:13:56Z</time></trkpt><trkpt lat="44.90749963637563" lon="7.648153011969059"><ele>237.0</ele><time>2026-03-29T10:13:57Z</time></trkpt><trkpt lat="44.90739473393942" lon="7.6482095540874075"><ele>237.0</ele><time>2026-03-29T10:13:58Z</time></trkpt><trkpt lat="44.907312936323336" lon="7.648339563751639"><ele>237.0</ele><time>2026-03-29T10:13:59Z</time></trkpt><trkpt lat="44.907220352551825" lon="7.648517162519636"><ele>237.0</ele><time>2026-03-29T10:14:00Z</time></trkpt><trkpt lat="44.907080375556255" lon="7.6486881233037085"><ele>237.0</ele><time>2026-03-29T10:14:01Z</time></trkpt><trkpt lat="44.906915894737494" lon="7.648843550726943"><ele>237.0</ele><time>2026-03-29T10:14:01.999Z</time></trkpt><trkpt lat="44.906750859664946" lon="7.648997098110274"><ele>236.33333333333331</ele><time>2026-03-29T10:14:02.999Z</time></trkpt><trkpt lat="44.9065742898629" lon="7.649143212451203"><ele>235.66666666666666</ele><time>2026-03-29T10:14:03.999Z</time></trkpt><trkpt lat="44.90638965117124" lon="7.64929141227747"><ele>235.0</ele><time>2026-03-29T10:14:04.999Z</time></trkpt><trkpt lat="44.90620284216594" lon="7.64945473934609"><ele>235.5</ele><time>2026-03-29T10:14:05.999Z</time></trkpt><trkpt lat="44.90600428638082" lon="7.649638342139542"><ele>236.0</ele><time>2026-03-29T10:14:06.999Z</time></trkpt><trkpt lat="44.90578784250594" lon="7.649845187438776"><ele>236.5</ele><time>2026-03-29T10:14:07.999Z</time></trkpt><trkpt lat="44.905555406244744" lon="7.650068229253036"><ele>237.0</ele><time>2026-03-29T10:14:08.999Z</time></trkpt><trkpt lat="44.90531118551245" lon="7.650298235620576"><ele>237.0</ele><time>2026-03-29T10:14:09.999Z</time></trkpt><trkpt lat="44.905051582417926" lon="7.65053628743059"><ele>237.0</ele><time>2026-03-29T10:14:10.999Z</time></trkpt><trkpt lat="44.904783684250845" lon="7.650777714079621"><ele>237.0</ele><time>2026-03-29T10:14:11.999Z</time></trkpt><trkpt lat="44.90453078498459" lon="7.65101128179802"><ele>237.0</ele><time>2026-03-29T10:14:12.999Z</time></trkpt><trkpt lat="44.90429386625936" lon="7.651230625645698"><ele>237.0</ele><time>2026-03-29T10:14:13.999Z</time></trkpt><trkpt lat="44.90405525345589" lon="7.65144951546156"><ele>237.0</ele><time>2026-03-29T10:14:14.999Z</time></trkpt><trkpt lat="44.90381447705595" lon="7.651675062610454"><ele>237.0</ele><time>2026-03-29T10:14:15.999Z</time></trkpt><trkpt lat="44.903569215497015" lon="7.651903335745444"><ele>237.0</ele><time>2026-03-29T10:14:16.999Z</time></trkpt><trkpt lat="44.9033248704865" lon="7.652135955984516"><ele>236.0</ele><time>2026-03-29T10:14:17.999Z</time></trkpt><trkpt lat="44.90307838407627" lon="7.6523742955420335"><ele>235.0</ele><time>2026-03-29T10:14:18.999Z</time></trkpt><trkpt lat="44.90282046898715" lon="7.652588630438104"><ele>234.5</ele><time>2026-03-29T10:14:19.999Z</time></trkpt><trkpt lat="44.9025763112386" lon="7.652812879844165"><ele>234.0</ele><time>2026-03-29T10:14:20.999Z</time></trkpt><trkpt lat="44.90233840136777" lon="7.6530330934357504"><ele>234.0</ele><time>2026-03-29T10:14:21.999Z</time></trkpt><trkpt lat="44.902107108047986" lon="7.653256543202326"><ele>234.0</ele><time>2026-03-29T10:14:22.999Z</time></trkpt><trkpt lat="44.90186577015084" lon="7.6534651204460875"><ele>237.0</ele><time>2026-03-29T10:14:23.999Z</time></trkpt><trkpt lat="44.90161876919513" lon="7.6536881488443935"><ele>240.0</ele><time>2026-03-29T10:14:24.999Z</time></trkpt><trkpt lat="44.90137006302799" lon="7.653917196412102"><ele>240.0</ele><time>2026-03-29T10:14:25.999Z</time></trkpt><trkpt lat="44.90111923591823" lon="7.654150236792325"><ele>240.0</ele><time>2026-03-29T10:14:26.999Z</time></trkpt><trkpt lat="44.90086639985656" lon="7.654382596136031"><ele>239.0</ele><time>2026-03-29T10:14:27.999Z</time></trkpt><trkpt lat="44.900604213605774" lon="7.654623784056465"><ele>238.0</ele><time>2026-03-29T10:14:28.999Z</time></trkpt><trkpt lat="44.90033667582431" lon="7.654870912318212"><ele>236.5</ele><time>2026-03-29T10:14:29.999Z</time></trkpt><trkpt lat="44.90005991253913" lon="7.655126632762612"><ele>235.0</ele><time>2026-03-29T10:14:30.999Z</time></trkpt><trkpt lat="44.89977811959083" lon="7.6553893024312565"><ele>234.5</ele><time>2026-03-29T10:14:31.999Z</time></trkpt><trkpt lat="44.89949607882751" lon="7.655650033382995"><ele>234.0</ele><time>2026-03-29T10:14:32.999Z</time></trkpt><trkpt lat="44.89921604257159" lon="7.655906683776047"><ele>233.5</ele><time>2026-03-29T10:14:33.999Z</time></trkpt><trkpt lat="44.898939315821636" lon="7.65616182510105"><ele>233.0</ele><time>2026-03-29T10:14:34.999Z</time></trkpt><trkpt lat="44.89866674617007" lon="7.6564126848174"><ele>234.5</ele><time>2026-03-29T10:14:35.999Z</time></trkpt><trkpt lat="44.89840048193792" lon="7.656656961342758"><ele>236.0</ele><time>2026-03-29T10:14:36.999Z</time></trkpt><trkpt lat="44.898140357998045" lon="7.656889977611271"><ele>236.5</ele><time>2026-03-29T10:14:37.999Z</time></trkpt><trkpt lat="44.89788878503373" lon="7.657119818507497"><ele>237.0</ele><time>2026-03-29T10:14:38.999Z</time></trkpt><trkpt lat="44.89764719884152" lon="7.657352562857519"><ele>237.0</ele><time>2026-03-29T10:14:39.999Z</time></trkpt><trkpt lat="44.89741266370471" lon="7.657590258333953"><ele>237.0</ele><time>2026-03-29T10:14:40.999Z</time></trkpt><trkpt lat="44.89718934105" lon="7.657828180534817"><ele>237.0</ele><time>2026-03-29T10:14:41.999Z</time></trkpt><trkpt lat="44.896977677340374" lon="7.658064064780033"><ele>237.0</ele><time>2026-03-29T10:14:42.999Z</time></trkpt><trkpt lat="44.8967765952387" lon="7.658294532359173"><ele>237.0</ele><time>2026-03-29T10:14:43.999Z</time></trkpt><trkpt lat="44.896589262838425" lon="7.658517347754591"><ele>237.0</ele><time>2026-03-29T10:14:44.999Z</time></trkpt><trkpt lat="44.8964149410125" lon="7.658731421893725"><ele>237.0</ele><time>2026-03-29T10:14:45.999Z</time></trkpt><trkpt lat="44.89625341879439" lon="7.658932528946958"><ele>237.0</ele><time>2026-03-29T10:14:46.999Z</time></trkpt><trkpt lat="44.89610722114147" lon="7.659117827800619"><ele>237.0</ele><time>2026-03-29T10:14:47.999Z</time></trkpt><trkpt lat="44.89598248371937" lon="7.65927872655711"><ele>236.75</ele><time>2026-03-29T10:14:48.999Z</time></trkpt><trkpt lat="44.895874580217246" lon="7.659412026561159"><ele>236.5</ele><time>2026-03-29T10:14:49.999Z</time></trkpt><trkpt lat="44.89577394784609" lon="7.659515400224374"><ele>236.25</ele><time>2026-03-29T10:14:50.999Z</time></trkpt><trkpt lat="44.89567594353585" lon="7.659583831972737"><ele>236.0</ele><time>2026-03-29T10:14:51.999Z</time></trkpt><trkpt lat="44.89557512386848" lon="7.659635672569097"><ele>236.5</ele><time>2026-03-29T10:14:52.999Z</time></trkpt><trkpt lat="44.89547548287055" lon="7.659686626751488"><ele>237.0</ele><time>2026-03-29T10:14:53.999Z</time></trkpt><trkpt lat="44.89539143125308" lon="7.659817456708565"><ele>237.5</ele><time>2026-03-29T10:14:54.999Z</time></trkpt><trkpt lat="44.895378161301075" lon="7.660048092103304"><ele>238.0</ele><time>2026-03-29T10:14:55.999Z</time></trkpt><trkpt lat="44.895310873222996" lon="7.660274141487435"><ele>238.0</ele><time>2026-03-29T10:14:56.999Z</time></trkpt><trkpt lat="44.89518409131143" lon="7.660478329040362"><ele>238.0</ele><time>2026-03-29T10:14:57.999Z</time></trkpt><trkpt lat="44.895037064435556" lon="7.660697152314506"><ele>238.0</ele><time>2026-03-29T10:14:58.999Z</time></trkpt><trkpt lat="44.894859865022504" lon="7.66096232681936"><ele>237.5</ele><time>2026-03-29T10:14:59.999Z</time></trkpt><trkpt lat="44.89466642517219" lon="7.661291517134088"><ele>237.0</ele><time>2026-03-29T10:15:00.999Z</time></trkpt><trkpt lat="44.894475504994865" lon="7.661644783836013"><ele>237.0</ele><time>2026-03-29T10:15:01.999Z</time></trkpt><trkpt lat="44.89427335063822" lon="7.6620301233785195"><ele>237.0</ele><time>2026-03-29T10:15:02.999Z</time></trkpt><trkpt lat="44.89406496833936" lon="7.662446859821695"><ele>236.5</ele><time>2026-03-29T10:15:03.999Z</time></trkpt><trkpt lat="44.89385380847855" lon="7.662884608395233"><ele>236.0</ele><time>2026-03-29T10:15:04.999Z</time></trkpt><trkpt lat="44.8936523016239" lon="7.663326632792767"><ele>236.0</ele><time>2026-03-29T10:15:05.999Z</time></trkpt><trkpt lat="44.89347746786526" lon="7.6637399206822705"><ele>236.0</ele><time>2026-03-29T10:15:06.999Z</time></trkpt><trkpt lat="44.89332636892107" lon="7.664121993533403"><ele>236.0</ele><time>2026-03-29T10:15:07.999Z</time></trkpt><trkpt lat="44.89319046267077" lon="7.664480744951621"><ele>236.0</ele><time>2026-03-29T10:15:08.999Z</time></trkpt><trkpt lat="44.89305742310251" lon="7.66483330074774"><ele>236.0</ele><time>2026-03-29T10:15:09.999Z</time></trkpt><trkpt lat="44.892931710700864" lon="7.665184090701848"><ele>236.0</ele><time>2026-03-29T10:15:10.999Z</time></trkpt><trkpt lat="44.892814984089135" lon="7.66553371352213"><ele>237.0</ele><time>2026-03-29T10:15:11.999Z</time></trkpt><trkpt lat="44.89270884214272" lon="7.665869385886235"><ele>238.0</ele><time>2026-03-29T10:15:12.999Z</time></trkpt><trkpt lat="44.89261543000566" lon="7.666190233478069"><ele>238.5</ele><time>2026-03-29T10:15:13.999Z</time></trkpt><trkpt lat="44.892533724157225" lon="7.666495247424053"><ele>239.0</ele><time>2026-03-29T10:15:14.999Z</time></trkpt><trkpt lat="44.892456042265756" lon="7.666788856010641"><ele>239.0</ele><time>2026-03-29T10:15:15.999Z</time></trkpt><trkpt lat="44.89238374584274" lon="7.667061783883709"><ele>239.0</ele><time>2026-03-29T10:15:16.999Z</time></trkpt><trkpt lat="44.89232588847419" lon="7.667308087600394"><ele>239.0</ele><time>2026-03-29T10:15:17.999Z</time></trkpt><trkpt lat="44.89227818702907" lon="7.667536497501286"><ele>239.0</ele><time>2026-03-29T10:15:18.999Z</time></trkpt><trkpt lat="44.892218126430635" lon="7.66773074659912"><ele>239.0</ele><time>2026-03-29T10:15:19.999Z</time></trkpt><trkpt lat="44.892173468296455" lon="7.667909326675074"><ele>239.0</ele><time>2026-03-29T10:15:20.999Z</time></trkpt><trkpt lat="44.89209309759522" lon="7.668237725079437"><ele>238.75</ele><time>2026-03-29T10:15:21.999Z</time></trkpt><trkpt lat="44.89204428937714" lon="7.668411552542501"><ele>238.5</ele><time>2026-03-29T10:15:22.999Z</time></trkpt><trkpt lat="44.89199246522022" lon="7.668564997641788"><ele>238.25</ele><time>2026-03-29T10:15:23.999Z</time></trkpt><trkpt lat="44.891914943630766" lon="7.668676346139976"><ele>238.0</ele><time>2026-03-29T10:15:24.999Z</time></trkpt><trkpt lat="44.891816947328316" lon="7.6687415131724626"><ele>237.8</ele><time>2026-03-29T10:15:25.999Z</time></trkpt><trkpt lat="44.891717566614865" lon="7.668756870682039"><ele>237.60000000000002</ele><time>2026-03-29T10:15:26.999Z</time></trkpt><trkpt lat="44.89165145933763" lon="7.668863084802056"><ele>237.39999999999998</ele><time>2026-03-29T10:15:27.999Z</time></trkpt><trkpt lat="44.89160640698037" lon="7.66898138458639"><ele>237.2</ele><time>2026-03-29T10:15:28.999Z</time></trkpt><trkpt lat="44.8915990609181" lon="7.6691256244617625"><ele>237.0</ele><time>2026-03-29T10:15:29.999Z</time></trkpt><trkpt lat="44.89163999626506" lon="7.669288745001263"><ele>237.0</ele><time>2026-03-29T10:15:30.999Z</time></trkpt><trkpt lat="44.89169428920415" lon="7.669448221327084"><ele>237.0</ele><time>2026-03-29T10:15:31.999Z</time></trkpt><trkpt lat="44.89173380347903" lon="7.669620816930276"><ele>237.0</ele><time>2026-03-29T10:15:33Z</time></trkpt><trkpt lat="44.891770819547176" lon="7.669792034886724"><ele>237.0</ele><time>2026-03-29T10:15:34Z</time></trkpt><trkpt lat="44.891650114833965" lon="7.669989206952928"><ele>236.33333333333331</ele><time>2026-03-29T10:15:35Z</time></trkpt><trkpt lat="44.89159410495073" lon="7.670220642556974"><ele>235.66666666666666</ele><time>2026-03-29T10:15:36Z</time></trkpt><trkpt lat="44.8915306230234" lon="7.670482279200679"><ele>235.0</ele><time>2026-03-29T10:15:37Z</time></trkpt><trkpt lat="44.89145984595597" lon="7.67077398234182"><ele>234.5</ele><time>2026-03-29T10:15:38Z</time></trkpt><trkpt lat="44.89138650638901" lon="7.671084712043206"><ele>234.0</ele><time>2026-03-29T10:15:39Z</time></trkpt><trkpt lat="44.89130055863285" lon="7.671411906714167"><ele>234.0</ele><time>2026-03-29T10:15:40Z</time></trkpt><trkpt lat="44.89121577948463" lon="7.671750096219909"><ele>234.0</ele><time>2026-03-29T10:15:41Z</time></trkpt><trkpt lat="44.89112634458687" lon="7.672112769051025"><ele>234.0</ele><time>2026-03-29T10:15:42Z</time></trkpt><trkpt lat="44.89103460261163" lon="7.672487290635958"><ele>234.0</ele><time>2026-03-29T10:15:43Z</time></trkpt><trkpt lat="44.89093516610156" lon="7.672879790656306"><ele>234.0</ele><time>2026-03-29T10:15:44Z</time></trkpt><trkpt lat="44.89082901654026" lon="7.673287633802822"><ele>234.0</ele><time>2026-03-29T10:15:45Z</time></trkpt><trkpt lat="44.89072261409429" lon="7.673718407695452"><ele>233.5</ele><time>2026-03-29T10:15:46Z</time></trkpt><trkpt lat="44.890614161565665" lon="7.674171727751192"><ele>233.0</ele><time>2026-03-29T10:15:47Z</time></trkpt><trkpt lat="44.890509121528645" lon="7.674618444546944"><ele>233.0</ele><time>2026-03-29T10:15:48Z</time></trkpt><trkpt lat="44.89041278738842" lon="7.67503404521367"><ele>233.0</ele><time>2026-03-29T10:15:49Z</time></trkpt><trkpt lat="44.89030324705483" lon="7.67540892161855"><ele>232.5</ele><time>2026-03-29T10:15:50Z</time></trkpt><trkpt lat="44.89021278554662" lon="7.67576651813977"><ele>232.0</ele><time>2026-03-29T10:15:51Z</time></trkpt><trkpt lat="44.89014227894568" lon="7.676082473733089"><ele>231.66666666666666</ele><time>2026-03-29T10:15:52Z</time></trkpt><trkpt lat="44.890062642618915" lon="7.676345740260311"><ele>231.33333333333331</ele><time>2026-03-29T10:15:53Z</time></trkpt><trkpt lat="44.889995974155724" lon="7.676600566538651"><ele>231.0</ele><time>2026-03-29T10:15:54Z</time></trkpt><trkpt lat="44.88994179381765" lon="7.676854743470436"><ele>230.66666666666669</ele><time>2026-03-29T10:15:55Z</time></trkpt><trkpt lat="44.88989793402135" lon="7.677112989417514"><ele>230.33333333333334</ele><time>2026-03-29T10:15:56Z</time></trkpt><trkpt lat="44.88984969084802" lon="7.677371930445223"><ele>230.0</ele><time>2026-03-29T10:15:57Z</time></trkpt><trkpt lat="44.889758570274466" lon="7.6776045936175334"><ele>230.0</ele><time>2026-03-29T10:15:58Z</time></trkpt><trkpt lat="44.889624529197874" lon="7.677815270096522"><ele>230.0</ele><time>2026-03-29T10:15:59Z</time></trkpt><trkpt lat="44.889454788379524" lon="7.678020312055559"><ele>230.0</ele><time>2026-03-29T10:16:00Z</time></trkpt><trkpt lat="44.889262435678695" lon="7.678238577736134"><ele>230.5</ele><time>2026-03-29T10:16:00.999Z</time></trkpt><trkpt lat="44.8890598114672" lon="7.67848065588403"><ele>231.0</ele><time>2026-03-29T10:16:01.999Z</time></trkpt><trkpt lat="44.88885103787854" lon="7.6787403327556865"><ele>231.0</ele><time>2026-03-29T10:16:02.999Z</time></trkpt><trkpt lat="44.88865118231589" lon="7.678996249780427"><ele>231.0</ele><time>2026-03-29T10:16:03.999Z</time></trkpt><trkpt lat="44.888445389561404" lon="7.679250127085696"><ele>231.0</ele><time>2026-03-29T10:16:04.999Z</time></trkpt><trkpt lat="44.88823055458211" lon="7.679505176401638"><ele>231.0</ele><time>2026-03-29T10:16:05.999Z</time></trkpt><trkpt lat="44.88801028859812" lon="7.679763645283362"><ele>231.0</ele><time>2026-03-29T10:16:06.999Z</time></trkpt><trkpt lat="44.88779644789237" lon="7.680020676285043"><ele>231.0</ele><time>2026-03-29T10:16:07.999Z</time></trkpt><trkpt lat="44.88758162690731" lon="7.680278762887669"><ele>232.0</ele><time>2026-03-29T10:16:08.999Z</time></trkpt><trkpt lat="44.887370180098856" lon="7.68053340353804"><ele>233.0</ele><time>2026-03-29T10:16:09.999Z</time></trkpt><trkpt lat="44.88715978044559" lon="7.680784072469086"><ele>233.0</ele><time>2026-03-29T10:16:10.999Z</time></trkpt><trkpt lat="44.886954605133596" lon="7.681030038943973"><ele>233.0</ele><time>2026-03-29T10:16:11.999Z</time></trkpt><trkpt lat="44.88674625360262" lon="7.681273904985671"><ele>232.5</ele><time>2026-03-29T10:16:12.999Z</time></trkpt><trkpt lat="44.886538676576" lon="7.681517847485165"><ele>232.0</ele><time>2026-03-29T10:16:13.999Z</time></trkpt><trkpt lat="44.886333242715274" lon="7.681766787341498"><ele>231.5</ele><time>2026-03-29T10:16:14.999Z</time></trkpt><trkpt lat="44.886128987884405" lon="7.682013544889978"><ele>231.0</ele><time>2026-03-29T10:16:15.999Z</time></trkpt><trkpt lat="44.88592809422558" lon="7.682258699775466"><ele>230.5</ele><time>2026-03-29T10:16:16.999Z</time></trkpt><trkpt lat="44.88572611734201" lon="7.682500606753691"><ele>230.0</ele><time>2026-03-29T10:16:17.999Z</time></trkpt><trkpt lat="44.88552547077038" lon="7.682738989730033"><ele>230.0</ele><time>2026-03-29T10:16:18.999Z</time></trkpt><trkpt lat="44.8853269302612" lon="7.682977162395411"><ele>230.0</ele><time>2026-03-29T10:16:19.999Z</time></trkpt><trkpt lat="44.88512867977278" lon="7.683212291774727"><ele>230.5</ele><time>2026-03-29T10:16:20.999Z</time></trkpt><trkpt lat="44.884931254896166" lon="7.683442744522359"><ele>231.0</ele><time>2026-03-29T10:16:21.999Z</time></trkpt><trkpt lat="44.88473282300945" lon="7.683673090501219"><ele>231.0</ele><time>2026-03-29T10:16:22.999Z</time></trkpt><trkpt lat="44.88453944065796" lon="7.683906013132078"><ele>231.0</ele><time>2026-03-29T10:16:23.999Z</time></trkpt><trkpt lat="44.88434806104129" lon="7.684137983678717"><ele>231.5</ele><time>2026-03-29T10:16:24.999Z</time></trkpt><trkpt lat="44.88415579555878" lon="7.684372128683282"><ele>232.0</ele><time>2026-03-29T10:16:25.999Z</time></trkpt><trkpt lat="44.883969249237545" lon="7.68461031433223"><ele>232.5</ele><time>2026-03-29T10:16:26.999Z</time></trkpt><trkpt lat="44.883786655428" lon="7.684856119505293"><ele>233.0</ele><time>2026-03-29T10:16:27.999Z</time></trkpt><trkpt lat="44.88361857805483" lon="7.685102377169494"><ele>233.0</ele><time>2026-03-29T10:16:28.999Z</time></trkpt><trkpt lat="44.88345965465109" lon="7.685332933531565"><ele>233.0</ele><time>2026-03-29T10:16:29.999Z</time></trkpt><trkpt lat="44.88330992868495" lon="7.685551467367136"><ele>233.0</ele><time>2026-03-29T10:16:30.999Z</time></trkpt><trkpt lat="44.88316623007853" lon="7.685756631500624"><ele>233.0</ele><time>2026-03-29T10:16:31.999Z</time></trkpt><trkpt lat="44.883022164487016" lon="7.685962248363208"><ele>233.0</ele><time>2026-03-29T10:16:32.999Z</time></trkpt><trkpt lat="44.882883144279546" lon="7.686165615584228"><ele>233.0</ele><time>2026-03-29T10:16:33.999Z</time></trkpt><trkpt lat="44.88274723479714" lon="7.686364258169238"><ele>232.66666666666669</ele><time>2026-03-29T10:16:34.999Z</time></trkpt><trkpt lat="44.882611642013025" lon="7.6865619856802505"><ele>232.33333333333331</ele><time>2026-03-29T10:16:35.999Z</time></trkpt><trkpt lat="44.8824804727487" lon="7.686753322241813"><ele>232.0</ele><time>2026-03-29T10:16:36.999Z</time></trkpt><trkpt lat="44.88235257295177" lon="7.686936864130644"><ele>229.33333333333331</ele><time>2026-03-29T10:16:37.999Z</time></trkpt><trkpt lat="44.882227881882464" lon="7.687114139748539"><ele>226.66666666666669</ele><time>2026-03-29T10:16:38.999Z</time></trkpt><trkpt lat="44.88210333373288" lon="7.687295388154145"><ele>224.0</ele><time>2026-03-29T10:16:39.999Z</time></trkpt><trkpt lat="44.881978594968146" lon="7.687494474586195"><ele>224.0</ele><time>2026-03-29T10:16:40.999Z</time></trkpt><trkpt lat="44.881839194131686" lon="7.687717042463218"><ele>224.0</ele><time>2026-03-29T10:16:41.999Z</time></trkpt><trkpt lat="44.88167124164557" lon="7.6879466823093825"><ele>224.0</ele><time>2026-03-29T10:16:42.999Z</time></trkpt><trkpt lat="44.88149444387854" lon="7.6881634504662255"><ele>228.5</ele><time>2026-03-29T10:16:43.999Z</time></trkpt><trkpt lat="44.88132554609128" lon="7.688383195774031"><ele>233.0</ele><time>2026-03-29T10:16:44.999Z</time></trkpt><trkpt lat="44.881163331911395" lon="7.6886126185670065"><ele>233.0</ele><time>2026-03-29T10:16:45.999Z</time></trkpt><trkpt lat="44.88100698941783" lon="7.688836100260516"><ele>233.0</ele><time>2026-03-29T10:16:46.999Z</time></trkpt><trkpt lat="44.88085739318826" lon="7.689052650919885"><ele>233.0</ele><time>2026-03-29T10:16:47.999Z</time></trkpt><trkpt lat="44.88070767421539" lon="7.689266456516313"><ele>232.66666666666669</ele><time>2026-03-29T10:16:48.999Z</time></trkpt><trkpt lat="44.88055642464664" lon="7.689476706909666"><ele>232.33333333333331</ele><time>2026-03-29T10:16:49.999Z</time></trkpt><trkpt lat="44.88040895531017" lon="7.689686216901348"><ele>232.0</ele><time>2026-03-29T10:16:50.999Z</time></trkpt><trkpt lat="44.880263783718036" lon="7.689898502002455"><ele>232.0</ele><time>2026-03-29T10:16:51.999Z</time></trkpt><trkpt lat="44.88012242713963" lon="7.6901211263057165"><ele>232.0</ele><time>2026-03-29T10:16:52.999Z</time></trkpt><trkpt lat="44.879989720276605" lon="7.690344544280391"><ele>232.0</ele><time>2026-03-29T10:16:53.999Z</time></trkpt><trkpt lat="44.87986429355744" lon="7.690578999640445"><ele>231.33333333333331</ele><time>2026-03-29T10:16:54.999Z</time></trkpt><trkpt lat="44.87974340461707" lon="7.690821647784811"><ele>230.66666666666669</ele><time>2026-03-29T10:16:55.999Z</time></trkpt><trkpt lat="44.879625641551996" lon="7.69105799141071"><ele>230.0</ele><time>2026-03-29T10:16:56.999Z</time></trkpt><trkpt lat="44.879508702222324" lon="7.69129313714489"><ele>230.0</ele><time>2026-03-29T10:16:57.999Z</time></trkpt><trkpt lat="44.87939578022378" lon="7.691534577658524"><ele>230.0</ele><time>2026-03-29T10:16:58.999Z</time></trkpt><trkpt lat="44.87926697789511" lon="7.691781021577515"><ele>230.0</ele><time>2026-03-29T10:16:59.999Z</time></trkpt><trkpt lat="44.879149934277955" lon="7.692029290310791"><ele>230.0</ele><time>2026-03-29T10:17:00.999Z</time></trkpt><trkpt lat="44.87903548848832" lon="7.692278384677539"><ele>230.0</ele><time>2026-03-29T10:17:01.999Z</time></trkpt><trkpt lat="44.87892401176181" lon="7.692524260236376"><ele>230.0</ele><time>2026-03-29T10:17:02.999Z</time></trkpt><trkpt lat="44.8788122319908" lon="7.692756175875938"><ele>230.0</ele><time>2026-03-29T10:17:03.999Z</time></trkpt><trkpt lat="44.87869764193665" lon="7.692993251881929"><ele>230.0</ele><time>2026-03-29T10:17:04.999Z</time></trkpt><trkpt lat="44.87858508788282" lon="7.6932295311827925"><ele>230.0</ele><time>2026-03-29T10:17:05.999Z</time></trkpt><trkpt lat="44.8784751640673" lon="7.693459609226339"><ele>230.0</ele><time>2026-03-29T10:17:06.999Z</time></trkpt><trkpt lat="44.878371748494224" lon="7.69367789113224"><ele>230.0</ele><time>2026-03-29T10:17:07.999Z</time></trkpt><trkpt lat="44.87827191360735" lon="7.693884008021176"><ele>230.0</ele><time>2026-03-29T10:17:08.999Z</time></trkpt><trkpt lat="44.87817412506785" lon="7.694082763774695"><ele>230.0</ele><time>2026-03-29T10:17:09.999Z</time></trkpt><trkpt lat="44.878079366223" lon="7.6942783445629646"><ele>230.0</ele><time>2026-03-29T10:17:10.999Z</time></trkpt><trkpt lat="44.8779859801651" lon="7.694471501583199"><ele>230.0</ele><time>2026-03-29T10:17:11.999Z</time></trkpt><trkpt lat="44.87789728082022" lon="7.694663561500151"><ele>229.33333333333334</ele><time>2026-03-29T10:17:12.999Z</time></trkpt><trkpt lat="44.877812035582664" lon="7.694849582839671"><ele>228.66666666666669</ele><time>2026-03-29T10:17:13.999Z</time></trkpt><trkpt lat="44.877724970882305" lon="7.695034679062135"><ele>228.0</ele><time>2026-03-29T10:17:14.999Z</time></trkpt><trkpt lat="44.87763570537151" lon="7.695220939513311"><ele>228.33333333333331</ele><time>2026-03-29T10:17:15.999Z</time></trkpt><trkpt lat="44.87754493656926" lon="7.695409962421218"><ele>228.66666666666666</ele><time>2026-03-29T10:17:16.999Z</time></trkpt><trkpt lat="44.877453577621374" lon="7.695603210352197"><ele>229.0</ele><time>2026-03-29T10:17:17.999Z</time></trkpt><trkpt lat="44.877361082753445" lon="7.695799358335213"><ele>229.0</ele><time>2026-03-29T10:17:18.999Z</time></trkpt><trkpt lat="44.8772675286764" lon="7.695995265079976"><ele>229.0</ele><time>2026-03-29T10:17:19.999Z</time></trkpt><trkpt lat="44.877175277048465" lon="7.696191634738674"><ele>229.0</ele><time>2026-03-29T10:17:20.999Z</time></trkpt><trkpt lat="44.87707713839507" lon="7.696400413956024"><ele>229.33333333333331</ele><time>2026-03-29T10:17:21.999Z</time></trkpt><trkpt lat="44.87697343827676" lon="7.696634441177458"><ele>229.66666666666669</ele><time>2026-03-29T10:17:22.999Z</time></trkpt><trkpt lat="44.87686696005871" lon="7.6968626885289435"><ele>230.0</ele><time>2026-03-29T10:17:23.999Z</time></trkpt><trkpt lat="44.8767615977348" lon="7.697081420305545"><ele>230.0</ele><time>2026-03-29T10:17:24.999Z</time></trkpt><trkpt lat="44.876658193693615" lon="7.697288485425018"><ele>230.0</ele><time>2026-03-29T10:17:25.999Z</time></trkpt><trkpt lat="44.87655870158772" lon="7.697489633588269"><ele>230.0</ele><time>2026-03-29T10:17:26.999Z</time></trkpt><trkpt lat="44.876463206256155" lon="7.697688982306178"><ele>229.66666666666669</ele><time>2026-03-29T10:17:27.999Z</time></trkpt><trkpt lat="44.87637157322751" lon="7.697882305028803"><ele>229.33333333333331</ele><time>2026-03-29T10:17:28.999Z</time></trkpt><trkpt lat="44.876283308488894" lon="7.698070626632825"><ele>229.0</ele><time>2026-03-29T10:17:29.999Z</time></trkpt><trkpt lat="44.876197635282765" lon="7.698255688852477"><ele>229.0</ele><time>2026-03-29T10:17:30.999Z</time></trkpt><trkpt lat="44.876113121468926" lon="7.698433426550737"><ele>229.0</ele><time>2026-03-29T10:17:31.998Z</time></trkpt><trkpt lat="44.876030419121896" lon="7.6986055899720185"><ele>229.0</ele><time>2026-03-29T10:17:32.998Z</time></trkpt><trkpt lat="44.875950283976124" lon="7.698773970453393"><ele>229.0</ele><time>2026-03-29T10:17:33.998Z</time></trkpt><trkpt lat="44.875872140488" lon="7.698939364980419"><ele>230.0</ele><time>2026-03-29T10:17:34.998Z</time></trkpt><trkpt lat="44.87579557623794" lon="7.699100451381549"><ele>231.0</ele><time>2026-03-29T10:17:35.998Z</time></trkpt><trkpt lat="44.87571779262514" lon="7.699261070349807"><ele>232.0</ele><time>2026-03-29T10:17:36.998Z</time></trkpt><trkpt lat="44.87563831076162" lon="7.699429036504478"><ele>233.0</ele><time>2026-03-29T10:17:37.998Z</time></trkpt><trkpt lat="44.87555698545904" lon="7.69959987939906"><ele>233.0</ele><time>2026-03-29T10:17:39Z</time></trkpt><trkpt lat="44.875473382897646" lon="7.699774513856967"><ele>233.0</ele><time>2026-03-29T10:17:40Z</time></trkpt><trkpt lat="44.8753891473071" lon="7.6999502120020376"><ele>233.0</ele><time>2026-03-29T10:17:41Z</time></trkpt><trkpt lat="44.87530537460467" lon="7.700124731247124"><ele>233.0</ele><time>2026-03-29T10:17:42Z</time></trkpt><trkpt lat="44.87522613301692" lon="7.700292268514818"><ele>233.0</ele><time>2026-03-29T10:17:43Z</time></trkpt><trkpt lat="44.87515047120465" lon="7.700452932660591"><ele>233.0</ele><time>2026-03-29T10:17:44Z</time></trkpt><trkpt lat="44.875078639353845" lon="7.700603715001143"><ele>233.0</ele><time>2026-03-29T10:17:45Z</time></trkpt><trkpt lat="44.875009996278536" lon="7.700748331019881"><ele>233.0</ele><time>2026-03-29T10:17:46Z</time></trkpt><trkpt lat="44.8749436266909" lon="7.700890040127905"><ele>233.0</ele><time>2026-03-29T10:17:47Z</time></trkpt><trkpt lat="44.87487450798675" lon="7.701039108658328"><ele>233.0</ele><time>2026-03-29T10:17:48Z</time></trkpt><trkpt lat="44.87480649850328" lon="7.701184986255765"><ele>233.0</ele><time>2026-03-29T10:17:49Z</time></trkpt><trkpt lat="44.87473952623804" lon="7.701325955456576"><ele>233.0</ele><time>2026-03-29T10:17:50Z</time></trkpt><trkpt lat="44.8746727857575" lon="7.701465617737214"><ele>233.0</ele><time>2026-03-29T10:17:51Z</time></trkpt><trkpt lat="44.87460275689907" lon="7.701611497990191"><ele>233.0</ele><time>2026-03-29T10:17:52Z</time></trkpt><trkpt lat="44.874529620616286" lon="7.701762595711823"><ele>233.0</ele><time>2026-03-29T10:17:53Z</time></trkpt><trkpt lat="44.874455317918624" lon="7.701920978851465"><ele>233.0</ele><time>2026-03-29T10:17:54Z</time></trkpt><trkpt lat="44.87437694545845" lon="7.702085617853968"><ele>232.75</ele><time>2026-03-29T10:17:54.999Z</time></trkpt><trkpt lat="44.8742979555301" lon="7.702252662137743"><ele>232.5</ele><time>2026-03-29T10:17:55.999Z</time></trkpt><trkpt lat="44.87421959361062" lon="7.702411617382573"><ele>232.25</ele><time>2026-03-29T10:17:56.999Z</time></trkpt><trkpt lat="44.874142074450134" lon="7.702570112854589"><ele>232.0</ele><time>2026-03-29T10:17:57.999Z</time></trkpt><trkpt lat="44.874067463223795" lon="7.702724383480071"><ele>232.0</ele><time>2026-03-29T10:17:58.999Z</time></trkpt><trkpt lat="44.87399697175913" lon="7.702873695627669"><ele>232.0</ele><time>2026-03-29T10:17:59.999Z</time></trkpt><trkpt lat="44.873930848826134" lon="7.703021141886911"><ele>232.0</ele><time>2026-03-29T10:18:00.999Z</time></trkpt><trkpt lat="44.873859936192034" lon="7.703171288280335"><ele>232.0</ele><time>2026-03-29T10:18:01.999Z</time></trkpt><trkpt lat="44.873797935936" lon="7.703306974829172"><ele>232.0</ele><time>2026-03-29T10:18:02.999Z</time></trkpt><trkpt lat="44.87373081803036" lon="7.703445304629381"><ele>232.0</ele><time>2026-03-29T10:18:03.999Z</time></trkpt><trkpt lat="44.873661329391254" lon="7.703585417739755"><ele>232.0</ele><time>2026-03-29T10:18:04.999Z</time></trkpt><trkpt lat="44.87359066840103" lon="7.703730825500283"><ele>232.0</ele><time>2026-03-29T10:18:05.999Z</time></trkpt><trkpt lat="44.87352058488928" lon="7.703878178331913"><ele>232.0</ele><time>2026-03-29T10:18:06.999Z</time></trkpt><trkpt lat="44.87345430859295" lon="7.704022050775665"><ele>232.0</ele><time>2026-03-29T10:18:07.999Z</time></trkpt><trkpt lat="44.87339050675507" lon="7.704159864452479"><ele>232.0</ele><time>2026-03-29T10:18:08.999Z</time></trkpt><trkpt lat="44.87332737386021" lon="7.704293490123924"><ele>232.0</ele><time>2026-03-29T10:18:09.999Z</time></trkpt><trkpt lat="44.87326206358302" lon="7.704430681671355"><ele>232.0</ele><time>2026-03-29T10:18:10.999Z</time></trkpt><trkpt lat="44.87319319201108" lon="7.7045726487182025"><ele>232.0</ele><time>2026-03-29T10:18:11.999Z</time></trkpt><trkpt lat="44.873124963679494" lon="7.704715525206664"><ele>232.0</ele><time>2026-03-29T10:18:12.999Z</time></trkpt><trkpt lat="44.87305571114906" lon="7.704863823318143"><ele>232.0</ele><time>2026-03-29T10:18:13.999Z</time></trkpt><trkpt lat="44.87298546786709" lon="7.70501155337851"><ele>232.0</ele><time>2026-03-29T10:18:14.999Z</time></trkpt><trkpt lat="44.87291515292459" lon="7.705161989397305"><ele>232.0</ele><time>2026-03-29T10:18:15.999Z</time></trkpt><trkpt lat="44.87284434044528" lon="7.705313949995542"><ele>232.0</ele><time>2026-03-29T10:18:16.999Z</time></trkpt><trkpt lat="44.87277294503233" lon="7.705466267576697"><ele>232.0</ele><time>2026-03-29T10:18:17.999Z</time></trkpt><trkpt lat="44.872702734975725" lon="7.705616157169968"><ele>232.0</ele><time>2026-03-29T10:18:18.999Z</time></trkpt><trkpt lat="44.872634312408934" lon="7.705762493943496"><ele>232.0</ele><time>2026-03-29T10:18:19.999Z</time></trkpt><trkpt lat="44.87256882371035" lon="7.705901370721045"><ele>232.0</ele><time>2026-03-29T10:18:20.999Z</time></trkpt><trkpt lat="44.87250319793787" lon="7.706036807157874"><ele>232.0</ele><time>2026-03-29T10:18:21.999Z</time></trkpt><trkpt lat="44.87243975408179" lon="7.706168332774626"><ele>232.0</ele><time>2026-03-29T10:18:22.999Z</time></trkpt><trkpt lat="44.87237784326415" lon="7.706298506062481"><ele>232.0</ele><time>2026-03-29T10:18:23.999Z</time></trkpt><trkpt lat="44.872318347945516" lon="7.7064215266495415"><ele>232.0</ele><time>2026-03-29T10:18:24.999Z</time></trkpt><trkpt lat="44.872257841189814" lon="7.706544537024465"><ele>232.0</ele><time>2026-03-29T10:18:25.999Z</time></trkpt><trkpt lat="44.87219698830026" lon="7.706672162302089"><ele>232.0</ele><time>2026-03-29T10:18:26.999Z</time></trkpt><trkpt lat="44.872137013993786" lon="7.7068014973515355"><ele>233.0</ele><time>2026-03-29T10:18:27.999Z</time></trkpt><trkpt lat="44.87207504101391" lon="7.7069348464047565"><ele>234.0</ele><time>2026-03-29T10:18:28.999Z</time></trkpt><trkpt lat="44.87200858057595" lon="7.707075318105358"><ele>235.0</ele><time>2026-03-29T10:18:29.999Z</time></trkpt><trkpt lat="44.87193744605029" lon="7.707219793923554"><ele>236.0</ele><time>2026-03-29T10:18:30.999Z</time></trkpt><trkpt lat="44.87186707981056" lon="7.707366826616681"><ele>236.0</ele><time>2026-03-29T10:18:31.999Z</time></trkpt><trkpt lat="44.87179794660188" lon="7.707515295725307"><ele>236.0</ele><time>2026-03-29T10:18:32.999Z</time></trkpt><trkpt lat="44.87172852003887" lon="7.707665789257217"><ele>236.0</ele><time>2026-03-29T10:18:33.999Z</time></trkpt><trkpt lat="44.87165560209536" lon="7.707813171410023"><ele>236.0</ele><time>2026-03-29T10:18:34.999Z</time></trkpt><trkpt lat="44.871584971864856" lon="7.707957203631362"><ele>236.75</ele><time>2026-03-29T10:18:35.999Z</time></trkpt><trkpt lat="44.8715166482643" lon="7.70810126164713"><ele>237.5</ele><time>2026-03-29T10:18:36.999Z</time></trkpt><trkpt lat="44.87145034033481" lon="7.708243089395824"><ele>238.25</ele><time>2026-03-29T10:18:37.999Z</time></trkpt><trkpt lat="44.871384314787406" lon="7.708386040999428"><ele>239.0</ele><time>2026-03-29T10:18:38.999Z</time></trkpt><trkpt lat="44.87131755337597" lon="7.70852649691857"><ele>239.0</ele><time>2026-03-29T10:18:39.999Z</time></trkpt><trkpt lat="44.871250993483685" lon="7.708669653027393"><ele>239.0</ele><time>2026-03-29T10:18:40.999Z</time></trkpt><trkpt lat="44.871184023738714" lon="7.708813742904839"><ele>239.0</ele><time>2026-03-29T10:18:41.999Z</time></trkpt><trkpt lat="44.871115662454315" lon="7.708962017111292"><ele>239.0</ele><time>2026-03-29T10:18:42.999Z</time></trkpt><trkpt lat="44.87104586027497" lon="7.709114608106562"><ele>239.0</ele><time>2026-03-29T10:18:43.999Z</time></trkpt><trkpt lat="44.87097378362265" lon="7.709265509424882"><ele>239.0</ele><time>2026-03-29T10:18:44.999Z</time></trkpt><trkpt lat="44.87090326623554" lon="7.709407945722398"><ele>239.0</ele><time>2026-03-29T10:18:45.999Z</time></trkpt><trkpt lat="44.8708353695696" lon="7.709547351141947"><ele>239.0</ele><time>2026-03-29T10:18:46.999Z</time></trkpt><trkpt lat="44.870770325800876" lon="7.709676688772314"><ele>239.25</ele><time>2026-03-29T10:18:47.999Z</time></trkpt><trkpt lat="44.870698979407805" lon="7.709842289961755"><ele>239.5</ele><time>2026-03-29T10:18:48.999Z</time></trkpt><trkpt lat="44.87063245721284" lon="7.709986971631343"><ele>239.75</ele><time>2026-03-29T10:18:49.999Z</time></trkpt><trkpt lat="44.870565636480855" lon="7.710126266233372"><ele>240.0</ele><time>2026-03-29T10:18:50.999Z</time></trkpt><trkpt lat="44.87049784811443" lon="7.71026540501889"><ele>240.0</ele><time>2026-03-29T10:18:51.999Z</time></trkpt><trkpt lat="44.87042916333854" lon="7.710409926527302"><ele>240.0</ele><time>2026-03-29T10:18:52.999Z</time></trkpt><trkpt lat="44.87036228562158" lon="7.710555527945035"><ele>240.0</ele><time>2026-03-29T10:18:53.999Z</time></trkpt><trkpt lat="44.87029714927478" lon="7.710692998685769"><ele>240.0</ele><time>2026-03-29T10:18:54.999Z</time></trkpt><trkpt lat="44.87023386712812" lon="7.710821456698313"><ele>240.0</ele><time>2026-03-29T10:18:55.999Z</time></trkpt><trkpt lat="44.870169190691236" lon="7.710947262597099"><ele>240.0</ele><time>2026-03-29T10:18:56.999Z</time></trkpt><trkpt lat="44.87010571551326" lon="7.71107582781467"><ele>240.0</ele><time>2026-03-29T10:18:57.999Z</time></trkpt><trkpt lat="44.87004479056192" lon="7.711204789261255"><ele>240.0</ele><time>2026-03-29T10:18:58.999Z</time></trkpt><trkpt lat="44.86998603928707" lon="7.711324756460328"><ele>240.0</ele><time>2026-03-29T10:18:59.999Z</time></trkpt><trkpt lat="44.8699265052024" lon="7.711450109414856"><ele>239.5</ele><time>2026-03-29T10:19:00.999Z</time></trkpt><trkpt lat="44.869864240691925" lon="7.711578399049905"><ele>239.0</ele><time>2026-03-29T10:19:01.999Z</time></trkpt><trkpt lat="44.869795333320965" lon="7.7117150261827865"><ele>238.5</ele><time>2026-03-29T10:19:02.999Z</time></trkpt><trkpt lat="44.869725649764376" lon="7.711862577734131"><ele>238.0</ele><time>2026-03-29T10:19:03.999Z</time></trkpt><trkpt lat="44.86965227270929" lon="7.71200983367368"><ele>238.0</ele><time>2026-03-29T10:19:04.999Z</time></trkpt><trkpt lat="44.869577159953785" lon="7.712154989194688"><ele>238.0</ele><time>2026-03-29T10:19:05.999Z</time></trkpt><trkpt lat="44.86949378809107" lon="7.712292019010091"><ele>238.0</ele><time>2026-03-29T10:19:06.999Z</time></trkpt><trkpt lat="44.86940361484182" lon="7.712423862373777"><ele>238.0</ele><time>2026-03-29T10:19:07.999Z</time></trkpt><trkpt lat="44.869307259754414" lon="7.712542862818359"><ele>238.0</ele><time>2026-03-29T10:19:08.999Z</time></trkpt><trkpt lat="44.86920776422789" lon="7.712647249197924"><ele>238.0</ele><time>2026-03-29T10:19:09.999Z</time></trkpt><trkpt lat="44.86911146433782" lon="7.712732045555228"><ele>238.0</ele><time>2026-03-29T10:19:10.999Z</time></trkpt><trkpt lat="44.86901349746824" lon="7.712805694257947"><ele>238.0</ele><time>2026-03-29T10:19:11.999Z</time></trkpt><trkpt lat="44.86891441210385" lon="7.712862523050289"><ele>238.2</ele><time>2026-03-29T10:19:12.999Z</time></trkpt><trkpt lat="44.86881814699646" lon="7.712922823474241"><ele>238.4</ele><time>2026-03-29T10:19:13.999Z</time></trkpt><trkpt lat="44.868730050837804" lon="7.712977661082908"><ele>238.59999999999997</ele><time>2026-03-29T10:19:14.999Z</time></trkpt><trkpt lat="44.86864831309868" lon="7.713026895119963"><ele>238.79999999999998</ele><time>2026-03-29T10:19:15.999Z</time></trkpt><trkpt lat="44.868575551845545" lon="7.713068640389742"><ele>239.0</ele><time>2026-03-29T10:19:16.999Z</time></trkpt><trkpt lat="44.86850184147401" lon="7.713114555182683"><ele>239.00000000000003</ele><time>2026-03-29T10:19:17.999Z</time></trkpt><trkpt lat="44.86843099149872" lon="7.713155479998546"><ele>239.0</ele><time>2026-03-29T10:19:18.999Z</time></trkpt><trkpt lat="44.86836322018837" lon="7.713191027463558"><ele>239.0</ele><time>2026-03-29T10:19:19.999Z</time></trkpt><trkpt lat="44.86829303721853" lon="7.71322274042634"><ele>239.0</ele><time>2026-03-29T10:19:20.999Z</time></trkpt><trkpt lat="44.86821561133088" lon="7.713250917229479"><ele>239.00000000000003</ele><time>2026-03-29T10:19:21.999Z</time></trkpt><trkpt lat="44.868137757011894" lon="7.713250354925673"><ele>239.0</ele><time>2026-03-29T10:19:22.999Z</time></trkpt><trkpt lat="44.868067797020046" lon="7.71322669386461"><ele>239.00000000000003</ele><time>2026-03-29T10:19:23.998Z</time></trkpt><trkpt lat="44.86800663981171" lon="7.7131852423064196"><ele>239.0</ele><time>2026-03-29T10:19:24.998Z</time></trkpt><trkpt lat="44.86788922968545" lon="7.713225767358328"><ele>239.0</ele><time>2026-03-29T10:19:26.998Z</time></trkpt><trkpt lat="44.86785485196223" lon="7.713313042091778"><ele>239.0</ele><time>2026-03-29T10:19:27.998Z</time></trkpt><trkpt lat="44.86784021223096" lon="7.713417123975482"><ele>239.00000000000003</ele><time>2026-03-29T10:19:28.998Z</time></trkpt><trkpt lat="44.867802327152944" lon="7.713512278926523"><ele>239.0</ele><time>2026-03-29T10:19:29.998Z</time></trkpt><trkpt lat="44.86772907564691" lon="7.7135817541162455"><ele>239.0</ele><time>2026-03-29T10:19:30.998Z</time></trkpt><trkpt lat="44.86763392884172" lon="7.713633495038609"><ele>238.99999999999997</ele><time>2026-03-29T10:19:31.998Z</time></trkpt><trkpt lat="44.86753394493151" lon="7.7136854451742325"><ele>238.99999999999997</ele><time>2026-03-29T10:19:32.998Z</time></trkpt><trkpt lat="44.867442634436635" lon="7.7137414109912665"><ele>239.0</ele><time>2026-03-29T10:19:33.998Z</time></trkpt><trkpt lat="44.86735464462424" lon="7.71380721618249"><ele>239.0</ele><time>2026-03-29T10:19:34.998Z</time></trkpt><trkpt lat="44.86724825297718" lon="7.713849666939554"><ele>239.25</ele><time>2026-03-29T10:19:35.998Z</time></trkpt><trkpt lat="44.867129107259736" lon="7.713917861619924"><ele>239.5</ele><time>2026-03-29T10:19:36.998Z</time></trkpt><trkpt lat="44.866999097597564" lon="7.713994249532348"><ele>239.75</ele><time>2026-03-29T10:19:37.998Z</time></trkpt><trkpt lat="44.86687439009914" lon="7.714067734054677"><ele>240.0</ele><time>2026-03-29T10:19:38.998Z</time></trkpt><trkpt lat="44.86675778302562" lon="7.7141364453429695"><ele>240.25</ele><time>2026-03-29T10:19:39.998Z</time></trkpt><trkpt lat="44.86663434906655" lon="7.714209179423407"><ele>240.5</ele><time>2026-03-29T10:19:40.998Z</time></trkpt><trkpt lat="44.866505513549804" lon="7.7142850963946925"><ele>240.75</ele><time>2026-03-29T10:19:41.998Z</time></trkpt><trkpt lat="44.866377206335564" lon="7.714360702057469"><ele>241.0</ele><time>2026-03-29T10:19:42.998Z</time></trkpt><trkpt lat="44.86625250605444" lon="7.714434182820134"><ele>240.75</ele><time>2026-03-29T10:19:43.998Z</time></trkpt><trkpt lat="44.86613029541689" lon="7.7145048540469405"><ele>240.5</ele><time>2026-03-29T10:19:44.999Z</time></trkpt><trkpt lat="44.866009276539245" lon="7.714574862130126"><ele>240.25</ele><time>2026-03-29T10:19:45.999Z</time></trkpt><trkpt lat="44.86589405014601" lon="7.714641517568464"><ele>240.0</ele><time>2026-03-29T10:19:46.999Z</time></trkpt><trkpt lat="44.86579013739801" lon="7.714722542844769"><ele>240.0</ele><time>2026-03-29T10:19:47.999Z</time></trkpt><trkpt lat="44.86569190969013" lon="7.714773038836061"><ele>240.0</ele><time>2026-03-29T10:19:48.999Z</time></trkpt><trkpt lat="44.86559762162477" lon="7.714827162473724"><ele>240.0</ele><time>2026-03-29T10:19:49.999Z</time></trkpt><trkpt lat="44.865502611171586" lon="7.714882804301444"><ele>240.0</ele><time>2026-03-29T10:19:50.999Z</time></trkpt><trkpt lat="44.865408914086" lon="7.7149536645425005"><ele>240.0</ele><time>2026-03-29T10:19:51.999Z</time></trkpt><trkpt lat="44.865311446834475" lon="7.7150363458047835"><ele>240.0</ele><time>2026-03-29T10:19:52.999Z</time></trkpt><trkpt lat="44.865184708319966" lon="7.715104696812962"><ele>240.0</ele><time>2026-03-29T10:19:53.999Z</time></trkpt><trkpt lat="44.865050326161736" lon="7.715203482674684"><ele>240.0</ele><time>2026-03-29T10:19:54.999Z</time></trkpt><trkpt lat="44.864916515215484" lon="7.715301848656929"><ele>240.0</ele><time>2026-03-29T10:19:55.999Z</time></trkpt><trkpt lat="44.8647988016213" lon="7.715405512204216"><ele>240.0</ele><time>2026-03-29T10:19:56.999Z</time></trkpt><trkpt lat="44.86468632914949" lon="7.715477235795353"><ele>240.0</ele><time>2026-03-29T10:19:58Z</time></trkpt><trkpt lat="44.864582172201025" lon="7.715555836885655"><ele>240.0</ele><time>2026-03-29T10:19:58.999Z</time></trkpt><trkpt lat="44.86447571222247" lon="7.715640544567714"><ele>240.0</ele><time>2026-03-29T10:19:59.999Z</time></trkpt><trkpt lat="44.86435774334339" lon="7.715705686336996"><ele>240.2</ele><time>2026-03-29T10:20:00.999Z</time></trkpt><trkpt lat="44.864256244119" lon="7.715802584895355"><ele>240.4</ele><time>2026-03-29T10:20:01.999Z</time></trkpt><trkpt lat="44.86415470967386" lon="7.715876532691227"><ele>240.60000000000002</ele><time>2026-03-29T10:20:02.999Z</time></trkpt><trkpt lat="44.86407888644288" lon="7.7159489418818845"><ele>240.8</ele><time>2026-03-29T10:20:03.999Z</time></trkpt><trkpt lat="44.86400791913061" lon="7.716035726963162"><ele>241.0</ele><time>2026-03-29T10:20:04.999Z</time></trkpt><trkpt lat="44.863932917743924" lon="7.71615232218419"><ele>241.0</ele><time>2026-03-29T10:20:05.999Z</time></trkpt><trkpt lat="44.863846211948506" lon="7.716274509860284"><ele>241.0</ele><time>2026-03-29T10:20:06.999Z</time></trkpt><trkpt lat="44.863756441733145" lon="7.71640282610891"><ele>241.0</ele><time>2026-03-29T10:20:07.999Z</time></trkpt><trkpt lat="44.86365875027315" lon="7.716521476112441"><ele>241.0</ele><time>2026-03-29T10:20:08.999Z</time></trkpt><trkpt lat="44.86357294528976" lon="7.716646436073771"><ele>241.0</ele><time>2026-03-29T10:20:09.999Z</time></trkpt><trkpt lat="44.86349240321096" lon="7.716763555308342"><ele>241.00000000000003</ele><time>2026-03-29T10:20:10.999Z</time></trkpt><trkpt lat="44.863424566332895" lon="7.716893036366888"><ele>241.00000000000003</ele><time>2026-03-29T10:20:11.999Z</time></trkpt><trkpt lat="44.863347307466725" lon="7.716987007070805"><ele>241.0</ele><time>2026-03-29T10:20:12.999Z</time></trkpt><trkpt lat="44.863280229186756" lon="7.717069343002639"><ele>241.0</ele><time>2026-03-29T10:20:13.999Z</time></trkpt><trkpt lat="44.86322516685758" lon="7.717144206700738"><ele>241.0</ele><time>2026-03-29T10:20:14.999Z</time></trkpt><trkpt lat="44.863173761578075" lon="7.717213862617866"><ele>241.00000000000003</ele><time>2026-03-29T10:20:15.999Z</time></trkpt><trkpt lat="44.863119769588295" lon="7.717291714324397"><ele>241.00000000000003</ele><time>2026-03-29T10:20:16.999Z</time></trkpt><trkpt lat="44.863055182340595" lon="7.717386725017862"><ele>241.0</ele><time>2026-03-29T10:20:17.999Z</time></trkpt><trkpt lat="44.86298246937265" lon="7.717505885702187"><ele>241.0</ele><time>2026-03-29T10:20:18.999Z</time></trkpt><trkpt lat="44.86288070622189" lon="7.717623795780171"><ele>241.25</ele><time>2026-03-29T10:20:19.999Z</time></trkpt><trkpt lat="44.86278036889341" lon="7.7177644885678705"><ele>241.5</ele><time>2026-03-29T10:20:20.999Z</time></trkpt><trkpt lat="44.86268710228189" lon="7.71792643075058"><ele>241.75</ele><time>2026-03-29T10:20:21.999Z</time></trkpt><trkpt lat="44.86256495210077" lon="7.71806685811382"><ele>242.0</ele><time>2026-03-29T10:20:22.999Z</time></trkpt><trkpt lat="44.862452291700265" lon="7.718221858510904"><ele>242.0</ele><time>2026-03-29T10:20:23.999Z</time></trkpt><trkpt lat="44.86233943158213" lon="7.71838017219657"><ele>242.0</ele><time>2026-03-29T10:20:24.999Z</time></trkpt><trkpt lat="44.86222049503933" lon="7.718527805191691"><ele>242.0</ele><time>2026-03-29T10:20:25.999Z</time></trkpt><trkpt lat="44.862108029062" lon="7.718683590985194"><ele>241.66666666666669</ele><time>2026-03-29T10:20:26.999Z</time></trkpt><trkpt lat="44.86199152804291" lon="7.718842109173303"><ele>241.33333333333331</ele><time>2026-03-29T10:20:27.999Z</time></trkpt><trkpt lat="44.861872619753974" lon="7.719007435304985"><ele>241.0</ele><time>2026-03-29T10:20:28.999Z</time></trkpt><trkpt lat="44.861752438649" lon="7.719173893937628"><ele>241.0</ele><time>2026-03-29T10:20:29.999Z</time></trkpt><trkpt lat="44.86162917287602" lon="7.719341040549156"><ele>241.0</ele><time>2026-03-29T10:20:30.999Z</time></trkpt><trkpt lat="44.86150413111055" lon="7.719509968882972"><ele>241.0</ele><time>2026-03-29T10:20:31.999Z</time></trkpt><trkpt lat="44.861378107543636" lon="7.719681235612941"><ele>240.66666666666666</ele><time>2026-03-29T10:20:32.999Z</time></trkpt><trkpt lat="44.861251225479336" lon="7.719853765145348"><ele>240.33333333333331</ele><time>2026-03-29T10:20:33.999Z</time></trkpt><trkpt lat="44.86111995994672" lon="7.720029871574885"><ele>240.0</ele><time>2026-03-29T10:20:34.999Z</time></trkpt><trkpt lat="44.860984731082894" lon="7.720217053344459"><ele>240.0</ele><time>2026-03-29T10:20:35.999Z</time></trkpt><trkpt lat="44.86084683274794" lon="7.720408547140457"><ele>240.0</ele><time>2026-03-29T10:20:36.999Z</time></trkpt><trkpt lat="44.86070418630586" lon="7.720601284472692"><ele>240.0</ele><time>2026-03-29T10:20:37.999Z</time></trkpt><trkpt lat="44.86056687884066" lon="7.720788455482548"><ele>240.0</ele><time>2026-03-29T10:20:38.999Z</time></trkpt><trkpt lat="44.86042389569077" lon="7.720975227081905"><ele>240.0</ele><time>2026-03-29T10:20:40Z</time></trkpt><trkpt lat="44.8602762664335" lon="7.721158282919194"><ele>240.0</ele><time>2026-03-29T10:20:41Z</time></trkpt><trkpt lat="44.86012096847533" lon="7.721337046359545"><ele>240.66666666666669</ele><time>2026-03-29T10:20:42Z</time></trkpt><trkpt lat="44.859954907576544" lon="7.721505955457505"><ele>241.33333333333334</ele><time>2026-03-29T10:20:43Z</time></trkpt><trkpt lat="44.859801677952" lon="7.721664061214248"><ele>242.0</ele><time>2026-03-29T10:20:44Z</time></trkpt><trkpt lat="44.859660836184005" lon="7.721815926504209"><ele>241.66666666666669</ele><time>2026-03-29T10:20:45Z</time></trkpt><trkpt lat="44.859527902486306" lon="7.721958018187942"><ele>241.33333333333331</ele><time>2026-03-29T10:20:46Z</time></trkpt><trkpt lat="44.85940116757662" lon="7.722094846305993"><ele>241.0</ele><time>2026-03-29T10:20:47Z</time></trkpt><trkpt lat="44.85928184970997" lon="7.722221668832722"><ele>241.0</ele><time>2026-03-29T10:20:48Z</time></trkpt><trkpt lat="44.85916986827334" lon="7.722338967418961"><ele>241.0</ele><time>2026-03-29T10:20:49Z</time></trkpt><trkpt lat="44.85906126152358" lon="7.7224565752703676"><ele>241.0</ele><time>2026-03-29T10:20:50Z</time></trkpt><trkpt lat="44.85895689908453" lon="7.7225727888938245"><ele>241.0</ele><time>2026-03-29T10:20:51Z</time></trkpt><trkpt lat="44.858862411722306" lon="7.722682312393171"><ele>241.0</ele><time>2026-03-29T10:20:52Z</time></trkpt><trkpt lat="44.85878187406505" lon="7.722788602443763"><ele>241.00000000000003</ele><time>2026-03-29T10:20:53Z</time></trkpt><trkpt lat="44.858709240590464" lon="7.722891677343976"><ele>241.00000000000003</ele><time>2026-03-29T10:20:54Z</time></trkpt><trkpt lat="44.858636247009926" lon="7.7229902368835734"><ele>241.0</ele><time>2026-03-29T10:20:55Z</time></trkpt><trkpt lat="44.858552463872066" lon="7.723088821901414"><ele>241.0</ele><time>2026-03-29T10:20:56Z</time></trkpt><trkpt lat="44.858456422075214" lon="7.723173989602838"><ele>240.99999999999997</ele><time>2026-03-29T10:20:57Z</time></trkpt><trkpt lat="44.85836679199695" lon="7.72322909589039"><ele>241.0</ele><time>2026-03-29T10:20:58Z</time></trkpt><trkpt lat="44.858286552366465" lon="7.723257123071837"><ele>241.0</ele><time>2026-03-29T10:20:59Z</time></trkpt><trkpt lat="44.85820858258091" lon="7.723273156656971"><ele>241.0</ele><time>2026-03-29T10:21:00Z</time></trkpt><trkpt lat="44.858131027820114" lon="7.723299868938616"><ele>240.99999999999997</ele><time>2026-03-29T10:21:01Z</time></trkpt><trkpt lat="44.85805087303477" lon="7.723339427724152"><ele>241.0</ele><time>2026-03-29T10:21:02Z</time></trkpt><trkpt lat="44.857967461649935" lon="7.723379935964816"><ele>240.99999999999997</ele><time>2026-03-29T10:21:03Z</time></trkpt><trkpt lat="44.85787535755501" lon="7.723416519349503"><ele>241.0</ele><time>2026-03-29T10:21:04Z</time></trkpt><trkpt lat="44.85777817395161" lon="7.723450330941272"><ele>241.0</ele><time>2026-03-29T10:21:05Z</time></trkpt><trkpt lat="44.85768630000561" lon="7.723471872423567"><ele>241.0</ele><time>2026-03-29T10:21:06Z</time></trkpt><trkpt lat="44.85760780195035" lon="7.723489713450064"><ele>240.99999999999997</ele><time>2026-03-29T10:21:07Z</time></trkpt><trkpt lat="44.857540215008505" lon="7.723508309127633"><ele>241.0</ele><time>2026-03-29T10:21:08Z</time></trkpt><trkpt lat="44.857426320904295" lon="7.723531775420442"><ele>240.60000000000002</ele><time>2026-03-29T10:21:10Z</time></trkpt><trkpt lat="44.85735348247262" lon="7.723552668444108"><ele>240.20000000000002</ele><time>2026-03-29T10:21:11Z</time></trkpt><trkpt lat="44.85725462761141" lon="7.723578434535092"><ele>239.79999999999998</ele><time>2026-03-29T10:21:12Z</time></trkpt><trkpt lat="44.8571432269153" lon="7.723604636599064"><ele>239.39999999999998</ele><time>2026-03-29T10:21:13Z</time></trkpt><trkpt lat="44.85702348096797" lon="7.7236297518268895"><ele>239.0</ele><time>2026-03-29T10:21:14Z</time></trkpt><trkpt lat="44.85692682376379" lon="7.7236477382429864"><ele>239.6</ele><time>2026-03-29T10:21:15Z</time></trkpt><trkpt lat="44.85684098460295" lon="7.723665924961287"><ele>240.2</ele><time>2026-03-29T10:21:16Z</time></trkpt><trkpt lat="44.856761244162705" lon="7.723678887038933"><ele>240.79999999999998</ele><time>2026-03-29T10:21:17Z</time></trkpt><trkpt lat="44.85664571103456" lon="7.723693221887277"><ele>241.39999999999998</ele><time>2026-03-29T10:21:19Z</time></trkpt><trkpt lat="44.856539722508636" lon="7.7237142947034805"><ele>242.0</ele><time>2026-03-29T10:21:21Z</time></trkpt><trkpt lat="44.85642691100718" lon="7.723755548932628"><ele>242.0</ele><time>2026-03-29T10:21:23Z</time></trkpt><trkpt lat="44.856328551641454" lon="7.723755108303747"><ele>242.0</ele><time>2026-03-29T10:21:24Z</time></trkpt><trkpt lat="44.85621553749091" lon="7.723797159536065"><ele>242.0</ele><time>2026-03-29T10:21:25Z</time></trkpt><trkpt lat="44.85608952541043" lon="7.723817098548586"><ele>242.0</ele><time>2026-03-29T10:21:26Z</time></trkpt><trkpt lat="44.85597966796055" lon="7.723841234977101"><ele>241.25</ele><time>2026-03-29T10:21:27Z</time></trkpt><trkpt lat="44.855855153769376" lon="7.723870549210019"><ele>240.5</ele><time>2026-03-29T10:21:28Z</time></trkpt><trkpt lat="44.8556998727529" lon="7.723902322817717"><ele>239.75</ele><time>2026-03-29T10:21:29Z</time></trkpt><trkpt lat="44.85556627447722" lon="7.723912665285542"><ele>239.0</ele><time>2026-03-29T10:21:30Z</time></trkpt><trkpt lat="44.85544722814795" lon="7.723925672199078"><ele>239.0</ele><time>2026-03-29T10:21:31Z</time></trkpt><trkpt lat="44.855331490847234" lon="7.723955305156357"><ele>238.99999999999997</ele><time>2026-03-29T10:21:31.999Z</time></trkpt><trkpt lat="44.855225995784764" lon="7.723981324618575"><ele>238.99999999999997</ele><time>2026-03-29T10:21:32.999Z</time></trkpt><trkpt lat="44.85514077515627" lon="7.723999956326071"><ele>239.0</ele><time>2026-03-29T10:21:33.999Z</time></trkpt><trkpt lat="44.855071416156164" lon="7.724006579150886"><ele>239.0</ele><time>2026-03-29T10:21:34.999Z</time></trkpt><trkpt lat="44.85495853554109" lon="7.724007893680646"><ele>239.0</ele><time>2026-03-29T10:21:36.999Z</time></trkpt><trkpt lat="44.85474911505134" lon="7.72406840975926"><ele>239.0</ele><time>2026-03-29T10:21:38.999Z</time></trkpt><trkpt lat="44.85465129006046" lon="7.724087645981563"><ele>239.0</ele><time>2026-03-29T10:21:39.999Z</time></trkpt><trkpt lat="44.85453024044111" lon="7.72411941433836"><ele>239.0</ele><time>2026-03-29T10:21:40.999Z</time></trkpt><trkpt lat="44.85440138436603" lon="7.724144367365072"><ele>239.25</ele><time>2026-03-29T10:21:41.999Z</time></trkpt><trkpt lat="44.85426876873427" lon="7.724160616579394"><ele>239.5</ele><time>2026-03-29T10:21:42.999Z</time></trkpt><trkpt lat="44.85413962120214" lon="7.72418176083512"><ele>239.75</ele><time>2026-03-29T10:21:43.999Z</time></trkpt><trkpt lat="44.85401903969604" lon="7.7242054169171555"><ele>240.0</ele><time>2026-03-29T10:21:44.999Z</time></trkpt><trkpt lat="44.85390624815764" lon="7.724226785874808"><ele>240.0</ele><time>2026-03-29T10:21:45.999Z</time></trkpt><trkpt lat="44.85379426052077" lon="7.724242608458692"><ele>240.0</ele><time>2026-03-29T10:21:46.999Z</time></trkpt><trkpt lat="44.85368786445112" lon="7.724264316410002"><ele>240.0</ele><time>2026-03-29T10:21:47.999Z</time></trkpt><trkpt lat="44.85358000641442" lon="7.7242893885756985"><ele>240.0</ele><time>2026-03-29T10:21:48.999Z</time></trkpt><trkpt lat="44.85346890054169" lon="7.72430861242349"><ele>240.0</ele><time>2026-03-29T10:21:49.999Z</time></trkpt><trkpt lat="44.853346025945896" lon="7.724329310144402"><ele>240.0</ele><time>2026-03-29T10:21:51Z</time></trkpt><trkpt lat="44.853199284992954" lon="7.724367156769249"><ele>240.0</ele><time>2026-03-29T10:21:52Z</time></trkpt><trkpt lat="44.853032927286975" lon="7.724416235479639"><ele>240.0</ele><time>2026-03-29T10:21:53Z</time></trkpt><trkpt lat="44.85285848083067" lon="7.724453272961336"><ele>240.0</ele><time>2026-03-29T10:21:54Z</time></trkpt><trkpt lat="44.8526941770891" lon="7.724489243774151"><ele>240.0</ele><time>2026-03-29T10:21:55Z</time></trkpt><trkpt lat="44.852538854319704" lon="7.7245169939495"><ele>240.0</ele><time>2026-03-29T10:21:56Z</time></trkpt><trkpt lat="44.852396574756284" lon="7.724534457361684"><ele>239.5</ele><time>2026-03-29T10:21:57Z</time></trkpt><trkpt lat="44.852264830111665" lon="7.7245608895276385"><ele>239.0</ele><time>2026-03-29T10:21:58Z</time></trkpt><trkpt lat="44.85214417770106" lon="7.724582754047804"><ele>238.5</ele><time>2026-03-29T10:21:59Z</time></trkpt><trkpt lat="44.85204104749798" lon="7.724608472420258"><ele>238.0</ele><time>2026-03-29T10:22:00Z</time></trkpt><trkpt lat="44.85194367714906" lon="7.724617827753068"><ele>237.99999999999997</ele><time>2026-03-29T10:22:01Z</time></trkpt><trkpt lat="44.851852823001515" lon="7.724626187482081"><ele>238.0</ele><time>2026-03-29T10:22:02Z</time></trkpt><trkpt lat="44.85176141336786" lon="7.724633772199048"><ele>238.0</ele><time>2026-03-29T10:22:03Z</time></trkpt><trkpt lat="44.85167615484698" lon="7.724641873618773"><ele>238.0</ele><time>2026-03-29T10:22:04Z</time></trkpt><trkpt lat="44.851595710751674" lon="7.724651526106803"><ele>237.99999999999997</ele><time>2026-03-29T10:22:05Z</time></trkpt><trkpt lat="44.851527053962016" lon="7.724666691133577"><ele>238.0</ele><time>2026-03-29T10:22:06Z</time></trkpt><trkpt lat="44.85142033886684" lon="7.724684724216245"><ele>238.4</ele><time>2026-03-29T10:22:08Z</time></trkpt><trkpt lat="44.85131401661296" lon="7.724681644479277"><ele>238.8</ele><time>2026-03-29T10:22:17Z</time></trkpt><trkpt lat="44.851232150177815" lon="7.7246969934899665"><ele>239.2</ele><time>2026-03-29T10:22:18Z</time></trkpt><trkpt lat="44.85117547196766" lon="7.724751939381671"><ele>239.6</ele><time>2026-03-29T10:22:19Z</time></trkpt><trkpt lat="44.851166737838014" lon="7.7249004808464"><ele>240.0</ele><time>2026-03-29T10:22:21Z</time></trkpt><trkpt lat="44.85121270987594" lon="7.725093981224682"><ele>240.0</ele><time>2026-03-29T10:22:23Z</time></trkpt><trkpt lat="44.851224182393295" lon="7.72522232725094"><ele>240.0</ele><time>2026-03-29T10:22:24Z</time></trkpt><trkpt lat="44.85111991560202" lon="7.725358639917879"><ele>240.0</ele><time>2026-03-29T10:22:25Z</time></trkpt><trkpt lat="44.85112773801695" lon="7.725469272292021"><ele>240.0</ele><time>2026-03-29T10:22:26Z</time></trkpt><trkpt lat="44.85124053651794" lon="7.725558121826985"><ele>240.0</ele><time>2026-03-29T10:22:27Z</time></trkpt><trkpt lat="44.85124508749545" lon="7.72565722032358"><ele>240.0</ele><time>2026-03-29T10:22:28Z</time></trkpt><trkpt lat="44.85124996571333" lon="7.725757779313158"><ele>240.0</ele><time>2026-03-29T10:22:29Z</time></trkpt><trkpt lat="44.85125779054623" lon="7.725862366768118"><ele>240.0</ele><time>2026-03-29T10:22:30Z</time></trkpt><trkpt lat="44.851262014916394" lon="7.725963946895748"><ele>240.0</ele><time>2026-03-29T10:22:31Z</time></trkpt><trkpt lat="44.8512633172947" lon="7.726057684793466"><ele>240.0</ele><time>2026-03-29T10:22:32Z</time></trkpt><trkpt lat="44.851253956666966" lon="7.726207527672248"><ele>240.0</ele><time>2026-03-29T10:22:34Z</time></trkpt><trkpt lat="44.85124980679248" lon="7.726381901987992"><ele>240.4</ele><time>2026-03-29T10:22:36Z</time></trkpt><trkpt lat="44.85125905129479" lon="7.726490484807768"><ele>240.8</ele><time>2026-03-29T10:22:37Z</time></trkpt><trkpt lat="44.85126537637913" lon="7.726613739525864"><ele>241.2</ele><time>2026-03-29T10:22:38Z</time></trkpt><trkpt lat="44.8512647771595" lon="7.726745551336727"><ele>241.6</ele><time>2026-03-29T10:22:39Z</time></trkpt><trkpt lat="44.85124949702714" lon="7.7268870599697825"><ele>242.0</ele><time>2026-03-29T10:22:40Z</time></trkpt><trkpt lat="44.851228165718055" lon="7.72703244429482"><ele>242.0</ele><time>2026-03-29T10:22:41Z</time></trkpt><trkpt lat="44.851199956651634" lon="7.727191381437782"><ele>242.0</ele><time>2026-03-29T10:22:42Z</time></trkpt><trkpt lat="44.85115010780082" lon="7.727362291561412"><ele>242.0</ele><time>2026-03-29T10:22:43Z</time></trkpt><trkpt lat="44.85109096069276" lon="7.727526828345632"><ele>242.0</ele><time>2026-03-29T10:22:44Z</time></trkpt><trkpt lat="44.851033249604285" lon="7.727684775928698"><ele>241.75</ele><time>2026-03-29T10:22:45Z</time></trkpt><trkpt lat="44.85098077388346" lon="7.727856793343672"><ele>241.5</ele><time>2026-03-29T10:22:46Z</time></trkpt><trkpt lat="44.85092981120287" lon="7.7280344574721775"><ele>241.25</ele><time>2026-03-29T10:22:47Z</time></trkpt><trkpt lat="44.85087603949092" lon="7.728248990050514"><ele>241.0</ele><time>2026-03-29T10:22:48Z</time></trkpt><trkpt lat="44.850803084211144" lon="7.728503128154577"><ele>241.0</ele><time>2026-03-29T10:22:49Z</time></trkpt><trkpt lat="44.8507611695335" lon="7.728757750895491"><ele>241.0</ele><time>2026-03-29T10:22:50Z</time></trkpt><trkpt lat="44.850716485164725" lon="7.728966486117313"><ele>241.0</ele><time>2026-03-29T10:22:51Z</time></trkpt><trkpt lat="44.85068138168151" lon="7.72915745929609"><ele>241.0</ele><time>2026-03-29T10:22:52Z</time></trkpt><trkpt lat="44.8506531795112" lon="7.729335947455592"><ele>241.0</ele><time>2026-03-29T10:22:53Z</time></trkpt><trkpt lat="44.85062653020447" lon="7.729502457326281"><ele>241.0</ele><time>2026-03-29T10:22:54Z</time></trkpt><trkpt lat="44.85059274880503" lon="7.72965592343373"><ele>241.0</ele><time>2026-03-29T10:22:55Z</time></trkpt><trkpt lat="44.850554194396345" lon="7.729784371681015"><ele>240.83333333333331</ele><time>2026-03-29T10:22:56Z</time></trkpt><trkpt lat="44.850510405189105" lon="7.729900376875332"><ele>240.66666666666666</ele><time>2026-03-29T10:22:57Z</time></trkpt><trkpt lat="44.850457554679465" lon="7.730004013088187"><ele>240.5</ele><time>2026-03-29T10:22:58Z</time></trkpt><trkpt lat="44.850401180864644" lon="7.730095556321902"><ele>240.33333333333331</ele><time>2026-03-29T10:22:59Z</time></trkpt><trkpt lat="44.85033863577073" lon="7.730175610945584"><ele>240.16666666666666</ele><time>2026-03-29T10:23:00Z</time></trkpt><trkpt lat="44.85027059541581" lon="7.730246926421506"><ele>240.0</ele><time>2026-03-29T10:23:01Z</time></trkpt><trkpt lat="44.850198003583856" lon="7.7303093810982295"><ele>240.2</ele><time>2026-03-29T10:23:02Z</time></trkpt><trkpt lat="44.85011830563252" lon="7.730362413514475"><ele>240.4</ele><time>2026-03-29T10:23:03Z</time></trkpt><trkpt lat="44.850029103431254" lon="7.7304054698078675"><ele>240.60000000000002</ele><time>2026-03-29T10:23:04Z</time></trkpt><trkpt lat="44.84992703720511" lon="7.730444133785171"><ele>240.8</ele><time>2026-03-29T10:23:05Z</time></trkpt><trkpt lat="44.84981812056815" lon="7.730479093490507"><ele>241.0</ele><time>2026-03-29T10:23:06Z</time></trkpt><trkpt lat="44.84971766893459" lon="7.7305116054565435"><ele>241.0</ele><time>2026-03-29T10:23:07Z</time></trkpt><trkpt lat="44.84962502386729" lon="7.7305438968685065"><ele>241.00000000000003</ele><time>2026-03-29T10:23:08Z</time></trkpt><trkpt lat="44.84953827043257" lon="7.730575232159367"><ele>241.00000000000003</ele><time>2026-03-29T10:23:09Z</time></trkpt><trkpt lat="44.84946339729671" lon="7.730600952217008"><ele>241.0</ele><time>2026-03-29T10:23:10Z</time></trkpt><trkpt lat="44.849401824577704" lon="7.73061954119621"><ele>241.0</ele><time>2026-03-29T10:23:11Z</time></trkpt><trkpt lat="44.8492768937403" lon="7.730639140954196"><ele>241.0</ele><time>2026-03-29T10:23:13Z</time></trkpt><trkpt lat="44.84921187606958" lon="7.730640977886362"><ele>241.00000000000003</ele><time>2026-03-29T10:23:14Z</time></trkpt><trkpt lat="44.84914669681663" lon="7.730654624540319"><ele>241.00000000000003</ele><time>2026-03-29T10:23:15Z</time></trkpt><trkpt lat="44.849068887829254" lon="7.730756681253939"><ele>241.0</ele><time>2026-03-29T10:23:17Z</time></trkpt><trkpt lat="44.849062242482134" lon="7.730933921258952"><ele>241.0</ele><time>2026-03-29T10:23:19Z</time></trkpt><trkpt lat="44.849075331490795" lon="7.731072799743573"><ele>241.0</ele><time>2026-03-29T10:23:20Z</time></trkpt><trkpt lat="44.84906527097907" lon="7.731258429913147"><ele>241.0</ele><time>2026-03-29T10:23:21Z</time></trkpt><trkpt lat="44.849025349171406" lon="7.731470406743705"><ele>241.0</ele><time>2026-03-29T10:23:22Z</time></trkpt><trkpt lat="44.84897587478479" lon="7.731724206816455"><ele>240.66666666666666</ele><time>2026-03-29T10:23:23Z</time></trkpt><trkpt lat="44.84893240915227" lon="7.732028457850437"><ele>240.33333333333331</ele><time>2026-03-29T10:23:24Z</time></trkpt><trkpt lat="44.84891695179262" lon="7.732329998564267"><ele>240.0</ele><time>2026-03-29T10:23:25Z</time></trkpt><trkpt lat="44.84891410822777" lon="7.7326088729160185"><ele>240.66666666666669</ele><time>2026-03-29T10:23:26Z</time></trkpt><trkpt lat="44.848921787452475" lon="7.732880896017874"><ele>241.33333333333334</ele><time>2026-03-29T10:23:27Z</time></trkpt><trkpt lat="44.84894386145933" lon="7.733148627776487"><ele>242.0</ele><time>2026-03-29T10:23:28Z</time></trkpt><trkpt lat="44.84896912052077" lon="7.733416470180218"><ele>242.33333333333334</ele><time>2026-03-29T10:23:29Z</time></trkpt><trkpt lat="44.84899738928864" lon="7.73369191190441"><ele>242.66666666666669</ele><time>2026-03-29T10:23:30Z</time></trkpt><trkpt lat="44.84901866152535" lon="7.733966205591219"><ele>243.0</ele><time>2026-03-29T10:23:31Z</time></trkpt><trkpt lat="44.849026242693284" lon="7.734247613179136"><ele>243.0</ele><time>2026-03-29T10:23:32Z</time></trkpt><trkpt lat="44.84902341620847" lon="7.734525285359017"><ele>243.0</ele><time>2026-03-29T10:23:32.999Z</time></trkpt><trkpt lat="44.84901773236902" lon="7.734798496127587"><ele>243.0</ele><time>2026-03-29T10:23:33.999Z</time></trkpt><trkpt lat="44.8490133526033" lon="7.735071092238607"><ele>242.66666666666669</ele><time>2026-03-29T10:23:34.999Z</time></trkpt><trkpt lat="44.849005389910104" lon="7.735336219557497"><ele>242.33333333333334</ele><time>2026-03-29T10:23:35.999Z</time></trkpt><trkpt lat="44.848992228370555" lon="7.735585145442969"><ele>242.0</ele><time>2026-03-29T10:23:36.999Z</time></trkpt><trkpt lat="44.84897579040545" lon="7.735815924962723"><ele>242.0</ele><time>2026-03-29T10:23:37.999Z</time></trkpt><trkpt lat="44.84896736440377" lon="7.736030497202527"><ele>242.0</ele><time>2026-03-29T10:23:38.999Z</time></trkpt><trkpt lat="44.84897877776503" lon="7.736229328775035"><ele>242.0</ele><time>2026-03-29T10:23:39.999Z</time></trkpt><trkpt lat="44.84900655173674" lon="7.736413498411642"><ele>242.0</ele><time>2026-03-29T10:23:40.999Z</time></trkpt><trkpt lat="44.849041091352596" lon="7.736581562818732"><ele>241.8</ele><time>2026-03-29T10:23:41.999Z</time></trkpt><trkpt lat="44.84907360218331" lon="7.736721248687961"><ele>241.6</ele><time>2026-03-29T10:23:42.999Z</time></trkpt><trkpt lat="44.849098948418884" lon="7.73683666570107"><ele>241.40000000000003</ele><time>2026-03-29T10:23:43.999Z</time></trkpt><trkpt lat="44.84912459272087" lon="7.736971358728147"><ele>241.20000000000002</ele><time>2026-03-29T10:23:45.999Z</time></trkpt><trkpt lat="44.8491329385422" lon="7.737072905861233"><ele>241.0</ele><time>2026-03-29T10:23:47.999Z</time></trkpt><trkpt lat="44.849135880055464" lon="7.737208592670447"><ele>240.99999999999997</ele><time>2026-03-29T10:23:49.999Z</time></trkpt><trkpt lat="44.84914864949654" lon="7.737343516191674"><ele>241.0</ele><time>2026-03-29T10:23:51.999Z</time></trkpt><trkpt lat="44.84917666459858" lon="7.737427357871477"><ele>241.0</ele><time>2026-03-29T10:23:52.999Z</time></trkpt><trkpt lat="44.84921741972487" lon="7.737520649151284"><ele>241.0</ele><time>2026-03-29T10:23:53.999Z</time></trkpt><trkpt lat="44.8492541527623" lon="7.73762077859768"><ele>240.99999999999997</ele><time>2026-03-29T10:23:54.999Z</time></trkpt><trkpt lat="44.84927737543145" lon="7.737731392431733"><ele>241.0</ele><time>2026-03-29T10:23:56Z</time></trkpt><trkpt lat="44.849295520457886" lon="7.737853082455028"><ele>241.0</ele><time>2026-03-29T10:23:57Z</time></trkpt><trkpt lat="44.8493166435695" lon="7.737983396760336"><ele>241.0</ele><time>2026-03-29T10:23:58Z</time></trkpt><trkpt lat="44.84934562346561" lon="7.73813271899237"><ele>241.0</ele><time>2026-03-29T10:23:59Z</time></trkpt><trkpt lat="44.84938353539898" lon="7.738310744862334"><ele>241.0</ele><time>2026-03-29T10:24:00Z</time></trkpt><trkpt lat="44.849414674088074" lon="7.738486485416629"><ele>241.25</ele><time>2026-03-29T10:24:01Z</time></trkpt><trkpt lat="44.8494432606054" lon="7.7386574116613795"><ele>241.5</ele><time>2026-03-29T10:24:02Z</time></trkpt><trkpt lat="44.849473087914994" lon="7.738820045439406"><ele>241.75</ele><time>2026-03-29T10:24:03Z</time></trkpt><trkpt lat="44.84950425421314" lon="7.738980339540742"><ele>242.0</ele><time>2026-03-29T10:24:04Z</time></trkpt><trkpt lat="44.84953500214074" lon="7.73914340402982"><ele>242.0</ele><time>2026-03-29T10:24:05Z</time></trkpt><trkpt lat="44.849564690388306" lon="7.7393035382506685"><ele>242.0</ele><time>2026-03-29T10:24:06Z</time></trkpt><trkpt lat="44.84959115446435" lon="7.739461189871904"><ele>242.0</ele><time>2026-03-29T10:24:07Z</time></trkpt><trkpt lat="44.84961658096576" lon="7.739621183420001"><ele>242.0</ele><time>2026-03-29T10:24:08Z</time></trkpt><trkpt lat="44.84963885693163" lon="7.73975250700778"><ele>242.0</ele><time>2026-03-29T10:24:09Z</time></trkpt><trkpt lat="44.849658744535716" lon="7.739853327729979"><ele>242.0</ele><time>2026-03-29T10:24:10Z</time></trkpt><trkpt lat="44.849669205705354" lon="7.739991623301751"><ele>242.0</ele><time>2026-03-29T10:24:12Z</time></trkpt><trkpt lat="44.84966641038622" lon="7.740155974795149"><ele>242.0</ele><time>2026-03-29T10:24:14Z</time></trkpt><trkpt lat="44.84967510621894" lon="7.740307123453121"><ele>242.0</ele><time>2026-03-29T10:24:15Z</time></trkpt><trkpt lat="44.849688490754026" lon="7.740477402989023"><ele>242.0</ele><time>2026-03-29T10:24:16Z</time></trkpt><trkpt lat="44.84969991792438" lon="7.740645192177981"><ele>242.0</ele><time>2026-03-29T10:24:17Z</time></trkpt><trkpt lat="44.849710328947936" lon="7.74080810536634"><ele>242.0</ele><time>2026-03-29T10:24:18Z</time></trkpt><trkpt lat="44.84971911698139" lon="7.740972959406514"><ele>242.0</ele><time>2026-03-29T10:24:19Z</time></trkpt><trkpt lat="44.84973135406956" lon="7.741144756810093"><ele>242.0</ele><time>2026-03-29T10:24:20Z</time></trkpt><trkpt lat="44.84974350069317" lon="7.741328415572372"><ele>242.0</ele><time>2026-03-29T10:24:21Z</time></trkpt><trkpt lat="44.849754106495006" lon="7.741518548172843"><ele>242.0</ele><time>2026-03-29T10:24:22Z</time></trkpt><trkpt lat="44.84976600244101" lon="7.741715580597012"><ele>242.0</ele><time>2026-03-29T10:24:23Z</time></trkpt><trkpt lat="44.84978446251625" lon="7.741932705817657"><ele>242.0</ele><time>2026-03-29T10:24:24Z</time></trkpt><trkpt lat="44.849808591467" lon="7.7421592388533105"><ele>242.0</ele><time>2026-03-29T10:24:25Z</time></trkpt><trkpt lat="44.84983992208302" lon="7.742385384966085"><ele>242.0</ele><time>2026-03-29T10:24:26Z</time></trkpt><trkpt lat="44.849879464921464" lon="7.742615235546174"><ele>242.0</ele><time>2026-03-29T10:24:27Z</time></trkpt><trkpt lat="44.849921240329635" lon="7.742858800943488"><ele>242.0</ele><time>2026-03-29T10:24:28Z</time></trkpt><trkpt lat="44.849970504238314" lon="7.7431229994053465"><ele>242.0</ele><time>2026-03-29T10:24:29Z</time></trkpt><trkpt lat="44.85003002345572" lon="7.743427682367284"><ele>242.0</ele><time>2026-03-29T10:24:30Z</time></trkpt><trkpt lat="44.85008756018544" lon="7.743731060482829"><ele>242.0</ele><time>2026-03-29T10:24:31Z</time></trkpt><trkpt lat="44.85013849556237" lon="7.74402112607034"><ele>242.0</ele><time>2026-03-29T10:24:32Z</time></trkpt><trkpt lat="44.85018750731342" lon="7.7442939107098105"><ele>242.0</ele><time>2026-03-29T10:24:33Z</time></trkpt><trkpt lat="44.85023644309135" lon="7.74455297250841"><ele>242.0</ele><time>2026-03-29T10:24:34Z</time></trkpt><trkpt lat="44.85028549024487" lon="7.744799563069536"><ele>242.0</ele><time>2026-03-29T10:24:35Z</time></trkpt><trkpt lat="44.85033608305105" lon="7.745042487959897"><ele>242.0</ele><time>2026-03-29T10:24:36Z</time></trkpt><trkpt lat="44.8504001949613" lon="7.745312206396156"><ele>242.0</ele><time>2026-03-29T10:24:37Z</time></trkpt><trkpt lat="44.85047279127988" lon="7.745565385993242"><ele>242.0</ele><time>2026-03-29T10:24:38Z</time></trkpt><trkpt lat="44.85054994746516" lon="7.74583673456825"><ele>242.0</ele><time>2026-03-29T10:24:39Z</time></trkpt><trkpt lat="44.85063315803126" lon="7.7461271582802835"><ele>242.0</ele><time>2026-03-29T10:24:40Z</time></trkpt><trkpt lat="44.85072034237811" lon="7.746424856390651"><ele>242.0</ele><time>2026-03-29T10:24:41Z</time></trkpt><trkpt lat="44.850799492597105" lon="7.746696614703185"><ele>242.0</ele><time>2026-03-29T10:24:42Z</time></trkpt><trkpt lat="44.85087369437461" lon="7.746954647797168"><ele>242.66666666666669</ele><time>2026-03-29T10:24:43Z</time></trkpt><trkpt lat="44.850945311037115" lon="7.747207501734164"><ele>243.33333333333331</ele><time>2026-03-29T10:24:44Z</time></trkpt><trkpt lat="44.85101293150062" lon="7.74745773067682"><ele>244.0</ele><time>2026-03-29T10:24:45Z</time></trkpt><trkpt lat="44.851082226287744" lon="7.747712993006281"><ele>244.0</ele><time>2026-03-29T10:24:46Z</time></trkpt><trkpt lat="44.851159609848715" lon="7.747984988134699"><ele>244.0</ele><time>2026-03-29T10:24:47Z</time></trkpt><trkpt lat="44.8512426673437" lon="7.7482697031146195"><ele>244.0</ele><time>2026-03-29T10:24:48Z</time></trkpt><trkpt lat="44.85132363345555" lon="7.748554684269013"><ele>244.0</ele><time>2026-03-29T10:24:49Z</time></trkpt><trkpt lat="44.85140107436689" lon="7.748825025414835"><ele>244.0</ele><time>2026-03-29T10:24:50Z</time></trkpt><trkpt lat="44.851478846207556" lon="7.74909659845322"><ele>244.0</ele><time>2026-03-29T10:24:51Z</time></trkpt><trkpt lat="44.85155559340413" lon="7.749370604735603"><ele>244.0</ele><time>2026-03-29T10:24:52Z</time></trkpt><trkpt lat="44.85163410470599" lon="7.749657019324653"><ele>244.0</ele><time>2026-03-29T10:24:53Z</time></trkpt><trkpt lat="44.851711557634964" lon="7.749941171844018"><ele>244.0</ele><time>2026-03-29T10:24:54Z</time></trkpt><trkpt lat="44.85179457737865" lon="7.750225610507001"><ele>243.5</ele><time>2026-03-29T10:24:55Z</time></trkpt><trkpt lat="44.85187642683008" lon="7.7505193330708195"><ele>243.0</ele><time>2026-03-29T10:24:56Z</time></trkpt><trkpt lat="44.851956938414325" lon="7.7508323755386845"><ele>243.5</ele><time>2026-03-29T10:24:57Z</time></trkpt><trkpt lat="44.852031329579816" lon="7.751178766496695"><ele>244.0</ele><time>2026-03-29T10:24:58Z</time></trkpt><trkpt lat="44.85208114038335" lon="7.7515358251021045"><ele>244.0</ele><time>2026-03-29T10:24:59Z</time></trkpt><trkpt lat="44.85212092021215" lon="7.751868679413804"><ele>244.0</ele><time>2026-03-29T10:25:00Z</time></trkpt><trkpt lat="44.852148478061686" lon="7.752203761439315"><ele>244.0</ele><time>2026-03-29T10:25:01Z</time></trkpt><trkpt lat="44.852164835524384" lon="7.752536610929221"><ele>244.0</ele><time>2026-03-29T10:25:02Z</time></trkpt><trkpt lat="44.852178803831094" lon="7.752872225681374"><ele>243.5</ele><time>2026-03-29T10:25:03Z</time></trkpt><trkpt lat="44.85219005487571" lon="7.753205632255167"><ele>243.0</ele><time>2026-03-29T10:25:04Z</time></trkpt><trkpt lat="44.85220411710614" lon="7.753546356064115"><ele>242.5</ele><time>2026-03-29T10:25:05Z</time></trkpt><trkpt lat="44.85221897308373" lon="7.7539016284040025"><ele>242.0</ele><time>2026-03-29T10:25:06Z</time></trkpt><trkpt lat="44.852233081816784" lon="7.754248698071411"><ele>242.0</ele><time>2026-03-29T10:25:07Z</time></trkpt><trkpt lat="44.85224774693015" lon="7.754582851173893"><ele>242.0</ele><time>2026-03-29T10:25:08Z</time></trkpt><trkpt lat="44.85226389897486" lon="7.7549124805597405"><ele>242.5</ele><time>2026-03-29T10:25:09Z</time></trkpt><trkpt lat="44.85227979762905" lon="7.7552440781973"><ele>243.0</ele><time>2026-03-29T10:25:10Z</time></trkpt><trkpt lat="44.852296180681805" lon="7.755573503285884"><ele>243.0</ele><time>2026-03-29T10:25:11Z</time></trkpt><trkpt lat="44.85231680428717" lon="7.755901605452029"><ele>243.0</ele><time>2026-03-29T10:25:12Z</time></trkpt><trkpt lat="44.8523380442488" lon="7.756227399968508"><ele>243.0</ele><time>2026-03-29T10:25:13Z</time></trkpt><trkpt lat="44.85235320111398" lon="7.75655048638849"><ele>243.0</ele><time>2026-03-29T10:25:14Z</time></trkpt><trkpt lat="44.85235389486458" lon="7.756870658224519"><ele>243.33333333333331</ele><time>2026-03-29T10:25:15Z</time></trkpt><trkpt lat="44.85233754487502" lon="7.757184425412599"><ele>243.66666666666666</ele><time>2026-03-29T10:25:16Z</time></trkpt><trkpt lat="44.85231461016972" lon="7.75749319265475"><ele>244.0</ele><time>2026-03-29T10:25:17Z</time></trkpt><trkpt lat="44.85229462295502" lon="7.757811292245968"><ele>243.0</ele><time>2026-03-29T10:25:18Z</time></trkpt><trkpt lat="44.8522762865307" lon="7.758136780370372"><ele>242.0</ele><time>2026-03-29T10:25:19Z</time></trkpt><trkpt lat="44.85226207408006" lon="7.7584751509751095"><ele>242.0</ele><time>2026-03-29T10:25:20Z</time></trkpt><trkpt lat="44.85224743850927" lon="7.758806954819458"><ele>242.0</ele><time>2026-03-29T10:25:21Z</time></trkpt><trkpt lat="44.85222981304736" lon="7.7591225427528725"><ele>242.0</ele><time>2026-03-29T10:25:22Z</time></trkpt><trkpt lat="44.852201698206635" lon="7.759421856343619"><ele>242.0</ele><time>2026-03-29T10:25:23Z</time></trkpt><trkpt lat="44.85216122183524" lon="7.759706426622659"><ele>242.0</ele><time>2026-03-29T10:25:24Z</time></trkpt><trkpt lat="44.85212706400662" lon="7.759982557563466"><ele>241.66666666666669</ele><time>2026-03-29T10:25:25Z</time></trkpt><trkpt lat="44.85210929169892" lon="7.760242026714544"><ele>241.33333333333331</ele><time>2026-03-29T10:25:26Z</time></trkpt><trkpt lat="44.852113344008195" lon="7.760499046074327"><ele>241.0</ele><time>2026-03-29T10:25:27Z</time></trkpt><trkpt lat="44.85213049023377" lon="7.760745116000926"><ele>241.0</ele><time>2026-03-29T10:25:28Z</time></trkpt><trkpt lat="44.85215664340244" lon="7.760984465010372"><ele>241.0</ele><time>2026-03-29T10:25:29Z</time></trkpt><trkpt lat="44.85217944346905" lon="7.7612157604590015"><ele>241.0</ele><time>2026-03-29T10:25:30Z</time></trkpt><trkpt lat="44.85219942165772" lon="7.761435332090864"><ele>241.25</ele><time>2026-03-29T10:25:31Z</time></trkpt><trkpt lat="44.852221139469044" lon="7.761645940728561"><ele>241.5</ele><time>2026-03-29T10:25:32Z</time></trkpt><trkpt lat="44.85224209833537" lon="7.761849128753327"><ele>241.75</ele><time>2026-03-29T10:25:33Z</time></trkpt><trkpt lat="44.85226044436551" lon="7.762039417205682"><ele>242.0</ele><time>2026-03-29T10:25:33.999Z</time></trkpt><trkpt lat="44.85228100476566" lon="7.762225166811901"><ele>242.0</ele><time>2026-03-29T10:25:34.999Z</time></trkpt><trkpt lat="44.85230040411692" lon="7.762404212362231"><ele>242.0</ele><time>2026-03-29T10:25:35.999Z</time></trkpt><trkpt lat="44.85231610487749" lon="7.762579330567789"><ele>242.0</ele><time>2026-03-29T10:25:36.999Z</time></trkpt><trkpt lat="44.852330833843574" lon="7.762756811853107"><ele>242.0</ele><time>2026-03-29T10:25:37.999Z</time></trkpt><trkpt lat="44.85234383816508" lon="7.7629409466973796"><ele>242.25</ele><time>2026-03-29T10:25:38.999Z</time></trkpt><trkpt lat="44.85235371875647" lon="7.763127973013555"><ele>242.5</ele><time>2026-03-29T10:25:39.999Z</time></trkpt><trkpt lat="44.85235232333746" lon="7.763325136631928"><ele>242.75</ele><time>2026-03-29T10:25:40.999Z</time></trkpt><trkpt lat="44.85234099461773" lon="7.763530990469746"><ele>243.0</ele><time>2026-03-29T10:25:41.999Z</time></trkpt><trkpt lat="44.852324019296596" lon="7.763762021468317"><ele>243.0</ele><time>2026-03-29T10:25:42.999Z</time></trkpt><trkpt lat="44.85230214753518" lon="7.7640010784464435"><ele>243.0</ele><time>2026-03-29T10:25:43.999Z</time></trkpt><trkpt lat="44.85227556614896" lon="7.764226220642055"><ele>243.0</ele><time>2026-03-29T10:25:44.999Z</time></trkpt><trkpt lat="44.852250698678596" lon="7.764427239349301"><ele>243.0</ele><time>2026-03-29T10:25:45.999Z</time></trkpt><trkpt lat="44.85222317073904" lon="7.7646222456948335"><ele>243.0</ele><time>2026-03-29T10:25:46.999Z</time></trkpt><trkpt lat="44.85219668103558" lon="7.76481635328833"><ele>243.0</ele><time>2026-03-29T10:25:47.999Z</time></trkpt><trkpt lat="44.852175488258844" lon="7.765018694169691"><ele>243.0</ele><time>2026-03-29T10:25:48.999Z</time></trkpt><trkpt lat="44.85216789698141" lon="7.765219048088067"><ele>242.75</ele><time>2026-03-29T10:25:49.999Z</time></trkpt><trkpt lat="44.85217418838802" lon="7.765424178284187"><ele>242.5</ele><time>2026-03-29T10:25:50.999Z</time></trkpt><trkpt lat="44.85218275221286" lon="7.765633181412092"><ele>242.25</ele><time>2026-03-29T10:25:51.999Z</time></trkpt><trkpt lat="44.85219760035767" lon="7.765842139427986"><ele>242.0</ele><time>2026-03-29T10:25:52.999Z</time></trkpt><trkpt lat="44.852225702055875" lon="7.766041071281543"><ele>242.0</ele><time>2026-03-29T10:25:53.999Z</time></trkpt><trkpt lat="44.85226120042601" lon="7.7662321530133855"><ele>242.0</ele><time>2026-03-29T10:25:54.999Z</time></trkpt><trkpt lat="44.852307920229215" lon="7.7664242611319185"><ele>242.0</ele><time>2026-03-29T10:25:55.999Z</time></trkpt><trkpt lat="44.85236489223291" lon="7.766642413551383"><ele>242.0</ele><time>2026-03-29T10:25:56.999Z</time></trkpt><trkpt lat="44.852427644887264" lon="7.766892644420883"><ele>242.66666666666669</ele><time>2026-03-29T10:25:57.999Z</time></trkpt><trkpt lat="44.85249079493983" lon="7.767166195112995"><ele>243.33333333333331</ele><time>2026-03-29T10:25:58.999Z</time></trkpt><trkpt lat="44.852545125852664" lon="7.767412252872224"><ele>244.0</ele><time>2026-03-29T10:25:59.999Z</time></trkpt><trkpt lat="44.852599444100704" lon="7.767635444391842"><ele>244.66666666666666</ele><time>2026-03-29T10:26:00.999Z</time></trkpt><trkpt lat="44.85265494497023" lon="7.767855012219794"><ele>245.33333333333331</ele><time>2026-03-29T10:26:02Z</time></trkpt><trkpt lat="44.85271219619377" lon="7.768072118652452"><ele>246.0</ele><time>2026-03-29T10:26:03Z</time></trkpt><trkpt lat="44.852768674334015" lon="7.768286607020972"><ele>246.0</ele><time>2026-03-29T10:26:04Z</time></trkpt><trkpt lat="44.852838594008006" lon="7.768523955760641"><ele>246.0</ele><time>2026-03-29T10:26:05Z</time></trkpt><trkpt lat="44.85292270726794" lon="7.76880150352936"><ele>246.0</ele><time>2026-03-29T10:26:06Z</time></trkpt><trkpt lat="44.85300331357248" lon="7.769076841110427"><ele>246.66666666666669</ele><time>2026-03-29T10:26:07Z</time></trkpt><trkpt lat="44.8530819515737" lon="7.769321003774938"><ele>247.33333333333334</ele><time>2026-03-29T10:26:08Z</time></trkpt><trkpt lat="44.85316889110198" lon="7.769533006525784"><ele>248.0</ele><time>2026-03-29T10:26:09Z</time></trkpt><trkpt lat="44.853263470912815" lon="7.769726714055395"><ele>248.25</ele><time>2026-03-29T10:26:10Z</time></trkpt><trkpt lat="44.853350467119256" lon="7.7699106003690925"><ele>248.5</ele><time>2026-03-29T10:26:11Z</time></trkpt><trkpt lat="44.85343029269124" lon="7.770093610868116"><ele>248.75</ele><time>2026-03-29T10:26:12Z</time></trkpt><trkpt lat="44.853501989587" lon="7.770263453836902"><ele>249.0</ele><time>2026-03-29T10:26:13Z</time></trkpt><trkpt lat="44.85358142426564" lon="7.77041675180823"><ele>248.25</ele><time>2026-03-29T10:26:14Z</time></trkpt><trkpt lat="44.853669513535806" lon="7.770552950250596"><ele>247.5</ele><time>2026-03-29T10:26:15Z</time></trkpt><trkpt lat="44.85375969960018" lon="7.770676513567539"><ele>246.75</ele><time>2026-03-29T10:26:16Z</time></trkpt><trkpt lat="44.8538462090668" lon="7.770797085581303"><ele>246.0</ele><time>2026-03-29T10:26:17Z</time></trkpt><trkpt lat="44.85391761917847" lon="7.770909163381431"><ele>246.0</ele><time>2026-03-29T10:26:18Z</time></trkpt><trkpt lat="44.853974996648255" lon="7.77101307755995"><ele>246.0</ele><time>2026-03-29T10:26:19Z</time></trkpt><trkpt lat="44.8540125171831" lon="7.771121884793137"><ele>246.0</ele><time>2026-03-29T10:26:20Z</time></trkpt><trkpt lat="44.85402757287058" lon="7.77123671611844"><ele>246.0</ele><time>2026-03-29T10:26:21Z</time></trkpt><trkpt lat="44.85401402171091" lon="7.7713501328698245"><ele>246.0</ele><time>2026-03-29T10:26:22Z</time></trkpt><trkpt lat="44.85398412409368" lon="7.771455558232262"><ele>246.0</ele><time>2026-03-29T10:26:23Z</time></trkpt><trkpt lat="44.85397378728649" lon="7.771571711771163"><ele>246.5</ele><time>2026-03-29T10:26:24Z</time></trkpt><trkpt lat="44.853983929764745" lon="7.771712996606016"><ele>247.0</ele><time>2026-03-29T10:26:25Z</time></trkpt><trkpt lat="44.85396802044774" lon="7.771877409964816"><ele>247.5</ele><time>2026-03-29T10:26:26Z</time></trkpt><trkpt lat="44.85388462483453" lon="7.7720070754369415"><ele>248.0</ele><time>2026-03-29T10:26:27Z</time></trkpt><trkpt lat="44.85379260911454" lon="7.772174530693976"><ele>249.33333333333334</ele><time>2026-03-29T10:26:28Z</time></trkpt><trkpt lat="44.85366955018881" lon="7.772334297208278"><ele>250.66666666666669</ele><time>2026-03-29T10:26:29Z</time></trkpt><trkpt lat="44.85355826624405" lon="7.772535427971881"><ele>252.0</ele><time>2026-03-29T10:26:30Z</time></trkpt><trkpt lat="44.85346258987051" lon="7.772775324128145"><ele>251.66666666666669</ele><time>2026-03-29T10:26:31Z</time></trkpt><trkpt lat="44.853383896718356" lon="7.7730441960073335"><ele>251.33333333333334</ele><time>2026-03-29T10:26:32Z</time></trkpt><trkpt lat="44.85331725714019" lon="7.773354268918675"><ele>251.0</ele><time>2026-03-29T10:26:33Z</time></trkpt><trkpt lat="44.85325906739176" lon="7.773680932268797"><ele>251.0</ele><time>2026-03-29T10:26:34Z</time></trkpt><trkpt lat="44.85320300006314" lon="7.774006047861474"><ele>251.0</ele><time>2026-03-29T10:26:35Z</time></trkpt><trkpt lat="44.85315248190804" lon="7.774313346737167"><ele>251.0</ele><time>2026-03-29T10:26:36Z</time></trkpt><trkpt lat="44.85310664238074" lon="7.774614389436665"><ele>251.0</ele><time>2026-03-29T10:26:37Z</time></trkpt><trkpt lat="44.85307797984438" lon="7.774907422455303"><ele>251.0</ele><time>2026-03-29T10:26:38Z</time></trkpt><trkpt lat="44.85307522488789" lon="7.775181690362987"><ele>250.66666666666669</ele><time>2026-03-29T10:26:39Z</time></trkpt><trkpt lat="44.853078618204265" lon="7.775456212617644"><ele>250.33333333333331</ele><time>2026-03-29T10:26:40Z</time></trkpt><trkpt lat="44.8530866249525" lon="7.775742584217623"><ele>250.0</ele><time>2026-03-29T10:26:41Z</time></trkpt><trkpt lat="44.853107622806505" lon="7.776043087959329"><ele>250.0</ele><time>2026-03-29T10:26:42Z</time></trkpt><trkpt lat="44.853129205774366" lon="7.776350711747003"><ele>250.0</ele><time>2026-03-29T10:26:43Z</time></trkpt><trkpt lat="44.853138936304525" lon="7.776652466275982"><ele>250.0</ele><time>2026-03-29T10:26:44Z</time></trkpt><trkpt lat="44.85313218371191" lon="7.776947238369665"><ele>251.0</ele><time>2026-03-29T10:26:45Z</time></trkpt><trkpt lat="44.853102587789635" lon="7.77725408256117"><ele>252.0</ele><time>2026-03-29T10:26:46Z</time></trkpt><trkpt lat="44.85305205044148" lon="7.777578106643187"><ele>252.5</ele><time>2026-03-29T10:26:47Z</time></trkpt><trkpt lat="44.852990542305044" lon="7.777925519647596"><ele>253.0</ele><time>2026-03-29T10:26:48Z</time></trkpt><trkpt lat="44.852928813263716" lon="7.7782882149745225"><ele>253.0</ele><time>2026-03-29T10:26:49Z</time></trkpt><trkpt lat="44.85286364893394" lon="7.778674748802692"><ele>253.0</ele><time>2026-03-29T10:26:50Z</time></trkpt><trkpt lat="44.85279569434864" lon="7.779070258022373"><ele>253.0</ele><time>2026-03-29T10:26:51Z</time></trkpt><trkpt lat="44.852728470786694" lon="7.779472577580685"><ele>253.0</ele><time>2026-03-29T10:26:52Z</time></trkpt><trkpt lat="44.852662426102846" lon="7.779878477052024"><ele>254.0</ele><time>2026-03-29T10:26:53Z</time></trkpt><trkpt lat="44.852596819965385" lon="7.780277113353339"><ele>255.0</ele><time>2026-03-29T10:26:54Z</time></trkpt><trkpt lat="44.85253065162593" lon="7.780672326571166"><ele>255.5</ele><time>2026-03-29T10:26:55Z</time></trkpt><trkpt lat="44.8524650040935" lon="7.78106553439254"><ele>256.0</ele><time>2026-03-29T10:26:56Z</time></trkpt><trkpt lat="44.852398219142245" lon="7.781459474169158"><ele>256.5</ele><time>2026-03-29T10:26:57Z</time></trkpt><trkpt lat="44.85233192496626" lon="7.781852183323003"><ele>257.0</ele><time>2026-03-29T10:26:58Z</time></trkpt><trkpt lat="44.85226737286405" lon="7.782244819926982"><ele>257.0</ele><time>2026-03-29T10:26:59Z</time></trkpt><trkpt lat="44.85220145842809" lon="7.7826167916608755"><ele>257.0</ele><time>2026-03-29T10:27:00Z</time></trkpt><trkpt lat="44.85213833955772" lon="7.78296890784234"><ele>257.0</ele><time>2026-03-29T10:27:01Z</time></trkpt><trkpt lat="44.852086430883176" lon="7.783324747494775"><ele>257.0</ele><time>2026-03-29T10:27:02Z</time></trkpt><trkpt lat="44.85205533257733" lon="7.7836990479216395"><ele>257.0</ele><time>2026-03-29T10:27:03Z</time></trkpt><trkpt lat="44.852048352532776" lon="7.784099485221552"><ele>257.0</ele><time>2026-03-29T10:27:04Z</time></trkpt><trkpt lat="44.852060880759446" lon="7.784517014361188"><ele>257.0</ele><time>2026-03-29T10:27:05Z</time></trkpt><trkpt lat="44.85209389505232" lon="7.784944485377654"><ele>257.0</ele><time>2026-03-29T10:27:06Z</time></trkpt><trkpt lat="44.85215528851507" lon="7.785368944154754"><ele>257.0</ele><time>2026-03-29T10:27:07Z</time></trkpt><trkpt lat="44.85223836327176" lon="7.785791358106123"><ele>257.0</ele><time>2026-03-29T10:27:08Z</time></trkpt><trkpt lat="44.852323247831656" lon="7.786195405035262"><ele>256.5</ele><time>2026-03-29T10:27:09Z</time></trkpt><trkpt lat="44.852395354775595" lon="7.786596030435211"><ele>256.0</ele><time>2026-03-29T10:27:10Z</time></trkpt><trkpt lat="44.85246566048792" lon="7.786987959460218"><ele>256.0</ele><time>2026-03-29T10:27:11Z</time></trkpt><trkpt lat="44.85253254427519" lon="7.787361308467131"><ele>256.0</ele><time>2026-03-29T10:27:12Z</time></trkpt><trkpt lat="44.8525965754675" lon="7.787720723638614"><ele>256.5</ele><time>2026-03-29T10:27:13Z</time></trkpt><trkpt lat="44.85266093286142" lon="7.7880787913839535"><ele>257.0</ele><time>2026-03-29T10:27:14Z</time></trkpt><trkpt lat="44.85272902054876" lon="7.788441109399113"><ele>255.5</ele><time>2026-03-29T10:27:15Z</time></trkpt><trkpt lat="44.852793629338095" lon="7.788804120047533"><ele>254.0</ele><time>2026-03-29T10:27:16Z</time></trkpt><trkpt lat="44.852857635003524" lon="7.789167501952114"><ele>254.0</ele><time>2026-03-29T10:27:17Z</time></trkpt><trkpt lat="44.85292144999973" lon="7.789528866810243"><ele>254.0</ele><time>2026-03-29T10:27:18Z</time></trkpt><trkpt lat="44.85298504560864" lon="7.789885009906958"><ele>254.5</ele><time>2026-03-29T10:27:19Z</time></trkpt><trkpt lat="44.8530477896843" lon="7.790240877085239"><ele>255.0</ele><time>2026-03-29T10:27:20Z</time></trkpt><trkpt lat="44.85311118210238" lon="7.790596923998894"><ele>255.0</ele><time>2026-03-29T10:27:21Z</time></trkpt><trkpt lat="44.853172037828564" lon="7.79094768501813"><ele>255.0</ele><time>2026-03-29T10:27:22Z</time></trkpt><trkpt lat="44.85323416058919" lon="7.791299097818348"><ele>254.0</ele><time>2026-03-29T10:27:23Z</time></trkpt><trkpt lat="44.85329856656658" lon="7.791656237464512"><ele>253.0</ele><time>2026-03-29T10:27:24Z</time></trkpt><trkpt lat="44.85336636349537" lon="7.792017653967043"><ele>252.5</ele><time>2026-03-29T10:27:25Z</time></trkpt><trkpt lat="44.85343552535428" lon="7.7923935338409995"><ele>252.0</ele><time>2026-03-29T10:27:26Z</time></trkpt><trkpt lat="44.85350437703137" lon="7.7927851263902825"><ele>251.0</ele><time>2026-03-29T10:27:27Z</time></trkpt><trkpt lat="44.85357423511472" lon="7.793181159904431"><ele>250.0</ele><time>2026-03-29T10:27:28Z</time></trkpt><trkpt lat="44.853635828947894" lon="7.793561626694784"><ele>250.0</ele><time>2026-03-29T10:27:29Z</time></trkpt><trkpt lat="44.853689276367014" lon="7.793914666735219"><ele>250.0</ele><time>2026-03-29T10:27:30Z</time></trkpt><trkpt lat="44.85373019965057" lon="7.794248295697399"><ele>250.5</ele><time>2026-03-29T10:27:31Z</time></trkpt><trkpt lat="44.853755442124104" lon="7.794548903513707"><ele>251.0</ele><time>2026-03-29T10:27:32Z</time></trkpt><trkpt lat="44.85384031577543" lon="7.7949920570884474"><ele>251.66666666666669</ele><time>2026-03-29T10:27:33Z</time></trkpt><trkpt lat="44.85384680031319" lon="7.795264807617159"><ele>252.33333333333331</ele><time>2026-03-29T10:27:34Z</time></trkpt><trkpt lat="44.85384693111457" lon="7.795494218829908"><ele>253.0</ele><time>2026-03-29T10:27:35Z</time></trkpt><trkpt lat="44.853845107104824" lon="7.795678978160275"><ele>253.0</ele><time>2026-03-29T10:27:36Z</time></trkpt><trkpt lat="44.85384301925209" lon="7.795821922858441"><ele>253.0</ele><time>2026-03-29T10:27:36.999Z</time></trkpt><trkpt lat="44.85383350014172" lon="7.795924984511363"><ele>253.0</ele><time>2026-03-29T10:27:37.999Z</time></trkpt><trkpt lat="44.853736093288354" lon="7.79603690288892"><ele>253.0</ele><time>2026-03-29T10:27:39.999Z</time></trkpt><trkpt lat="44.853644578874466" lon="7.796059888972198"><ele>253.0</ele><time>2026-03-29T10:27:40.999Z</time></trkpt><trkpt lat="44.85351358569872" lon="7.796072728786246"><ele>254.33333333333331</ele><time>2026-03-29T10:27:41.999Z</time></trkpt><trkpt lat="44.85334674627953" lon="7.7961099858154705"><ele>255.66666666666669</ele><time>2026-03-29T10:27:42.999Z</time></trkpt><trkpt lat="44.85314742954899" lon="7.796173633995726"><ele>257.0</ele><time>2026-03-29T10:27:43.999Z</time></trkpt><trkpt lat="44.852920069125936" lon="7.796247404115242"><ele>257.0</ele><time>2026-03-29T10:27:44.999Z</time></trkpt><trkpt lat="44.8526775056594" lon="7.796315061793551"><ele>257.0</ele><time>2026-03-29T10:27:45.999Z</time></trkpt><trkpt lat="44.852421127666226" lon="7.796388943999919"><ele>256.5</ele><time>2026-03-29T10:27:46.999Z</time></trkpt><trkpt lat="44.852155227094286" lon="7.79647445197939"><ele>256.0</ele><time>2026-03-29T10:27:47.999Z</time></trkpt><trkpt lat="44.85190044070983" lon="7.796556012413968"><ele>258.0</ele><time>2026-03-29T10:27:48.999Z</time></trkpt><trkpt lat="44.85165373738893" lon="7.796629384261294"><ele>260.0</ele><time>2026-03-29T10:27:49.999Z</time></trkpt><trkpt lat="44.85140445964732" lon="7.7967151260823755"><ele>260.0</ele><time>2026-03-29T10:27:50.999Z</time></trkpt><trkpt lat="44.85113492599299" lon="7.796797031511686"><ele>260.0</ele><time>2026-03-29T10:27:51.999Z</time></trkpt><trkpt lat="44.85084789062875" lon="7.796885867108329"><ele>260.0</ele><time>2026-03-29T10:27:52.999Z</time></trkpt><trkpt lat="44.85054532763343" lon="7.796981665938038"><ele>260.0</ele><time>2026-03-29T10:27:53.999Z</time></trkpt><trkpt lat="44.850226960064695" lon="7.797071022072005"><ele>259.5</ele><time>2026-03-29T10:27:54.999Z</time></trkpt><trkpt lat="44.84990735581931" lon="7.79716782089547"><ele>259.0</ele><time>2026-03-29T10:27:55.999Z</time></trkpt><trkpt lat="44.84958123077655" lon="7.7972698018211055"><ele>259.5</ele><time>2026-03-29T10:27:56.999Z</time></trkpt><trkpt lat="44.84926125655908" lon="7.797365926523675"><ele>260.0</ele><time>2026-03-29T10:27:57.999Z</time></trkpt><trkpt lat="44.84894779929774" lon="7.797458059013911"><ele>260.0</ele><time>2026-03-29T10:27:58.999Z</time></trkpt><trkpt lat="44.84863010428551" lon="7.797551167093086"><ele>260.0</ele><time>2026-03-29T10:27:59.999Z</time></trkpt><trkpt lat="44.84830249095243" lon="7.797650281241012"><ele>260.0</ele><time>2026-03-29T10:28:00.999Z</time></trkpt><trkpt lat="44.84796420972497" lon="7.7977504643446265"><ele>260.0</ele><time>2026-03-29T10:28:01.999Z</time></trkpt><trkpt lat="44.84761651610666" lon="7.797855045527612"><ele>260.0</ele><time>2026-03-29T10:28:02.999Z</time></trkpt><trkpt lat="44.847260274307075" lon="7.797959569298875"><ele>260.0</ele><time>2026-03-29T10:28:03.999Z</time></trkpt><trkpt lat="44.84690813160936" lon="7.798061941914709"><ele>261.0</ele><time>2026-03-29T10:28:04.999Z</time></trkpt><trkpt lat="44.84656841784477" lon="7.798160289381669"><ele>262.0</ele><time>2026-03-29T10:28:05.999Z</time></trkpt><trkpt lat="44.84624231763293" lon="7.79825771613697"><ele>263.5</ele><time>2026-03-29T10:28:06.999Z</time></trkpt><trkpt lat="44.84592279265484" lon="7.798350401171548"><ele>265.0</ele><time>2026-03-29T10:28:08Z</time></trkpt><trkpt lat="44.845608859862146" lon="7.798441556643688"><ele>264.0</ele><time>2026-03-29T10:28:09Z</time></trkpt><trkpt lat="44.845300927320814" lon="7.798535506698544"><ele>263.0</ele><time>2026-03-29T10:28:10Z</time></trkpt><trkpt lat="44.84499742846253" lon="7.798625699850454"><ele>263.0</ele><time>2026-03-29T10:28:11Z</time></trkpt><trkpt lat="44.844698946676125" lon="7.798711346492044"><ele>263.0</ele><time>2026-03-29T10:28:12Z</time></trkpt><trkpt lat="44.84440304849318" lon="7.798798770339596"><ele>263.0</ele><time>2026-03-29T10:28:13Z</time></trkpt><trkpt lat="44.84410995174501" lon="7.798888987616881"><ele>263.0</ele><time>2026-03-29T10:28:14Z</time></trkpt><trkpt lat="44.84381999200566" lon="7.798975085593691"><ele>263.0</ele><time>2026-03-29T10:28:15Z</time></trkpt><trkpt lat="44.84353237492205" lon="7.799061122427966"><ele>263.0</ele><time>2026-03-29T10:28:16Z</time></trkpt><trkpt lat="44.843253460527265" lon="7.799144943867326"><ele>263.0</ele><time>2026-03-29T10:28:17Z</time></trkpt><trkpt lat="44.8429947233571" lon="7.7992192116633525"><ele>263.0</ele><time>2026-03-29T10:28:18Z</time></trkpt><trkpt lat="44.842754993772246" lon="7.799289804614754"><ele>265.0</ele><time>2026-03-29T10:28:19Z</time></trkpt><trkpt lat="44.84253495710569" lon="7.799360921174027"><ele>267.0</ele><time>2026-03-29T10:28:20Z</time></trkpt><trkpt lat="44.842332516079296" lon="7.799444315393771"><ele>269.0</ele><time>2026-03-29T10:28:21Z</time></trkpt><trkpt lat="44.84212145644985" lon="7.799539519967531"><ele>269.0</ele><time>2026-03-29T10:28:22Z</time></trkpt><trkpt lat="44.841896463123796" lon="7.799641457971149"><ele>269.0</ele><time>2026-03-29T10:28:23Z</time></trkpt><trkpt lat="44.841648577315944" lon="7.799745440953001"><ele>269.0</ele><time>2026-03-29T10:28:24Z</time></trkpt><trkpt lat="44.84138567832596" lon="7.799853104365155"><ele>269.0</ele><time>2026-03-29T10:28:25Z</time></trkpt><trkpt lat="44.841129083897385" lon="7.799958215394137"><ele>269.0</ele><time>2026-03-29T10:28:26Z</time></trkpt><trkpt lat="44.840876073386596" lon="7.800065709458946"><ele>269.0</ele><time>2026-03-29T10:28:27Z</time></trkpt><trkpt lat="44.84064434283889" lon="7.800172447015292"><ele>269.0</ele><time>2026-03-29T10:28:28Z</time></trkpt><trkpt lat="44.8404353898255" lon="7.800281651953474"><ele>269.0</ele><time>2026-03-29T10:28:29Z</time></trkpt><trkpt lat="44.84023883228724" lon="7.800408785614232"><ele>269.0</ele><time>2026-03-29T10:28:30Z</time></trkpt><trkpt lat="44.84004217429417" lon="7.800562419311766"><ele>270.0</ele><time>2026-03-29T10:28:31Z</time></trkpt><trkpt lat="44.83983088630303" lon="7.800741714356642"><ele>271.0</ele><time>2026-03-29T10:28:32Z</time></trkpt><trkpt lat="44.839606933585735" lon="7.800923109762764"><ele>270.5</ele><time>2026-03-29T10:28:33Z</time></trkpt><trkpt lat="44.83936844668958" lon="7.801109860316429"><ele>270.0</ele><time>2026-03-29T10:28:34Z</time></trkpt><trkpt lat="44.83911555133474" lon="7.8013054708719345"><ele>269.5</ele><time>2026-03-29T10:28:35Z</time></trkpt><trkpt lat="44.838850285758724" lon="7.801514379949627"><ele>269.0</ele><time>2026-03-29T10:28:36Z</time></trkpt><trkpt lat="44.83858855801344" lon="7.801740154427698"><ele>270.0</ele><time>2026-03-29T10:28:37Z</time></trkpt><trkpt lat="44.83834023666936" lon="7.801979714121664"><ele>271.0</ele><time>2026-03-29T10:28:38Z</time></trkpt><trkpt lat="44.83809257835512" lon="7.802227366427846"><ele>271.0</ele><time>2026-03-29T10:28:39Z</time></trkpt><trkpt lat="44.837843767647726" lon="7.802466037793738"><ele>271.0</ele><time>2026-03-29T10:28:40Z</time></trkpt><trkpt lat="44.837601120554716" lon="7.802693497886899"><ele>271.0</ele><time>2026-03-29T10:28:41Z</time></trkpt><trkpt lat="44.83736516538389" lon="7.802916590395485"><ele>271.0</ele><time>2026-03-29T10:28:42Z</time></trkpt><trkpt lat="44.83713674488928" lon="7.803139650750707"><ele>271.0</ele><time>2026-03-29T10:28:43Z</time></trkpt><trkpt lat="44.83691788213613" lon="7.803368057835799"><ele>271.0</ele><time>2026-03-29T10:28:44Z</time></trkpt><trkpt lat="44.83670400742128" lon="7.803598909203524"><ele>271.5</ele><time>2026-03-29T10:28:45Z</time></trkpt><trkpt lat="44.836493050225904" lon="7.803822223316001"><ele>272.0</ele><time>2026-03-29T10:28:46Z</time></trkpt><trkpt lat="44.836282824439984" lon="7.804043667690786"><ele>272.0</ele><time>2026-03-29T10:28:47Z</time></trkpt><trkpt lat="44.836078637488804" lon="7.804260259438267"><ele>272.0</ele><time>2026-03-29T10:28:48Z</time></trkpt><trkpt lat="44.835877829088865" lon="7.804475173771721"><ele>272.0</ele><time>2026-03-29T10:28:49Z</time></trkpt><trkpt lat="44.835675763633205" lon="7.804689154350973"><ele>272.0</ele><time>2026-03-29T10:28:50Z</time></trkpt><trkpt lat="44.83547452045738" lon="7.8048996879222505"><ele>272.0</ele><time>2026-03-29T10:28:51Z</time></trkpt><trkpt lat="44.835266411411176" lon="7.805120271246405"><ele>272.0</ele><time>2026-03-29T10:28:52Z</time></trkpt><trkpt lat="44.83505134197919" lon="7.805349116366788"><ele>273.0</ele><time>2026-03-29T10:28:53Z</time></trkpt><trkpt lat="44.83482586350099" lon="7.805591128156466"><ele>274.0</ele><time>2026-03-29T10:28:54Z</time></trkpt><trkpt lat="44.834605872086286" lon="7.80582445456503"><ele>274.0</ele><time>2026-03-29T10:28:55Z</time></trkpt><trkpt lat="44.83438707795161" lon="7.806055224688278"><ele>274.0</ele><time>2026-03-29T10:28:56Z</time></trkpt><trkpt lat="44.83417320339017" lon="7.806283077681132"><ele>273.5</ele><time>2026-03-29T10:28:57Z</time></trkpt><trkpt lat="44.83395964940242" lon="7.806508978332683"><ele>273.0</ele><time>2026-03-29T10:28:58Z</time></trkpt><trkpt lat="44.83374462109057" lon="7.806740032954253"><ele>274.0</ele><time>2026-03-29T10:28:59Z</time></trkpt><trkpt lat="44.83353141512915" lon="7.806968005957171"><ele>275.0</ele><time>2026-03-29T10:29:00Z</time></trkpt><trkpt lat="44.833318967423395" lon="7.807195051673267"><ele>273.0</ele><time>2026-03-29T10:29:01Z</time></trkpt><trkpt lat="44.83310843091919" lon="7.807418401316548"><ele>271.0</ele><time>2026-03-29T10:29:02Z</time></trkpt><trkpt lat="44.83289997108019" lon="7.807638672456043"><ele>270.0</ele><time>2026-03-29T10:29:03Z</time></trkpt><trkpt lat="44.832695046079166" lon="7.807856375453442"><ele>269.0</ele><time>2026-03-29T10:29:04Z</time></trkpt><trkpt lat="44.83249268481714" lon="7.80807072461617"><ele>269.0</ele><time>2026-03-29T10:29:05Z</time></trkpt><trkpt lat="44.83228995984721" lon="7.808283263443367"><ele>269.0</ele><time>2026-03-29T10:29:06Z</time></trkpt><trkpt lat="44.832083978785086" lon="7.808501128447228"><ele>269.0</ele><time>2026-03-29T10:29:07Z</time></trkpt><trkpt lat="44.83187087030318" lon="7.808730517956278"><ele>269.0</ele><time>2026-03-29T10:29:08Z</time></trkpt><trkpt lat="44.83165793078665" lon="7.808956648052694"><ele>269.0</ele><time>2026-03-29T10:29:09Z</time></trkpt><trkpt lat="44.83145162109191" lon="7.809166611557086"><ele>269.0</ele><time>2026-03-29T10:29:10Z</time></trkpt><trkpt lat="44.83124830640737" lon="7.809337923310037"><ele>269.0</ele><time>2026-03-29T10:29:11Z</time></trkpt><trkpt lat="44.83104710055612" lon="7.809473189090657"><ele>269.0</ele><time>2026-03-29T10:29:12Z</time></trkpt><trkpt lat="44.83084206778978" lon="7.809588601795167"><ele>269.0</ele><time>2026-03-29T10:29:13Z</time></trkpt><trkpt lat="44.83063384789386" lon="7.80969794036813"><ele>269.0</ele><time>2026-03-29T10:29:14Z</time></trkpt><trkpt lat="44.83041780040904" lon="7.8098036805995426"><ele>269.0</ele><time>2026-03-29T10:29:15Z</time></trkpt><trkpt lat="44.83019231879507" lon="7.809901670165791"><ele>270.0</ele><time>2026-03-29T10:29:16Z</time></trkpt><trkpt lat="44.829964513091525" lon="7.809973796319186"><ele>271.0</ele><time>2026-03-29T10:29:17Z</time></trkpt><trkpt lat="44.82973597607594" lon="7.810008045650451"><ele>271.0</ele><time>2026-03-29T10:29:18Z</time></trkpt><trkpt lat="44.829504361703435" lon="7.810004509943062"><ele>271.0</ele><time>2026-03-29T10:29:19Z</time></trkpt><trkpt lat="44.829260986091256" lon="7.809965996673413"><ele>272.0</ele><time>2026-03-29T10:29:20Z</time></trkpt><trkpt lat="44.829012545388366" lon="7.809901934581096"><ele>273.0</ele><time>2026-03-29T10:29:21Z</time></trkpt><trkpt lat="44.82877488310799" lon="7.809837659104763"><ele>273.0</ele><time>2026-03-29T10:29:22Z</time></trkpt><trkpt lat="44.828545894364446" lon="7.809812503747658"><ele>273.0</ele><time>2026-03-29T10:29:23Z</time></trkpt><trkpt lat="44.82831176996339" lon="7.809826575257496"><ele>274.5</ele><time>2026-03-29T10:29:24Z</time></trkpt><trkpt lat="44.828074551673424" lon="7.80987127054549"><ele>276.0</ele><time>2026-03-29T10:29:25Z</time></trkpt><trkpt lat="44.8278622056429" lon="7.809938128526282"><ele>276.0</ele><time>2026-03-29T10:29:26Z</time></trkpt><trkpt lat="44.82767544455563" lon="7.810014787451069"><ele>276.0</ele><time>2026-03-29T10:29:27Z</time></trkpt><trkpt lat="44.82750038058919" lon="7.810097082507525"><ele>276.0</ele><time>2026-03-29T10:29:28Z</time></trkpt><trkpt lat="44.827341191631106" lon="7.810180379956845"><ele>276.5</ele><time>2026-03-29T10:29:29Z</time></trkpt><trkpt lat="44.82719787089283" lon="7.810253802168427"><ele>277.0</ele><time>2026-03-29T10:29:30Z</time></trkpt><trkpt lat="44.82705893061846" lon="7.810286480015715"><ele>277.5</ele><time>2026-03-29T10:29:31Z</time></trkpt><trkpt lat="44.82693612601286" lon="7.8102739510189565"><ele>278.0</ele><time>2026-03-29T10:29:32Z</time></trkpt><trkpt lat="44.8268432397083" lon="7.810315482328726"><ele>278.0</ele><time>2026-03-29T10:29:33Z</time></trkpt><trkpt lat="44.82675636743354" lon="7.810429510220483"><ele>278.0</ele><time>2026-03-29T10:29:34Z</time></trkpt><trkpt lat="44.82667519180026" lon="7.810589984890067"><ele>278.0</ele><time>2026-03-29T10:29:35Z</time></trkpt><trkpt lat="44.82654067244007" lon="7.810742591451805"><ele>278.0</ele><time>2026-03-29T10:29:36Z</time></trkpt><trkpt lat="44.826353774799635" lon="7.810854823466672"><ele>278.0</ele><time>2026-03-29T10:29:37Z</time></trkpt><trkpt lat="44.826137998291834" lon="7.810977078776817"><ele>278.0</ele><time>2026-03-29T10:29:38Z</time></trkpt><trkpt lat="44.82591243334958" lon="7.811136618978422"><ele>278.5</ele><time>2026-03-29T10:29:39Z</time></trkpt><trkpt lat="44.82568377120176" lon="7.811335674398841"><ele>279.0</ele><time>2026-03-29T10:29:40Z</time></trkpt><trkpt lat="44.825456253676705" lon="7.811568991579837"><ele>279.5</ele><time>2026-03-29T10:29:41Z</time></trkpt><trkpt lat="44.825226855695185" lon="7.811833849829972"><ele>280.0</ele><time>2026-03-29T10:29:42Z</time></trkpt><trkpt lat="44.824996015433804" lon="7.812118172248019"><ele>280.0</ele><time>2026-03-29T10:29:43Z</time></trkpt><trkpt lat="44.824766962537005" lon="7.812413125040954"><ele>280.0</ele><time>2026-03-29T10:29:44Z</time></trkpt><trkpt lat="44.82455018957631" lon="7.812704417787647"><ele>280.5</ele><time>2026-03-29T10:29:44.999Z</time></trkpt><trkpt lat="44.824336104041784" lon="7.812966407369681"><ele>281.0</ele><time>2026-03-29T10:29:45.999Z</time></trkpt><trkpt lat="44.82411287296873" lon="7.813197048993976"><ele>280.0</ele><time>2026-03-29T10:29:46.999Z</time></trkpt><trkpt lat="44.82388185943168" lon="7.813400555949454"><ele>279.0</ele><time>2026-03-29T10:29:47.999Z</time></trkpt><trkpt lat="44.82364675163228" lon="7.813578887904895"><ele>279.5</ele><time>2026-03-29T10:29:48.999Z</time></trkpt><trkpt lat="44.82340936282286" lon="7.813736335398818"><ele>280.0</ele><time>2026-03-29T10:29:49.999Z</time></trkpt><trkpt lat="44.823162988348194" lon="7.813873450877843"><ele>280.0</ele><time>2026-03-29T10:29:50.999Z</time></trkpt><trkpt lat="44.82290318662933" lon="7.813989633743959"><ele>280.0</ele><time>2026-03-29T10:29:51.999Z</time></trkpt><trkpt lat="44.82263312641898" lon="7.814083731082515"><ele>280.5</ele><time>2026-03-29T10:29:52.999Z</time></trkpt><trkpt lat="44.82235852704214" lon="7.814164491127979"><ele>281.0</ele><time>2026-03-29T10:29:53.999Z</time></trkpt><trkpt lat="44.82207690954133" lon="7.814243675108279"><ele>281.5</ele><time>2026-03-29T10:29:54.999Z</time></trkpt><trkpt lat="44.82179951673235" lon="7.8143288223357406"><ele>282.0</ele><time>2026-03-29T10:29:55.999Z</time></trkpt><trkpt lat="44.821525376630106" lon="7.814419786296551"><ele>282.0</ele><time>2026-03-29T10:29:56.999Z</time></trkpt><trkpt lat="44.82125444603403" lon="7.814506142740279"><ele>282.0</ele><time>2026-03-29T10:29:57.999Z</time></trkpt><trkpt lat="44.82098369313106" lon="7.814588171748795"><ele>283.0</ele><time>2026-03-29T10:29:58.999Z</time></trkpt><trkpt lat="44.820716439716335" lon="7.8146716048558265"><ele>284.0</ele><time>2026-03-29T10:29:59.999Z</time></trkpt><trkpt lat="44.820450434524616" lon="7.814762720297584"><ele>284.0</ele><time>2026-03-29T10:30:00.999Z</time></trkpt><trkpt lat="44.820192104655675" lon="7.814868203950965"><ele>284.0</ele><time>2026-03-29T10:30:01.999Z</time></trkpt><trkpt lat="44.81993951660311" lon="7.814996390301854"><ele>284.0</ele><time>2026-03-29T10:30:02.999Z</time></trkpt><trkpt lat="44.819696865093874" lon="7.8151540739081655"><ele>284.0</ele><time>2026-03-29T10:30:03.999Z</time></trkpt><trkpt lat="44.81945871454576" lon="7.815327621579692"><ele>284.0</ele><time>2026-03-29T10:30:04.999Z</time></trkpt><trkpt lat="44.81921076697544" lon="7.8154878562439185"><ele>284.0</ele><time>2026-03-29T10:30:05.999Z</time></trkpt><trkpt lat="44.81896486009285" lon="7.815643997830352"><ele>284.0</ele><time>2026-03-29T10:30:06.999Z</time></trkpt><trkpt lat="44.81872001681585" lon="7.815802947055184"><ele>284.0</ele><time>2026-03-29T10:30:07.999Z</time></trkpt><trkpt lat="44.81847457692381" lon="7.815961196141354"><ele>285.0</ele><time>2026-03-29T10:30:08.999Z</time></trkpt><trkpt lat="44.81822774104549" lon="7.816119577293025"><ele>286.0</ele><time>2026-03-29T10:30:09.999Z</time></trkpt><trkpt lat="44.81798200181758" lon="7.816277920016153"><ele>286.0</ele><time>2026-03-29T10:30:10.999Z</time></trkpt><trkpt lat="44.81773777312841" lon="7.816434261297159"><ele>286.0</ele><time>2026-03-29T10:30:11.999Z</time></trkpt><trkpt lat="44.817498697604016" lon="7.81658681499316"><ele>286.5</ele><time>2026-03-29T10:30:12.999Z</time></trkpt><trkpt lat="44.817275212507774" lon="7.816725575099121"><ele>287.0</ele><time>2026-03-29T10:30:14Z</time></trkpt><trkpt lat="44.81705361182723" lon="7.816831379427583"><ele>287.5</ele><time>2026-03-29T10:30:15Z</time></trkpt><trkpt lat="44.81682206765687" lon="7.816912703837978"><ele>288.0</ele><time>2026-03-29T10:30:16Z</time></trkpt><trkpt lat="44.8165719202866" lon="7.8169617657995705"><ele>287.0</ele><time>2026-03-29T10:30:17Z</time></trkpt><trkpt lat="44.81630270577422" lon="7.816969719271179"><ele>286.0</ele><time>2026-03-29T10:30:18Z</time></trkpt><trkpt lat="44.816019539053386" lon="7.816950907654198"><ele>286.5</ele><time>2026-03-29T10:30:19Z</time></trkpt><trkpt lat="44.81573441050842" lon="7.816945902366791"><ele>287.0</ele><time>2026-03-29T10:30:20Z</time></trkpt><trkpt lat="44.8154646636417" lon="7.816945174605382"><ele>287.0</ele><time>2026-03-29T10:30:21Z</time></trkpt><trkpt lat="44.815201490352784" lon="7.816946291075742"><ele>287.0</ele><time>2026-03-29T10:30:22Z</time></trkpt><trkpt lat="44.81500948061734" lon="7.817011266752902"><ele>288.0</ele><time>2026-03-29T10:30:23Z</time></trkpt><trkpt lat="44.814800747477946" lon="7.817068120888201"><ele>289.0</ele><time>2026-03-29T10:30:24Z</time></trkpt><trkpt lat="44.81459229955318" lon="7.817161753933403"><ele>290.0</ele><time>2026-03-29T10:30:25Z</time></trkpt><trkpt lat="44.814377357786945" lon="7.8173120029734235"><ele>289.5</ele><time>2026-03-29T10:30:26Z</time></trkpt><trkpt lat="44.81415389242327" lon="7.8175059185475595"><ele>289.0</ele><time>2026-03-29T10:30:27Z</time></trkpt><trkpt lat="44.81392332704225" lon="7.817719442875613"><ele>289.0</ele><time>2026-03-29T10:30:28Z</time></trkpt><trkpt lat="44.81368257394557" lon="7.8179483038941155"><ele>289.0</ele><time>2026-03-29T10:30:29Z</time></trkpt><trkpt lat="44.81342862018284" lon="7.818182224243026"><ele>288.5</ele><time>2026-03-29T10:30:30Z</time></trkpt><trkpt lat="44.813175060699876" lon="7.818438188723475"><ele>288.0</ele><time>2026-03-29T10:30:31Z</time></trkpt><trkpt lat="44.812916240874216" lon="7.818697266001598"><ele>287.5</ele><time>2026-03-29T10:30:32Z</time></trkpt><trkpt lat="44.812660124286765" lon="7.818946166999145"><ele>287.0</ele><time>2026-03-29T10:30:33Z</time></trkpt><trkpt lat="44.81240996113637" lon="7.819189856862381"><ele>289.0</ele><time>2026-03-29T10:30:34Z</time></trkpt><trkpt lat="44.81215987436989" lon="7.819426745833971"><ele>291.0</ele><time>2026-03-29T10:30:35Z</time></trkpt><trkpt lat="44.811908643130764" lon="7.819668430157542"><ele>290.5</ele><time>2026-03-29T10:30:36Z</time></trkpt><trkpt lat="44.81165542536405" lon="7.819896733060896"><ele>290.0</ele><time>2026-03-29T10:30:37Z</time></trkpt><trkpt lat="44.81140388098429" lon="7.820128281348959"><ele>291.0</ele><time>2026-03-29T10:30:38Z</time></trkpt><trkpt lat="44.81114852639344" lon="7.82035800564955"><ele>292.0</ele><time>2026-03-29T10:30:39Z</time></trkpt><trkpt lat="44.81087381732408" lon="7.820541849844283"><ele>292.5</ele><time>2026-03-29T10:30:40Z</time></trkpt><trkpt lat="44.81060342169141" lon="7.82073095489298"><ele>293.0</ele><time>2026-03-29T10:30:41Z</time></trkpt><trkpt lat="44.81032165666121" lon="7.820886334330397"><ele>294.5</ele><time>2026-03-29T10:30:42Z</time></trkpt><trkpt lat="44.81003808707331" lon="7.821053722335192"><ele>296.0</ele><time>2026-03-29T10:30:43Z</time></trkpt><trkpt lat="44.80974371987057" lon="7.82123722357304"><ele>296.0</ele><time>2026-03-29T10:30:44Z</time></trkpt><trkpt lat="44.80943467680981" lon="7.821429985084836"><ele>296.0</ele><time>2026-03-29T10:30:45Z</time></trkpt><trkpt lat="44.80912953578856" lon="7.821622824566458"><ele>296.5</ele><time>2026-03-29T10:30:46Z</time></trkpt><trkpt lat="44.80883965845904" lon="7.821806253153091"><ele>297.0</ele><time>2026-03-29T10:30:47Z</time></trkpt><trkpt lat="44.808562185295" lon="7.821982463941923"><ele>297.5</ele><time>2026-03-29T10:30:48Z</time></trkpt><trkpt lat="44.80829313920506" lon="7.8221525357449195"><ele>298.0</ele><time>2026-03-29T10:30:49Z</time></trkpt><trkpt lat="44.80803682963222" lon="7.822314321349592"><ele>298.0</ele><time>2026-03-29T10:30:50Z</time></trkpt><trkpt lat="44.80779664922886" lon="7.822467648121873"><ele>298.0</ele><time>2026-03-29T10:30:51Z</time></trkpt><trkpt lat="44.807568473441705" lon="7.822612356017123"><ele>298.5</ele><time>2026-03-29T10:30:52Z</time></trkpt><trkpt lat="44.807350527399215" lon="7.822751777634236"><ele>299.0</ele><time>2026-03-29T10:30:53Z</time></trkpt><trkpt lat="44.80714676753651" lon="7.822880611760299"><ele>299.0</ele><time>2026-03-29T10:30:54Z</time></trkpt><trkpt lat="44.80694965662683" lon="7.822992771823611"><ele>299.0</ele><time>2026-03-29T10:30:55Z</time></trkpt><trkpt lat="44.806749323349415" lon="7.823077308022885"><ele>299.0</ele><time>2026-03-29T10:30:56Z</time></trkpt><trkpt lat="44.806532792638265" lon="7.82313707248896"><ele>300.0</ele><time>2026-03-29T10:30:57Z</time></trkpt><trkpt lat="44.80628665229004" lon="7.82317546259334"><ele>301.0</ele><time>2026-03-29T10:30:58Z</time></trkpt><trkpt lat="44.80601666005107" lon="7.8232132952510005"><ele>301.0</ele><time>2026-03-29T10:30:59Z</time></trkpt><trkpt lat="44.80574034670073" lon="7.823257067966304"><ele>301.0</ele><time>2026-03-29T10:31:00Z</time></trkpt><trkpt lat="44.80548668073537" lon="7.823308015682685"><ele>301.0</ele><time>2026-03-29T10:31:01Z</time></trkpt><trkpt lat="44.80525470962771" lon="7.823356595550436"><ele>301.0</ele><time>2026-03-29T10:31:02Z</time></trkpt><trkpt lat="44.80504067063645" lon="7.823399707011419"><ele>300.3333333333333</ele><time>2026-03-29T10:31:03Z</time></trkpt><trkpt lat="44.80484599904815" lon="7.823440174755339"><ele>299.6666666666667</ele><time>2026-03-29T10:31:04Z</time></trkpt><trkpt lat="44.80466922609941" lon="7.823475679655612"><ele>299.0</ele><time>2026-03-29T10:31:05Z</time></trkpt><trkpt lat="44.804502679751856" lon="7.823508227700904"><ele>299.0</ele><time>2026-03-29T10:31:06Z</time></trkpt><trkpt lat="44.80434154392276" lon="7.823538570371974"><ele>299.0</ele><time>2026-03-29T10:31:07Z</time></trkpt><trkpt lat="44.8041855267941" lon="7.823562127601059"><ele>299.0</ele><time>2026-03-29T10:31:08Z</time></trkpt><trkpt lat="44.80403806998591" lon="7.823572119026062"><ele>299.25</ele><time>2026-03-29T10:31:09Z</time></trkpt><trkpt lat="44.80389844604002" lon="7.823566858714693"><ele>299.5</ele><time>2026-03-29T10:31:10Z</time></trkpt><trkpt lat="44.80376800421679" lon="7.8235488284463415"><ele>299.75</ele><time>2026-03-29T10:31:11Z</time></trkpt><trkpt lat="44.803646314128436" lon="7.823517322473444"><ele>300.0</ele><time>2026-03-29T10:31:12Z</time></trkpt><trkpt lat="44.80352732270917" lon="7.823476963376777"><ele>300.75</ele><time>2026-03-29T10:31:13Z</time></trkpt><trkpt lat="44.8034094696245" lon="7.8234321944125"><ele>301.5</ele><time>2026-03-29T10:31:14Z</time></trkpt><trkpt lat="44.803297315746235" lon="7.823382167913854"><ele>302.25</ele><time>2026-03-29T10:31:15Z</time></trkpt><trkpt lat="44.80318556430389" lon="7.823325438653487"><ele>303.0</ele><time>2026-03-29T10:31:16Z</time></trkpt><trkpt lat="44.80307738137237" lon="7.8232544665442525"><ele>303.0</ele><time>2026-03-29T10:31:17Z</time></trkpt><trkpt lat="44.802976908556744" lon="7.823183837279969"><ele>303.0</ele><time>2026-03-29T10:31:18Z</time></trkpt><trkpt lat="44.80287904866242" lon="7.823120493463896"><ele>303.0</ele><time>2026-03-29T10:31:19Z</time></trkpt><trkpt lat="44.80279269112181" lon="7.823053437258235"><ele>303.0</ele><time>2026-03-29T10:31:20Z</time></trkpt><trkpt lat="44.80271407716562" lon="7.822971428393032"><ele>303.0</ele><time>2026-03-29T10:31:21Z</time></trkpt><trkpt lat="44.80264364076185" lon="7.822881523748408"><ele>303.0</ele><time>2026-03-29T10:31:22Z</time></trkpt><trkpt lat="44.802582314966926" lon="7.822791447778698"><ele>303.0</ele><time>2026-03-29T10:31:23Z</time></trkpt><trkpt lat="44.802532000543486" lon="7.8227142292871275"><ele>303.0</ele><time>2026-03-29T10:31:24Z</time></trkpt><trkpt lat="44.80244658058215" lon="7.82266372493862"><ele>303.0</ele><time>2026-03-29T10:31:26Z</time></trkpt><trkpt lat="44.8023638905492" lon="7.822758323722246"><ele>303.0</ele><time>2026-03-29T10:31:28Z</time></trkpt><trkpt lat="44.802318237626864" lon="7.822827170343898"><ele>303.0</ele><time>2026-03-29T10:31:29Z</time></trkpt><trkpt lat="44.80219988197545" lon="7.822867331102104"><ele>303.0</ele><time>2026-03-29T10:31:31Z</time></trkpt><trkpt lat="44.80208421606421" lon="7.82281725804175"><ele>303.0</ele><time>2026-03-29T10:31:33Z</time></trkpt><trkpt lat="44.801973077303806" lon="7.822759640044524"><ele>303.0</ele><time>2026-03-29T10:31:35Z</time></trkpt><trkpt lat="44.80189452921215" lon="7.8227243801790785"><ele>303.0</ele><time>2026-03-29T10:31:36Z</time></trkpt><trkpt lat="44.801797701608095" lon="7.822684234260967"><ele>303.0</ele><time>2026-03-29T10:31:37Z</time></trkpt><trkpt lat="44.80168839735398" lon="7.8226402265851"><ele>302.8</ele><time>2026-03-29T10:31:38Z</time></trkpt><trkpt lat="44.80157634256484" lon="7.8225944894974315"><ele>302.6</ele><time>2026-03-29T10:31:39Z</time></trkpt><trkpt lat="44.80146779737505" lon="7.822546503092462"><ele>302.4</ele><time>2026-03-29T10:31:40Z</time></trkpt><trkpt lat="44.80136255169797" lon="7.8224976016706345"><ele>302.2</ele><time>2026-03-29T10:31:41Z</time></trkpt><trkpt lat="44.80125935120305" lon="7.822453474564884"><ele>302.0</ele><time>2026-03-29T10:31:42Z</time></trkpt><trkpt lat="44.801159911419674" lon="7.822416596137124"><ele>302.0</ele><time>2026-03-29T10:31:43Z</time></trkpt><trkpt lat="44.80106147044048" lon="7.822387555886557"><ele>302.0</ele><time>2026-03-29T10:31:44Z</time></trkpt><trkpt lat="44.800961358751216" lon="7.822362173659052"><ele>302.0</ele><time>2026-03-29T10:31:45Z</time></trkpt><trkpt lat="44.80085500883986" lon="7.8223316021921745"><ele>302.0</ele><time>2026-03-29T10:31:46Z</time></trkpt><trkpt lat="44.80073958441071" lon="7.822289713409309"><ele>302.0</ele><time>2026-03-29T10:31:47Z</time></trkpt><trkpt lat="44.80061131935532" lon="7.822251346510949"><ele>301.8</ele><time>2026-03-29T10:31:48Z</time></trkpt><trkpt lat="44.80047957567871" lon="7.822217701621555"><ele>301.6</ele><time>2026-03-29T10:31:49Z</time></trkpt><trkpt lat="44.80037480453133" lon="7.822194763958774"><ele>301.40000000000003</ele><time>2026-03-29T10:31:49.999Z</time></trkpt><trkpt lat="44.8002999243368" lon="7.822171835638127"><ele>301.2</ele><time>2026-03-29T10:31:50.999Z</time></trkpt><trkpt lat="44.8001728901863" lon="7.822162493567797"><ele>301.0</ele><time>2026-03-29T10:31:52.999Z</time></trkpt><trkpt lat="44.800091505773345" lon="7.822157442060733"><ele>301.5</ele><time>2026-03-29T10:31:53.999Z</time></trkpt><trkpt lat="44.79999438987344" lon="7.822136289573076"><ele>302.0</ele><time>2026-03-29T10:31:54.999Z</time></trkpt><trkpt lat="44.79989510797205" lon="7.822095385004786"><ele>302.5</ele><time>2026-03-29T10:31:55.999Z</time></trkpt><trkpt lat="44.799811246472366" lon="7.822069527648907"><ele>303.0</ele><time>2026-03-29T10:31:56.999Z</time></trkpt><trkpt lat="44.79973891713248" lon="7.822042689877423"><ele>303.5</ele><time>2026-03-29T10:31:57.999Z</time></trkpt><trkpt lat="44.799667633312986" lon="7.822007689742235"><ele>304.0</ele><time>2026-03-29T10:31:58.999Z</time></trkpt><trkpt lat="44.79960678654161" lon="7.821972028039007"><ele>304.0</ele><time>2026-03-29T10:31:59.999Z</time></trkpt><trkpt lat="44.79950052176156" lon="7.821896590246023"><ele>304.0</ele><time>2026-03-29T10:32:01.999Z</time></trkpt><trkpt lat="44.79939489482241" lon="7.821803590866188"><ele>304.0</ele><time>2026-03-29T10:32:03.999Z</time></trkpt><trkpt lat="44.79934674925588" lon="7.821729669549442"><ele>304.0</ele><time>2026-03-29T10:32:04.999Z</time></trkpt><trkpt lat="44.799306921821895" lon="7.821643219962108"><ele>304.0</ele><time>2026-03-29T10:32:05.999Z</time></trkpt><trkpt lat="44.799262798914434" lon="7.821561074883263"><ele>303.66666666666663</ele><time>2026-03-29T10:32:06.999Z</time></trkpt><trkpt lat="44.79921625391461" lon="7.8214678429071816"><ele>303.3333333333333</ele><time>2026-03-29T10:32:07.999Z</time></trkpt><trkpt lat="44.79916883925549" lon="7.821371407208404"><ele>303.0</ele><time>2026-03-29T10:32:08.999Z</time></trkpt><trkpt lat="44.79912311707858" lon="7.821276186362322"><ele>302.6666666666667</ele><time>2026-03-29T10:32:09.999Z</time></trkpt><trkpt lat="44.799074048395326" lon="7.8211804404046035"><ele>302.33333333333337</ele><time>2026-03-29T10:32:10.999Z</time></trkpt><trkpt lat="44.79902584316098" lon="7.82108835956419"><ele>302.0</ele><time>2026-03-29T10:32:11.999Z</time></trkpt><trkpt lat="44.79896176795936" lon="7.8210133208078725"><ele>301.0</ele><time>2026-03-29T10:32:12.999Z</time></trkpt><trkpt lat="44.79888873021857" lon="7.820949194203853"><ele>300.0</ele><time>2026-03-29T10:32:13.999Z</time></trkpt><trkpt lat="44.798804556318835" lon="7.82090008673993"><ele>299.0</ele><time>2026-03-29T10:32:14.999Z</time></trkpt><trkpt lat="44.798718897713535" lon="7.820844437439807"><ele>298.0</ele><time>2026-03-29T10:32:15.999Z</time></trkpt><trkpt lat="44.79863811542791" lon="7.8207788230635815"><ele>297.0</ele><time>2026-03-29T10:32:16.999Z</time></trkpt><trkpt lat="44.798558650017526" lon="7.820716298854139"><ele>296.1666666666667</ele><time>2026-03-29T10:32:17.999Z</time></trkpt><trkpt lat="44.79848185505715" lon="7.820653232184311"><ele>295.3333333333333</ele><time>2026-03-29T10:32:18.999Z</time></trkpt><trkpt lat="44.79840618893874" lon="7.8205966172197865"><ele>294.5</ele><time>2026-03-29T10:32:20Z</time></trkpt><trkpt lat="44.79834446404127" lon="7.820543577306479"><ele>293.66666666666663</ele><time>2026-03-29T10:32:21Z</time></trkpt><trkpt lat="44.7982789810883" lon="7.820489547654247"><ele>292.8333333333333</ele><time>2026-03-29T10:32:23Z</time></trkpt><trkpt lat="44.798206020624676" lon="7.8204759147613006"><ele>292.0</ele><time>2026-03-29T10:32:30Z</time></trkpt><trkpt lat="44.79813724283295" lon="7.820596377370601"><ele>292.0</ele><time>2026-03-29T10:32:31Z</time></trkpt><trkpt lat="44.79809077569538" lon="7.820717279658074"><ele>292.0</ele><time>2026-03-29T10:32:32Z</time></trkpt><trkpt lat="44.79803280462125" lon="7.820853052701823"><ele>292.0</ele><time>2026-03-29T10:32:33Z</time></trkpt><trkpt lat="44.79796327496809" lon="7.82100766338503"><ele>292.0</ele><time>2026-03-29T10:32:34Z</time></trkpt><trkpt lat="44.797890620806044" lon="7.821175138842604"><ele>292.66666666666663</ele><time>2026-03-29T10:32:35Z</time></trkpt><trkpt lat="44.79780857459087" lon="7.8213498193585345"><ele>293.3333333333333</ele><time>2026-03-29T10:32:36Z</time></trkpt><trkpt lat="44.79772396642073" lon="7.821526285844998"><ele>294.0</ele><time>2026-03-29T10:32:37Z</time></trkpt><trkpt lat="44.797638258324284" lon="7.821709607600507"><ele>293.0</ele><time>2026-03-29T10:32:38Z</time></trkpt><trkpt lat="44.79755033431943" lon="7.821896636260153"><ele>292.0</ele><time>2026-03-29T10:32:39Z</time></trkpt><trkpt lat="44.79746392414901" lon="7.822088885233814"><ele>291.0</ele><time>2026-03-29T10:32:40Z</time></trkpt><trkpt lat="44.797370852301896" lon="7.822274269642164"><ele>291.0</ele><time>2026-03-29T10:32:41Z</time></trkpt><trkpt lat="44.797266186742604" lon="7.822440064375942"><ele>291.0</ele><time>2026-03-29T10:32:42Z</time></trkpt><trkpt lat="44.79715519733246" lon="7.822593001687298"><ele>291.0</ele><time>2026-03-29T10:32:43Z</time></trkpt><trkpt lat="44.79704395020882" lon="7.822741408350829"><ele>291.3333333333333</ele><time>2026-03-29T10:32:44Z</time></trkpt><trkpt lat="44.796930197365505" lon="7.822883387185284"><ele>291.66666666666663</ele><time>2026-03-29T10:32:45Z</time></trkpt><trkpt lat="44.796819200739094" lon="7.823025186365098"><ele>292.0</ele><time>2026-03-29T10:32:46Z</time></trkpt><trkpt lat="44.79670901041908" lon="7.823165786325615"><ele>292.0</ele><time>2026-03-29T10:32:47Z</time></trkpt><trkpt lat="44.79659418383073" lon="7.8233079581485105"><ele>292.0</ele><time>2026-03-29T10:32:48Z</time></trkpt><trkpt lat="44.79647739810856" lon="7.823454599769344"><ele>292.0</ele><time>2026-03-29T10:32:49Z</time></trkpt><trkpt lat="44.7963558579971" lon="7.823597675476566"><ele>293.0</ele><time>2026-03-29T10:32:50Z</time></trkpt><trkpt lat="44.79623490059162" lon="7.823740612208592"><ele>294.0</ele><time>2026-03-29T10:32:51Z</time></trkpt><trkpt lat="44.79611034485823" lon="7.823885031972633"><ele>295.0</ele><time>2026-03-29T10:32:52Z</time></trkpt><trkpt lat="44.79598633328271" lon="7.824029887856809"><ele>293.3333333333333</ele><time>2026-03-29T10:32:53Z</time></trkpt><trkpt lat="44.79586208191709" lon="7.8241816077593365"><ele>291.6666666666667</ele><time>2026-03-29T10:32:54Z</time></trkpt><trkpt lat="44.79573880654226" lon="7.8243359709300915"><ele>290.0</ele><time>2026-03-29T10:32:55Z</time></trkpt><trkpt lat="44.795605447323844" lon="7.824499988604481"><ele>290.0</ele><time>2026-03-29T10:32:56Z</time></trkpt><trkpt lat="44.795440465632005" lon="7.824686775696444"><ele>290.0</ele><time>2026-03-29T10:32:57Z</time></trkpt><trkpt lat="44.79526702680894" lon="7.824886323928433"><ele>290.0</ele><time>2026-03-29T10:32:58Z</time></trkpt><trkpt lat="44.795222635610195" lon="7.824953383312493"><ele>289.6666666666667</ele><time>2026-03-29T10:32:59Z</time></trkpt><trkpt lat="44.79508561530835" lon="7.825113781813634"><ele>289.3333333333333</ele><time>2026-03-29T10:33:00Z</time></trkpt><trkpt lat="44.794936412420434" lon="7.825286625997132"><ele>289.0</ele><time>2026-03-29T10:33:01Z</time></trkpt><trkpt lat="44.79479016490706" lon="7.825456055938864"><ele>289.66666666666663</ele><time>2026-03-29T10:33:02Z</time></trkpt><trkpt lat="44.794642151895424" lon="7.8256406057530175"><ele>290.3333333333333</ele><time>2026-03-29T10:33:03Z</time></trkpt><trkpt lat="44.79448948178365" lon="7.825824540588234"><ele>291.0</ele><time>2026-03-29T10:33:04Z</time></trkpt><trkpt lat="44.79432905254967" lon="7.826019175733328"><ele>291.0</ele><time>2026-03-29T10:33:05Z</time></trkpt><trkpt lat="44.794165412696024" lon="7.826214694697395"><ele>291.0</ele><time>2026-03-29T10:33:06Z</time></trkpt><trkpt lat="44.793999534780276" lon="7.826417200729125"><ele>291.0</ele><time>2026-03-29T10:33:07Z</time></trkpt><trkpt lat="44.79383224322796" lon="7.826616153978005"><ele>291.0</ele><time>2026-03-29T10:33:08Z</time></trkpt><trkpt lat="44.79365931540063" lon="7.826822251551715"><ele>291.0</ele><time>2026-03-29T10:33:09Z</time></trkpt><trkpt lat="44.793476761530854" lon="7.827037236301925"><ele>291.0</ele><time>2026-03-29T10:33:10Z</time></trkpt><trkpt lat="44.79328922053451" lon="7.827252813440764"><ele>291.0</ele><time>2026-03-29T10:33:11Z</time></trkpt><trkpt lat="44.793105691970226" lon="7.827469626205585"><ele>294.0</ele><time>2026-03-29T10:33:12Z</time></trkpt><trkpt lat="44.79291337566418" lon="7.827692090715113"><ele>297.0</ele><time>2026-03-29T10:33:13Z</time></trkpt><trkpt lat="44.79272762567088" lon="7.827921528255779"><ele>294.0</ele><time>2026-03-29T10:33:14Z</time></trkpt><trkpt lat="44.79254189817495" lon="7.828148669359517"><ele>291.0</ele><time>2026-03-29T10:33:15Z</time></trkpt><trkpt lat="44.79235286064333" lon="7.828374778576183"><ele>292.5</ele><time>2026-03-29T10:33:16Z</time></trkpt><trkpt lat="44.79216695711333" lon="7.828601676032894"><ele>294.0</ele><time>2026-03-29T10:33:17Z</time></trkpt><trkpt lat="44.791980933121316" lon="7.828815926290729"><ele>292.5</ele><time>2026-03-29T10:33:18Z</time></trkpt><trkpt lat="44.79179606363498" lon="7.8290277733776925"><ele>291.0</ele><time>2026-03-29T10:33:19Z</time></trkpt><trkpt lat="44.791617392443385" lon="7.829235147996259"><ele>295.0</ele><time>2026-03-29T10:33:20Z</time></trkpt><trkpt lat="44.7914435533011" lon="7.829448135419069"><ele>299.0</ele><time>2026-03-29T10:33:21Z</time></trkpt><trkpt lat="44.79127401173127" lon="7.829655817107122"><ele>299.0</ele><time>2026-03-29T10:33:22Z</time></trkpt><trkpt lat="44.79111297693145" lon="7.82986250435281"><ele>299.0</ele><time>2026-03-29T10:33:23Z</time></trkpt><trkpt lat="44.79096121332341" lon="7.830075420314856"><ele>299.0</ele><time>2026-03-29T10:33:24Z</time></trkpt><trkpt lat="44.79081479444777" lon="7.830295711432844"><ele>298.6666666666667</ele><time>2026-03-29T10:33:25Z</time></trkpt><trkpt lat="44.79067500311253" lon="7.830518182333102"><ele>298.3333333333333</ele><time>2026-03-29T10:33:26Z</time></trkpt><trkpt lat="44.790542088685164" lon="7.83074169020236"><ele>298.0</ele><time>2026-03-29T10:33:27Z</time></trkpt><trkpt lat="44.7904215691795" lon="7.830955676665724"><ele>295.66666666666663</ele><time>2026-03-29T10:33:28Z</time></trkpt><trkpt lat="44.790305398071624" lon="7.831160382659017"><ele>293.3333333333333</ele><time>2026-03-29T10:33:29Z</time></trkpt><trkpt lat="44.79019516738595" lon="7.831362681009262"><ele>291.0</ele><time>2026-03-29T10:33:30Z</time></trkpt><trkpt lat="44.79007947214739" lon="7.831569200628994"><ele>291.0</ele><time>2026-03-29T10:33:31Z</time></trkpt><trkpt lat="44.78995995781887" lon="7.831788884680315"><ele>291.0</ele><time>2026-03-29T10:33:32Z</time></trkpt><trkpt lat="44.78984172089412" lon="7.8320000187973156"><ele>291.0</ele><time>2026-03-29T10:33:33Z</time></trkpt><trkpt lat="44.78972923252985" lon="7.832200003049116"><ele>294.6666666666667</ele><time>2026-03-29T10:33:34Z</time></trkpt><trkpt lat="44.78961295282783" lon="7.832406547831047"><ele>298.33333333333337</ele><time>2026-03-29T10:33:35Z</time></trkpt><trkpt lat="44.78948851448045" lon="7.832625789182181"><ele>302.0</ele><time>2026-03-29T10:33:36Z</time></trkpt><trkpt lat="44.78936338915409" lon="7.832849198139917"><ele>300.0</ele><time>2026-03-29T10:33:37Z</time></trkpt><trkpt lat="44.789241280687705" lon="7.83306758779582"><ele>298.0</ele><time>2026-03-29T10:33:38Z</time></trkpt><trkpt lat="44.78912149012821" lon="7.8332768411515055"><ele>296.0</ele><time>2026-03-29T10:33:39Z</time></trkpt><trkpt lat="44.789001839069805" lon="7.833478092608874"><ele>296.0</ele><time>2026-03-29T10:33:40Z</time></trkpt><trkpt lat="44.788880960604956" lon="7.833683840291873"><ele>296.0</ele><time>2026-03-29T10:33:41Z</time></trkpt><trkpt lat="44.788760068285654" lon="7.833902032403461"><ele>296.0</ele><time>2026-03-29T10:33:42Z</time></trkpt><trkpt lat="44.788637304779506" lon="7.834126836813767"><ele>295.6666666666667</ele><time>2026-03-29T10:33:43Z</time></trkpt><trkpt lat="44.78850937483169" lon="7.834355624663485"><ele>295.3333333333333</ele><time>2026-03-29T10:33:44Z</time></trkpt><trkpt lat="44.78838208871254" lon="7.834583429925956"><ele>295.0</ele><time>2026-03-29T10:33:45Z</time></trkpt><trkpt lat="44.78834168863803" lon="7.834923081415053"><ele>296.3333333333333</ele><time>2026-03-29T10:33:46Z</time></trkpt><trkpt lat="44.78822468719686" lon="7.835143484386106"><ele>297.6666666666667</ele><time>2026-03-29T10:33:47Z</time></trkpt><trkpt lat="44.78810188430427" lon="7.835353514587421"><ele>299.0</ele><time>2026-03-29T10:33:48Z</time></trkpt><trkpt lat="44.787982117105365" lon="7.8355583528324075"><ele>299.0</ele><time>2026-03-29T10:33:49Z</time></trkpt><trkpt lat="44.78778887758641" lon="7.835676058604526"><ele>299.0</ele><time>2026-03-29T10:33:50Z</time></trkpt><trkpt lat="44.787697481540626" lon="7.835898658768046"><ele>299.0</ele><time>2026-03-29T10:33:51Z</time></trkpt><trkpt lat="44.78761505970237" lon="7.836132629697413"><ele>298.33333333333337</ele><time>2026-03-29T10:33:52Z</time></trkpt><trkpt lat="44.787534623007886" lon="7.836369045380073"><ele>297.6666666666667</ele><time>2026-03-29T10:33:53Z</time></trkpt><trkpt lat="44.787463288434665" lon="7.836608124141603"><ele>297.0</ele><time>2026-03-29T10:33:54Z</time></trkpt><trkpt lat="44.78739865099143" lon="7.836854509989927"><ele>297.0</ele><time>2026-03-29T10:33:54.999Z</time></trkpt><trkpt lat="44.787335240856265" lon="7.837099443869792"><ele>297.0</ele><time>2026-03-29T10:33:55.999Z</time></trkpt><trkpt lat="44.78727737111845" lon="7.8373560592756535"><ele>297.0</ele><time>2026-03-29T10:33:56.999Z</time></trkpt><trkpt lat="44.78721903109639" lon="7.83763273373097"><ele>297.3333333333333</ele><time>2026-03-29T10:33:57.999Z</time></trkpt><trkpt lat="44.78715558149947" lon="7.837916631792231"><ele>297.66666666666663</ele><time>2026-03-29T10:33:58.999Z</time></trkpt><trkpt lat="44.787086974142234" lon="7.838208660464248"><ele>298.0</ele><time>2026-03-29T10:33:59.999Z</time></trkpt><trkpt lat="44.78702085073946" lon="7.838492429167603"><ele>299.0</ele><time>2026-03-29T10:34:00.999Z</time></trkpt><trkpt lat="44.786953611832615" lon="7.838777268495913"><ele>300.0</ele><time>2026-03-29T10:34:01.999Z</time></trkpt><trkpt lat="44.78688550353918" lon="7.839065019341015"><ele>301.0</ele><time>2026-03-29T10:34:02.999Z</time></trkpt><trkpt lat="44.786826454304354" lon="7.839335484937151"><ele>298.66666666666663</ele><time>2026-03-29T10:34:03.999Z</time></trkpt><trkpt lat="44.78677028018136" lon="7.83959810710686"><ele>296.3333333333333</ele><time>2026-03-29T10:34:04.999Z</time></trkpt><trkpt lat="44.78671407538951" lon="7.839849175290734"><ele>294.0</ele><time>2026-03-29T10:34:05.999Z</time></trkpt><trkpt lat="44.78665780426367" lon="7.840089259333132"><ele>295.0</ele><time>2026-03-29T10:34:06.999Z</time></trkpt><trkpt lat="44.786601622006955" lon="7.840341237291233"><ele>296.0</ele><time>2026-03-29T10:34:07.999Z</time></trkpt><trkpt lat="44.78654378802715" lon="7.840599482677282"><ele>297.0</ele><time>2026-03-29T10:34:08.999Z</time></trkpt><trkpt lat="44.78648428536142" lon="7.840870013236872"><ele>297.0</ele><time>2026-03-29T10:34:09.999Z</time></trkpt><trkpt lat="44.78643721537586" lon="7.841120475013754"><ele>297.0</ele><time>2026-03-29T10:34:10.999Z</time></trkpt><trkpt lat="44.78638078165642" lon="7.841395265462013"><ele>297.0</ele><time>2026-03-29T10:34:11.999Z</time></trkpt><trkpt lat="44.78630774858962" lon="7.841708017757797"><ele>297.5</ele><time>2026-03-29T10:34:12.999Z</time></trkpt><trkpt lat="44.78622729087379" lon="7.842040413396498"><ele>298.0</ele><time>2026-03-29T10:34:13.999Z</time></trkpt><trkpt lat="44.78614093549949" lon="7.842392538975231"><ele>296.0</ele><time>2026-03-29T10:34:14.999Z</time></trkpt><trkpt lat="44.7860518063849" lon="7.842763131021482"><ele>294.0</ele><time>2026-03-29T10:34:15.999Z</time></trkpt><trkpt lat="44.78596930270747" lon="7.8431257152934775"><ele>293.5</ele><time>2026-03-29T10:34:16.999Z</time></trkpt><trkpt lat="44.78589126347472" lon="7.843457037635253"><ele>293.0</ele><time>2026-03-29T10:34:17.999Z</time></trkpt><trkpt lat="44.78581726999038" lon="7.843765180788419"><ele>293.6666666666667</ele><time>2026-03-29T10:34:18.999Z</time></trkpt><trkpt lat="44.78574437004461" lon="7.844059359760904"><ele>294.3333333333333</ele><time>2026-03-29T10:34:19.999Z</time></trkpt><trkpt lat="44.78567465802558" lon="7.844337472451366"><ele>295.0</ele><time>2026-03-29T10:34:20.999Z</time></trkpt><trkpt lat="44.78561199234014" lon="7.844604160463484"><ele>295.66666666666663</ele><time>2026-03-29T10:34:21.999Z</time></trkpt><trkpt lat="44.78556079317716" lon="7.844859099236054"><ele>296.3333333333333</ele><time>2026-03-29T10:34:22.999Z</time></trkpt><trkpt lat="44.78551909141518" lon="7.845119762162896"><ele>297.0</ele><time>2026-03-29T10:34:23.999Z</time></trkpt><trkpt lat="44.78547543290155" lon="7.845412017515799"><ele>297.5</ele><time>2026-03-29T10:34:24.999Z</time></trkpt><trkpt lat="44.78542700059553" lon="7.845747081944694"><ele>298.0</ele><time>2026-03-29T10:34:26Z</time></trkpt><trkpt lat="44.785376658012886" lon="7.846111030129573"><ele>298.0</ele><time>2026-03-29T10:34:27Z</time></trkpt><trkpt lat="44.78532957291641" lon="7.846503682000372"><ele>298.0</ele><time>2026-03-29T10:34:28Z</time></trkpt><trkpt lat="44.785288090626494" lon="7.846914408603042"><ele>298.5</ele><time>2026-03-29T10:34:29Z</time></trkpt><trkpt lat="44.7852479580097" lon="7.847336027420237"><ele>299.0</ele><time>2026-03-29T10:34:30Z</time></trkpt><trkpt lat="44.78520605196053" lon="7.847747489080953"><ele>300.0</ele><time>2026-03-29T10:34:31Z</time></trkpt><trkpt lat="44.785173028326135" lon="7.848143410414583"><ele>301.0</ele><time>2026-03-29T10:34:32Z</time></trkpt><trkpt lat="44.785145730178854" lon="7.848534541627526"><ele>301.0</ele><time>2026-03-29T10:34:33Z</time></trkpt><trkpt lat="44.78511892997574" lon="7.848915080102788"><ele>301.0</ele><time>2026-03-29T10:34:34Z</time></trkpt><trkpt lat="44.785091916827774" lon="7.8492961434982345"><ele>301.5</ele><time>2026-03-29T10:34:35Z</time></trkpt><trkpt lat="44.78506523189593" lon="7.84967266398522"><ele>302.0</ele><time>2026-03-29T10:34:36Z</time></trkpt><trkpt lat="44.78503793366066" lon="7.850042927581123"><ele>303.5</ele><time>2026-03-29T10:34:37Z</time></trkpt><trkpt lat="44.78501109936223" lon="7.850407980022797"><ele>305.0</ele><time>2026-03-29T10:34:38Z</time></trkpt><trkpt lat="44.784982595039345" lon="7.8507702944336835"><ele>305.5</ele><time>2026-03-29T10:34:39Z</time></trkpt><trkpt lat="44.78495466468862" lon="7.8511334666863615"><ele>306.0</ele><time>2026-03-29T10:34:40Z</time></trkpt><trkpt lat="44.78492914034603" lon="7.851497037298567"><ele>307.0</ele><time>2026-03-29T10:34:41Z</time></trkpt><trkpt lat="44.78490663881304" lon="7.8518594794249"><ele>308.0</ele><time>2026-03-29T10:34:42Z</time></trkpt><trkpt lat="44.78488516115817" lon="7.852225403697988"><ele>308.0</ele><time>2026-03-29T10:34:43Z</time></trkpt><trkpt lat="44.78486027993302" lon="7.852591529972456"><ele>308.0</ele><time>2026-03-29T10:34:44Z</time></trkpt><trkpt lat="44.784829352862175" lon="7.8529532551877566"><ele>309.0</ele><time>2026-03-29T10:34:45Z</time></trkpt><trkpt lat="44.784799468582975" lon="7.853315726985597"><ele>310.0</ele><time>2026-03-29T10:34:46Z</time></trkpt><trkpt lat="44.7847714712311" lon="7.853678930767511"><ele>310.0</ele><time>2026-03-29T10:34:47Z</time></trkpt><trkpt lat="44.78474287594551" lon="7.854042534885451"><ele>310.0</ele><time>2026-03-29T10:34:48Z</time></trkpt><trkpt lat="44.78471545243468" lon="7.854406617073626"><ele>310.0</ele><time>2026-03-29T10:34:49Z</time></trkpt><trkpt lat="44.78468894128669" lon="7.85476961279705"><ele>310.0</ele><time>2026-03-29T10:34:50Z</time></trkpt><trkpt lat="44.78466069734245" lon="7.855138843877183"><ele>310.5</ele><time>2026-03-29T10:34:51Z</time></trkpt><trkpt lat="44.78463393051303" lon="7.855508021317612"><ele>311.0</ele><time>2026-03-29T10:34:52Z</time></trkpt><trkpt lat="44.78460707974743" lon="7.8558929742302075"><ele>310.5</ele><time>2026-03-29T10:34:53Z</time></trkpt><trkpt lat="44.78457911895578" lon="7.856295762665996"><ele>310.0</ele><time>2026-03-29T10:34:54Z</time></trkpt><trkpt lat="44.7845488667409" lon="7.856713371274784"><ele>310.5</ele><time>2026-03-29T10:34:55Z</time></trkpt><trkpt lat="44.78451959417257" lon="7.8571295712374045"><ele>311.0</ele><time>2026-03-29T10:34:56Z</time></trkpt><trkpt lat="44.78449137286928" lon="7.857537078504207"><ele>310.0</ele><time>2026-03-29T10:34:57Z</time></trkpt><trkpt lat="44.78446239528496" lon="7.857936328123991"><ele>309.0</ele><time>2026-03-29T10:34:58Z</time></trkpt><trkpt lat="44.78443492705889" lon="7.858327949539443"><ele>308.5</ele><time>2026-03-29T10:34:59Z</time></trkpt><trkpt lat="44.78440707427213" lon="7.858714475147861"><ele>308.0</ele><time>2026-03-29T10:35:00Z</time></trkpt><trkpt lat="44.784379787061425" lon="7.859094194448092"><ele>307.5</ele><time>2026-03-29T10:35:01Z</time></trkpt><trkpt lat="44.78435230004845" lon="7.859467719539764"><ele>307.0</ele><time>2026-03-29T10:35:02Z</time></trkpt><trkpt lat="44.784322783114185" lon="7.8598383669157785"><ele>311.0</ele><time>2026-03-29T10:35:03Z</time></trkpt><trkpt lat="44.78429413581245" lon="7.860205629858114"><ele>315.0</ele><time>2026-03-29T10:35:04Z</time></trkpt><trkpt lat="44.78426516959154" lon="7.86057209346339"><ele>315.0</ele><time>2026-03-29T10:35:05Z</time></trkpt><trkpt lat="44.78423715179211" lon="7.860943686869323"><ele>315.0</ele><time>2026-03-29T10:35:06Z</time></trkpt><trkpt lat="44.78421070321787" lon="7.861307414466398"><ele>315.5</ele><time>2026-03-29T10:35:07Z</time></trkpt><trkpt lat="44.78418223460803" lon="7.861649898460601"><ele>316.0</ele><time>2026-03-29T10:35:08Z</time></trkpt><trkpt lat="44.7841527924574" lon="7.861968632962593"><ele>316.66666666666663</ele><time>2026-03-29T10:35:09Z</time></trkpt><trkpt lat="44.784120108522636" lon="7.8622535696630695"><ele>317.3333333333333</ele><time>2026-03-29T10:35:10Z</time></trkpt><trkpt lat="44.784079788999954" lon="7.862512164353237"><ele>318.0</ele><time>2026-03-29T10:35:11Z</time></trkpt><trkpt lat="44.784032251659525" lon="7.86275214028127"><ele>318.0</ele><time>2026-03-29T10:35:12Z</time></trkpt><trkpt lat="44.783981571410365" lon="7.862953575500294"><ele>318.0</ele><time>2026-03-29T10:35:13Z</time></trkpt><trkpt lat="44.78392615502688" lon="7.863140821383879"><ele>318.0</ele><time>2026-03-29T10:35:14Z</time></trkpt><trkpt lat="44.78386452075876" lon="7.863316510080216"><ele>318.0</ele><time>2026-03-29T10:35:15Z</time></trkpt><trkpt lat="44.783800169560855" lon="7.863484120575685"><ele>318.0</ele><time>2026-03-29T10:35:16Z</time></trkpt><trkpt lat="44.783735266259704" lon="7.863641552842977"><ele>318.0</ele><time>2026-03-29T10:35:17Z</time></trkpt><trkpt lat="44.78367286867038" lon="7.86379233718324"><ele>318.0</ele><time>2026-03-29T10:35:18Z</time></trkpt><trkpt lat="44.78361186145237" lon="7.863943282804514"><ele>318.0</ele><time>2026-03-29T10:35:19Z</time></trkpt><trkpt lat="44.78354834059178" lon="7.86408553764575"><ele>318.25</ele><time>2026-03-29T10:35:20Z</time></trkpt><trkpt lat="44.78348511180413" lon="7.864218618212755"><ele>318.5</ele><time>2026-03-29T10:35:21Z</time></trkpt><trkpt lat="44.78341285031606" lon="7.864342127615692"><ele>318.75</ele><time>2026-03-29T10:35:22Z</time></trkpt><trkpt lat="44.78332652536859" lon="7.864453862220769"><ele>319.0</ele><time>2026-03-29T10:35:23Z</time></trkpt><trkpt lat="44.783246079776504" lon="7.8645750159305585"><ele>318.25</ele><time>2026-03-29T10:35:24Z</time></trkpt><trkpt lat="44.783194960815216" lon="7.8647272740844585"><ele>317.5</ele><time>2026-03-29T10:35:25Z</time></trkpt><trkpt lat="44.78316656620715" lon="7.864908776545917"><ele>316.75</ele><time>2026-03-29T10:35:26Z</time></trkpt><trkpt lat="44.78312571116494" lon="7.865103319014644"><ele>316.0</ele><time>2026-03-29T10:35:27Z</time></trkpt><trkpt lat="44.78304714197289" lon="7.865284925987614"><ele>314.66666666666663</ele><time>2026-03-29T10:35:28Z</time></trkpt><trkpt lat="44.78297876098048" lon="7.865483644403431"><ele>313.3333333333333</ele><time>2026-03-29T10:35:29Z</time></trkpt><trkpt lat="44.78288497727851" lon="7.865674186975484"><ele>312.0</ele><time>2026-03-29T10:35:30Z</time></trkpt><trkpt lat="44.782795044733234" lon="7.865871295385688"><ele>311.0</ele><time>2026-03-29T10:35:31Z</time></trkpt><trkpt lat="44.782706010691115" lon="7.866088584288582"><ele>310.0</ele><time>2026-03-29T10:35:32Z</time></trkpt><trkpt lat="44.78260857264088" lon="7.866326963905019"><ele>309.0</ele><time>2026-03-29T10:35:33Z</time></trkpt><trkpt lat="44.78249529600308" lon="7.8665993291300245"><ele>311.0</ele><time>2026-03-29T10:35:34Z</time></trkpt><trkpt lat="44.78237190785607" lon="7.866875040300369"><ele>313.0</ele><time>2026-03-29T10:35:35Z</time></trkpt><trkpt lat="44.782240369659846" lon="7.867164123387276"><ele>313.0</ele><time>2026-03-29T10:35:36Z</time></trkpt><trkpt lat="44.78210757711221" lon="7.867457636482846"><ele>313.0</ele><time>2026-03-29T10:35:37Z</time></trkpt><trkpt lat="44.781977697660714" lon="7.867741103579468"><ele>311.5</ele><time>2026-03-29T10:35:38Z</time></trkpt><trkpt lat="44.781852901901104" lon="7.868030878350317"><ele>310.0</ele><time>2026-03-29T10:35:39Z</time></trkpt><trkpt lat="44.78173219632997" lon="7.8683411727566215"><ele>314.0</ele><time>2026-03-29T10:35:40Z</time></trkpt><trkpt lat="44.781583613459034" lon="7.868652693974122"><ele>318.0</ele><time>2026-03-29T10:35:41Z</time></trkpt><trkpt lat="44.78146469185654" lon="7.868960679051718"><ele>318.0</ele><time>2026-03-29T10:35:42Z</time></trkpt><trkpt lat="44.781303957311216" lon="7.869283684236767"><ele>318.0</ele><time>2026-03-29T10:35:43Z</time></trkpt><trkpt lat="44.78113852533427" lon="7.869617548147309"><ele>318.5</ele><time>2026-03-29T10:35:44Z</time></trkpt><trkpt lat="44.78098105178549" lon="7.8699672889575005"><ele>319.0</ele><time>2026-03-29T10:35:45Z</time></trkpt><trkpt lat="44.780828684656704" lon="7.870321728616038"><ele>318.0</ele><time>2026-03-29T10:35:46Z</time></trkpt><trkpt lat="44.780675821530814" lon="7.870673883169119"><ele>317.0</ele><time>2026-03-29T10:35:47Z</time></trkpt><trkpt lat="44.78052191125246" lon="7.871022838070334"><ele>315.5</ele><time>2026-03-29T10:35:48Z</time></trkpt><trkpt lat="44.78037075747827" lon="7.871370733266495"><ele>314.0</ele><time>2026-03-29T10:35:49Z</time></trkpt><trkpt lat="44.780218754664865" lon="7.871722470944747"><ele>315.0</ele><time>2026-03-29T10:35:50Z</time></trkpt><trkpt lat="44.78006497673926" lon="7.872071107427795"><ele>316.0</ele><time>2026-03-29T10:35:51Z</time></trkpt><trkpt lat="44.77991019784791" lon="7.8724240971074995"><ele>316.0</ele><time>2026-03-29T10:35:52Z</time></trkpt><trkpt lat="44.77975727273947" lon="7.8727731141047625"><ele>316.0</ele><time>2026-03-29T10:35:53Z</time></trkpt><trkpt lat="44.779604848972625" lon="7.87312586878777"><ele>316.0</ele><time>2026-03-29T10:35:54Z</time></trkpt><trkpt lat="44.77945209209977" lon="7.873476659610526"><ele>316.0</ele><time>2026-03-29T10:35:55Z</time></trkpt><trkpt lat="44.7793012575458" lon="7.873825968917416"><ele>316.0</ele><time>2026-03-29T10:35:56Z</time></trkpt><trkpt lat="44.77914856664519" lon="7.874171280283949"><ele>316.0</ele><time>2026-03-29T10:35:57Z</time></trkpt><trkpt lat="44.77899285806785" lon="7.874515223297996"><ele>316.0</ele><time>2026-03-29T10:35:58Z</time></trkpt><trkpt lat="44.77884023349949" lon="7.874856683723811"><ele>316.0</ele><time>2026-03-29T10:35:59Z</time></trkpt><trkpt lat="44.7786949275258" lon="7.875200999356979"><ele>316.5</ele><time>2026-03-29T10:35:59.999Z</time></trkpt><trkpt lat="44.778549393640915" lon="7.87554545103973"><ele>317.0</ele><time>2026-03-29T10:36:00.999Z</time></trkpt><trkpt lat="44.778398358720004" lon="7.875887817784427"><ele>318.5</ele><time>2026-03-29T10:36:01.999Z</time></trkpt><trkpt lat="44.77824660767797" lon="7.876224505729425"><ele>320.0</ele><time>2026-03-29T10:36:02.999Z</time></trkpt><trkpt lat="44.77809556263425" lon="7.876557624948187"><ele>321.0</ele><time>2026-03-29T10:36:03.999Z</time></trkpt><trkpt lat="44.77794650939874" lon="7.876891352894771"><ele>322.0</ele><time>2026-03-29T10:36:04.999Z</time></trkpt><trkpt lat="44.777797231075446" lon="7.877221833008462"><ele>322.0</ele><time>2026-03-29T10:36:05.999Z</time></trkpt><trkpt lat="44.77764930935409" lon="7.877551120557252"><ele>322.0</ele><time>2026-03-29T10:36:06.999Z</time></trkpt><trkpt lat="44.77750316036189" lon="7.877877506044969"><ele>322.0</ele><time>2026-03-29T10:36:07.999Z</time></trkpt><trkpt lat="44.777363188839026" lon="7.878207126216645"><ele>322.0</ele><time>2026-03-29T10:36:08.999Z</time></trkpt><trkpt lat="44.77722283099589" lon="7.878533928349219"><ele>326.0</ele><time>2026-03-29T10:36:09.999Z</time></trkpt><trkpt lat="44.77708189317868" lon="7.878855687875144"><ele>330.0</ele><time>2026-03-29T10:36:10.999Z</time></trkpt><trkpt lat="44.776941375053845" lon="7.879177767176778"><ele>328.0</ele><time>2026-03-29T10:36:11.999Z</time></trkpt><trkpt lat="44.776799401413214" lon="7.879497364427938"><ele>326.0</ele><time>2026-03-29T10:36:12.999Z</time></trkpt><trkpt lat="44.77665587435188" lon="7.87982014210413"><ele>329.5</ele><time>2026-03-29T10:36:13.999Z</time></trkpt><trkpt lat="44.77651038607766" lon="7.880150575222065"><ele>333.0</ele><time>2026-03-29T10:36:14.999Z</time></trkpt><trkpt lat="44.77636085423136" lon="7.880493425861025"><ele>333.0</ele><time>2026-03-29T10:36:15.999Z</time></trkpt><trkpt lat="44.776209898495274" lon="7.880848595432919"><ele>333.0</ele><time>2026-03-29T10:36:16.999Z</time></trkpt><trkpt lat="44.77606775207373" lon="7.881179586005599"><ele>333.5</ele><time>2026-03-29T10:36:17.999Z</time></trkpt><trkpt lat="44.77593582312166" lon="7.881482231572386"><ele>334.0</ele><time>2026-03-29T10:36:18.999Z</time></trkpt><trkpt lat="44.77581041573827" lon="7.8817697715804975"><ele>334.0</ele><time>2026-03-29T10:36:19.999Z</time></trkpt><trkpt lat="44.77569025672334" lon="7.882050432550333"><ele>334.0</ele><time>2026-03-29T10:36:20.999Z</time></trkpt><trkpt lat="44.775567987502406" lon="7.88233107983426"><ele>337.5</ele><time>2026-03-29T10:36:21.999Z</time></trkpt><trkpt lat="44.775443251764266" lon="7.8826087547438055"><ele>341.0</ele><time>2026-03-29T10:36:22.999Z</time></trkpt><trkpt lat="44.7753266315543" lon="7.882873118729608"><ele>341.0</ele><time>2026-03-29T10:36:23.999Z</time></trkpt><trkpt lat="44.7752124094553" lon="7.883133645538044"><ele>341.0</ele><time>2026-03-29T10:36:24.999Z</time></trkpt><trkpt lat="44.775101568909875" lon="7.883392555105955"><ele>341.0</ele><time>2026-03-29T10:36:25.999Z</time></trkpt><trkpt lat="44.77499328250393" lon="7.883665754315596"><ele>337.5</ele><time>2026-03-29T10:36:26.999Z</time></trkpt><trkpt lat="44.774881671185305" lon="7.8839558064461555"><ele>334.0</ele><time>2026-03-29T10:36:27.999Z</time></trkpt><trkpt lat="44.77475361866932" lon="7.884248950956116"><ele>336.0</ele><time>2026-03-29T10:36:28.999Z</time></trkpt><trkpt lat="44.77460762254983" lon="7.884533087920241"><ele>338.0</ele><time>2026-03-29T10:36:29.999Z</time></trkpt><trkpt lat="44.774462967194495" lon="7.884818124601903"><ele>336.0</ele><time>2026-03-29T10:36:30.999Z</time></trkpt><trkpt lat="44.77432953308749" lon="7.885110316113615"><ele>334.0</ele><time>2026-03-29T10:36:32Z</time></trkpt><trkpt lat="44.77419856096681" lon="7.885404598274513"><ele>334.0</ele><time>2026-03-29T10:36:33Z</time></trkpt><trkpt lat="44.774069358591134" lon="7.885695700611767"><ele>334.0</ele><time>2026-03-29T10:36:34Z</time></trkpt><trkpt lat="44.773942695614316" lon="7.885989030011267"><ele>336.5</ele><time>2026-03-29T10:36:35Z</time></trkpt><trkpt lat="44.77381606165278" lon="7.886282758480319"><ele>339.0</ele><time>2026-03-29T10:36:36Z</time></trkpt><trkpt lat="44.77369097868732" lon="7.886573090856855"><ele>337.0</ele><time>2026-03-29T10:36:37Z</time></trkpt><trkpt lat="44.773562008618114" lon="7.886860526814775"><ele>335.0</ele><time>2026-03-29T10:36:38Z</time></trkpt><trkpt lat="44.77343250068772" lon="7.887142663380505"><ele>335.0</ele><time>2026-03-29T10:36:39Z</time></trkpt><trkpt lat="44.773306387553575" lon="7.887429592757352"><ele>335.0</ele><time>2026-03-29T10:36:40Z</time></trkpt><trkpt lat="44.77318529867074" lon="7.887718520714142"><ele>336.5</ele><time>2026-03-29T10:36:41Z</time></trkpt><trkpt lat="44.77306293991946" lon="7.888006232619104"><ele>338.0</ele><time>2026-03-29T10:36:42Z</time></trkpt><trkpt lat="44.77293686797432" lon="7.8882890618072645"><ele>341.0</ele><time>2026-03-29T10:36:43Z</time></trkpt><trkpt lat="44.772808633220286" lon="7.888577687962548"><ele>344.0</ele><time>2026-03-29T10:36:44Z</time></trkpt><trkpt lat="44.77268063062259" lon="7.888868821847256"><ele>338.0</ele><time>2026-03-29T10:36:45Z</time></trkpt><trkpt lat="44.77255290324064" lon="7.889160575621409"><ele>332.0</ele><time>2026-03-29T10:36:46Z</time></trkpt><trkpt lat="44.77242389763975" lon="7.889451177906771"><ele>332.0</ele><time>2026-03-29T10:36:47Z</time></trkpt><trkpt lat="44.7722969941001" lon="7.889743153279986"><ele>332.0</ele><time>2026-03-29T10:36:48Z</time></trkpt><trkpt lat="44.77217815656566" lon="7.890022874680884"><ele>334.0</ele><time>2026-03-29T10:36:49Z</time></trkpt><trkpt lat="44.77207063385575" lon="7.89026417597201"><ele>336.0</ele><time>2026-03-29T10:36:50Z</time></trkpt><trkpt lat="44.771969992559896" lon="7.890467822748368"><ele>338.0</ele><time>2026-03-29T10:36:51Z</time></trkpt><trkpt lat="44.771869802585435" lon="7.89064352097448"><ele>337.0</ele><time>2026-03-29T10:36:52Z</time></trkpt><trkpt lat="44.77177015296069" lon="7.8907800176273"><ele>336.0</ele><time>2026-03-29T10:36:53Z</time></trkpt><trkpt lat="44.77167113406732" lon="7.890872753686084"><ele>335.0</ele><time>2026-03-29T10:36:54Z</time></trkpt><trkpt lat="44.77156951457982" lon="7.890934768023777"><ele>334.0</ele><time>2026-03-29T10:36:55Z</time></trkpt><trkpt lat="44.77147853494635" lon="7.890961534733941"><ele>334.0</ele><time>2026-03-29T10:36:56Z</time></trkpt><trkpt lat="44.77141221810943" lon="7.891001078368478"><ele>334.0</ele><time>2026-03-29T10:36:57Z</time></trkpt><trkpt lat="44.77137377466214" lon="7.891071477064324"><ele>334.0</ele><time>2026-03-29T10:36:58Z</time></trkpt><trkpt lat="44.77136913164619" lon="7.891163912475312"><ele>334.0</ele><time>2026-03-29T10:36:59Z</time></trkpt><trkpt lat="44.7713974048495" lon="7.891246099016385"><ele>334.0</ele><time>2026-03-29T10:37:00Z</time></trkpt><trkpt lat="44.771448915179306" lon="7.891309252223602"><ele>334.0</ele><time>2026-03-29T10:37:01Z</time></trkpt><trkpt lat="44.77150429127558" lon="7.891377911562668"><ele>334.0</ele><time>2026-03-29T10:37:02Z</time></trkpt><trkpt lat="44.771520016465786" lon="7.891471385387044"><ele>334.0</ele><time>2026-03-29T10:37:03Z</time></trkpt><trkpt lat="44.771491292793314" lon="7.891575632892405"><ele>334.0</ele><time>2026-03-29T10:37:04Z</time></trkpt><trkpt lat="44.7714303356558" lon="7.891682291554847"><ele>334.0</ele><time>2026-03-29T10:37:05Z</time></trkpt><trkpt lat="44.77134169996605" lon="7.891813934834397"><ele>334.0</ele><time>2026-03-29T10:37:06Z</time></trkpt><trkpt lat="44.77122678570917" lon="7.8919919130169855"><ele>334.0</ele><time>2026-03-29T10:37:07Z</time></trkpt><trkpt lat="44.77109875932636" lon="7.892208640919027"><ele>334.0</ele><time>2026-03-29T10:37:08Z</time></trkpt><trkpt lat="44.77095974463591" lon="7.89244996118745"><ele>334.0</ele><time>2026-03-29T10:37:09Z</time></trkpt><trkpt lat="44.77081717877349" lon="7.8927068466505546"><ele>334.0</ele><time>2026-03-29T10:37:10Z</time></trkpt><trkpt lat="44.770669862136366" lon="7.892977205879899"><ele>334.0</ele><time>2026-03-29T10:37:11Z</time></trkpt><trkpt lat="44.77051716506291" lon="7.893251289065274"><ele>340.0</ele><time>2026-03-29T10:37:12Z</time></trkpt><trkpt lat="44.77036821181713" lon="7.893519294173257"><ele>346.0</ele><time>2026-03-29T10:37:13Z</time></trkpt><trkpt lat="44.77022556049408" lon="7.893777992732458"><ele>342.0</ele><time>2026-03-29T10:37:14Z</time></trkpt><trkpt lat="44.770087448921835" lon="7.894030284478642"><ele>338.0</ele><time>2026-03-29T10:37:15Z</time></trkpt><trkpt lat="44.76995014627716" lon="7.894279154607565"><ele>338.0</ele><time>2026-03-29T10:37:16Z</time></trkpt><trkpt lat="44.76981368089748" lon="7.894523909030913"><ele>338.0</ele><time>2026-03-29T10:37:17Z</time></trkpt><trkpt lat="44.76967920376625" lon="7.894768418417921"><ele>338.0</ele><time>2026-03-29T10:37:18Z</time></trkpt><trkpt lat="44.76954532537141" lon="7.895011988471269"><ele>338.0</ele><time>2026-03-29T10:37:19Z</time></trkpt><trkpt lat="44.76941231914296" lon="7.895255137552338"><ele>338.0</ele><time>2026-03-29T10:37:20Z</time></trkpt><trkpt lat="44.76927838671258" lon="7.895496006703048"><ele>338.0</ele><time>2026-03-29T10:37:21Z</time></trkpt><trkpt lat="44.769144632873676" lon="7.895733541864028"><ele>341.0</ele><time>2026-03-29T10:37:22Z</time></trkpt><trkpt lat="44.76900980790298" lon="7.895973698970859"><ele>344.0</ele><time>2026-03-29T10:37:23Z</time></trkpt><trkpt lat="44.76887720920058" lon="7.896214430876628"><ele>347.0</ele><time>2026-03-29T10:37:24Z</time></trkpt><trkpt lat="44.768744893341335" lon="7.896455352762442"><ele>347.0</ele><time>2026-03-29T10:37:25Z</time></trkpt><trkpt lat="44.7686149981303" lon="7.896696705062304"><ele>347.0</ele><time>2026-03-29T10:37:26Z</time></trkpt><trkpt lat="44.76848536679576" lon="7.896938648293241"><ele>347.0</ele><time>2026-03-29T10:37:27Z</time></trkpt><trkpt lat="44.76835118538056" lon="7.897182377203676"><ele>348.0</ele><time>2026-03-29T10:37:28Z</time></trkpt><trkpt lat="44.76821377646912" lon="7.897426140724384"><ele>349.0</ele><time>2026-03-29T10:37:29Z</time></trkpt><trkpt lat="44.768078536401696" lon="7.897666423176146"><ele>350.0</ele><time>2026-03-29T10:37:30Z</time></trkpt><trkpt lat="44.767951898476575" lon="7.897894326016577"><ele>350.0</ele><time>2026-03-29T10:37:31Z</time></trkpt><trkpt lat="44.76783267365548" lon="7.898110003742468"><ele>350.0</ele><time>2026-03-29T10:37:32Z</time></trkpt><trkpt lat="44.767718202932095" lon="7.898305494003519"><ele>350.0</ele><time>2026-03-29T10:37:33Z</time></trkpt><trkpt lat="44.76759774606097" lon="7.898472581215489"><ele>348.0</ele><time>2026-03-29T10:37:34Z</time></trkpt><trkpt lat="44.76745977113448" lon="7.898609777521282"><ele>346.0</ele><time>2026-03-29T10:37:35Z</time></trkpt><trkpt lat="44.767293099388546" lon="7.898695537661012"><ele>344.0</ele><time>2026-03-29T10:37:36Z</time></trkpt><trkpt lat="44.76711051803889" lon="7.898788352643619"><ele>344.0</ele><time>2026-03-29T10:37:37Z</time></trkpt><trkpt lat="44.766915318259464" lon="7.89887909890738"><ele>344.0</ele><time>2026-03-29T10:37:38Z</time></trkpt><trkpt lat="44.76672115235081" lon="7.898946392940644"><ele>344.0</ele><time>2026-03-29T10:37:39Z</time></trkpt><trkpt lat="44.76654343789411" lon="7.8990218137764785"><ele>344.33333333333337</ele><time>2026-03-29T10:37:40Z</time></trkpt><trkpt lat="44.76638725973302" lon="7.899115209991384"><ele>344.6666666666667</ele><time>2026-03-29T10:37:41Z</time></trkpt><trkpt lat="44.766257587874264" lon="7.8992415756024625"><ele>345.0</ele><time>2026-03-29T10:37:42Z</time></trkpt><trkpt lat="44.766136898911874" lon="7.8994140679128515"><ele>347.0</ele><time>2026-03-29T10:37:43Z</time></trkpt><trkpt lat="44.76601592737854" lon="7.899618935802726"><ele>349.0</ele><time>2026-03-29T10:37:44Z</time></trkpt><trkpt lat="44.76588740703082" lon="7.899820864243373"><ele>351.0</ele><time>2026-03-29T10:37:45Z</time></trkpt><trkpt lat="44.76576678177188" lon="7.900008892518515"><ele>354.6666666666667</ele><time>2026-03-29T10:37:46Z</time></trkpt><trkpt lat="44.76566741896753" lon="7.9002181133112535"><ele>358.33333333333337</ele><time>2026-03-29T10:37:47Z</time></trkpt><trkpt lat="44.7655953822581" lon="7.900481588292518"><ele>362.0</ele><time>2026-03-29T10:37:48Z</time></trkpt><trkpt lat="44.76554198919405" lon="7.900782678029964"><ele>365.0</ele><time>2026-03-29T10:37:49Z</time></trkpt><trkpt lat="44.76549167841428" lon="7.9010812258060446"><ele>368.0</ele><time>2026-03-29T10:37:50Z</time></trkpt><trkpt lat="44.76544325680687" lon="7.901368152731003"><ele>371.0</ele><time>2026-03-29T10:37:51Z</time></trkpt><trkpt lat="44.76539717994559" lon="7.901643441424315"><ele>371.6666666666667</ele><time>2026-03-29T10:37:52Z</time></trkpt><trkpt lat="44.76537013864627" lon="7.901929143308183"><ele>372.3333333333333</ele><time>2026-03-29T10:37:53Z</time></trkpt><trkpt lat="44.7653604131392" lon="7.902235428899653"><ele>373.0</ele><time>2026-03-29T10:37:54Z</time></trkpt><trkpt lat="44.76536014813516" lon="7.902564337528094"><ele>371.5</ele><time>2026-03-29T10:37:55Z</time></trkpt><trkpt lat="44.76536197032306" lon="7.90290881171147"><ele>370.0</ele><time>2026-03-29T10:37:56Z</time></trkpt><trkpt lat="44.76536892213215" lon="7.903252457538156"><ele>371.5</ele><time>2026-03-29T10:37:57Z</time></trkpt><trkpt lat="44.76538414702452" lon="7.903593824818938"><ele>373.0</ele><time>2026-03-29T10:37:58Z</time></trkpt><trkpt lat="44.76539233839295" lon="7.903932319589401"><ele>374.5</ele><time>2026-03-29T10:37:59Z</time></trkpt><trkpt lat="44.765360114099124" lon="7.9042657099562925"><ele>376.0</ele><time>2026-03-29T10:37:59.999Z</time></trkpt><trkpt lat="44.76532226136306" lon="7.904592407668847"><ele>376.0</ele><time>2026-03-29T10:38:00.999Z</time></trkpt><trkpt lat="44.76526778694553" lon="7.904916743523896"><ele>376.0</ele><time>2026-03-29T10:38:01.999Z</time></trkpt><trkpt lat="44.76519107783744" lon="7.9052321512125605"><ele>369.0</ele><time>2026-03-29T10:38:02.999Z</time></trkpt><trkpt lat="44.76509661555394" lon="7.905536856546339"><ele>362.0</ele><time>2026-03-29T10:38:03.999Z</time></trkpt><trkpt lat="44.765008362066716" lon="7.905840407642764"><ele>364.0</ele><time>2026-03-29T10:38:04.999Z</time></trkpt><trkpt lat="44.76490699702824" lon="7.906129234538733"><ele>366.0</ele><time>2026-03-29T10:38:05.999Z</time></trkpt><trkpt lat="44.76481671490274" lon="7.906410085319191"><ele>368.0</ele><time>2026-03-29T10:38:06.999Z</time></trkpt><trkpt lat="44.76471435425884" lon="7.906672912342487"><ele>366.33333333333337</ele><time>2026-03-29T10:38:07.999Z</time></trkpt><trkpt lat="44.764593417573295" lon="7.906905293080287"><ele>364.6666666666667</ele><time>2026-03-29T10:38:08.999Z</time></trkpt><trkpt lat="44.76446761459045" lon="7.9071288121698435"><ele>363.0</ele><time>2026-03-29T10:38:09.999Z</time></trkpt><trkpt lat="44.764353308303875" lon="7.907349397498723"><ele>363.0</ele><time>2026-03-29T10:38:10.999Z</time></trkpt><trkpt lat="44.76425108544659" lon="7.907568950210031"><ele>363.0</ele><time>2026-03-29T10:38:11.999Z</time></trkpt><trkpt lat="44.76416011400975" lon="7.907799665142167"><ele>363.0</ele><time>2026-03-29T10:38:12.999Z</time></trkpt><trkpt lat="44.76408117018703" lon="7.90802574050994"><ele>365.0</ele><time>2026-03-29T10:38:13.999Z</time></trkpt><trkpt lat="44.764003461410816" lon="7.90824132156473"><ele>367.0</ele><time>2026-03-29T10:38:14.999Z</time></trkpt><trkpt lat="44.763935471794746" lon="7.908451131074943"><ele>369.0</ele><time>2026-03-29T10:38:15.999Z</time></trkpt><trkpt lat="44.76387527283868" lon="7.908637326442062"><ele>368.25</ele><time>2026-03-29T10:38:16.999Z</time></trkpt><trkpt lat="44.76378471969928" lon="7.908809185098297"><ele>367.5</ele><time>2026-03-29T10:38:17.999Z</time></trkpt><trkpt lat="44.76367428269837" lon="7.908934120085395"><ele>366.75</ele><time>2026-03-29T10:38:18.999Z</time></trkpt><trkpt lat="44.76353248981826" lon="7.90901938374071"><ele>366.0</ele><time>2026-03-29T10:38:19.999Z</time></trkpt><trkpt lat="44.76339913960303" lon="7.90912103282276"><ele>369.0</ele><time>2026-03-29T10:38:20.999Z</time></trkpt><trkpt lat="44.76325774947949" lon="7.909249068207466"><ele>372.0</ele><time>2026-03-29T10:38:21.999Z</time></trkpt><trkpt lat="44.76312250881228" lon="7.909346626704413"><ele>375.0</ele><time>2026-03-29T10:38:22.999Z</time></trkpt><trkpt lat="44.763012664794466" lon="7.909458850232655"><ele>375.0</ele><time>2026-03-29T10:38:23.999Z</time></trkpt><trkpt lat="44.76291407852285" lon="7.909605186015001"><ele>375.0</ele><time>2026-03-29T10:38:24.999Z</time></trkpt><trkpt lat="44.76283167620402" lon="7.909782739886255"><ele>375.0</ele><time>2026-03-29T10:38:25.999Z</time></trkpt><trkpt lat="44.762757837858466" lon="7.909980194585241"><ele>373.25</ele><time>2026-03-29T10:38:26.999Z</time></trkpt><trkpt lat="44.762675927991786" lon="7.9101663256150045"><ele>371.5</ele><time>2026-03-29T10:38:27.999Z</time></trkpt><trkpt lat="44.76259782234793" lon="7.9103251790051905"><ele>369.75</ele><time>2026-03-29T10:38:28.999Z</time></trkpt><trkpt lat="44.762524452017765" lon="7.910471111428966"><ele>368.0</ele><time>2026-03-29T10:38:29.999Z</time></trkpt><trkpt lat="44.76245491817075" lon="7.910588170631731"><ele>368.0</ele><time>2026-03-29T10:38:30.999Z</time></trkpt><trkpt lat="44.762365839316125" lon="7.910650791830725"><ele>368.0</ele><time>2026-03-29T10:38:31.999Z</time></trkpt><trkpt lat="44.76227039520811" lon="7.910682525143913"><ele>368.0</ele><time>2026-03-29T10:38:32.999Z</time></trkpt><trkpt lat="44.762159610092965" lon="7.910661650712779"><ele>368.0</ele><time>2026-03-29T10:38:33.999Z</time></trkpt><trkpt lat="44.762036931389666" lon="7.910617862420195"><ele>368.0</ele><time>2026-03-29T10:38:34.999Z</time></trkpt><trkpt lat="44.76189312786237" lon="7.9105768874799445"><ele>369.33333333333337</ele><time>2026-03-29T10:38:35.999Z</time></trkpt><trkpt lat="44.76173219189232" lon="7.910542849111157"><ele>370.6666666666667</ele><time>2026-03-29T10:38:37Z</time></trkpt><trkpt lat="44.761570247434875" lon="7.910512409991676"><ele>372.0</ele><time>2026-03-29T10:38:38Z</time></trkpt><trkpt lat="44.761399090356754" lon="7.9104789190788605"><ele>372.0</ele><time>2026-03-29T10:38:39Z</time></trkpt><trkpt lat="44.761229465890146" lon="7.910442234908006"><ele>372.0</ele><time>2026-03-29T10:38:40Z</time></trkpt><trkpt lat="44.76106672004012" lon="7.910399015866028"><ele>372.0</ele><time>2026-03-29T10:38:41Z</time></trkpt><trkpt lat="44.76090643838784" lon="7.9103636091215"><ele>374.3333333333333</ele><time>2026-03-29T10:38:42Z</time></trkpt><trkpt lat="44.760751798478886" lon="7.910351228454467"><ele>376.66666666666663</ele><time>2026-03-29T10:38:43Z</time></trkpt><trkpt lat="44.76060424682583" lon="7.910379419466969"><ele>379.0</ele><time>2026-03-29T10:38:44Z</time></trkpt><trkpt lat="44.7604584037327" lon="7.910428854522703"><ele>379.0</ele><time>2026-03-29T10:38:45Z</time></trkpt><trkpt lat="44.76030174432736" lon="7.91050855844319"><ele>379.0</ele><time>2026-03-29T10:38:46Z</time></trkpt><trkpt lat="44.76013258995889" lon="7.910618826340882"><ele>379.0</ele><time>2026-03-29T10:38:47Z</time></trkpt><trkpt lat="44.75994749430615" lon="7.9107361860082674"><ele>380.3333333333333</ele><time>2026-03-29T10:38:48Z</time></trkpt><trkpt lat="44.75975405552278" lon="7.910853961543515"><ele>381.6666666666667</ele><time>2026-03-29T10:38:49Z</time></trkpt><trkpt lat="44.759552778356266" lon="7.910972134808144"><ele>383.0</ele><time>2026-03-29T10:38:50Z</time></trkpt><trkpt lat="44.75934759323271" lon="7.911088051336271"><ele>383.6666666666667</ele><time>2026-03-29T10:38:51Z</time></trkpt><trkpt lat="44.75915192890838" lon="7.911202307157945"><ele>384.33333333333337</ele><time>2026-03-29T10:38:52Z</time></trkpt><trkpt lat="44.7589768137145" lon="7.911314387869489"><ele>385.0</ele><time>2026-03-29T10:38:53Z</time></trkpt><trkpt lat="44.75881516121948" lon="7.9114489248342155"><ele>385.0</ele><time>2026-03-29T10:38:54Z</time></trkpt><trkpt lat="44.7586844914234" lon="7.911623335731566"><ele>385.0</ele><time>2026-03-29T10:38:55Z</time></trkpt><trkpt lat="44.758556318784386" lon="7.911820065309051"><ele>385.0</ele><time>2026-03-29T10:38:56Z</time></trkpt><trkpt lat="44.75835133895217" lon="7.911713480089357"><ele>389.0</ele><time>2026-03-29T10:38:57Z</time></trkpt><trkpt lat="44.758196203325525" lon="7.91174038642158"><ele>393.0</ele><time>2026-03-29T10:38:58Z</time></trkpt><trkpt lat="44.75804119341676" lon="7.911756811310618"><ele>397.0</ele><time>2026-03-29T10:38:59Z</time></trkpt><trkpt lat="44.75789840682011" lon="7.911785116954703"><ele>397.0</ele><time>2026-03-29T10:39:00Z</time></trkpt><trkpt lat="44.75777926225949" lon="7.911822090972696"><ele>397.0</ele><time>2026-03-29T10:39:01Z</time></trkpt><trkpt lat="44.7576667345963" lon="7.911860494084414"><ele>397.0</ele><time>2026-03-29T10:39:02Z</time></trkpt><trkpt lat="44.757578314619856" lon="7.911938951845209"><ele>397.0</ele><time>2026-03-29T10:39:03Z</time></trkpt><trkpt lat="44.75751796160973" lon="7.91206932773264"><ele>393.5</ele><time>2026-03-29T10:39:04Z</time></trkpt><trkpt lat="44.75749068127684" lon="7.912245109887907"><ele>390.0</ele><time>2026-03-29T10:39:05Z</time></trkpt><trkpt lat="44.7574690245702" lon="7.9124528562928305"><ele>386.5</ele><time>2026-03-29T10:39:06Z</time></trkpt><trkpt lat="44.757426173867174" lon="7.912674403523565"><ele>383.0</ele><time>2026-03-29T10:39:07Z</time></trkpt><trkpt lat="44.75737224311081" lon="7.912871537093111"><ele>383.0</ele><time>2026-03-29T10:39:08Z</time></trkpt><trkpt lat="44.75729078840099" lon="7.913014104046135"><ele>383.0</ele><time>2026-03-29T10:39:09Z</time></trkpt><trkpt lat="44.75718056723494" lon="7.91309263253932"><ele>383.0</ele><time>2026-03-29T10:39:10Z</time></trkpt><trkpt lat="44.75707174900748" lon="7.913136843128269"><ele>383.0</ele><time>2026-03-29T10:39:11Z</time></trkpt><trkpt lat="44.75697889876688" lon="7.9131975691418965"><ele>383.0</ele><time>2026-03-29T10:39:12Z</time></trkpt><trkpt lat="44.75692847761527" lon="7.913310180665988"><ele>383.0</ele><time>2026-03-29T10:39:13Z</time></trkpt><trkpt lat="44.756943728333326" lon="7.913463238112469"><ele>383.0</ele><time>2026-03-29T10:39:14Z</time></trkpt><trkpt lat="44.757006593537206" lon="7.913605780646017"><ele>383.0</ele><time>2026-03-29T10:39:15Z</time></trkpt><trkpt lat="44.75710681726543" lon="7.913726643270845"><ele>379.75</ele><time>2026-03-29T10:39:16Z</time></trkpt><trkpt lat="44.757217755558166" lon="7.913846661965204"><ele>376.5</ele><time>2026-03-29T10:39:17Z</time></trkpt><trkpt lat="44.75731423471279" lon="7.913964152315276"><ele>373.25</ele><time>2026-03-29T10:39:18Z</time></trkpt><trkpt lat="44.75739916816932" lon="7.914059959525015"><ele>370.0</ele><time>2026-03-29T10:39:19Z</time></trkpt><trkpt lat="44.757457190262244" lon="7.914127253108794"><ele>370.0</ele><time>2026-03-29T10:39:20Z</time></trkpt><trkpt lat="44.75746970395371" lon="7.914255230479169"><ele>370.0</ele><time>2026-03-29T10:39:22Z</time></trkpt><trkpt lat="44.757408706051805" lon="7.91428852605161"><ele>370.0</ele><time>2026-03-29T10:39:23Z</time></trkpt><trkpt lat="44.75733243233596" lon="7.914263512677313"><ele>370.0</ele><time>2026-03-29T10:39:24Z</time></trkpt><trkpt lat="44.757256510129594" lon="7.914178125690199"><ele>370.0</ele><time>2026-03-29T10:39:25Z</time></trkpt><trkpt lat="44.75717547605876" lon="7.914053272292167"><ele>370.0</ele><time>2026-03-29T10:39:26Z</time></trkpt><trkpt lat="44.757076321815276" lon="7.913917582891307"><ele>370.0</ele><time>2026-03-29T10:39:27Z</time></trkpt><trkpt lat="44.75695503008279" lon="7.913768188601455"><ele>370.0</ele><time>2026-03-29T10:39:28Z</time></trkpt><trkpt lat="44.756824723832" lon="7.913601973981475"><ele>366.25</ele><time>2026-03-29T10:39:29Z</time></trkpt><trkpt lat="44.75671918721392" lon="7.913450610329623"><ele>362.5</ele><time>2026-03-29T10:39:30Z</time></trkpt><trkpt lat="44.75663548426214" lon="7.913292811325211"><ele>358.75</ele><time>2026-03-29T10:39:31Z</time></trkpt><trkpt lat="44.756572912492956" lon="7.913147629836879"><ele>355.0</ele><time>2026-03-29T10:39:32Z</time></trkpt><trkpt lat="44.756530273015095" lon="7.913027120696603"><ele>355.0</ele><time>2026-03-29T10:39:33Z</time></trkpt><trkpt lat="44.7564945669524" lon="7.912938542759253"><ele>355.0</ele><time>2026-03-29T10:39:34Z</time></trkpt><trkpt lat="44.75639407652915" lon="7.91294762352263"><ele>355.0</ele><time>2026-03-29T10:39:36Z</time></trkpt><trkpt lat="44.75636078711984" lon="7.913039863597021"><ele>355.0</ele><time>2026-03-29T10:39:37Z</time></trkpt><trkpt lat="44.756377796054096" lon="7.91314628074725"><ele>355.0</ele><time>2026-03-29T10:39:38Z</time></trkpt><trkpt lat="44.75643009851112" lon="7.9132726287240045"><ele>355.0</ele><time>2026-03-29T10:39:39Z</time></trkpt><trkpt lat="44.75649717435892" lon="7.913438426871661"><ele>349.66666666666663</ele><time>2026-03-29T10:39:40Z</time></trkpt><trkpt lat="44.756572352306456" lon="7.913640897231994"><ele>344.3333333333333</ele><time>2026-03-29T10:39:41Z</time></trkpt><trkpt lat="44.75666149893038" lon="7.9138589729979865"><ele>339.0</ele><time>2026-03-29T10:39:42Z</time></trkpt><trkpt lat="44.756784382394756" lon="7.914076888104876"><ele>340.0</ele><time>2026-03-29T10:39:43Z</time></trkpt><trkpt lat="44.75693223408261" lon="7.914275778429082"><ele>341.0</ele><time>2026-03-29T10:39:44Z</time></trkpt><trkpt lat="44.7570725345219" lon="7.914457450091548"><ele>342.0</ele><time>2026-03-29T10:39:45Z</time></trkpt><trkpt lat="44.75720250710906" lon="7.914629955913998"><ele>342.0</ele><time>2026-03-29T10:39:46Z</time></trkpt><trkpt lat="44.75733581273952" lon="7.914782832504169"><ele>342.0</ele><time>2026-03-29T10:39:47Z</time></trkpt><trkpt lat="44.757474592122" lon="7.914910056762769"><ele>342.0</ele><time>2026-03-29T10:39:48Z</time></trkpt><trkpt lat="44.757612939058184" lon="7.915024445892145"><ele>345.5</ele><time>2026-03-29T10:39:49Z</time></trkpt><trkpt lat="44.75773055032309" lon="7.915136435332144"><ele>349.0</ele><time>2026-03-29T10:39:50Z</time></trkpt><trkpt lat="44.75785753792959" lon="7.9151663808547195"><ele>352.5</ele><time>2026-03-29T10:39:51Z</time></trkpt><trkpt lat="44.757968522665784" lon="7.915209159009432"><ele>356.0</ele><time>2026-03-29T10:39:52Z</time></trkpt><trkpt lat="44.75805512310636" lon="7.915250425703251"><ele>356.0</ele><time>2026-03-29T10:39:53Z</time></trkpt><trkpt lat="44.75811196967676" lon="7.915331417538339"><ele>356.0</ele><time>2026-03-29T10:39:54Z</time></trkpt><trkpt lat="44.75813228035057" lon="7.915475196569112"><ele>356.0</ele><time>2026-03-29T10:39:55Z</time></trkpt><trkpt lat="44.758118080870105" lon="7.9156427319616185"><ele>356.0</ele><time>2026-03-29T10:39:56Z</time></trkpt><trkpt lat="44.75803373750388" lon="7.915773501838756"><ele>356.0</ele><time>2026-03-29T10:39:57Z</time></trkpt><trkpt lat="44.75789567552313" lon="7.915811816493945"><ele>356.0</ele><time>2026-03-29T10:39:58Z</time></trkpt><trkpt lat="44.75777277420825" lon="7.915883156125708"><ele>356.0</ele><time>2026-03-29T10:39:59Z</time></trkpt><trkpt lat="44.75763941806109" lon="7.915956878983006"><ele>356.0</ele><time>2026-03-29T10:40:00Z</time></trkpt><trkpt lat="44.75751361466952" lon="7.916089338391895"><ele>356.0</ele><time>2026-03-29T10:40:00.999Z</time></trkpt><trkpt lat="44.75740554604651" lon="7.916270469743687"><ele>351.6666666666667</ele><time>2026-03-29T10:40:01.999Z</time></trkpt><trkpt lat="44.75728832572279" lon="7.916434190679637"><ele>347.3333333333333</ele><time>2026-03-29T10:40:02.999Z</time></trkpt><trkpt lat="44.757139512761476" lon="7.916526059991469"><ele>343.0</ele><time>2026-03-29T10:40:03.999Z</time></trkpt><trkpt lat="44.757011214910534" lon="7.916637797369645"><ele>343.0</ele><time>2026-03-29T10:40:04.999Z</time></trkpt><trkpt lat="44.75688266238337" lon="7.916716803516934"><ele>343.0</ele><time>2026-03-29T10:40:05.999Z</time></trkpt><trkpt lat="44.75675492705615" lon="7.9167752692860125"><ele>343.0</ele><time>2026-03-29T10:40:06.999Z</time></trkpt><trkpt lat="44.75663713951378" lon="7.916790270401457"><ele>343.0</ele><time>2026-03-29T10:40:07.999Z</time></trkpt><trkpt lat="44.75653065364251" lon="7.916818369169446"><ele>339.59999999999997</ele><time>2026-03-29T10:40:08.999Z</time></trkpt><trkpt lat="44.75644955670123" lon="7.916887368421097"><ele>336.2</ele><time>2026-03-29T10:40:09.999Z</time></trkpt><trkpt lat="44.75640580678928" lon="7.917011577143313"><ele>332.8</ele><time>2026-03-29T10:40:10.999Z</time></trkpt><trkpt lat="44.75641752373975" lon="7.917175653745588"><ele>329.4</ele><time>2026-03-29T10:40:11.999Z</time></trkpt><trkpt lat="44.75647395124767" lon="7.91733341917667"><ele>326.0</ele><time>2026-03-29T10:40:12.999Z</time></trkpt><trkpt lat="44.75657116191525" lon="7.917462930701073"><ele>322.33333333333337</ele><time>2026-03-29T10:40:13.999Z</time></trkpt><trkpt lat="44.756691505443534" lon="7.917591016409653"><ele>318.6666666666667</ele><time>2026-03-29T10:40:14.999Z</time></trkpt><trkpt lat="44.75676528242681" lon="7.9177736421476785"><ele>315.0</ele><time>2026-03-29T10:40:15.999Z</time></trkpt><trkpt lat="44.75684676855938" lon="7.917977367596995"><ele>319.75</ele><time>2026-03-29T10:40:16.999Z</time></trkpt><trkpt lat="44.756922199568656" lon="7.918164421546142"><ele>324.5</ele><time>2026-03-29T10:40:17.999Z</time></trkpt><trkpt lat="44.75697158810332" lon="7.918350006992022"><ele>329.25</ele><time>2026-03-29T10:40:18.999Z</time></trkpt><trkpt lat="44.756995266076416" lon="7.91854045996241"><ele>334.0</ele><time>2026-03-29T10:40:19.999Z</time></trkpt><trkpt lat="44.75698577349061" lon="7.9187449938202645"><ele>334.0</ele><time>2026-03-29T10:40:20.999Z</time></trkpt><trkpt lat="44.75693664521431" lon="7.918961751343563"><ele>334.0</ele><time>2026-03-29T10:40:21.999Z</time></trkpt><trkpt lat="44.7568516725112" lon="7.919180709529031"><ele>334.0</ele><time>2026-03-29T10:40:22.999Z</time></trkpt><trkpt lat="44.756726314671226" lon="7.919352224759459"><ele>330.0</ele><time>2026-03-29T10:40:23.999Z</time></trkpt><trkpt lat="44.75659407070995" lon="7.919533387891927"><ele>326.0</ele><time>2026-03-29T10:40:24.999Z</time></trkpt><trkpt lat="44.75642520182386" lon="7.919680802184184"><ele>322.0</ele><time>2026-03-29T10:40:25.999Z</time></trkpt><trkpt lat="44.75625069193165" lon="7.9198595172290185"><ele>322.0</ele><time>2026-03-29T10:40:26.999Z</time></trkpt><trkpt lat="44.75606271082999" lon="7.920045131543332"><ele>322.0</ele><time>2026-03-29T10:40:27.999Z</time></trkpt><trkpt lat="44.75583980156298" lon="7.920148981237822"><ele>317.0</ele><time>2026-03-29T10:40:28.999Z</time></trkpt><trkpt lat="44.75563706379718" lon="7.920283603523513"><ele>312.0</ele><time>2026-03-29T10:40:29.999Z</time></trkpt><trkpt lat="44.75543440156576" lon="7.92038609490637"><ele>307.0</ele><time>2026-03-29T10:40:30.999Z</time></trkpt><trkpt lat="44.7552427339843" lon="7.9205009454932505"><ele>304.3333333333333</ele><time>2026-03-29T10:40:31.999Z</time></trkpt><trkpt lat="44.75505467953781" lon="7.920617440231202"><ele>301.6666666666667</ele><time>2026-03-29T10:40:32.999Z</time></trkpt><trkpt lat="44.754869144565674" lon="7.920724464397691"><ele>299.0</ele><time>2026-03-29T10:40:33.999Z</time></trkpt><trkpt lat="44.754688469361135" lon="7.920822446405811"><ele>298.33333333333337</ele><time>2026-03-29T10:40:34.999Z</time></trkpt><trkpt lat="44.75451426374938" lon="7.920917843534817"><ele>297.6666666666667</ele><time>2026-03-29T10:40:35.999Z</time></trkpt><trkpt lat="44.75435372661633" lon="7.921018928642964"><ele>297.0</ele><time>2026-03-29T10:40:36.999Z</time></trkpt><trkpt lat="44.754218750176555" lon="7.9211355933497725"><ele>295.0</ele><time>2026-03-29T10:40:37.999Z</time></trkpt><trkpt lat="44.7541158453271" lon="7.921296893779294"><ele>293.0</ele><time>2026-03-29T10:40:38.999Z</time></trkpt><trkpt lat="44.75404046038703" lon="7.921522290200071"><ele>291.0</ele><time>2026-03-29T10:40:39.999Z</time></trkpt><trkpt lat="44.75397470989833" lon="7.921773652837719"><ele>290.3333333333333</ele><time>2026-03-29T10:40:40.999Z</time></trkpt><trkpt lat="44.753900930729635" lon="7.922001758560405"><ele>289.66666666666663</ele><time>2026-03-29T10:40:41.999Z</time></trkpt><trkpt lat="44.75377938917944" lon="7.922159300897836"><ele>289.0</ele><time>2026-03-29T10:40:43Z</time></trkpt><trkpt lat="44.75363707740226" lon="7.922261570545629"><ele>287.66666666666663</ele><time>2026-03-29T10:40:44Z</time></trkpt><trkpt lat="44.75347731341545" lon="7.922374102128496"><ele>286.3333333333333</ele><time>2026-03-29T10:40:45Z</time></trkpt><trkpt lat="44.753288288219956" lon="7.9224462517212855"><ele>285.0</ele><time>2026-03-29T10:40:46Z</time></trkpt><trkpt lat="44.753099178452636" lon="7.922544615590249"><ele>285.0</ele><time>2026-03-29T10:40:47Z</time></trkpt><trkpt lat="44.752912858240016" lon="7.922600168911905"><ele>285.0</ele><time>2026-03-29T10:40:48Z</time></trkpt><trkpt lat="44.75271719700035" lon="7.922563710190127"><ele>285.0</ele><time>2026-03-29T10:40:49Z</time></trkpt><trkpt lat="44.75251051782249" lon="7.922540853730966"><ele>283.0</ele><time>2026-03-29T10:40:50Z</time></trkpt><trkpt lat="44.752306756060094" lon="7.92247968797843"><ele>281.0</ele><time>2026-03-29T10:40:51Z</time></trkpt><trkpt lat="44.752119239661" lon="7.922436780735551"><ele>279.0</ele><time>2026-03-29T10:40:52Z</time></trkpt><trkpt lat="44.75193961794781" lon="7.922411703835471"><ele>278.0</ele><time>2026-03-29T10:40:53Z</time></trkpt><trkpt lat="44.751765693660836" lon="7.922405020002736"><ele>277.0</ele><time>2026-03-29T10:40:54Z</time></trkpt><trkpt lat="44.7515984606099" lon="7.922421207989843"><ele>276.0</ele><time>2026-03-29T10:40:55Z</time></trkpt><trkpt lat="44.75142581804215" lon="7.922479352800442"><ele>274.0</ele><time>2026-03-29T10:40:56Z</time></trkpt><trkpt lat="44.751248209400536" lon="7.922574746543507"><ele>272.0</ele><time>2026-03-29T10:40:57Z</time></trkpt><trkpt lat="44.75107279998899" lon="7.9226895954194125"><ele>270.0</ele><time>2026-03-29T10:40:58Z</time></trkpt><trkpt lat="44.75090393944101" lon="7.922805231846325"><ele>270.0</ele><time>2026-03-29T10:40:59Z</time></trkpt><trkpt lat="44.750771197615755" lon="7.922934237194465"><ele>270.0</ele><time>2026-03-29T10:41:00Z</time></trkpt><trkpt lat="44.75066531942997" lon="7.923082895473991"><ele>270.0</ele><time>2026-03-29T10:41:01Z</time></trkpt><trkpt lat="44.75060338001099" lon="7.923267775438662"><ele>269.3333333333333</ele><time>2026-03-29T10:41:02Z</time></trkpt><trkpt lat="44.75058753540433" lon="7.9234823964567145"><ele>268.66666666666663</ele><time>2026-03-29T10:41:03Z</time></trkpt><trkpt lat="44.75059344694097" lon="7.923739961036741"><ele>268.0</ele><time>2026-03-29T10:41:04Z</time></trkpt><trkpt lat="44.75058668722592" lon="7.924034083960402"><ele>267.0</ele><time>2026-03-29T10:41:05Z</time></trkpt><trkpt lat="44.7505602992295" lon="7.924348251621804"><ele>266.0</ele><time>2026-03-29T10:41:06Z</time></trkpt><trkpt lat="44.75053119580975" lon="7.92467048937954"><ele>266.0</ele><time>2026-03-29T10:41:07Z</time></trkpt><trkpt lat="44.7505036170671" lon="7.924985580520648"><ele>266.0</ele><time>2026-03-29T10:41:08Z</time></trkpt><trkpt lat="44.75045451416203" lon="7.9252954630507295"><ele>268.0</ele><time>2026-03-29T10:41:09Z</time></trkpt><trkpt lat="44.750336142541315" lon="7.925564739721908"><ele>270.0</ele><time>2026-03-29T10:41:10Z</time></trkpt><trkpt lat="44.75019572386853" lon="7.925824351509493"><ele>266.0</ele><time>2026-03-29T10:41:11Z</time></trkpt><trkpt lat="44.7500585184233" lon="7.926087093802559"><ele>262.0</ele><time>2026-03-29T10:41:12Z</time></trkpt><trkpt lat="44.7498943913672" lon="7.926317514591371"><ele>262.0</ele><time>2026-03-29T10:41:13Z</time></trkpt><trkpt lat="44.74974963843103" lon="7.926540879111979"><ele>262.0</ele><time>2026-03-29T10:41:14Z</time></trkpt><trkpt lat="44.74963123809541" lon="7.926757936388434"><ele>262.0</ele><time>2026-03-29T10:41:15Z</time></trkpt><trkpt lat="44.74954132167851" lon="7.926989043947126"><ele>261.3333333333333</ele><time>2026-03-29T10:41:16Z</time></trkpt><trkpt lat="44.74949675443069" lon="7.927265592972049"><ele>260.6666666666667</ele><time>2026-03-29T10:41:17Z</time></trkpt><trkpt lat="44.74947403509687" lon="7.927578319926276"><ele>260.0</ele><time>2026-03-29T10:41:18Z</time></trkpt><trkpt lat="44.74945846911401" lon="7.927898010662381"><ele>258.33333333333337</ele><time>2026-03-29T10:41:19Z</time></trkpt><trkpt lat="44.749430669856835" lon="7.928193797196379"><ele>256.6666666666667</ele><time>2026-03-29T10:41:20Z</time></trkpt><trkpt lat="44.74936358913324" lon="7.928458969344381"><ele>255.0</ele><time>2026-03-29T10:41:21Z</time></trkpt><trkpt lat="44.74928305797573" lon="7.9287151019124655"><ele>255.33333333333331</ele><time>2026-03-29T10:41:22Z</time></trkpt><trkpt lat="44.749178696359664" lon="7.928968186985646"><ele>255.66666666666666</ele><time>2026-03-29T10:41:23Z</time></trkpt><trkpt lat="44.74906146699723" lon="7.929228235634948"><ele>256.0</ele><time>2026-03-29T10:41:24Z</time></trkpt><trkpt lat="44.748899201982844" lon="7.92946878235702"><ele>256.0</ele><time>2026-03-29T10:41:25Z</time></trkpt><trkpt lat="44.74870686503043" lon="7.92971332574324"><ele>256.0</ele><time>2026-03-29T10:41:26Z</time></trkpt><trkpt lat="44.74850464441186" lon="7.929955912599562"><ele>254.5</ele><time>2026-03-29T10:41:27Z</time></trkpt><trkpt lat="44.74829966778119" lon="7.930210569455257"><ele>253.0</ele><time>2026-03-29T10:41:28Z</time></trkpt><trkpt lat="44.74811323052761" lon="7.930453198103717"><ele>253.0</ele><time>2026-03-29T10:41:29Z</time></trkpt><trkpt lat="44.747950451434974" lon="7.930690607284308"><ele>253.0</ele><time>2026-03-29T10:41:30Z</time></trkpt><trkpt lat="44.747803994779545" lon="7.930932458034612"><ele>252.66666666666666</ele><time>2026-03-29T10:41:31Z</time></trkpt><trkpt lat="44.74767738165477" lon="7.931190497874956"><ele>252.33333333333331</ele><time>2026-03-29T10:41:32Z</time></trkpt><trkpt lat="44.74756499208017" lon="7.931467727698646"><ele>252.0</ele><time>2026-03-29T10:41:33Z</time></trkpt><trkpt lat="44.74747515171508" lon="7.931764714416536"><ele>252.0</ele><time>2026-03-29T10:41:34Z</time></trkpt><trkpt lat="44.747402725504934" lon="7.932091961670066"><ele>252.0</ele><time>2026-03-29T10:41:35Z</time></trkpt><trkpt lat="44.74734575835042" lon="7.932446094524586"><ele>255.5</ele><time>2026-03-29T10:41:36Z</time></trkpt><trkpt lat="44.74728857983543" lon="7.932818749871495"><ele>259.0</ele><time>2026-03-29T10:41:37Z</time></trkpt><trkpt lat="44.74722643383549" lon="7.9331710532383255"><ele>264.5</ele><time>2026-03-29T10:41:38Z</time></trkpt><trkpt lat="44.74715966401607" lon="7.933480541101527"><ele>270.0</ele><time>2026-03-29T10:41:39Z</time></trkpt><trkpt lat="44.74707315415573" lon="7.933774542782361"><ele>270.0</ele><time>2026-03-29T10:41:40Z</time></trkpt><trkpt lat="44.74697835810203" lon="7.9340260584303515"><ele>270.0</ele><time>2026-03-29T10:41:41Z</time></trkpt><trkpt lat="44.746898517482514" lon="7.934273642572309"><ele>270.0</ele><time>2026-03-29T10:41:42Z</time></trkpt><trkpt lat="44.74684054954011" lon="7.934527904908875"><ele>263.6666666666667</ele><time>2026-03-29T10:41:43Z</time></trkpt><trkpt lat="44.746802276483514" lon="7.934785851666356"><ele>257.33333333333337</ele><time>2026-03-29T10:41:44Z</time></trkpt><trkpt lat="44.746771667193606" lon="7.935059834314054"><ele>251.0</ele><time>2026-03-29T10:41:45Z</time></trkpt><trkpt lat="44.746752959650266" lon="7.9353489687120335"><ele>249.33333333333334</ele><time>2026-03-29T10:41:46Z</time></trkpt><trkpt lat="44.74673941380349" lon="7.935637045333089"><ele>247.66666666666669</ele><time>2026-03-29T10:41:47Z</time></trkpt><trkpt lat="44.746720272471144" lon="7.935911850634275"><ele>246.0</ele><time>2026-03-29T10:41:48Z</time></trkpt><trkpt lat="44.74670719508155" lon="7.936177445976279"><ele>244.66666666666669</ele><time>2026-03-29T10:41:49Z</time></trkpt><trkpt lat="44.74670961229087" lon="7.936437847176954"><ele>243.33333333333334</ele><time>2026-03-29T10:41:50Z</time></trkpt><trkpt lat="44.746730789483195" lon="7.936700751999397"><ele>242.0</ele><time>2026-03-29T10:41:51Z</time></trkpt><trkpt lat="44.74676654709774" lon="7.936969119203334"><ele>240.66666666666669</ele><time>2026-03-29T10:41:52Z</time></trkpt><trkpt lat="44.74680131073108" lon="7.937236837716321"><ele>239.33333333333331</ele><time>2026-03-29T10:41:53Z</time></trkpt><trkpt lat="44.74683137695657" lon="7.937510229333118"><ele>238.0</ele><time>2026-03-29T10:41:54Z</time></trkpt><trkpt lat="44.74686397143003" lon="7.937785819950597"><ele>237.33333333333331</ele><time>2026-03-29T10:41:55Z</time></trkpt><trkpt lat="44.746897841957605" lon="7.93804297648051"><ele>236.66666666666669</ele><time>2026-03-29T10:41:56Z</time></trkpt><trkpt lat="44.74692698335013" lon="7.93828372975579"><ele>236.0</ele><time>2026-03-29T10:41:57Z</time></trkpt><trkpt lat="44.74695512317746" lon="7.938499406878158"><ele>236.0</ele><time>2026-03-29T10:41:58Z</time></trkpt><trkpt lat="44.7469803962352" lon="7.938684026564922"><ele>236.00000000000003</ele><time>2026-03-29T10:41:59Z</time></trkpt><trkpt lat="44.74699803472412" lon="7.938827957973342"><ele>236.00000000000003</ele><time>2026-03-29T10:42:00Z</time></trkpt><trkpt lat="44.74700858735234" lon="7.938930388917929"><ele>236.0</ele><time>2026-03-29T10:42:01Z</time></trkpt><trkpt lat="44.746989464184324" lon="7.939069562044948"><ele>236.0</ele><time>2026-03-29T10:42:02.999Z</time></trkpt><trkpt lat="44.7469003900962" lon="7.939132828508242"><ele>236.5</ele><time>2026-03-29T10:42:03.999Z</time></trkpt><trkpt lat="44.74680610199327" lon="7.939182593937959"><ele>237.0</ele><time>2026-03-29T10:42:04.999Z</time></trkpt><trkpt lat="44.74669578433496" lon="7.939251317766504"><ele>237.5</ele><time>2026-03-29T10:42:05.999Z</time></trkpt><trkpt lat="44.74656142372885" lon="7.939362176552635"><ele>238.0</ele><time>2026-03-29T10:42:06.999Z</time></trkpt><trkpt lat="44.74638630054621" lon="7.939493419399153"><ele>237.5</ele><time>2026-03-29T10:42:07.999Z</time></trkpt><trkpt lat="44.746199557310526" lon="7.9396417446782275"><ele>237.0</ele><time>2026-03-29T10:42:08.999Z</time></trkpt><trkpt lat="44.74598124676088" lon="7.939807148188113"><ele>237.0</ele><time>2026-03-29T10:42:09.999Z</time></trkpt><trkpt lat="44.74575143636271" lon="7.939978400395871"><ele>237.0</ele><time>2026-03-29T10:42:10.999Z</time></trkpt><trkpt lat="44.745535130848644" lon="7.940139386361846"><ele>237.33333333333331</ele><time>2026-03-29T10:42:11.999Z</time></trkpt><trkpt lat="44.74533753037426" lon="7.9402887058985865"><ele>237.66666666666666</ele><time>2026-03-29T10:42:12.999Z</time></trkpt><trkpt lat="44.74514342058527" lon="7.940425826952099"><ele>238.0</ele><time>2026-03-29T10:42:13.999Z</time></trkpt><trkpt lat="44.74494700015543" lon="7.940543730120202"><ele>238.0</ele><time>2026-03-29T10:42:14.999Z</time></trkpt><trkpt lat="44.74473603234465" lon="7.940650975722478"><ele>238.0</ele><time>2026-03-29T10:42:15.999Z</time></trkpt><trkpt lat="44.74452381560937" lon="7.940744268271999"><ele>238.0</ele><time>2026-03-29T10:42:16.999Z</time></trkpt><trkpt lat="44.74431121783081" lon="7.940825307293765"><ele>239.5</ele><time>2026-03-29T10:42:17.999Z</time></trkpt><trkpt lat="44.74409299516431" lon="7.940908109125266"><ele>241.0</ele><time>2026-03-29T10:42:18.999Z</time></trkpt><trkpt lat="44.743875970678936" lon="7.940984720459715"><ele>241.0</ele><time>2026-03-29T10:42:19.999Z</time></trkpt><trkpt lat="44.7436579471425" lon="7.941072494663879"><ele>241.0</ele><time>2026-03-29T10:42:20.999Z</time></trkpt><trkpt lat="44.74343261867064" lon="7.941177162828034"><ele>236.0</ele><time>2026-03-29T10:42:21.999Z</time></trkpt><trkpt lat="44.74320417593307" lon="7.9412985729356915"><ele>231.0</ele><time>2026-03-29T10:42:22.999Z</time></trkpt><trkpt lat="44.742970430720256" lon="7.941433042625852"><ele>231.0</ele><time>2026-03-29T10:42:23.999Z</time></trkpt><trkpt lat="44.7427364852886" lon="7.9415734905407325"><ele>231.0</ele><time>2026-03-29T10:42:24.999Z</time></trkpt><trkpt lat="44.742506465314435" lon="7.941711853192431"><ele>230.0</ele><time>2026-03-29T10:42:25.999Z</time></trkpt><trkpt lat="44.74228820045209" lon="7.941844293702498"><ele>229.0</ele><time>2026-03-29T10:42:26.999Z</time></trkpt><trkpt lat="44.742071664033986" lon="7.941974824771713"><ele>226.0</ele><time>2026-03-29T10:42:27.999Z</time></trkpt><trkpt lat="44.74180575056033" lon="7.942131011719259"><ele>223.0</ele><time>2026-03-29T10:42:28.999Z</time></trkpt><trkpt lat="44.741574804113235" lon="7.942269903276106"><ele>223.0</ele><time>2026-03-29T10:42:29.999Z</time></trkpt><trkpt lat="44.74134243436622" lon="7.942405037825908"><ele>223.0</ele><time>2026-03-29T10:42:30.999Z</time></trkpt><trkpt lat="44.741115974874596" lon="7.942548783683307"><ele>223.0</ele><time>2026-03-29T10:42:31.999Z</time></trkpt><trkpt lat="44.74088929809537" lon="7.9426914271761255"><ele>223.0</ele><time>2026-03-29T10:42:32.999Z</time></trkpt><trkpt lat="44.74066279239346" lon="7.942855806310497"><ele>223.0</ele><time>2026-03-29T10:42:33.999Z</time></trkpt><trkpt lat="44.74043883597446" lon="7.9430477333654785"><ele>223.0</ele><time>2026-03-29T10:42:34.999Z</time></trkpt><trkpt lat="44.74021478357739" lon="7.943256821304547"><ele>222.0</ele><time>2026-03-29T10:42:35.999Z</time></trkpt><trkpt lat="44.74000086559601" lon="7.943458435530946"><ele>221.0</ele><time>2026-03-29T10:42:36.999Z</time></trkpt><trkpt lat="44.73979459778395" lon="7.943643788079127"><ele>221.0</ele><time>2026-03-29T10:42:37.999Z</time></trkpt><trkpt lat="44.7395906055546" lon="7.943794134095378"><ele>221.0</ele><time>2026-03-29T10:42:38.999Z</time></trkpt><trkpt lat="44.739390232104284" lon="7.943897228814803"><ele>221.0</ele><time>2026-03-29T10:42:39.999Z</time></trkpt><trkpt lat="44.73918315852364" lon="7.943955011822665"><ele>221.0</ele><time>2026-03-29T10:42:40.999Z</time></trkpt><trkpt lat="44.738963357501696" lon="7.943974308522238"><ele>221.0</ele><time>2026-03-29T10:42:41.999Z</time></trkpt><trkpt lat="44.73875174625222" lon="7.943963601105043"><ele>221.0</ele><time>2026-03-29T10:42:42.999Z</time></trkpt><trkpt lat="44.73855317066819" lon="7.9439575571922525"><ele>220.0</ele><time>2026-03-29T10:42:43.999Z</time></trkpt><trkpt lat="44.73836260273398" lon="7.943988715791621"><ele>219.0</ele><time>2026-03-29T10:42:44.999Z</time></trkpt><trkpt lat="44.738171973075445" lon="7.9440750118277945"><ele>218.0</ele><time>2026-03-29T10:42:45.999Z</time></trkpt><trkpt lat="44.73797249816278" lon="7.94422354753986"><ele>221.0</ele><time>2026-03-29T10:42:46.999Z</time></trkpt><trkpt lat="44.737761313803546" lon="7.944421486795728"><ele>224.0</ele><time>2026-03-29T10:42:47.999Z</time></trkpt><trkpt lat="44.737545935172996" lon="7.9446145279946725"><ele>224.0</ele><time>2026-03-29T10:42:49Z</time></trkpt><trkpt lat="44.73734731565944" lon="7.944784938672479"><ele>224.0</ele><time>2026-03-29T10:42:50Z</time></trkpt><trkpt lat="44.73716478200114" lon="7.944944193024242"><ele>224.0</ele><time>2026-03-29T10:42:51Z</time></trkpt><trkpt lat="44.736990224447844" lon="7.94511299151516"><ele>223.5</ele><time>2026-03-29T10:42:52Z</time></trkpt><trkpt lat="44.736814868134566" lon="7.94532849965405"><ele>223.0</ele><time>2026-03-29T10:42:53Z</time></trkpt><trkpt lat="44.73663999868999" lon="7.9455746943983705"><ele>223.0</ele><time>2026-03-29T10:42:54Z</time></trkpt><trkpt lat="44.73647226330165" lon="7.9458063479348775"><ele>223.0</ele><time>2026-03-29T10:42:55Z</time></trkpt><trkpt lat="44.7363108447633" lon="7.946014441726301"><ele>224.66666666666666</ele><time>2026-03-29T10:42:56Z</time></trkpt><trkpt lat="44.73615782162283" lon="7.946224567196506"><ele>226.33333333333331</ele><time>2026-03-29T10:42:57Z</time></trkpt><trkpt lat="44.736009540453466" lon="7.946464361257473"><ele>228.0</ele><time>2026-03-29T10:42:58Z</time></trkpt><trkpt lat="44.735865037781025" lon="7.9467396667709425"><ele>221.0</ele><time>2026-03-29T10:42:59Z</time></trkpt><trkpt lat="44.735737861425285" lon="7.947030701707589"><ele>214.0</ele><time>2026-03-29T10:43:00Z</time></trkpt><trkpt lat="44.73562907366615" lon="7.94730419393196"><ele>215.0</ele><time>2026-03-29T10:43:01Z</time></trkpt><trkpt lat="44.73552379208079" lon="7.947553719742707"><ele>216.0</ele><time>2026-03-29T10:43:02Z</time></trkpt><trkpt lat="44.73542219092509" lon="7.947780416014336"><ele>217.0</ele><time>2026-03-29T10:43:03Z</time></trkpt><trkpt lat="44.73532793579737" lon="7.9479889123782295"><ele>217.0</ele><time>2026-03-29T10:43:04Z</time></trkpt><trkpt lat="44.7352416688091" lon="7.9481809619985615"><ele>217.0</ele><time>2026-03-29T10:43:05Z</time></trkpt><trkpt lat="44.73516326087737" lon="7.9483573507095295"><ele>217.0</ele><time>2026-03-29T10:43:06Z</time></trkpt><trkpt lat="44.7350949408186" lon="7.948514560805339"><ele>217.0</ele><time>2026-03-29T10:43:07Z</time></trkpt><trkpt lat="44.735031803168674" lon="7.948655168867892"><ele>216.2</ele><time>2026-03-29T10:43:08Z</time></trkpt><trkpt lat="44.73496565363604" lon="7.948776292074238"><ele>215.39999999999998</ele><time>2026-03-29T10:43:09Z</time></trkpt><trkpt lat="44.7348818023428" lon="7.9488720169923734"><ele>214.60000000000002</ele><time>2026-03-29T10:43:10Z</time></trkpt><trkpt lat="44.734790749047264" lon="7.948941901202466"><ele>213.8</ele><time>2026-03-29T10:43:11Z</time></trkpt><trkpt lat="44.73472722582533" lon="7.949043934814907"><ele>213.0</ele><time>2026-03-29T10:43:12Z</time></trkpt><trkpt lat="44.73468920475705" lon="7.949216515191364"><ele>212.66666666666669</ele><time>2026-03-29T10:43:13Z</time></trkpt><trkpt lat="44.7346591641041" lon="7.9494191064021384"><ele>212.33333333333334</ele><time>2026-03-29T10:43:14Z</time></trkpt><trkpt lat="44.734591357709384" lon="7.949632310118481"><ele>212.0</ele><time>2026-03-29T10:43:15Z</time></trkpt><trkpt lat="44.73447229260005" lon="7.9498636071941275"><ele>212.0</ele><time>2026-03-29T10:43:16Z</time></trkpt><trkpt lat="44.73433200471997" lon="7.950125004821868"><ele>212.0</ele><time>2026-03-29T10:43:17Z</time></trkpt><trkpt lat="44.734183971817615" lon="7.95041532582794"><ele>212.0</ele><time>2026-03-29T10:43:18Z</time></trkpt><trkpt lat="44.734032106411085" lon="7.950724793165267"><ele>212.0</ele><time>2026-03-29T10:43:19Z</time></trkpt><trkpt lat="44.733876507037344" lon="7.951047924668527"><ele>211.5</ele><time>2026-03-29T10:43:20Z</time></trkpt><trkpt lat="44.733729435669176" lon="7.951366930775637"><ele>211.0</ele><time>2026-03-29T10:43:21Z</time></trkpt><trkpt lat="44.73360584447864" lon="7.951668393338915"><ele>211.0</ele><time>2026-03-29T10:43:22Z</time></trkpt><trkpt lat="44.733499003690746" lon="7.951980365622244"><ele>211.0</ele><time>2026-03-29T10:43:23Z</time></trkpt><trkpt lat="44.733405797905384" lon="7.9523191017455295"><ele>210.5</ele><time>2026-03-29T10:43:24Z</time></trkpt><trkpt lat="44.73332658498899" lon="7.952689201211154"><ele>210.0</ele><time>2026-03-29T10:43:25Z</time></trkpt><trkpt lat="44.73325934618559" lon="7.953087892305102"><ele>209.5</ele><time>2026-03-29T10:43:26Z</time></trkpt><trkpt lat="44.73319690845292" lon="7.953512870560871"><ele>209.0</ele><time>2026-03-29T10:43:27Z</time></trkpt><trkpt lat="44.73313695656245" lon="7.953955605449862"><ele>208.5</ele><time>2026-03-29T10:43:28Z</time></trkpt><trkpt lat="44.73307929429725" lon="7.954403740654784"><ele>208.0</ele><time>2026-03-29T10:43:29Z</time></trkpt><trkpt lat="44.73302506053608" lon="7.954827071475476"><ele>209.0</ele><time>2026-03-29T10:43:30Z</time></trkpt><trkpt lat="44.73297148536973" lon="7.955238894154136"><ele>210.0</ele><time>2026-03-29T10:43:31Z</time></trkpt><trkpt lat="44.73291798557898" lon="7.95564209601323"><ele>209.0</ele><time>2026-03-29T10:43:32Z</time></trkpt><trkpt lat="44.73286470384017" lon="7.956037869195647"><ele>208.0</ele><time>2026-03-29T10:43:33Z</time></trkpt><trkpt lat="44.732811900034655" lon="7.956426537281573"><ele>208.0</ele><time>2026-03-29T10:43:34Z</time></trkpt><trkpt lat="44.732759351952026" lon="7.956807436933105"><ele>208.0</ele><time>2026-03-29T10:43:35Z</time></trkpt><trkpt lat="44.732708376960964" lon="7.95718016307707"><ele>216.0</ele><time>2026-03-29T10:43:36Z</time></trkpt><trkpt lat="44.732656654032546" lon="7.957553983412599"><ele>224.0</ele><time>2026-03-29T10:43:37Z</time></trkpt><trkpt lat="44.732606796834474" lon="7.957921296315538"><ele>224.0</ele><time>2026-03-29T10:43:38Z</time></trkpt><trkpt lat="44.7325589374845" lon="7.9582838004070275"><ele>224.0</ele><time>2026-03-29T10:43:39Z</time></trkpt><trkpt lat="44.73251006441608" lon="7.958644621909405"><ele>223.0</ele><time>2026-03-29T10:43:40Z</time></trkpt><trkpt lat="44.73246054646786" lon="7.959005838989995"><ele>222.0</ele><time>2026-03-29T10:43:41Z</time></trkpt><trkpt lat="44.732409605471354" lon="7.959367010885646"><ele>220.5</ele><time>2026-03-29T10:43:42Z</time></trkpt><trkpt lat="44.732360629422764" lon="7.959729646874733"><ele>219.0</ele><time>2026-03-29T10:43:43Z</time></trkpt><trkpt lat="44.73230908287622" lon="7.960106723467374"><ele>216.0</ele><time>2026-03-29T10:43:44Z</time></trkpt><trkpt lat="44.73225758293772" lon="7.960495548218131"><ele>213.0</ele><time>2026-03-29T10:43:45Z</time></trkpt><trkpt lat="44.73220753851916" lon="7.960882213951937"><ele>210.5</ele><time>2026-03-29T10:43:46Z</time></trkpt><trkpt lat="44.73216043143633" lon="7.961254379575007"><ele>208.0</ele><time>2026-03-29T10:43:47Z</time></trkpt><trkpt lat="44.73211303533882" lon="7.961613016599998"><ele>208.5</ele><time>2026-03-29T10:43:48Z</time></trkpt><trkpt lat="44.73206540153056" lon="7.961960497338315"><ele>209.0</ele><time>2026-03-29T10:43:49Z</time></trkpt><trkpt lat="44.732017389343724" lon="7.962312393134699"><ele>209.0</ele><time>2026-03-29T10:43:50Z</time></trkpt><trkpt lat="44.73197098702933" lon="7.962658208355056"><ele>209.0</ele><time>2026-03-29T10:43:51Z</time></trkpt><trkpt lat="44.73192433893301" lon="7.963003616961176"><ele>214.5</ele><time>2026-03-29T10:43:52Z</time></trkpt><trkpt lat="44.73187936200194" lon="7.9633461698128105"><ele>220.0</ele><time>2026-03-29T10:43:53Z</time></trkpt><trkpt lat="44.73183394984411" lon="7.9636870549933105"><ele>220.0</ele><time>2026-03-29T10:43:54Z</time></trkpt><trkpt lat="44.73179245720446" lon="7.9640290467989"><ele>220.0</ele><time>2026-03-29T10:43:55Z</time></trkpt><trkpt lat="44.73175381865024" lon="7.96437566359623"><ele>218.0</ele><time>2026-03-29T10:43:56Z</time></trkpt><trkpt lat="44.73171951575487" lon="7.964725196014105"><ele>216.0</ele><time>2026-03-29T10:43:57Z</time></trkpt><trkpt lat="44.731691051025706" lon="7.965077003466542"><ele>214.5</ele><time>2026-03-29T10:43:58Z</time></trkpt><trkpt lat="44.73166449181352" lon="7.965435433138162"><ele>213.0</ele><time>2026-03-29T10:43:59Z</time></trkpt><trkpt lat="44.73164180299837" lon="7.965799541551718"><ele>210.5</ele><time>2026-03-29T10:44:00Z</time></trkpt><trkpt lat="44.73162128546212" lon="7.966167578001252"><ele>208.0</ele><time>2026-03-29T10:44:01Z</time></trkpt><trkpt lat="44.73160683239484" lon="7.966532240135235"><ele>206.5</ele><time>2026-03-29T10:44:02Z</time></trkpt><trkpt lat="44.73159570280801" lon="7.966893029180823"><ele>205.0</ele><time>2026-03-29T10:44:03Z</time></trkpt><trkpt lat="44.73158811243765" lon="7.967250862108099"><ele>203.0</ele><time>2026-03-29T10:44:04Z</time></trkpt><trkpt lat="44.731585821813624" lon="7.967605852603821"><ele>201.0</ele><time>2026-03-29T10:44:04.999Z</time></trkpt><trkpt lat="44.73158943431191" lon="7.967965711317093"><ele>201.0</ele><time>2026-03-29T10:44:05.999Z</time></trkpt><trkpt lat="44.73159663170836" lon="7.968333825587583"><ele>201.0</ele><time>2026-03-29T10:44:06.999Z</time></trkpt><trkpt lat="44.73160492539968" lon="7.968715199800685"><ele>200.5</ele><time>2026-03-29T10:44:07.999Z</time></trkpt><trkpt lat="44.73161782315468" lon="7.9691034342734035"><ele>200.0</ele><time>2026-03-29T10:44:08.999Z</time></trkpt><trkpt lat="44.73163062801439" lon="7.9694804231879735"><ele>199.0</ele><time>2026-03-29T10:44:09.999Z</time></trkpt><trkpt lat="44.731646580378616" lon="7.9698430230009745"><ele>198.0</ele><time>2026-03-29T10:44:10.999Z</time></trkpt><trkpt lat="44.731663655238" lon="7.9701921549140184"><ele>198.0</ele><time>2026-03-29T10:44:11.999Z</time></trkpt><trkpt lat="44.731677774712246" lon="7.970530321043379"><ele>198.0</ele><time>2026-03-29T10:44:12.999Z</time></trkpt><trkpt lat="44.73169018099209" lon="7.970854215599537"><ele>198.0</ele><time>2026-03-29T10:44:13.999Z</time></trkpt><trkpt lat="44.731700305308124" lon="7.971165986658595"><ele>198.0</ele><time>2026-03-29T10:44:14.999Z</time></trkpt><trkpt lat="44.73169913525509" lon="7.971469430697281"><ele>198.0</ele><time>2026-03-29T10:44:15.999Z</time></trkpt><trkpt lat="44.731677697697" lon="7.971761709501558"><ele>198.0</ele><time>2026-03-29T10:44:16.999Z</time></trkpt><trkpt lat="44.73163330005835" lon="7.972037291752984"><ele>198.0</ele><time>2026-03-29T10:44:17.999Z</time></trkpt><trkpt lat="44.73157259270074" lon="7.972283353835588"><ele>198.0</ele><time>2026-03-29T10:44:18.999Z</time></trkpt><trkpt lat="44.731504677287994" lon="7.9725025997773376"><ele>198.0</ele><time>2026-03-29T10:44:19.999Z</time></trkpt><trkpt lat="44.7314366829836" lon="7.972694670076866"><ele>198.0</ele><time>2026-03-29T10:44:20.999Z</time></trkpt><trkpt lat="44.73137496845128" lon="7.972840859243756"><ele>198.0</ele><time>2026-03-29T10:44:21.999Z</time></trkpt><trkpt lat="44.73131618393734" lon="7.972942529075574"><ele>198.0</ele><time>2026-03-29T10:44:22.999Z</time></trkpt><trkpt lat="44.7312564332655" lon="7.972995584491736"><ele>198.0</ele><time>2026-03-29T10:44:23.999Z</time></trkpt><trkpt lat="44.731193262932" lon="7.973012323138563"><ele>198.0</ele><time>2026-03-29T10:44:24.999Z</time></trkpt><trkpt lat="44.7311292991416" lon="7.972991220001745"><ele>198.0</ele><time>2026-03-29T10:44:25.999Z</time></trkpt><trkpt lat="44.73106836120968" lon="7.972927478808704"><ele>198.0</ele><time>2026-03-29T10:44:26.999Z</time></trkpt><trkpt lat="44.7310171323434" lon="7.972823899191435"><ele>198.0</ele><time>2026-03-29T10:44:27.999Z</time></trkpt><trkpt lat="44.73095828509527" lon="7.9726717447456075"><ele>198.0</ele><time>2026-03-29T10:44:28.999Z</time></trkpt><trkpt lat="44.73087796956049" lon="7.972469930540884"><ele>197.66666666666669</ele><time>2026-03-29T10:44:29.999Z</time></trkpt><trkpt lat="44.73078266352427" lon="7.97225396501586"><ele>197.33333333333334</ele><time>2026-03-29T10:44:30.999Z</time></trkpt><trkpt lat="44.7306823646424" lon="7.972044603443818"><ele>197.0</ele><time>2026-03-29T10:44:31.999Z</time></trkpt><trkpt lat="44.73055392580561" lon="7.971805644689902"><ele>198.0</ele><time>2026-03-29T10:44:32.999Z</time></trkpt><trkpt lat="44.7304243150635" lon="7.971519298187238"><ele>199.0</ele><time>2026-03-29T10:44:33.999Z</time></trkpt><trkpt lat="44.73030506317353" lon="7.9712047433227395"><ele>200.0</ele><time>2026-03-29T10:44:34.999Z</time></trkpt><trkpt lat="44.73019006892852" lon="7.970933696354057"><ele>201.0</ele><time>2026-03-29T10:44:35.999Z</time></trkpt><trkpt lat="44.73008229602591" lon="7.970717149538654"><ele>202.0</ele><time>2026-03-29T10:44:36.999Z</time></trkpt><trkpt lat="44.729985993146414" lon="7.970546872589769"><ele>202.0</ele><time>2026-03-29T10:44:37.999Z</time></trkpt><trkpt lat="44.729882038579134" lon="7.970426241466401"><ele>202.0</ele><time>2026-03-29T10:44:38.999Z</time></trkpt><trkpt lat="44.729746671524225" lon="7.970355208504451"><ele>202.0</ele><time>2026-03-29T10:44:39.999Z</time></trkpt><trkpt lat="44.72957520390957" lon="7.970333506448483"><ele>203.33333333333331</ele><time>2026-03-29T10:44:40.999Z</time></trkpt><trkpt lat="44.72936848421917" lon="7.970324845144308"><ele>204.66666666666669</ele><time>2026-03-29T10:44:41.999Z</time></trkpt><trkpt lat="44.72913947700156" lon="7.970295478678301"><ele>206.0</ele><time>2026-03-29T10:44:42.999Z</time></trkpt><trkpt lat="44.72891737274618" lon="7.970263555960017"><ele>206.0</ele><time>2026-03-29T10:44:43.999Z</time></trkpt><trkpt lat="44.728724537008546" lon="7.970235399028544"><ele>206.0</ele><time>2026-03-29T10:44:44.999Z</time></trkpt><trkpt lat="44.728558399560534" lon="7.970209779339949"><ele>206.0</ele><time>2026-03-29T10:44:45.999Z</time></trkpt><trkpt lat="44.72841945247512" lon="7.97018586146361"><ele>206.00000000000003</ele><time>2026-03-29T10:44:46.999Z</time></trkpt><trkpt lat="44.72830788901517" lon="7.97016453779849"><ele>206.0</ele><time>2026-03-29T10:44:47.999Z</time></trkpt><trkpt lat="44.72822042616047" lon="7.970147873720626"><ele>206.0</ele><time>2026-03-29T10:44:48.999Z</time></trkpt><trkpt lat="44.72815744883529" lon="7.970133792087866"><ele>206.0</ele><time>2026-03-29T10:44:49.999Z</time></trkpt><trkpt lat="44.728090234187675" lon="7.9700905365023536"><ele>206.00000000000003</ele><time>2026-03-29T10:44:51.999Z</time></trkpt><trkpt lat="44.728011855743134" lon="7.97005804909975"><ele>206.0</ele><time>2026-03-29T10:44:54Z</time></trkpt><trkpt lat="44.727949425101755" lon="7.970088096903606"><ele>206.0</ele><time>2026-03-29T10:44:55Z</time></trkpt><trkpt lat="44.727858659789824" lon="7.970159458806133"><ele>206.0</ele><time>2026-03-29T10:44:56Z</time></trkpt><trkpt lat="44.727743462296104" lon="7.970240841497358"><ele>206.0</ele><time>2026-03-29T10:44:57Z</time></trkpt><trkpt lat="44.727597337419084" lon="7.970342313957776"><ele>206.0</ele><time>2026-03-29T10:44:58Z</time></trkpt><trkpt lat="44.72742099666605" lon="7.970464332465281"><ele>207.66666666666669</ele><time>2026-03-29T10:44:59Z</time></trkpt><trkpt lat="44.72723602981706" lon="7.970606763550808"><ele>209.33333333333331</ele><time>2026-03-29T10:45:00Z</time></trkpt><trkpt lat="44.72702824621131" lon="7.9707663054504385"><ele>211.0</ele><time>2026-03-29T10:45:01Z</time></trkpt><trkpt lat="44.72679806994309" lon="7.97094957427472"><ele>213.0</ele><time>2026-03-29T10:45:02Z</time></trkpt><trkpt lat="44.72658373238931" lon="7.971105970944776"><ele>215.0</ele><time>2026-03-29T10:45:03Z</time></trkpt><trkpt lat="44.72634327668782" lon="7.971269640418791"><ele>215.0</ele><time>2026-03-29T10:45:04Z</time></trkpt><trkpt lat="44.72609676804367" lon="7.9714291933142505"><ele>215.0</ele><time>2026-03-29T10:45:05Z</time></trkpt><trkpt lat="44.72586193901346" lon="7.9715954542554615"><ele>217.5</ele><time>2026-03-29T10:45:06Z</time></trkpt><trkpt lat="44.72564109365709" lon="7.971759449395303"><ele>220.0</ele><time>2026-03-29T10:45:07Z</time></trkpt><trkpt lat="44.72543442820478" lon="7.971915774481455"><ele>220.0</ele><time>2026-03-29T10:45:08Z</time></trkpt><trkpt lat="44.725232535173994" lon="7.972073712580401"><ele>220.0</ele><time>2026-03-29T10:45:09Z</time></trkpt><trkpt lat="44.72502752224551" lon="7.972230929818847"><ele>219.66666666666666</ele><time>2026-03-29T10:45:10Z</time></trkpt><trkpt lat="44.724816579880105" lon="7.9723278571163325"><ele>219.33333333333331</ele><time>2026-03-29T10:45:11Z</time></trkpt><trkpt lat="44.724612486861396" lon="7.972425164909921"><ele>219.0</ele><time>2026-03-29T10:45:12Z</time></trkpt><trkpt lat="44.72441824244428" lon="7.972523918406785"><ele>225.33333333333331</ele><time>2026-03-29T10:45:13Z</time></trkpt><trkpt lat="44.72423678090688" lon="7.972584485949534"><ele>231.66666666666666</ele><time>2026-03-29T10:45:14Z</time></trkpt><trkpt lat="44.72408278037884" lon="7.972641125859423"><ele>238.0</ele><time>2026-03-29T10:45:15Z</time></trkpt><trkpt lat="44.72394152559127" lon="7.972687473530127"><ele>238.0</ele><time>2026-03-29T10:45:16Z</time></trkpt><trkpt lat="44.72381470489261" lon="7.972733838634335"><ele>238.0</ele><time>2026-03-29T10:45:17Z</time></trkpt><trkpt lat="44.7237036239803" lon="7.972795477167289"><ele>238.0</ele><time>2026-03-29T10:45:18Z</time></trkpt><trkpt lat="44.72361892790853" lon="7.972889056141544"><ele>238.0</ele><time>2026-03-29T10:45:19Z</time></trkpt><trkpt lat="44.72355380804464" lon="7.973024709204216"><ele>238.5</ele><time>2026-03-29T10:45:20Z</time></trkpt><trkpt lat="44.72349659115463" lon="7.973188862981056"><ele>239.0</ele><time>2026-03-29T10:45:21Z</time></trkpt><trkpt lat="44.72342659916401" lon="7.973338699692665"><ele>239.5</ele><time>2026-03-29T10:45:22Z</time></trkpt><trkpt lat="44.72332349825086" lon="7.973473456281082"><ele>240.0</ele><time>2026-03-29T10:45:23Z</time></trkpt><trkpt lat="44.72320956470104" lon="7.97366525503892"><ele>240.0</ele><time>2026-03-29T10:45:24Z</time></trkpt><trkpt lat="44.72305931836928" lon="7.973870172498467"><ele>240.0</ele><time>2026-03-29T10:45:25Z</time></trkpt><trkpt lat="44.72288766865009" lon="7.974079872219587"><ele>240.0</ele><time>2026-03-29T10:45:26Z</time></trkpt><trkpt lat="44.72270664739448" lon="7.974237082181033"><ele>236.66666666666669</ele><time>2026-03-29T10:45:27Z</time></trkpt><trkpt lat="44.72254437850252" lon="7.974405636021241"><ele>233.33333333333334</ele><time>2026-03-29T10:45:28Z</time></trkpt><trkpt lat="44.72237416407974" lon="7.974528435077005"><ele>230.0</ele><time>2026-03-29T10:45:29Z</time></trkpt><trkpt lat="44.72221876884065" lon="7.974661435231963"><ele>230.0</ele><time>2026-03-29T10:45:30Z</time></trkpt><trkpt lat="44.7220869294995" lon="7.974798988600584"><ele>230.0</ele><time>2026-03-29T10:45:31Z</time></trkpt><trkpt lat="44.72198932492178" lon="7.974935519954729"><ele>230.0</ele><time>2026-03-29T10:45:32Z</time></trkpt><trkpt lat="44.7219227559799" lon="7.975055253823751"><ele>230.0</ele><time>2026-03-29T10:45:33Z</time></trkpt><trkpt lat="44.72186009121554" lon="7.975164008327707"><ele>228.6</ele><time>2026-03-29T10:45:34Z</time></trkpt><trkpt lat="44.72179258030294" lon="7.9752708717644705"><ele>227.2</ele><time>2026-03-29T10:45:35Z</time></trkpt><trkpt lat="44.721717716215196" lon="7.975379161629799"><ele>225.8</ele><time>2026-03-29T10:45:36Z</time></trkpt><trkpt lat="44.72163930267794" lon="7.975501551703934"><ele>224.4</ele><time>2026-03-29T10:45:37Z</time></trkpt><trkpt lat="44.72156622350438" lon="7.975638752963471"><ele>223.0</ele><time>2026-03-29T10:45:38Z</time></trkpt><trkpt lat="44.72150014727034" lon="7.975797958320252"><ele>223.75</ele><time>2026-03-29T10:45:39Z</time></trkpt><trkpt lat="44.72145009615048" lon="7.975969977626092"><ele>224.5</ele><time>2026-03-29T10:45:40Z</time></trkpt><trkpt lat="44.721427733464026" lon="7.976169617640297"><ele>225.25</ele><time>2026-03-29T10:45:41Z</time></trkpt><trkpt lat="44.721433426863165" lon="7.97640928469603"><ele>226.0</ele><time>2026-03-29T10:45:42Z</time></trkpt><trkpt lat="44.721453315271496" lon="7.976647351009621"><ele>224.66666666666666</ele><time>2026-03-29T10:45:43Z</time></trkpt><trkpt lat="44.721464574017716" lon="7.976893345722555"><ele>223.33333333333331</ele><time>2026-03-29T10:45:44Z</time></trkpt><trkpt lat="44.72146788976876" lon="7.977141122524343"><ele>222.0</ele><time>2026-03-29T10:45:45Z</time></trkpt><trkpt lat="44.72147512017775" lon="7.977402995674539"><ele>220.0</ele><time>2026-03-29T10:45:46Z</time></trkpt><trkpt lat="44.721484407616416" lon="7.977695014774954"><ele>218.0</ele><time>2026-03-29T10:45:47Z</time></trkpt><trkpt lat="44.72148840030884" lon="7.97801666665105"><ele>216.0</ele><time>2026-03-29T10:45:48Z</time></trkpt><trkpt lat="44.72149851458782" lon="7.978347846586207"><ele>215.0</ele><time>2026-03-29T10:45:49Z</time></trkpt><trkpt lat="44.72150735461751" lon="7.978647283512391"><ele>214.0</ele><time>2026-03-29T10:45:50Z</time></trkpt><trkpt lat="44.72150940141901" lon="7.978930004104375"><ele>213.0</ele><time>2026-03-29T10:45:51Z</time></trkpt><trkpt lat="44.72150716060554" lon="7.979202340253971"><ele>213.0</ele><time>2026-03-29T10:45:52Z</time></trkpt><trkpt lat="44.72150962263345" lon="7.979462112572863"><ele>213.0</ele><time>2026-03-29T10:45:53Z</time></trkpt><trkpt lat="44.721516635771536" lon="7.979714897849676"><ele>213.0</ele><time>2026-03-29T10:45:54Z</time></trkpt><trkpt lat="44.72152526672356" lon="7.979957908465577"><ele>213.33333333333331</ele><time>2026-03-29T10:45:55Z</time></trkpt><trkpt lat="44.72153062857001" lon="7.980192476197704"><ele>213.66666666666666</ele><time>2026-03-29T10:45:56Z</time></trkpt><trkpt lat="44.72153300099839" lon="7.9804240514026965"><ele>214.0</ele><time>2026-03-29T10:45:57Z</time></trkpt><trkpt lat="44.721525234961284" lon="7.9806505638774015"><ele>213.66666666666666</ele><time>2026-03-29T10:45:58Z</time></trkpt><trkpt lat="44.72150204600413" lon="7.980869216643201"><ele>213.33333333333331</ele><time>2026-03-29T10:45:59Z</time></trkpt><trkpt lat="44.721464214543204" lon="7.981090345394697"><ele>213.0</ele><time>2026-03-29T10:46:00Z</time></trkpt><trkpt lat="44.72141455322666" lon="7.981314495788324"><ele>213.0</ele><time>2026-03-29T10:46:01Z</time></trkpt><trkpt lat="44.72136655246" lon="7.981549589139737"><ele>213.0</ele><time>2026-03-29T10:46:02Z</time></trkpt><trkpt lat="44.72132034405412" lon="7.981792666075696"><ele>213.0</ele><time>2026-03-29T10:46:03Z</time></trkpt><trkpt lat="44.721269687348354" lon="7.982040477528731"><ele>213.33333333333331</ele><time>2026-03-29T10:46:04Z</time></trkpt><trkpt lat="44.72121571445841" lon="7.98228061944439"><ele>213.66666666666666</ele><time>2026-03-29T10:46:05Z</time></trkpt><trkpt lat="44.72115798525721" lon="7.9825071058012345"><ele>214.0</ele><time>2026-03-29T10:46:06Z</time></trkpt><trkpt lat="44.72106697338148" lon="7.982701705710452"><ele>211.66666666666666</ele><time>2026-03-29T10:46:06.999Z</time></trkpt><trkpt lat="44.72099088733178" lon="7.9829059910499955"><ele>209.33333333333331</ele><time>2026-03-29T10:46:07.999Z</time></trkpt><trkpt lat="44.72089934482645" lon="7.983092822791083"><ele>207.0</ele><time>2026-03-29T10:46:08.999Z</time></trkpt><trkpt lat="44.72081516952259" lon="7.98327324131975"><ele>208.0</ele><time>2026-03-29T10:46:09.999Z</time></trkpt><trkpt lat="44.72073518407046" lon="7.9834630471606385"><ele>209.0</ele><time>2026-03-29T10:46:10.999Z</time></trkpt><trkpt lat="44.72065471610761" lon="7.983649666316393"><ele>210.0</ele><time>2026-03-29T10:46:11.999Z</time></trkpt><trkpt lat="44.72056698833912" lon="7.983835638233151"><ele>210.0</ele><time>2026-03-29T10:46:12.999Z</time></trkpt><trkpt lat="44.72047891544451" lon="7.984044688450651"><ele>210.0</ele><time>2026-03-29T10:46:13.999Z</time></trkpt><trkpt lat="44.72040296104644" lon="7.984287571070223"><ele>210.0</ele><time>2026-03-29T10:46:14.999Z</time></trkpt><trkpt lat="44.72034499784798" lon="7.9845475567010835"><ele>210.66666666666669</ele><time>2026-03-29T10:46:15.999Z</time></trkpt><trkpt lat="44.72029125091572" lon="7.98480122561162"><ele>211.33333333333334</ele><time>2026-03-29T10:46:16.999Z</time></trkpt><trkpt lat="44.720240710876894" lon="7.985039986059017"><ele>212.0</ele><time>2026-03-29T10:46:17.999Z</time></trkpt><trkpt lat="44.72019053524121" lon="7.9852670773321694"><ele>211.33333333333334</ele><time>2026-03-29T10:46:18.999Z</time></trkpt><trkpt lat="44.72013468752358" lon="7.985484592343273"><ele>210.66666666666669</ele><time>2026-03-29T10:46:19.999Z</time></trkpt><trkpt lat="44.720063508304094" lon="7.985687427579963"><ele>210.0</ele><time>2026-03-29T10:46:20.999Z</time></trkpt><trkpt lat="44.71997131337655" lon="7.985876735324939"><ele>210.0</ele><time>2026-03-29T10:46:21.999Z</time></trkpt><trkpt lat="44.71985986293329" lon="7.98606169519637"><ele>210.0</ele><time>2026-03-29T10:46:22.999Z</time></trkpt><trkpt lat="44.71974706609968" lon="7.98624288862333"><ele>210.0</ele><time>2026-03-29T10:46:23.999Z</time></trkpt><trkpt lat="44.71964106619274" lon="7.986426894170336"><ele>210.0</ele><time>2026-03-29T10:46:24.999Z</time></trkpt><trkpt lat="44.719540890160644" lon="7.986609462029141"><ele>210.0</ele><time>2026-03-29T10:46:25.999Z</time></trkpt><trkpt lat="44.7194459787038" lon="7.986780382949213"><ele>210.0</ele><time>2026-03-29T10:46:26.999Z</time></trkpt><trkpt lat="44.71935214609824" lon="7.9869531547395125"><ele>210.0</ele><time>2026-03-29T10:46:27.999Z</time></trkpt><trkpt lat="44.719260769037035" lon="7.987114713057475"><ele>210.0</ele><time>2026-03-29T10:46:28.999Z</time></trkpt><trkpt lat="44.7191701581008" lon="7.98727918024867"><ele>210.0</ele><time>2026-03-29T10:46:29.999Z</time></trkpt><trkpt lat="44.719073957752556" lon="7.987446436540739"><ele>210.0</ele><time>2026-03-29T10:46:30.999Z</time></trkpt><trkpt lat="44.71897618720681" lon="7.9876110943520775"><ele>210.0</ele><time>2026-03-29T10:46:31.999Z</time></trkpt><trkpt lat="44.71887435642844" lon="7.987764082945369"><ele>210.0</ele><time>2026-03-29T10:46:32.999Z</time></trkpt><trkpt lat="44.71876565030668" lon="7.987921671332043"><ele>210.0</ele><time>2026-03-29T10:46:33.999Z</time></trkpt><trkpt lat="44.71865856495016" lon="7.9880721857098775"><ele>207.25</ele><time>2026-03-29T10:46:34.999Z</time></trkpt><trkpt lat="44.71856031641946" lon="7.988218602432831"><ele>204.5</ele><time>2026-03-29T10:46:35.999Z</time></trkpt><trkpt lat="44.718464935986944" lon="7.9883629718281375"><ele>201.75</ele><time>2026-03-29T10:46:36.999Z</time></trkpt><trkpt lat="44.71838104995434" lon="7.988517503812878"><ele>199.0</ele><time>2026-03-29T10:46:37.999Z</time></trkpt><trkpt lat="44.718319536162035" lon="7.988710355210093"><ele>199.0</ele><time>2026-03-29T10:46:38.999Z</time></trkpt><trkpt lat="44.71826966446086" lon="7.988921660294412"><ele>199.0</ele><time>2026-03-29T10:46:39.999Z</time></trkpt><trkpt lat="44.71822431268163" lon="7.989129099528656"><ele>199.0</ele><time>2026-03-29T10:46:40.999Z</time></trkpt><trkpt lat="44.7181640726219" lon="7.989313923830128"><ele>199.75</ele><time>2026-03-29T10:46:41.999Z</time></trkpt><trkpt lat="44.7180637057191" lon="7.989454640064869"><ele>200.5</ele><time>2026-03-29T10:46:42.999Z</time></trkpt><trkpt lat="44.71797522383635" lon="7.989610879180457"><ele>201.25</ele><time>2026-03-29T10:46:43.999Z</time></trkpt><trkpt lat="44.71787791395203" lon="7.9897381900076185"><ele>202.0</ele><time>2026-03-29T10:46:44.999Z</time></trkpt><trkpt lat="44.71779033199968" lon="7.989861336920811"><ele>201.25</ele><time>2026-03-29T10:46:45.999Z</time></trkpt><trkpt lat="44.71769214857763" lon="7.989966945669341"><ele>200.5</ele><time>2026-03-29T10:46:46.999Z</time></trkpt><trkpt lat="44.717584335956126" lon="7.990035984045444"><ele>199.75</ele><time>2026-03-29T10:46:47.999Z</time></trkpt><trkpt lat="44.71747205532427" lon="7.990088503925863"><ele>199.0</ele><time>2026-03-29T10:46:48.999Z</time></trkpt><trkpt lat="44.71737232065104" lon="7.990146854251608"><ele>199.0</ele><time>2026-03-29T10:46:49.999Z</time></trkpt><trkpt lat="44.717275905218926" lon="7.99020371326161"><ele>199.0</ele><time>2026-03-29T10:46:50.999Z</time></trkpt><trkpt lat="44.717179737867426" lon="7.990254935075451"><ele>199.0</ele><time>2026-03-29T10:46:51.999Z</time></trkpt><trkpt lat="44.71707687037114" lon="7.990318139941399"><ele>199.0</ele><time>2026-03-29T10:46:52.999Z</time></trkpt><trkpt lat="44.716980924611285" lon="7.990412262850566"><ele>199.0</ele><time>2026-03-29T10:46:53.999Z</time></trkpt><trkpt lat="44.716892444784406" lon="7.99052352182909"><ele>197.39999999999998</ele><time>2026-03-29T10:46:54.999Z</time></trkpt><trkpt lat="44.716811558617316" lon="7.99062810288922"><ele>195.8</ele><time>2026-03-29T10:46:55.999Z</time></trkpt><trkpt lat="44.716742965512914" lon="7.990716859904786"><ele>194.2</ele><time>2026-03-29T10:46:56.999Z</time></trkpt><trkpt lat="44.71668663583184" lon="7.9908090371836344"><ele>192.60000000000002</ele><time>2026-03-29T10:46:57.999Z</time></trkpt><trkpt lat="44.716651624058876" lon="7.990931272419776"><ele>191.0</ele><time>2026-03-29T10:46:58.999Z</time></trkpt><trkpt lat="44.71664059599269" lon="7.9910765542242705"><ele>191.0</ele><time>2026-03-29T10:47:00Z</time></trkpt><trkpt lat="44.71664881054004" lon="7.991236845883248"><ele>191.0</ele><time>2026-03-29T10:47:01Z</time></trkpt><trkpt lat="44.71666821861583" lon="7.991401693918762"><ele>191.0</ele><time>2026-03-29T10:47:02Z</time></trkpt><trkpt lat="44.71667229952445" lon="7.991578173381897"><ele>191.0</ele><time>2026-03-29T10:47:03Z</time></trkpt><trkpt lat="44.71668134973944" lon="7.991776960812185"><ele>191.0</ele><time>2026-03-29T10:47:04Z</time></trkpt><trkpt lat="44.71668967237824" lon="7.9919835458041835"><ele>191.0</ele><time>2026-03-29T10:47:05Z</time></trkpt><trkpt lat="44.71670262224102" lon="7.992199338652816"><ele>191.0</ele><time>2026-03-29T10:47:06Z</time></trkpt><trkpt lat="44.71668585574674" lon="7.992417815929902"><ele>191.66666666666666</ele><time>2026-03-29T10:47:07Z</time></trkpt><trkpt lat="44.716623910142935" lon="7.992620328492613"><ele>192.33333333333331</ele><time>2026-03-29T10:47:08Z</time></trkpt><trkpt lat="44.71655424019088" lon="7.992826251757395"><ele>193.0</ele><time>2026-03-29T10:47:09Z</time></trkpt><trkpt lat="44.71647924423822" lon="7.993040489188586"><ele>193.0</ele><time>2026-03-29T10:47:10Z</time></trkpt><trkpt lat="44.716386295454534" lon="7.99324844383499"><ele>193.0</ele><time>2026-03-29T10:47:11Z</time></trkpt><trkpt lat="44.71629840135318" lon="7.993458661343348"><ele>193.0</ele><time>2026-03-29T10:47:12Z</time></trkpt><trkpt lat="44.716208919726945" lon="7.993683065860205"><ele>193.66666666666666</ele><time>2026-03-29T10:47:13Z</time></trkpt><trkpt lat="44.71612693327387" lon="7.993907065068136"><ele>194.33333333333331</ele><time>2026-03-29T10:47:14Z</time></trkpt><trkpt lat="44.71606394257569" lon="7.9941184883822425"><ele>195.0</ele><time>2026-03-29T10:47:15Z</time></trkpt><trkpt lat="44.716018738087" lon="7.994320177318516"><ele>193.4</ele><time>2026-03-29T10:47:16Z</time></trkpt><trkpt lat="44.71599217569187" lon="7.994500696657647"><ele>191.8</ele><time>2026-03-29T10:47:17Z</time></trkpt><trkpt lat="44.71597501398013" lon="7.994644614423461"><ele>190.2</ele><time>2026-03-29T10:47:18Z</time></trkpt><trkpt lat="44.71593778213951" lon="7.994753213141216"><ele>188.6</ele><time>2026-03-29T10:47:19Z</time></trkpt><trkpt lat="44.71586497139526" lon="7.994830944561733"><ele>187.0</ele><time>2026-03-29T10:47:20Z</time></trkpt><trkpt lat="44.7157746593855" lon="7.994845059537617"><ele>187.0</ele><time>2026-03-29T10:47:21Z</time></trkpt><trkpt lat="44.715696805763194" lon="7.994758193867847"><ele>187.0</ele><time>2026-03-29T10:47:22Z</time></trkpt><trkpt lat="44.715591815225274" lon="7.994712573099537"><ele>187.0</ele><time>2026-03-29T10:47:23Z</time></trkpt><trkpt lat="44.715456784179075" lon="7.99466357221253"><ele>187.0</ele><time>2026-03-29T10:47:24Z</time></trkpt><trkpt lat="44.71530018505371" lon="7.994595249982873"><ele>185.0</ele><time>2026-03-29T10:47:25Z</time></trkpt><trkpt lat="44.71514743083984" lon="7.994539895586646"><ele>183.0</ele><time>2026-03-29T10:47:26Z</time></trkpt><trkpt lat="44.715003738645706" lon="7.994497238449897"><ele>181.0</ele><time>2026-03-29T10:47:27Z</time></trkpt><trkpt lat="44.71485812790928" lon="7.994495760755249"><ele>181.0</ele><time>2026-03-29T10:47:28Z</time></trkpt><trkpt lat="44.71470655822659" lon="7.9945354626469145"><ele>181.0</ele><time>2026-03-29T10:47:29Z</time></trkpt><trkpt lat="44.714559754753935" lon="7.994633429656089"><ele>181.0</ele><time>2026-03-29T10:47:30Z</time></trkpt><trkpt lat="44.714431523746676" lon="7.9947875814140605"><ele>180.33333333333334</ele><time>2026-03-29T10:47:31Z</time></trkpt><trkpt lat="44.714325875793676" lon="7.994989905850432"><ele>179.66666666666666</ele><time>2026-03-29T10:47:32Z</time></trkpt><trkpt lat="44.71422962363817" lon="7.995224425174906"><ele>179.0</ele><time>2026-03-29T10:47:33Z</time></trkpt><trkpt lat="44.71412144118825" lon="7.995443606847646"><ele>179.0</ele><time>2026-03-29T10:47:34Z</time></trkpt><trkpt lat="44.71398449469892" lon="7.9956355305113"><ele>179.0</ele><time>2026-03-29T10:47:35Z</time></trkpt><trkpt lat="44.71381006472912" lon="7.995768159360175"><ele>179.0</ele><time>2026-03-29T10:47:36Z</time></trkpt><trkpt lat="44.71363828002377" lon="7.995914005141556"><ele>178.66666666666666</ele><time>2026-03-29T10:47:37Z</time></trkpt><trkpt lat="44.71344715139566" lon="7.996058858256642"><ele>178.33333333333334</ele><time>2026-03-29T10:47:38Z</time></trkpt><trkpt lat="44.71326542309373" lon="7.996198241209446"><ele>178.0</ele><time>2026-03-29T10:47:39Z</time></trkpt><trkpt lat="44.71308413475568" lon="7.996343177717474"><ele>178.0</ele><time>2026-03-29T10:47:40Z</time></trkpt><trkpt lat="44.712907096836226" lon="7.996485321386243"><ele>178.0</ele><time>2026-03-29T10:47:41Z</time></trkpt><trkpt lat="44.71274459719087" lon="7.996614838574164"><ele>178.0</ele><time>2026-03-29T10:47:42Z</time></trkpt><trkpt lat="44.712590464182824" lon="7.996753724772428"><ele>178.66666666666669</ele><time>2026-03-29T10:47:43Z</time></trkpt><trkpt lat="44.71244087909866" lon="7.996905772992915"><ele>179.33333333333334</ele><time>2026-03-29T10:47:44Z</time></trkpt><trkpt lat="44.71234098447339" lon="7.997077223346645"><ele>180.0</ele><time>2026-03-29T10:47:45Z</time></trkpt><trkpt lat="44.712235473068866" lon="7.997288639264854"><ele>183.0</ele><time>2026-03-29T10:47:46Z</time></trkpt><trkpt lat="44.71212255899319" lon="7.997503229083871"><ele>186.0</ele><time>2026-03-29T10:47:47Z</time></trkpt><trkpt lat="44.712018546720664" lon="7.997759598222526"><ele>189.0</ele><time>2026-03-29T10:47:48Z</time></trkpt><trkpt lat="44.711941188266444" lon="7.9980426461686"><ele>186.66666666666666</ele><time>2026-03-29T10:47:49Z</time></trkpt><trkpt lat="44.71186848879273" lon="7.9983233014243975"><ele>184.33333333333331</ele><time>2026-03-29T10:47:50Z</time></trkpt><trkpt lat="44.711793610055125" lon="7.998593771310274"><ele>182.0</ele><time>2026-03-29T10:47:51Z</time></trkpt><trkpt lat="44.71171365900922" lon="7.998855775329168"><ele>182.0</ele><time>2026-03-29T10:47:52Z</time></trkpt><trkpt lat="44.71161586742442" lon="7.999088580011162"><ele>182.0</ele><time>2026-03-29T10:47:53Z</time></trkpt><trkpt lat="44.71151601483898" lon="7.999301571131868"><ele>182.0</ele><time>2026-03-29T10:47:54Z</time></trkpt><trkpt lat="44.71140109691396" lon="7.999545041904203"><ele>180.0</ele><time>2026-03-29T10:47:55Z</time></trkpt><trkpt lat="44.71128485775851" lon="7.999742416428807"><ele>178.0</ele><time>2026-03-29T10:47:56Z</time></trkpt><trkpt lat="44.71114846386554" lon="7.999870084786254"><ele>176.0</ele><time>2026-03-29T10:47:57Z</time></trkpt><trkpt lat="44.71099398973583" lon="7.999970893565832"><ele>176.0</ele><time>2026-03-29T10:47:58Z</time></trkpt><trkpt lat="44.71082136374605" lon="8.000049767426946"><ele>176.0</ele><time>2026-03-29T10:47:59Z</time></trkpt><trkpt lat="44.710657669954486" lon="8.000142598739567"><ele>176.0</ele><time>2026-03-29T10:48:00Z</time></trkpt><trkpt lat="44.710502461249924" lon="8.000217316654844"><ele>176.0</ele><time>2026-03-29T10:48:01Z</time></trkpt><trkpt lat="44.71034519524944" lon="8.000334347576665"><ele>176.0</ele><time>2026-03-29T10:48:02Z</time></trkpt><trkpt lat="44.7101777189891" lon="8.000489187898097"><ele>176.0</ele><time>2026-03-29T10:48:03Z</time></trkpt><trkpt lat="44.710032380891455" lon="8.000644999195435"><ele>175.66666666666666</ele><time>2026-03-29T10:48:04Z</time></trkpt><trkpt lat="44.7098912499675" lon="8.00077035400471"><ele>175.33333333333334</ele><time>2026-03-29T10:48:05Z</time></trkpt><trkpt lat="44.70976029978729" lon="8.0008803481039"><ele>175.0</ele><time>2026-03-29T10:48:06Z</time></trkpt><trkpt lat="44.7096530565095" lon="8.000987230018803"><ele>175.0</ele><time>2026-03-29T10:48:07Z</time></trkpt><trkpt lat="44.70957040885239" lon="8.001120895288356"><ele>175.0</ele><time>2026-03-29T10:48:08Z</time></trkpt><trkpt lat="44.70951118774375" lon="8.0012781577029"><ele>175.0</ele><time>2026-03-29T10:48:09Z</time></trkpt><trkpt lat="44.70945582997765" lon="8.00144269910925"><ele>175.0</ele><time>2026-03-29T10:48:10Z</time></trkpt><trkpt lat="44.70937223532439" lon="8.001566536341528"><ele>174.33333333333334</ele><time>2026-03-29T10:48:10.999Z</time></trkpt><trkpt lat="44.709269310851305" lon="8.001634091809667"><ele>173.66666666666669</ele><time>2026-03-29T10:48:11.999Z</time></trkpt><trkpt lat="44.7091847549284" lon="8.001714360769565"><ele>173.0</ele><time>2026-03-29T10:48:12.999Z</time></trkpt><trkpt lat="44.70912792077376" lon="8.001783969351271"><ele>172.33333333333334</ele><time>2026-03-29T10:48:13.999Z</time></trkpt><trkpt lat="44.709063179198886" lon="8.001835699998518"><ele>171.66666666666666</ele><time>2026-03-29T10:48:15.999Z</time></trkpt><trkpt lat="44.70899188330256" lon="8.00189290263607"><ele>171.0</ele><time>2026-03-29T10:51:55Z</time></trkpt><trkpt lat="44.708889427427025" lon="8.001965439251805"><ele>171.0</ele><time>2026-03-29T10:51:57Z</time></trkpt><trkpt lat="44.70882679482631" lon="8.002012515214059"><ele>171.0</ele><time>2026-03-29T10:51:59Z</time></trkpt><trkpt lat="44.708723921833354" lon="8.002079406679288"><ele>171.0</ele><time>2026-03-29T10:52:19Z</time></trkpt><trkpt lat="44.708716435211" lon="8.002257611983428"><ele>171.0</ele><time>2026-03-29T10:52:20.999Z</time></trkpt><trkpt lat="44.70874162783721" lon="8.002357617407085"><ele>171.0</ele><time>2026-03-29T10:52:21.999Z</time></trkpt><trkpt lat="44.7087649079859" lon="8.002472822415726"><ele>171.25</ele><time>2026-03-29T10:52:22.999Z</time></trkpt><trkpt lat="44.708788301738856" lon="8.002617829215612"><ele>171.5</ele><time>2026-03-29T10:52:23.999Z</time></trkpt><trkpt lat="44.70881135844438" lon="8.002782700098065"><ele>171.75</ele><time>2026-03-29T10:52:24.999Z</time></trkpt><trkpt lat="44.70883402835697" lon="8.002969238649731"><ele>172.0</ele><time>2026-03-29T10:52:25.999Z</time></trkpt><trkpt lat="44.708858138063384" lon="8.003173411543845"><ele>171.33333333333334</ele><time>2026-03-29T10:52:26.999Z</time></trkpt><trkpt lat="44.70888488601203" lon="8.00342786020135"><ele>170.66666666666666</ele><time>2026-03-29T10:52:27.999Z</time></trkpt><trkpt lat="44.70890525949394" lon="8.0037267718543"><ele>170.0</ele><time>2026-03-29T10:52:28.999Z</time></trkpt><trkpt lat="44.70892241934874" lon="8.004080969892179"><ele>169.5</ele><time>2026-03-29T10:52:29.999Z</time></trkpt><trkpt lat="44.708942569750754" lon="8.004423724763457"><ele>169.0</ele><time>2026-03-29T10:52:30.999Z</time></trkpt><trkpt lat="44.70897138613502" lon="8.004775212515014"><ele>169.5</ele><time>2026-03-29T10:52:31.999Z</time></trkpt><trkpt lat="44.70900915034242" lon="8.005103482643047"><ele>170.0</ele><time>2026-03-29T10:52:32.999Z</time></trkpt><trkpt lat="44.70906008410497" lon="8.00541010683091"><ele>170.0</ele><time>2026-03-29T10:52:33.999Z</time></trkpt><trkpt lat="44.70911939474555" lon="8.00569565930425"><ele>170.0</ele><time>2026-03-29T10:52:34.999Z</time></trkpt><trkpt lat="44.709181909103684" lon="8.005962781561236"><ele>170.0</ele><time>2026-03-29T10:52:35.999Z</time></trkpt><trkpt lat="44.70924914824854" lon="8.006212483314478"><ele>169.66666666666666</ele><time>2026-03-29T10:52:36.999Z</time></trkpt><trkpt lat="44.70931753328697" lon="8.00645116513611"><ele>169.33333333333334</ele><time>2026-03-29T10:52:37.999Z</time></trkpt><trkpt lat="44.70938551435776" lon="8.006672855128837"><ele>169.0</ele><time>2026-03-29T10:52:38.999Z</time></trkpt><trkpt lat="44.70945169772712" lon="8.006939989629412"><ele>169.0</ele><time>2026-03-29T10:52:39.999Z</time></trkpt><trkpt lat="44.709506123492005" lon="8.007148807190442"><ele>169.0</ele><time>2026-03-29T10:52:40.999Z</time></trkpt><trkpt lat="44.70953205986339" lon="8.007340963032405"><ele>169.0</ele><time>2026-03-29T10:52:41.999Z</time></trkpt><trkpt lat="44.709532294059024" lon="8.007516497005636"><ele>169.0</ele><time>2026-03-29T10:52:42.999Z</time></trkpt><trkpt lat="44.70951773774248" lon="8.007686607731651"><ele>168.75</ele><time>2026-03-29T10:52:43.999Z</time></trkpt><trkpt lat="44.70950091810357" lon="8.00785970316182"><ele>168.5</ele><time>2026-03-29T10:52:44.999Z</time></trkpt><trkpt lat="44.70947903510641" lon="8.008050037027457"><ele>168.25</ele><time>2026-03-29T10:52:45.999Z</time></trkpt><trkpt lat="44.70944522658645" lon="8.008263528817553"><ele>168.0</ele><time>2026-03-29T10:52:46.999Z</time></trkpt><trkpt lat="44.70939550078678" lon="8.008508338053137"><ele>167.33333333333334</ele><time>2026-03-29T10:52:47.999Z</time></trkpt><trkpt lat="44.709343570262284" lon="8.008778431433582"><ele>166.66666666666669</ele><time>2026-03-29T10:52:48.999Z</time></trkpt><trkpt lat="44.70928998718799" lon="8.009080594992236"><ele>166.0</ele><time>2026-03-29T10:52:49.999Z</time></trkpt><trkpt lat="44.709225369386495" lon="8.00939923657832"><ele>166.0</ele><time>2026-03-29T10:52:50.999Z</time></trkpt><trkpt lat="44.709152371367296" lon="8.009744012196775"><ele>166.0</ele><time>2026-03-29T10:52:51.999Z</time></trkpt><trkpt lat="44.70906308143951" lon="8.010089869269084"><ele>165.33333333333334</ele><time>2026-03-29T10:52:52.999Z</time></trkpt><trkpt lat="44.70904535468059" lon="8.010340401936674"><ele>164.66666666666666</ele><time>2026-03-29T10:52:53.999Z</time></trkpt><trkpt lat="44.70901903413056" lon="8.01058116187222"><ele>164.0</ele><time>2026-03-29T10:52:54.999Z</time></trkpt><trkpt lat="44.709008512850005" lon="8.010816897539742"><ele>164.0</ele><time>2026-03-29T10:52:55.999Z</time></trkpt><trkpt lat="44.70902867090789" lon="8.011042859044823"><ele>164.0</ele><time>2026-03-29T10:52:56.999Z</time></trkpt><trkpt lat="44.70907593216673" lon="8.011260151700473"><ele>164.0</ele><time>2026-03-29T10:52:57.999Z</time></trkpt><trkpt lat="44.709155315068934" lon="8.011485324439189"><ele>164.66666666666666</ele><time>2026-03-29T10:52:58.999Z</time></trkpt><trkpt lat="44.7092648438983" lon="8.011702711281789"><ele>165.33333333333334</ele><time>2026-03-29T10:52:59.999Z</time></trkpt><trkpt lat="44.70938876005043" lon="8.011879491400906"><ele>166.0</ele><time>2026-03-29T10:53:00.999Z</time></trkpt><trkpt lat="44.709546761623685" lon="8.012042821245103"><ele>166.5</ele><time>2026-03-29T10:53:01.999Z</time></trkpt><trkpt lat="44.70976274087604" lon="8.012171579801823"><ele>167.0</ele><time>2026-03-29T10:53:02.999Z</time></trkpt><trkpt lat="44.70998071911247" lon="8.01229121929608"><ele>167.0</ele><time>2026-03-29T10:53:03.999Z</time></trkpt><trkpt lat="44.710228320026886" lon="8.012375564927604"><ele>167.0</ele><time>2026-03-29T10:53:04.999Z</time></trkpt><trkpt lat="44.71049166299902" lon="8.012460073981511"><ele>167.0</ele><time>2026-03-29T10:53:05.999Z</time></trkpt><trkpt lat="44.71076974246115" lon="8.012553346198088"><ele>167.0</ele><time>2026-03-29T10:53:06.999Z</time></trkpt><trkpt lat="44.71102314535441" lon="8.012638374985565"><ele>167.5</ele><time>2026-03-29T10:53:07.999Z</time></trkpt><trkpt lat="44.71124951802873" lon="8.012712236958876"><ele>168.0</ele><time>2026-03-29T10:53:08.999Z</time></trkpt><trkpt lat="44.71146056375936" lon="8.01278460921235"><ele>168.0</ele><time>2026-03-29T10:53:09.999Z</time></trkpt><trkpt lat="44.71167756858574" lon="8.012861135352821"><ele>168.0</ele><time>2026-03-29T10:53:10.999Z</time></trkpt><trkpt lat="44.71189768860785" lon="8.012939619247906"><ele>168.33333333333334</ele><time>2026-03-29T10:53:11.999Z</time></trkpt><trkpt lat="44.71210345471391" lon="8.013016612742712"><ele>168.66666666666669</ele><time>2026-03-29T10:53:12.999Z</time></trkpt><trkpt lat="44.712292590897356" lon="8.01308316434015"><ele>169.0</ele><time>2026-03-29T10:53:13.999Z</time></trkpt><trkpt lat="44.712472399058385" lon="8.013148071787501"><ele>169.0</ele><time>2026-03-29T10:53:14.999Z</time></trkpt><trkpt lat="44.712648632254265" lon="8.013211188492853"><ele>169.0</ele><time>2026-03-29T10:53:15.999Z</time></trkpt><trkpt lat="44.712830099569416" lon="8.01327383564066"><ele>169.0</ele><time>2026-03-29T10:53:16.999Z</time></trkpt><trkpt lat="44.7130228641122" lon="8.013339507937369"><ele>168.66666666666669</ele><time>2026-03-29T10:53:18Z</time></trkpt><trkpt lat="44.71321845012653" lon="8.013406709280808"><ele>168.33333333333334</ele><time>2026-03-29T10:53:19Z</time></trkpt><trkpt lat="44.71341033204191" lon="8.013475401025705"><ele>168.0</ele><time>2026-03-29T10:53:20Z</time></trkpt><trkpt lat="44.71358625600995" lon="8.013542208718235"><ele>168.66666666666666</ele><time>2026-03-29T10:53:21Z</time></trkpt><trkpt lat="44.71375105111603" lon="8.013602632228194"><ele>169.33333333333331</ele><time>2026-03-29T10:53:22Z</time></trkpt><trkpt lat="44.71389654436217" lon="8.013647850507507"><ele>170.0</ele><time>2026-03-29T10:53:23Z</time></trkpt><trkpt lat="44.71403452436057" lon="8.013687035561269"><ele>170.0</ele><time>2026-03-29T10:53:24Z</time></trkpt><trkpt lat="44.714166534234074" lon="8.013716909605634"><ele>170.0</ele><time>2026-03-29T10:53:25Z</time></trkpt><trkpt lat="44.71429556082344" lon="8.013735694212636"><ele>170.0</ele><time>2026-03-29T10:53:26Z</time></trkpt><trkpt lat="44.714419323164904" lon="8.013745566616402"><ele>170.0</ele><time>2026-03-29T10:53:27Z</time></trkpt><trkpt lat="44.714530816432294" lon="8.013745661667459"><ele>170.0</ele><time>2026-03-29T10:53:28Z</time></trkpt><trkpt lat="44.71462490753557" lon="8.013733918210963"><ele>170.0</ele><time>2026-03-29T10:53:29Z</time></trkpt><trkpt lat="44.71469515267641" lon="8.013726882843729"><ele>170.0</ele><time>2026-03-29T10:53:30Z</time></trkpt><trkpt lat="44.71479169626137" lon="8.013767141340864"><ele>170.0</ele><time>2026-03-29T10:53:33Z</time></trkpt><trkpt lat="44.71485788631354" lon="8.013820773755471"><ele>170.0</ele><time>2026-03-29T10:53:35Z</time></trkpt><trkpt lat="44.71490572021406" lon="8.013910881875395"><ele>170.0</ele><time>2026-03-29T10:53:38Z</time></trkpt><trkpt lat="44.71493818542461" lon="8.014009409433609"><ele>170.0</ele><time>2026-03-29T10:53:39Z</time></trkpt><trkpt lat="44.714914300344624" lon="8.014134326560137"><ele>170.0</ele><time>2026-03-29T10:53:40Z</time></trkpt><trkpt lat="44.71488332561242" lon="8.014247130365836"><ele>170.0</ele><time>2026-03-29T10:53:41Z</time></trkpt><trkpt lat="44.71481821131117" lon="8.014355753460244"><ele>170.0</ele><time>2026-03-29T10:53:42Z</time></trkpt><trkpt lat="44.714730158600304" lon="8.014471461326483"><ele>170.0</ele><time>2026-03-29T10:53:43Z</time></trkpt><trkpt lat="44.714652864138046" lon="8.014573319553397"><ele>170.0</ele><time>2026-03-29T10:53:44Z</time></trkpt><trkpt lat="44.71458578854542" lon="8.014674127667998"><ele>170.0</ele><time>2026-03-29T10:53:45Z</time></trkpt><trkpt lat="44.71451547166677" lon="8.014778280227691"><ele>170.0</ele><time>2026-03-29T10:53:46Z</time></trkpt><trkpt lat="44.71444623112356" lon="8.014875188225595"><ele>170.0</ele><time>2026-03-29T10:53:47Z</time></trkpt><trkpt lat="44.71438140699628" lon="8.01496458782045"><ele>170.0</ele><time>2026-03-29T10:53:48Z</time></trkpt><trkpt lat="44.71432199066168" lon="8.015051362251844"><ele>169.83333333333331</ele><time>2026-03-29T10:53:49Z</time></trkpt><trkpt lat="44.71426603127207" lon="8.015136493188685"><ele>169.66666666666666</ele><time>2026-03-29T10:53:50Z</time></trkpt><trkpt lat="44.71421282851887" lon="8.01522181308457"><ele>169.5</ele><time>2026-03-29T10:53:51Z</time></trkpt><trkpt lat="44.71415837893418" lon="8.015304167779485"><ele>169.33333333333334</ele><time>2026-03-29T10:53:52Z</time></trkpt><trkpt lat="44.71411607499701" lon="8.0153731414172"><ele>169.16666666666669</ele><time>2026-03-29T10:53:53Z</time></trkpt><trkpt lat="44.71405223834311" lon="8.015456828366881"><ele>169.0</ele><time>2026-03-29T10:53:56Z</time></trkpt><trkpt lat="44.71398376186458" lon="8.015534801700877"><ele>169.0</ele><time>2026-03-29T10:53:58Z</time></trkpt><trkpt lat="44.713892189598205" lon="8.015664627128126"><ele>169.0</ele><time>2026-03-29T10:54:00Z</time></trkpt><trkpt lat="44.71383860416138" lon="8.015743639549813"><ele>169.0</ele><time>2026-03-29T10:54:01Z</time></trkpt><trkpt lat="44.713780294101866" lon="8.015836120139912"><ele>169.0</ele><time>2026-03-29T10:54:02Z</time></trkpt><trkpt lat="44.71371876249642" lon="8.015930572403544"><ele>169.0</ele><time>2026-03-29T10:54:03Z</time></trkpt><trkpt lat="44.71366152622961" lon="8.016015214281985"><ele>169.0</ele><time>2026-03-29T10:54:04Z</time></trkpt><trkpt lat="44.7136156659927" lon="8.016077638152867"><ele>169.0</ele><time>2026-03-29T10:54:05Z</time></trkpt><trkpt lat="44.71354805956789" lon="8.016165999274088"><ele>169.0</ele><time>2026-03-29T10:54:07Z</time></trkpt><trkpt lat="44.713484485359764" lon="8.016245453384933"><ele>169.0</ele><time>2026-03-29T10:54:09Z</time></trkpt><trkpt lat="44.713430109812926" lon="8.016329840351673"><ele>169.0</ele><time>2026-03-29T10:54:11Z</time></trkpt><trkpt lat="44.713389037413386" lon="8.01639963605228"><ele>169.0</ele><time>2026-03-29T10:54:12Z</time></trkpt><trkpt lat="44.71333840714269" lon="8.016474512254899"><ele>169.0</ele><time>2026-03-29T10:54:13Z</time></trkpt><trkpt lat="44.71327369653377" lon="8.016563701316214"><ele>169.0</ele><time>2026-03-29T10:54:14Z</time></trkpt><trkpt lat="44.71320687117074" lon="8.016628755309743"><ele>169.0</ele><time>2026-03-29T10:54:15Z</time></trkpt><trkpt lat="44.713141316245206" lon="8.016658666827155"><ele>169.0</ele><time>2026-03-29T10:54:16Z</time></trkpt><trkpt lat="44.7130302298334" lon="8.016697012399693"><ele>169.0</ele><time>2026-03-29T10:54:18Z</time></trkpt><trkpt lat="44.713023153521625" lon="8.016806687043548"><ele>169.0</ele><time>2026-03-29T10:54:19Z</time></trkpt><trkpt lat="44.712970747112344" lon="8.016930362062075"><ele>169.0</ele><time>2026-03-29T10:54:19.999Z</time></trkpt><trkpt lat="44.712930399433915" lon="8.017081615676219"><ele>169.0</ele><time>2026-03-29T10:54:20.999Z</time></trkpt><trkpt lat="44.71286661425803" lon="8.017237774024828"><ele>169.0</ele><time>2026-03-29T10:54:21.999Z</time></trkpt><trkpt lat="44.71277836192276" lon="8.017427664702746"><ele>169.0</ele><time>2026-03-29T10:54:22.999Z</time></trkpt><trkpt lat="44.71269467840743" lon="8.017624441526891"><ele>169.0</ele><time>2026-03-29T10:54:23.999Z</time></trkpt><trkpt lat="44.71260675806715" lon="8.017842135889069"><ele>169.0</ele><time>2026-03-29T10:54:24.999Z</time></trkpt><trkpt lat="44.71251365319284" lon="8.018064194195693"><ele>169.0</ele><time>2026-03-29T10:54:25.999Z</time></trkpt><trkpt lat="44.71242141901994" lon="8.0182798631147"><ele>168.66666666666669</ele><time>2026-03-29T10:54:26.999Z</time></trkpt><trkpt lat="44.712327668577394" lon="8.018499029478779"><ele>168.33333333333334</ele><time>2026-03-29T10:54:27.999Z</time></trkpt><trkpt lat="44.71222696612469" lon="8.018730226884182"><ele>168.0</ele><time>2026-03-29T10:54:28.999Z</time></trkpt><trkpt lat="44.712123471586935" lon="8.018971708884797"><ele>167.66666666666666</ele><time>2026-03-29T10:54:29.999Z</time></trkpt><trkpt lat="44.7120155118725" lon="8.019226817599096"><ele>167.33333333333331</ele><time>2026-03-29T10:54:30.999Z</time></trkpt><trkpt lat="44.71190036288345" lon="8.019499589182793"><ele>167.0</ele><time>2026-03-29T10:54:31.999Z</time></trkpt><trkpt lat="44.71178421097178" lon="8.019775278241696"><ele>167.0</ele><time>2026-03-29T10:54:32.999Z</time></trkpt><trkpt lat="44.71167114412643" lon="8.020045812480019"><ele>167.0</ele><time>2026-03-29T10:54:33.999Z</time></trkpt><trkpt lat="44.7115614500923" lon="8.020310532669551"><ele>167.0</ele><time>2026-03-29T10:54:34.999Z</time></trkpt><trkpt lat="44.71145376156381" lon="8.020561418972667"><ele>167.0</ele><time>2026-03-29T10:54:35.999Z</time></trkpt><trkpt lat="44.711350632539755" lon="8.020801752308817"><ele>167.0</ele><time>2026-03-29T10:54:36.999Z</time></trkpt><trkpt lat="44.71125553128566" lon="8.021028865577629"><ele>167.0</ele><time>2026-03-29T10:54:37.999Z</time></trkpt><trkpt lat="44.711162907653794" lon="8.021246073726523"><ele>167.0</ele><time>2026-03-29T10:54:38.999Z</time></trkpt><trkpt lat="44.7110666134428" lon="8.021467400504815"><ele>167.0</ele><time>2026-03-29T10:54:39.999Z</time></trkpt><trkpt lat="44.71097089566734" lon="8.021694232101328"><ele>167.0</ele><time>2026-03-29T10:54:40.999Z</time></trkpt><trkpt lat="44.71087399023935" lon="8.021920155066264"><ele>167.0</ele><time>2026-03-29T10:54:41.999Z</time></trkpt><trkpt lat="44.71077539518285" lon="8.022147656118742"><ele>167.0</ele><time>2026-03-29T10:54:42.999Z</time></trkpt><trkpt lat="44.710678027213206" lon="8.022374855945454"><ele>167.0</ele><time>2026-03-29T10:54:43.999Z</time></trkpt><trkpt lat="44.71058290557341" lon="8.022603868109606"><ele>167.0</ele><time>2026-03-29T10:54:44.999Z</time></trkpt><trkpt lat="44.710488909295854" lon="8.022833049918662"><ele>167.0</ele><time>2026-03-29T10:54:45.999Z</time></trkpt><trkpt lat="44.71039301819521" lon="8.0230538584695"><ele>167.0</ele><time>2026-03-29T10:54:46.999Z</time></trkpt><trkpt lat="44.71029872384088" lon="8.023274409241711"><ele>166.66666666666666</ele><time>2026-03-29T10:54:47.999Z</time></trkpt><trkpt lat="44.710208830429664" lon="8.02349186850544"><ele>166.33333333333334</ele><time>2026-03-29T10:54:48.999Z</time></trkpt><trkpt lat="44.710119211757196" lon="8.023697597667654"><ele>166.0</ele><time>2026-03-29T10:54:49.999Z</time></trkpt><trkpt lat="44.71003462001117" lon="8.023890847486728"><ele>166.0</ele><time>2026-03-29T10:54:50.999Z</time></trkpt><trkpt lat="44.7099567052621" lon="8.024079599224851"><ele>166.0</ele><time>2026-03-29T10:54:51.999Z</time></trkpt><trkpt lat="44.709888644597015" lon="8.02425239385506"><ele>166.0</ele><time>2026-03-29T10:54:52.999Z</time></trkpt><trkpt lat="44.70982644564667" lon="8.024407617934473"><ele>166.0</ele><time>2026-03-29T10:54:53.999Z</time></trkpt><trkpt lat="44.709768288787934" lon="8.024545500570428"><ele>166.0</ele><time>2026-03-29T10:54:54.999Z</time></trkpt><trkpt lat="44.709712215207254" lon="8.024674536089215"><ele>166.0</ele><time>2026-03-29T10:54:55.999Z</time></trkpt><trkpt lat="44.70966419475596" lon="8.024787065531456"><ele>166.0</ele><time>2026-03-29T10:54:56.999Z</time></trkpt><trkpt lat="44.70962692867708" lon="8.024888668504826"><ele>166.0</ele><time>2026-03-29T10:54:57.999Z</time></trkpt><trkpt lat="44.709597170726646" lon="8.02498113229457"><ele>166.0</ele><time>2026-03-29T10:54:58.999Z</time></trkpt><trkpt lat="44.70956773479388" lon="8.025061106434146"><ele>166.0</ele><time>2026-03-29T10:54:59.999Z</time></trkpt><trkpt lat="44.709511910727116" lon="8.025178057722936"><ele>166.0</ele><time>2026-03-29T10:55:01.999Z</time></trkpt><trkpt lat="44.70943996839717" lon="8.025300103704057"><ele>166.0</ele><time>2026-03-29T10:55:16.999Z</time></trkpt><trkpt lat="44.709395508296254" lon="8.025386909796133"><ele>166.0</ele><time>2026-03-29T10:55:17.999Z</time></trkpt><trkpt lat="44.70935323466543" lon="8.02549918617159"><ele>166.0</ele><time>2026-03-29T10:55:18.999Z</time></trkpt><trkpt lat="44.70929916406316" lon="8.025620143081301"><ele>166.0</ele><time>2026-03-29T10:55:19.999Z</time></trkpt><trkpt lat="44.709256369504246" lon="8.025737611498812"><ele>166.16666666666669</ele><time>2026-03-29T10:55:20.999Z</time></trkpt><trkpt lat="44.70923221791005" lon="8.025845751145235"><ele>166.33333333333334</ele><time>2026-03-29T10:55:21.999Z</time></trkpt><trkpt lat="44.70925436459513" lon="8.025956437213077"><ele>166.5</ele><time>2026-03-29T10:55:23Z</time></trkpt><trkpt lat="44.70924924561778" lon="8.026110423600901"><ele>166.66666666666666</ele><time>2026-03-29T10:55:25Z</time></trkpt><trkpt lat="44.70920494653363" lon="8.026223287640988"><ele>166.83333333333331</ele><time>2026-03-29T10:55:27Z</time></trkpt><trkpt lat="44.70914387463979" lon="8.026261165899996"><ele>167.0</ele><time>2026-03-29T10:55:28Z</time></trkpt><trkpt lat="44.70905758188093" lon="8.026273241920284"><ele>167.0</ele><time>2026-03-29T10:55:29Z</time></trkpt><trkpt lat="44.708949731196824" lon="8.026284664323288"><ele>167.0</ele><time>2026-03-29T10:55:30Z</time></trkpt><trkpt lat="44.70881804373511" lon="8.026318592612771"><ele>167.0</ele><time>2026-03-29T10:55:31Z</time></trkpt><trkpt lat="44.70868160940325" lon="8.026384148995351"><ele>167.0</ele><time>2026-03-29T10:55:32Z</time></trkpt><trkpt lat="44.7085808192997" lon="8.026473406041141"><ele>166.6</ele><time>2026-03-29T10:55:33Z</time></trkpt><trkpt lat="44.70848206826711" lon="8.026504846181005"><ele>166.2</ele><time>2026-03-29T10:55:34Z</time></trkpt><trkpt lat="44.70839815605053" lon="8.026540586625176"><ele>165.8</ele><time>2026-03-29T10:55:35Z</time></trkpt><trkpt lat="44.708307152688164" lon="8.026583930229686"><ele>165.4</ele><time>2026-03-29T10:55:36Z</time></trkpt><trkpt lat="44.70818481824856" lon="8.02660213651327"><ele>165.0</ele><time>2026-03-29T10:55:37Z</time></trkpt><trkpt lat="44.70804578601975" lon="8.02666611686259"><ele>165.0</ele><time>2026-03-29T10:55:38Z</time></trkpt><trkpt lat="44.70787374045539" lon="8.026705037060408"><ele>165.0</ele><time>2026-03-29T10:55:39Z</time></trkpt><trkpt lat="44.70770663731216" lon="8.026745010497283"><ele>165.0</ele><time>2026-03-29T10:55:40Z</time></trkpt><trkpt lat="44.70754924301241" lon="8.026802639935218"><ele>165.0</ele><time>2026-03-29T10:55:41Z</time></trkpt><trkpt lat="44.70738452755792" lon="8.026858272611014"><ele>165.0</ele><time>2026-03-29T10:55:42Z</time></trkpt><trkpt lat="44.70724840784821" lon="8.026879136864038"><ele>165.0</ele><time>2026-03-29T10:55:43Z</time></trkpt><trkpt lat="44.70711389609421" lon="8.026915769663518"><ele>165.0</ele><time>2026-03-29T10:55:44Z</time></trkpt><trkpt lat="44.706978613091" lon="8.026951203367231"><ele>165.0</ele><time>2026-03-29T10:55:45Z</time></trkpt><trkpt lat="44.70684126619169" lon="8.026986125804596"><ele>165.0</ele><time>2026-03-29T10:55:46Z</time></trkpt><trkpt lat="44.70670101698214" lon="8.027023099003854"><ele>165.0</ele><time>2026-03-29T10:55:47Z</time></trkpt><trkpt lat="44.70656253951237" lon="8.027062209956167"><ele>165.0</ele><time>2026-03-29T10:55:48Z</time></trkpt><trkpt lat="44.706425893683175" lon="8.027101153834248"><ele>165.0</ele><time>2026-03-29T10:55:49Z</time></trkpt><trkpt lat="44.706296390436044" lon="8.027135197616449"><ele>165.0</ele><time>2026-03-29T10:55:50Z</time></trkpt><trkpt lat="44.70616924181853" lon="8.027166908570543"><ele>165.0</ele><time>2026-03-29T10:55:51Z</time></trkpt><trkpt lat="44.706049802769414" lon="8.027194944025805"><ele>165.0</ele><time>2026-03-29T10:55:52Z</time></trkpt><trkpt lat="44.70593584971204" lon="8.027225118668703"><ele>164.0</ele><time>2026-03-29T10:55:53Z</time></trkpt><trkpt lat="44.70583007205184" lon="8.027252525817188"><ele>163.0</ele><time>2026-03-29T10:55:54Z</time></trkpt><trkpt lat="44.70572789220215" lon="8.02728011091903"><ele>162.0</ele><time>2026-03-29T10:55:55Z</time></trkpt><trkpt lat="44.70562447197558" lon="8.027307886812002"><ele>161.0</ele><time>2026-03-29T10:55:56Z</time></trkpt><trkpt lat="44.705515412320196" lon="8.027339939023687"><ele>160.0</ele><time>2026-03-29T10:55:57Z</time></trkpt><trkpt lat="44.705401554934646" lon="8.027368397347331"><ele>160.0</ele><time>2026-03-29T10:55:58Z</time></trkpt><trkpt lat="44.70528942839709" lon="8.027394418699394"><ele>160.0</ele><time>2026-03-29T10:55:59Z</time></trkpt><trkpt lat="44.705180948377816" lon="8.0274243120488"><ele>160.0</ele><time>2026-03-29T10:56:00Z</time></trkpt><trkpt lat="44.70507673603687" lon="8.02745450915554"><ele>160.0</ele><time>2026-03-29T10:56:01Z</time></trkpt><trkpt lat="44.704973342328515" lon="8.027484091538202"><ele>160.0</ele><time>2026-03-29T10:56:02Z</time></trkpt><trkpt lat="44.704871776397106" lon="8.027512974253545"><ele>160.6</ele><time>2026-03-29T10:56:03Z</time></trkpt><trkpt lat="44.70477246715409" lon="8.027542414635576"><ele>161.2</ele><time>2026-03-29T10:56:04Z</time></trkpt><trkpt lat="44.704678352683366" lon="8.02757671693993"><ele>161.8</ele><time>2026-03-29T10:56:05Z</time></trkpt><trkpt lat="44.704591720276454" lon="8.027613612297694"><ele>162.4</ele><time>2026-03-29T10:56:06Z</time></trkpt><trkpt lat="44.70451023476591" lon="8.027653134471263"><ele>163.0</ele><time>2026-03-29T10:56:07Z</time></trkpt><trkpt lat="44.704436544103295" lon="8.027687508604938"><ele>163.33333333333334</ele><time>2026-03-29T10:56:08Z</time></trkpt><trkpt lat="44.70436601333603" lon="8.027721978575128"><ele>163.66666666666669</ele><time>2026-03-29T10:56:09Z</time></trkpt><trkpt lat="44.70428710236773" lon="8.027758915243218"><ele>164.0</ele><time>2026-03-29T10:56:10Z</time></trkpt><trkpt lat="44.70420604232841" lon="8.027796217724903"><ele>164.33333333333334</ele><time>2026-03-29T10:56:11Z</time></trkpt><trkpt lat="44.70413420993062" lon="8.027828081498342"><ele>164.66666666666666</ele><time>2026-03-29T10:56:12Z</time></trkpt><trkpt lat="44.704065791655275" lon="8.027859559445748"><ele>165.0</ele><time>2026-03-29T10:56:13Z</time></trkpt><trkpt lat="44.70400867696252" lon="8.027917260396544"><ele>165.0</ele><time>2026-03-29T10:56:14Z</time></trkpt><trkpt lat="44.70395437350621" lon="8.027982901088174"><ele>165.0</ele><time>2026-03-29T10:56:15Z</time></trkpt><trkpt lat="44.703948271398254" lon="8.02811902329831"><ele>165.0</ele><time>2026-03-29T10:56:16Z</time></trkpt><trkpt lat="44.70395439569507" lon="8.028238921205187"><ele>165.0</ele><time>2026-03-29T10:56:17Z</time></trkpt><trkpt lat="44.70397986415628" lon="8.028362487217395"><ele>165.0</ele><time>2026-03-29T10:56:18Z</time></trkpt><trkpt lat="44.704004881895095" lon="8.028492163720667"><ele>165.0</ele><time>2026-03-29T10:56:19Z</time></trkpt><trkpt lat="44.704020978464214" lon="8.028641965512008"><ele>165.75</ele><time>2026-03-29T10:56:20Z</time></trkpt><trkpt lat="44.7040129264061" lon="8.028801590925255"><ele>166.5</ele><time>2026-03-29T10:56:20.999Z</time></trkpt><trkpt lat="44.70399823575967" lon="8.028964156570915"><ele>167.25</ele><time>2026-03-29T10:56:21.999Z</time></trkpt><trkpt lat="44.70389638961044" lon="8.029111988838418"><ele>168.0</ele><time>2026-03-29T10:56:22.999Z</time></trkpt><trkpt lat="44.70382468438861" lon="8.02926378089577"><ele>168.25</ele><time>2026-03-29T10:56:23.999Z</time></trkpt><trkpt lat="44.70375439774254" lon="8.029413484994953"><ele>168.5</ele><time>2026-03-29T10:56:24.999Z</time></trkpt><trkpt lat="44.70368451985894" lon="8.029558188591034"><ele>168.75</ele><time>2026-03-29T10:56:25.999Z</time></trkpt><trkpt lat="44.70361649106171" lon="8.029697240226438"><ele>169.0</ele><time>2026-03-29T10:56:26.999Z</time></trkpt><trkpt lat="44.703549056637826" lon="8.029828255968415"><ele>168.79999999999998</ele><time>2026-03-29T10:56:27.999Z</time></trkpt><trkpt lat="44.70348298719253" lon="8.02995832153334"><ele>168.6</ele><time>2026-03-29T10:56:28.999Z</time></trkpt><trkpt lat="44.70342002912586" lon="8.0300852015154"><ele>168.4</ele><time>2026-03-29T10:56:29.999Z</time></trkpt><trkpt lat="44.70335747575137" lon="8.030209020164065"><ele>168.2</ele><time>2026-03-29T10:56:30.999Z</time></trkpt><trkpt lat="44.70329183035081" lon="8.030338657968091"><ele>168.0</ele><time>2026-03-29T10:56:31.999Z</time></trkpt><trkpt lat="44.70322506695259" lon="8.030468444225555"><ele>168.0</ele><time>2026-03-29T10:56:32.999Z</time></trkpt><trkpt lat="44.70315530929158" lon="8.030600281399092"><ele>168.0</ele><time>2026-03-29T10:56:33.999Z</time></trkpt><trkpt lat="44.70308904382442" lon="8.030733376706168"><ele>168.0</ele><time>2026-03-29T10:56:34.999Z</time></trkpt><trkpt lat="44.70302314890201" lon="8.030859415039167"><ele>168.0</ele><time>2026-03-29T10:56:35.999Z</time></trkpt><trkpt lat="44.702959877532564" lon="8.03098125796356"><ele>168.0</ele><time>2026-03-29T10:56:36.999Z</time></trkpt><trkpt lat="44.702899622420986" lon="8.03110234249225"><ele>168.0</ele><time>2026-03-29T10:56:37.999Z</time></trkpt><trkpt lat="44.70284021119333" lon="8.031220974647296"><ele>168.0</ele><time>2026-03-29T10:56:38.999Z</time></trkpt><trkpt lat="44.70278308332027" lon="8.031333149097508"><ele>168.0</ele><time>2026-03-29T10:56:39.999Z</time></trkpt><trkpt lat="44.702730648320966" lon="8.031437033863098"><ele>168.0</ele><time>2026-03-29T10:56:40.999Z</time></trkpt><trkpt lat="44.70268198756023" lon="8.03153709485746"><ele>168.0</ele><time>2026-03-29T10:56:41.999Z</time></trkpt><trkpt lat="44.70263435086498" lon="8.031634443143531"><ele>168.0</ele><time>2026-03-29T10:56:42.999Z</time></trkpt><trkpt lat="44.70258730459256" lon="8.031729102797932"><ele>168.0</ele><time>2026-03-29T10:56:43.999Z</time></trkpt><trkpt lat="44.7025433626805" lon="8.031810861198295"><ele>168.0</ele><time>2026-03-29T10:56:44.999Z</time></trkpt><trkpt lat="44.70246824906277" lon="8.031945711838894"><ele>168.0</ele><time>2026-03-29T10:56:46.999Z</time></trkpt><trkpt lat="44.70238111834027" lon="8.032059507437936"><ele>167.8</ele><time>2026-03-29T10:56:48.999Z</time></trkpt><trkpt lat="44.70233386258171" lon="8.032120920850842"><ele>167.60000000000002</ele><time>2026-03-29T10:56:49.999Z</time></trkpt><trkpt lat="44.70227522901638" lon="8.032248061804085"><ele>167.39999999999998</ele><time>2026-03-29T10:56:51.999Z</time></trkpt><trkpt lat="44.702347521675115" lon="8.032377839248449"><ele>167.2</ele><time>2026-03-29T10:56:52.999Z</time></trkpt><trkpt lat="44.702425395658445" lon="8.032430180175762"><ele>167.0</ele><time>2026-03-29T10:56:53.999Z</time></trkpt><trkpt lat="44.702496654500436" lon="8.032496202060871"><ele>167.0</ele><time>2026-03-29T10:56:54.999Z</time></trkpt><trkpt lat="44.70257941606399" lon="8.032574702381732"><ele>167.0</ele><time>2026-03-29T10:56:55.999Z</time></trkpt><trkpt lat="44.70266672400491" lon="8.032666488400888"><ele>167.0</ele><time>2026-03-29T10:56:56.999Z</time></trkpt><trkpt lat="44.70275123594844" lon="8.032755697992352"><ele>167.0</ele><time>2026-03-29T10:56:57.999Z</time></trkpt><trkpt lat="44.702837785186134" lon="8.032839059617244"><ele>167.0</ele><time>2026-03-29T10:56:58.999Z</time></trkpt><trkpt lat="44.702913677017456" lon="8.032940452717051"><ele>166.75</ele><time>2026-03-29T10:56:59.999Z</time></trkpt><trkpt lat="44.70304459635372" lon="8.033085045954678"><ele>166.5</ele><time>2026-03-29T10:57:00.999Z</time></trkpt><trkpt lat="44.70313780952675" lon="8.033185643086954"><ele>166.25</ele><time>2026-03-29T10:57:01.999Z</time></trkpt><trkpt lat="44.70321716070904" lon="8.033276498254558"><ele>166.0</ele><time>2026-03-29T10:57:02.999Z</time></trkpt><trkpt lat="44.70329184194437" lon="8.033368756860435"><ele>166.0</ele><time>2026-03-29T10:57:03.999Z</time></trkpt><trkpt lat="44.70336028223558" lon="8.033462656347094"><ele>166.0</ele><time>2026-03-29T10:57:04.999Z</time></trkpt><trkpt lat="44.703375761634184" lon="8.033581699587534"><ele>166.0</ele><time>2026-03-29T10:57:05.999Z</time></trkpt><trkpt lat="44.70339063709893" lon="8.033759129335927"><ele>166.0</ele><time>2026-03-29T10:57:07.999Z</time></trkpt><trkpt lat="44.70337278425701" lon="8.033851597944471"><ele>166.0</ele><time>2026-03-29T10:57:08.999Z</time></trkpt><trkpt lat="44.703353549502296" lon="8.033957987264849"><ele>166.0</ele><time>2026-03-29T10:57:09.999Z</time></trkpt><trkpt lat="44.703340234973595" lon="8.034085895538409"><ele>166.0</ele><time>2026-03-29T10:57:10.999Z</time></trkpt><trkpt lat="44.70332863884292" lon="8.03422685005639"><ele>166.0</ele><time>2026-03-29T10:57:11.999Z</time></trkpt><trkpt lat="44.70332464357779" lon="8.034394672305444"><ele>166.0</ele><time>2026-03-29T10:57:12.999Z</time></trkpt><trkpt lat="44.70331055158511" lon="8.034583724731513"><ele>166.0</ele><time>2026-03-29T10:57:13.999Z</time></trkpt><trkpt lat="44.7032962002627" lon="8.034789445702124"><ele>166.33333333333334</ele><time>2026-03-29T10:57:14.999Z</time></trkpt><trkpt lat="44.7032677062482" lon="8.035027396198533"><ele>166.66666666666666</ele><time>2026-03-29T10:57:15.999Z</time></trkpt><trkpt lat="44.70324842614574" lon="8.035276469978212"><ele>167.0</ele><time>2026-03-29T10:57:16.999Z</time></trkpt><trkpt lat="44.70324205909677" lon="8.03552829429308"><ele>167.0</ele><time>2026-03-29T10:57:17.999Z</time></trkpt><trkpt lat="44.703231934941456" lon="8.035779083670343"><ele>167.0</ele><time>2026-03-29T10:57:18.999Z</time></trkpt><trkpt lat="44.70321199013952" lon="8.036020507589006"><ele>167.0</ele><time>2026-03-29T10:57:19.999Z</time></trkpt><trkpt lat="44.70319566361224" lon="8.036274860180134"><ele>167.0</ele><time>2026-03-29T10:57:20.999Z</time></trkpt><trkpt lat="44.7031802605601" lon="8.036529095661239"><ele>167.0</ele><time>2026-03-29T10:57:21.999Z</time></trkpt><trkpt lat="44.70316391151685" lon="8.036779466214057"><ele>167.0</ele><time>2026-03-29T10:57:22.999Z</time></trkpt><trkpt lat="44.70314808779544" lon="8.03702609526688"><ele>166.66666666666666</ele><time>2026-03-29T10:57:23.999Z</time></trkpt><trkpt lat="44.703135553091585" lon="8.037251129216404"><ele>166.33333333333334</ele><time>2026-03-29T10:57:24.999Z</time></trkpt><trkpt lat="44.703115515489145" lon="8.037476668699838"><ele>166.0</ele><time>2026-03-29T10:57:25.999Z</time></trkpt><trkpt lat="44.703101429523336" lon="8.037699247027135"><ele>165.75</ele><time>2026-03-29T10:57:26.999Z</time></trkpt><trkpt lat="44.703083316954654" lon="8.037921868264519"><ele>165.5</ele><time>2026-03-29T10:57:27.999Z</time></trkpt><trkpt lat="44.70307299136234" lon="8.038127490338857"><ele>165.25</ele><time>2026-03-29T10:57:29Z</time></trkpt><trkpt lat="44.7030398941149" lon="8.03830637638671"><ele>165.0</ele><time>2026-03-29T10:57:30Z</time></trkpt><trkpt lat="44.7029817933197" lon="8.038441314464652"><ele>164.25</ele><time>2026-03-29T10:57:31Z</time></trkpt><trkpt lat="44.70290035078539" lon="8.038534530323137"><ele>163.5</ele><time>2026-03-29T10:57:32Z</time></trkpt><trkpt lat="44.7027959161762" lon="8.038596377924499"><ele>162.75</ele><time>2026-03-29T10:57:33Z</time></trkpt><trkpt lat="44.70267917256623" lon="8.038668170409036"><ele>162.0</ele><time>2026-03-29T10:57:34Z</time></trkpt><trkpt lat="44.702546403059884" lon="8.0387670219611"><ele>162.5</ele><time>2026-03-29T10:57:35Z</time></trkpt><trkpt lat="44.702411258114786" lon="8.038863460390058"><ele>163.0</ele><time>2026-03-29T10:57:36Z</time></trkpt><trkpt lat="44.702288067348945" lon="8.038957710273458"><ele>163.5</ele><time>2026-03-29T10:57:37Z</time></trkpt><trkpt lat="44.70216930899885" lon="8.039042966272218"><ele>164.0</ele><time>2026-03-29T10:57:38Z</time></trkpt><trkpt lat="44.702032649597776" lon="8.03914667779099"><ele>165.25</ele><time>2026-03-29T10:57:39Z</time></trkpt><trkpt lat="44.70189240496548" lon="8.039246527816845"><ele>166.5</ele><time>2026-03-29T10:57:40Z</time></trkpt><trkpt lat="44.70175918453676" lon="8.039339917812782"><ele>167.75</ele><time>2026-03-29T10:57:41Z</time></trkpt><trkpt lat="44.70163208169289" lon="8.039432615358795"><ele>169.0</ele><time>2026-03-29T10:57:42Z</time></trkpt><trkpt lat="44.70150981542912" lon="8.03951990984843"><ele>169.0</ele><time>2026-03-29T10:57:43Z</time></trkpt><trkpt lat="44.70139225857797" lon="8.03960020470903"><ele>169.0</ele><time>2026-03-29T10:57:44Z</time></trkpt><trkpt lat="44.70128239542591" lon="8.03967367495161"><ele>169.0</ele><time>2026-03-29T10:57:45Z</time></trkpt><trkpt lat="44.701179193579286" lon="8.03973866819478"><ele>169.0</ele><time>2026-03-29T10:57:46Z</time></trkpt><trkpt lat="44.701077785241324" lon="8.039793261260785"><ele>169.5</ele><time>2026-03-29T10:57:47Z</time></trkpt><trkpt lat="44.70098681627689" lon="8.03983780429603"><ele>170.0</ele><time>2026-03-29T10:57:48Z</time></trkpt><trkpt lat="44.70089964289588" lon="8.039869835512532"><ele>170.5</ele><time>2026-03-29T10:57:49Z</time></trkpt><trkpt lat="44.70081799937559" lon="8.03989116307282"><ele>171.0</ele><time>2026-03-29T10:57:50Z</time></trkpt><trkpt lat="44.70074645648101" lon="8.039873720496656"><ele>171.5</ele><time>2026-03-29T10:57:51Z</time></trkpt><trkpt lat="44.70068076804091" lon="8.039839717263442"><ele>172.0</ele><time>2026-03-29T10:57:52Z</time></trkpt><trkpt lat="44.700568384679826" lon="8.039798367043819"><ele>172.0</ele><time>2026-03-29T10:57:54Z</time></trkpt><trkpt lat="44.700492918130344" lon="8.039918555267539"><ele>172.0</ele><time>2026-03-29T10:57:56Z</time></trkpt><trkpt lat="44.70049579562797" lon="8.040017077070791"><ele>172.0</ele><time>2026-03-29T10:57:57Z</time></trkpt><trkpt lat="44.70052733192952" lon="8.040122053688876"><ele>172.0</ele><time>2026-03-29T10:57:58Z</time></trkpt><trkpt lat="44.700569500228845" lon="8.040234923199188"><ele>172.0</ele><time>2026-03-29T10:57:59Z</time></trkpt><trkpt lat="44.70057278544868" lon="8.040365126119227"><ele>172.0</ele><time>2026-03-29T10:58:00Z</time></trkpt><trkpt lat="44.700552157994" lon="8.040525895239533"><ele>171.0</ele><time>2026-03-29T10:58:01Z</time></trkpt><trkpt lat="44.70053057811618" lon="8.040714895835842"><ele>170.0</ele><time>2026-03-29T10:58:02Z</time></trkpt><trkpt lat="44.70050458851329" lon="8.040934856213992"><ele>169.0</ele><time>2026-03-29T10:58:03Z</time></trkpt><trkpt lat="44.700472535486895" lon="8.041180899429506"><ele>167.33333333333334</ele><time>2026-03-29T10:58:04Z</time></trkpt><trkpt lat="44.70043817736185" lon="8.041437473534668"><ele>165.66666666666666</ele><time>2026-03-29T10:58:05Z</time></trkpt><trkpt lat="44.70040806737229" lon="8.041686774692021"><ele>164.0</ele><time>2026-03-29T10:58:06Z</time></trkpt><trkpt lat="44.700377437069626" lon="8.04191235100493"><ele>163.75</ele><time>2026-03-29T10:58:07Z</time></trkpt><trkpt lat="44.70034912268261" lon="8.042120793518443"><ele>163.5</ele><time>2026-03-29T10:58:08Z</time></trkpt><trkpt lat="44.70032141842135" lon="8.042318364335067"><ele>163.25</ele><time>2026-03-29T10:58:09Z</time></trkpt><trkpt lat="44.70029626214867" lon="8.042506318910126"><ele>163.0</ele><time>2026-03-29T10:58:10Z</time></trkpt><trkpt lat="44.70027408964811" lon="8.042684894563594"><ele>163.5</ele><time>2026-03-29T10:58:11Z</time></trkpt><trkpt lat="44.70025273258119" lon="8.042854518160397"><ele>164.0</ele><time>2026-03-29T10:58:12Z</time></trkpt><trkpt lat="44.70021726362936" lon="8.043021269034064"><ele>164.5</ele><time>2026-03-29T10:58:13Z</time></trkpt><trkpt lat="44.700160972140374" lon="8.04316894593112"><ele>165.0</ele><time>2026-03-29T10:58:14Z</time></trkpt><trkpt lat="44.70009322476591" lon="8.043302720821451"><ele>166.5</ele><time>2026-03-29T10:58:15Z</time></trkpt><trkpt lat="44.69999951529984" lon="8.04339055922134"><ele>168.0</ele><time>2026-03-29T10:58:16Z</time></trkpt><trkpt lat="44.6998831201201" lon="8.04341133640766"><ele>169.5</ele><time>2026-03-29T10:58:17Z</time></trkpt><trkpt lat="44.69975444346429" lon="8.04342352047443"><ele>171.0</ele><time>2026-03-29T10:58:18Z</time></trkpt><trkpt lat="44.699634323104945" lon="8.04343707715706"><ele>171.0</ele><time>2026-03-29T10:58:19Z</time></trkpt><trkpt lat="44.69952464629211" lon="8.043423148375277"><ele>171.0</ele><time>2026-03-29T10:58:20Z</time></trkpt><trkpt lat="44.69941689519766" lon="8.043412335026217"><ele>171.0</ele><time>2026-03-29T10:58:21Z</time></trkpt><trkpt lat="44.69930645965784" lon="8.043410689272129"><ele>171.0</ele><time>2026-03-29T10:58:22Z</time></trkpt><trkpt lat="44.699191380889445" lon="8.04343121495189"><ele>171.0</ele><time>2026-03-29T10:58:23Z</time></trkpt><trkpt lat="44.699068395556935" lon="8.043483146585036"><ele>170.75</ele><time>2026-03-29T10:58:23.999Z</time></trkpt><trkpt lat="44.69892832587931" lon="8.043560962151197"><ele>170.5</ele><time>2026-03-29T10:58:24.999Z</time></trkpt><trkpt lat="44.69878847727992" lon="8.043638354401722"><ele>170.25</ele><time>2026-03-29T10:58:25.999Z</time></trkpt><trkpt lat="44.69865513068618" lon="8.043699252165792"><ele>170.0</ele><time>2026-03-29T10:58:26.999Z</time></trkpt><trkpt lat="44.698517734973784" lon="8.043747341375559"><ele>171.33333333333331</ele><time>2026-03-29T10:58:27.999Z</time></trkpt><trkpt lat="44.698374578635864" lon="8.043781553680448"><ele>172.66666666666666</ele><time>2026-03-29T10:58:28.999Z</time></trkpt><trkpt lat="44.69821630111773" lon="8.043802777551393"><ele>174.0</ele><time>2026-03-29T10:58:29.999Z</time></trkpt><trkpt lat="44.69805150856377" lon="8.04382530039815"><ele>174.0</ele><time>2026-03-29T10:58:30.999Z</time></trkpt><trkpt lat="44.697883215351" lon="8.043848479214175"><ele>174.0</ele><time>2026-03-29T10:58:31.999Z</time></trkpt><trkpt lat="44.697724584081776" lon="8.043865659087365"><ele>174.0</ele><time>2026-03-29T10:58:32.999Z</time></trkpt><trkpt lat="44.69757966107951" lon="8.04387719092186"><ele>175.0</ele><time>2026-03-29T10:58:33.999Z</time></trkpt><trkpt lat="44.697452435484706" lon="8.043903833911752"><ele>176.0</ele><time>2026-03-29T10:58:34.999Z</time></trkpt><trkpt lat="44.69734478429317" lon="8.04397968241061"><ele>177.0</ele><time>2026-03-29T10:58:35.999Z</time></trkpt><trkpt lat="44.697260076949824" lon="8.044093450613536"><ele>178.0</ele><time>2026-03-29T10:58:36.999Z</time></trkpt><trkpt lat="44.69720418805139" lon="8.044217886553014"><ele>179.2</ele><time>2026-03-29T10:58:37.999Z</time></trkpt><trkpt lat="44.697175095392545" lon="8.04434769149762"><ele>180.4</ele><time>2026-03-29T10:58:38.999Z</time></trkpt><trkpt lat="44.69718574963953" lon="8.044491490326001"><ele>181.6</ele><time>2026-03-29T10:58:39.999Z</time></trkpt><trkpt lat="44.69722428679874" lon="8.044615000201004"><ele>182.79999999999998</ele><time>2026-03-29T10:58:40.999Z</time></trkpt><trkpt lat="44.69730139564873" lon="8.04468556700608"><ele>184.0</ele><time>2026-03-29T10:58:41.999Z</time></trkpt><trkpt lat="44.69739417366382" lon="8.044704228528076"><ele>184.0</ele><time>2026-03-29T10:58:42.999Z</time></trkpt><trkpt lat="44.6975019433292" lon="8.044673647250947"><ele>184.0</ele><time>2026-03-29T10:58:43.999Z</time></trkpt><trkpt lat="44.697615102030895" lon="8.044637431601792"><ele>184.0</ele><time>2026-03-29T10:58:44.999Z</time></trkpt><trkpt lat="44.69774268883913" lon="8.044612849909882"><ele>184.0</ele><time>2026-03-29T10:58:45.999Z</time></trkpt><trkpt lat="44.697866744933265" lon="8.044592034629394"><ele>182.75</ele><time>2026-03-29T10:58:46.999Z</time></trkpt><trkpt lat="44.69798366297338" lon="8.04459498082358"><ele>181.5</ele><time>2026-03-29T10:58:47.999Z</time></trkpt><trkpt lat="44.698093275982124" lon="8.044643341095819"><ele>180.25</ele><time>2026-03-29T10:58:48.999Z</time></trkpt><trkpt lat="44.69818838915883" lon="8.044739841671328"><ele>179.0</ele><time>2026-03-29T10:58:49.999Z</time></trkpt><trkpt lat="44.69826672716551" lon="8.0448849387919"><ele>181.5</ele><time>2026-03-29T10:58:50.999Z</time></trkpt><trkpt lat="44.69833161913686" lon="8.0450693649288"><ele>184.0</ele><time>2026-03-29T10:58:51.999Z</time></trkpt><trkpt lat="44.69838330415917" lon="8.045270480425028"><ele>186.5</ele><time>2026-03-29T10:58:52.999Z</time></trkpt><trkpt lat="44.69843251253445" lon="8.04545836071696"><ele>189.0</ele><time>2026-03-29T10:58:53.999Z</time></trkpt><trkpt lat="44.698496065738034" lon="8.04560552751571"><ele>187.75</ele><time>2026-03-29T10:58:54.999Z</time></trkpt><trkpt lat="44.69859236501294" lon="8.04568432805712"><ele>186.5</ele><time>2026-03-29T10:58:55.999Z</time></trkpt><trkpt lat="44.69871744695272" lon="8.045707901996227"><ele>185.25</ele><time>2026-03-29T10:58:56.999Z</time></trkpt><trkpt lat="44.698867292584914" lon="8.045682928223343"><ele>184.0</ele><time>2026-03-29T10:58:57.999Z</time></trkpt><trkpt lat="44.69903246427001" lon="8.045636253153166"><ele>184.0</ele><time>2026-03-29T10:58:58.999Z</time></trkpt><trkpt lat="44.69919352088714" lon="8.045593274046725"><ele>184.0</ele><time>2026-03-29T10:58:59.999Z</time></trkpt><trkpt lat="44.699337425450814" lon="8.045580130728803"><ele>184.0</ele><time>2026-03-29T10:59:00.999Z</time></trkpt><trkpt lat="44.69947339410721" lon="8.045608662918932"><ele>184.0</ele><time>2026-03-29T10:59:01.999Z</time></trkpt><trkpt lat="44.699613591862914" lon="8.045671061738972"><ele>184.0</ele><time>2026-03-29T10:59:02.999Z</time></trkpt><trkpt lat="44.69975397780855" lon="8.04575739109024"><ele>184.0</ele><time>2026-03-29T10:59:03.999Z</time></trkpt><trkpt lat="44.69987503992997" lon="8.045845537954325"><ele>184.0</ele><time>2026-03-29T10:59:04.999Z</time></trkpt><trkpt lat="44.69995924448243" lon="8.045944893569278"><ele>184.0</ele><time>2026-03-29T10:59:05.999Z</time></trkpt><trkpt lat="44.70000495317636" lon="8.046065000370737"><ele>186.6</ele><time>2026-03-29T10:59:06.999Z</time></trkpt><trkpt lat="44.70001031238607" lon="8.04619057441927"><ele>189.2</ele><time>2026-03-29T10:59:07.999Z</time></trkpt><trkpt lat="44.699968395820456" lon="8.046310935984266"><ele>191.79999999999998</ele><time>2026-03-29T10:59:08.999Z</time></trkpt><trkpt lat="44.69989430308694" lon="8.046411253165779"><ele>194.39999999999998</ele><time>2026-03-29T10:59:09.999Z</time></trkpt><trkpt lat="44.69978255640588" lon="8.046448183822333"><ele>197.0</ele><time>2026-03-29T10:59:10.999Z</time></trkpt><trkpt lat="44.69966409128062" lon="8.046389319356376"><ele>197.0</ele><time>2026-03-29T10:59:11.999Z</time></trkpt><trkpt lat="44.69952866627609" lon="8.046392105639566"><ele>197.0</ele><time>2026-03-29T10:59:12.999Z</time></trkpt><trkpt lat="44.699376599359695" lon="8.046436158455204"><ele>197.0</ele><time>2026-03-29T10:59:13.999Z</time></trkpt><trkpt lat="44.69920932727679" lon="8.046509773819446"><ele>197.0</ele><time>2026-03-29T10:59:14.999Z</time></trkpt><trkpt lat="44.699015424995366" lon="8.046584139417778"><ele>197.0</ele><time>2026-03-29T10:59:15.999Z</time></trkpt><trkpt lat="44.69881407526478" lon="8.046629369783872"><ele>197.0</ele><time>2026-03-29T10:59:16.999Z</time></trkpt><trkpt lat="44.69864362743095" lon="8.046666882877547"><ele>200.66666666666669</ele><time>2026-03-29T10:59:17.999Z</time></trkpt><trkpt lat="44.698493381609886" lon="8.046734413137118"><ele>204.33333333333331</ele><time>2026-03-29T10:59:18.999Z</time></trkpt><trkpt lat="44.69834879029674" lon="8.0468692819709"><ele>208.0</ele><time>2026-03-29T10:59:19.999Z</time></trkpt><trkpt lat="44.698212680473176" lon="8.047037768225168"><ele>208.0</ele><time>2026-03-29T10:59:20.999Z</time></trkpt><trkpt lat="44.69807971974873" lon="8.047154094705698"><ele>208.0</ele><time>2026-03-29T10:59:21.999Z</time></trkpt><trkpt lat="44.69796075128435" lon="8.047243100992425"><ele>208.0</ele><time>2026-03-29T10:59:22.999Z</time></trkpt><trkpt lat="44.69783443622518" lon="8.04728648442653"><ele>208.0</ele><time>2026-03-29T10:59:23.999Z</time></trkpt><trkpt lat="44.697706392779594" lon="8.047298451796946"><ele>209.25</ele><time>2026-03-29T10:59:24.999Z</time></trkpt><trkpt lat="44.69759420376647" lon="8.04723084780827"><ele>210.5</ele><time>2026-03-29T10:59:25.999Z</time></trkpt><trkpt lat="44.69748710915468" lon="8.047119477474597"><ele>211.75</ele><time>2026-03-29T10:59:26.999Z</time></trkpt><trkpt lat="44.69740015254658" lon="8.046959260585695"><ele>213.0</ele><time>2026-03-29T10:59:27.999Z</time></trkpt><trkpt lat="44.697335378216735" lon="8.046794172788456"><ele>213.0</ele><time>2026-03-29T10:59:28.999Z</time></trkpt><trkpt lat="44.69725355586344" lon="8.046682985504498"><ele>213.0</ele><time>2026-03-29T10:59:29.999Z</time></trkpt><trkpt lat="44.6971920164634" lon="8.046568080936222"><ele>213.0</ele><time>2026-03-29T10:59:30.999Z</time></trkpt><trkpt lat="44.6970689310899" lon="8.046543618563248"><ele>213.0</ele><time>2026-03-29T10:59:31.999Z</time></trkpt><trkpt lat="44.69694155959595" lon="8.04658256210391"><ele>215.0</ele><time>2026-03-29T10:59:32.999Z</time></trkpt><trkpt lat="44.696805999055925" lon="8.046685901342562"><ele>217.0</ele><time>2026-03-29T10:59:33.999Z</time></trkpt><trkpt lat="44.69665172869697" lon="8.046831774864089"><ele>219.0</ele><time>2026-03-29T10:59:35Z</time></trkpt><trkpt lat="44.696480450258456" lon="8.046972813370857"><ele>219.0</ele><time>2026-03-29T10:59:36Z</time></trkpt><trkpt lat="44.69629016193545" lon="8.04711835905657"><ele>219.0</ele><time>2026-03-29T10:59:37Z</time></trkpt><trkpt lat="44.696101741105366" lon="8.04726931222618"><ele>219.0</ele><time>2026-03-29T10:59:38Z</time></trkpt><trkpt lat="44.69591303949395" lon="8.047457154779032"><ele>222.5</ele><time>2026-03-29T10:59:39Z</time></trkpt><trkpt lat="44.6957251744898" lon="8.04770223368463"><ele>226.0</ele><time>2026-03-29T10:59:40Z</time></trkpt><trkpt lat="44.69553878208791" lon="8.047938333755068"><ele>226.0</ele><time>2026-03-29T10:59:41Z</time></trkpt><trkpt lat="44.695352398763966" lon="8.04813124167507"><ele>226.0</ele><time>2026-03-29T10:59:42Z</time></trkpt><trkpt lat="44.69517421529521" lon="8.048301375894386"><ele>226.0</ele><time>2026-03-29T10:59:43Z</time></trkpt><trkpt lat="44.69499352872588" lon="8.048454810475716"><ele>229.0</ele><time>2026-03-29T10:59:44Z</time></trkpt><trkpt lat="44.69481600329617" lon="8.048584566259269"><ele>232.0</ele><time>2026-03-29T10:59:45Z</time></trkpt><trkpt lat="44.6946412882141" lon="8.048715386429173"><ele>235.0</ele><time>2026-03-29T10:59:46Z</time></trkpt><trkpt lat="44.69449370785353" lon="8.048847694098955"><ele>237.0</ele><time>2026-03-29T10:59:47Z</time></trkpt><trkpt lat="44.69437228159114" lon="8.048991312585802"><ele>239.0</ele><time>2026-03-29T10:59:48Z</time></trkpt><trkpt lat="44.694279844838185" lon="8.049144352174876"><ele>241.0</ele><time>2026-03-29T10:59:49Z</time></trkpt><trkpt lat="44.69421379647563" lon="8.049327183187055"><ele>243.0</ele><time>2026-03-29T10:59:50Z</time></trkpt><trkpt lat="44.69416043488309" lon="8.04953595404939"><ele>243.0</ele><time>2026-03-29T10:59:51Z</time></trkpt><trkpt lat="44.6941103916945" lon="8.049734414727963"><ele>243.0</ele><time>2026-03-29T10:59:52Z</time></trkpt><trkpt lat="44.69403655585008" lon="8.049916732415417"><ele>243.0</ele><time>2026-03-29T10:59:53Z</time></trkpt><trkpt lat="44.6939244653526" lon="8.050094237878653"><ele>243.0</ele><time>2026-03-29T10:59:54Z</time></trkpt><trkpt lat="44.6937732575997" lon="8.050277050047791"><ele>243.0</ele><time>2026-03-29T10:59:55Z</time></trkpt><trkpt lat="44.693628444205096" lon="8.050479410465728"><ele>243.0</ele><time>2026-03-29T10:59:56Z</time></trkpt><trkpt lat="44.69349690546689" lon="8.050689003575636"><ele>241.0</ele><time>2026-03-29T10:59:57Z</time></trkpt><trkpt lat="44.69338077879784" lon="8.0508857831022"><ele>239.0</ele><time>2026-03-29T10:59:58Z</time></trkpt><trkpt lat="44.69326530344806" lon="8.051073839432934"><ele>237.0</ele><time>2026-03-29T10:59:59Z</time></trkpt><trkpt lat="44.6931405095026" lon="8.051258233313007"><ele>237.0</ele><time>2026-03-29T11:00:00Z</time></trkpt><trkpt lat="44.693004771000325" lon="8.051360512196617"><ele>237.0</ele><time>2026-03-29T11:00:01Z</time></trkpt><trkpt lat="44.69285736615849" lon="8.05146696963574"><ele>237.0</ele><time>2026-03-29T11:00:02Z</time></trkpt><trkpt lat="44.69271703817623" lon="8.0515839034982"><ele>236.25</ele><time>2026-03-29T11:00:03Z</time></trkpt><trkpt lat="44.692573535082495" lon="8.051671735345167"><ele>235.5</ele><time>2026-03-29T11:00:04Z</time></trkpt><trkpt lat="44.6924387621538" lon="8.051751608531005"><ele>234.75</ele><time>2026-03-29T11:00:05Z</time></trkpt><trkpt lat="44.69233147850926" lon="8.051834555947"><ele>234.0</ele><time>2026-03-29T11:00:06Z</time></trkpt><trkpt lat="44.692253116532086" lon="8.051943766680033"><ele>234.0</ele><time>2026-03-29T11:00:07Z</time></trkpt><trkpt lat="44.69221343683228" lon="8.052088609294138"><ele>234.0</ele><time>2026-03-29T11:00:08Z</time></trkpt><trkpt lat="44.69220754536197" lon="8.052272429809825"><ele>234.0</ele><time>2026-03-29T11:00:09Z</time></trkpt><trkpt lat="44.692252129399115" lon="8.052461630127134"><ele>234.0</ele><time>2026-03-29T11:00:10Z</time></trkpt><trkpt lat="44.69233946339074" lon="8.052628507593036"><ele>231.33333333333331</ele><time>2026-03-29T11:00:11Z</time></trkpt><trkpt lat="44.69245697851682" lon="8.052746663725207"><ele>228.66666666666666</ele><time>2026-03-29T11:00:12Z</time></trkpt><trkpt lat="44.692595176460465" lon="8.052821817869482"><ele>226.0</ele><time>2026-03-29T11:00:13Z</time></trkpt><trkpt lat="44.6927616631761" lon="8.052839062176071"><ele>224.66666666666666</ele><time>2026-03-29T11:00:14Z</time></trkpt><trkpt lat="44.692959835147036" lon="8.052820379821226"><ele>223.33333333333331</ele><time>2026-03-29T11:00:15Z</time></trkpt><trkpt lat="44.69319121832463" lon="8.052824176604362"><ele>222.0</ele><time>2026-03-29T11:00:16Z</time></trkpt><trkpt lat="44.69342961779168" lon="8.052842600049786"><ele>220.33333333333331</ele><time>2026-03-29T11:00:17Z</time></trkpt><trkpt lat="44.693644866999136" lon="8.052866910448675"><ele>218.66666666666666</ele><time>2026-03-29T11:00:18Z</time></trkpt><trkpt lat="44.69383499071321" lon="8.05288698819081"><ele>217.0</ele><time>2026-03-29T11:00:19Z</time></trkpt><trkpt lat="44.69401114070154" lon="8.052910769127747"><ele>217.0</ele><time>2026-03-29T11:00:20Z</time></trkpt><trkpt lat="44.69417869668719" lon="8.05296957463702"><ele>217.0</ele><time>2026-03-29T11:00:21Z</time></trkpt><trkpt lat="44.69436281723991" lon="8.053098937505514"><ele>217.0</ele><time>2026-03-29T11:00:22Z</time></trkpt><trkpt lat="44.69459510148443" lon="8.053242562171782"><ele>214.5</ele><time>2026-03-29T11:00:23Z</time></trkpt><trkpt lat="44.69485074284674" lon="8.05343913407516"><ele>212.0</ele><time>2026-03-29T11:00:24Z</time></trkpt><trkpt lat="44.69512919459724" lon="8.053639629754262"><ele>208.5</ele><time>2026-03-29T11:00:25Z</time></trkpt><trkpt lat="44.69541207922196" lon="8.053826420069921"><ele>205.0</ele><time>2026-03-29T11:00:26Z</time></trkpt><trkpt lat="44.69566920615227" lon="8.053984179651401"><ele>205.0</ele><time>2026-03-29T11:00:27Z</time></trkpt><trkpt lat="44.69590697650345" lon="8.054116913774202"><ele>205.0</ele><time>2026-03-29T11:00:28Z</time></trkpt><trkpt lat="44.696101555284855" lon="8.054229624738829"><ele>204.75</ele><time>2026-03-29T11:00:29Z</time></trkpt><trkpt lat="44.696223670001594" lon="8.054308639778656"><ele>204.5</ele><time>2026-03-29T11:00:30Z</time></trkpt><trkpt lat="44.69633982103828" lon="8.054389900178847"><ele>204.25</ele><time>2026-03-29T11:00:31Z</time></trkpt><trkpt lat="44.69643185274846" lon="8.054460434028252"><ele>204.0</ele><time>2026-03-29T11:00:32Z</time></trkpt><trkpt lat="44.69651899683401" lon="8.054521403009693"><ele>204.0</ele><time>2026-03-29T11:00:32.999Z</time></trkpt><trkpt lat="44.69659837464647" lon="8.054579899803516"><ele>204.0</ele><time>2026-03-29T11:00:33.999Z</time></trkpt><trkpt lat="44.696671662492264" lon="8.054638939598414"><ele>204.0</ele><time>2026-03-29T11:00:34.999Z</time></trkpt><trkpt lat="44.696733346732316" lon="8.054698617929981"><ele>204.0</ele><time>2026-03-29T11:00:35.999Z</time></trkpt><trkpt lat="44.69678637382981" lon="8.054759224008317"><ele>204.0</ele><time>2026-03-29T11:00:36.999Z</time></trkpt><trkpt lat="44.6968316895831" lon="8.054832914989314"><ele>204.0</ele><time>2026-03-29T11:00:37.999Z</time></trkpt><trkpt lat="44.696867269715675" lon="8.054916091380608"><ele>205.2</ele><time>2026-03-29T11:00:38.999Z</time></trkpt><trkpt lat="44.69690374502546" lon="8.055022801432262"><ele>206.39999999999998</ele><time>2026-03-29T11:00:39.999Z</time></trkpt><trkpt lat="44.69693207733072" lon="8.055113203153947"><ele>207.6</ele><time>2026-03-29T11:00:40.999Z</time></trkpt><trkpt lat="44.69696643546782" lon="8.055222649670107"><ele>208.8</ele><time>2026-03-29T11:00:42.999Z</time></trkpt><trkpt lat="44.69702226789683" lon="8.05536517909681"><ele>210.0</ele><time>2026-03-29T11:00:44.999Z</time></trkpt><trkpt lat="44.697080822329085" lon="8.055514611191178"><ele>205.33333333333331</ele><time>2026-03-29T11:00:45.999Z</time></trkpt><trkpt lat="44.697161890054204" lon="8.055726379086257"><ele>200.66666666666666</ele><time>2026-03-29T11:00:46.999Z</time></trkpt><trkpt lat="44.697258119773906" lon="8.05599487247248"><ele>196.0</ele><time>2026-03-29T11:00:47.999Z</time></trkpt><trkpt lat="44.697361633526384" lon="8.056313710072404"><ele>198.5</ele><time>2026-03-29T11:00:48.999Z</time></trkpt><trkpt lat="44.69744593200216" lon="8.056687478374666"><ele>201.0</ele><time>2026-03-29T11:00:49.999Z</time></trkpt><trkpt lat="44.697537114855734" lon="8.057006317762779"><ele>201.0</ele><time>2026-03-29T11:00:50.999Z</time></trkpt><trkpt lat="44.6976019887572" lon="8.05727790469164"><ele>201.0</ele><time>2026-03-29T11:00:51.999Z</time></trkpt><trkpt lat="44.69766874698291" lon="8.057510224890784"><ele>201.0</ele><time>2026-03-29T11:00:52.999Z</time></trkpt><trkpt lat="44.69773273453311" lon="8.05771727873366"><ele>199.33333333333334</ele><time>2026-03-29T11:00:53.999Z</time></trkpt><trkpt lat="44.697787192744755" lon="8.057887706148593"><ele>197.66666666666666</ele><time>2026-03-29T11:00:54.999Z</time></trkpt><trkpt lat="44.697827819426365" lon="8.058026413735112"><ele>196.0</ele><time>2026-03-29T11:00:55.999Z</time></trkpt><trkpt lat="44.69784865666327" lon="8.058121940756765"><ele>194.33333333333331</ele><time>2026-03-29T11:00:56.999Z</time></trkpt><trkpt lat="44.697862911420735" lon="8.058216994649042"><ele>192.66666666666666</ele><time>2026-03-29T11:00:59.999Z</time></trkpt><trkpt lat="44.697842812422444" lon="8.058130098765881"><ele>191.0</ele><time>2026-03-29T11:01:26.999Z</time></trkpt><trkpt lat="44.697828339421314" lon="8.058020439086771"><ele>191.0</ele><time>2026-03-29T11:01:34.999Z</time></trkpt><trkpt lat="44.6977941474123" lon="8.057884730804696"><ele>191.0</ele><time>2026-03-29T11:01:35.999Z</time></trkpt><trkpt lat="44.69775018160483" lon="8.0577137574398"><ele>191.0</ele><time>2026-03-29T11:01:36.999Z</time></trkpt><trkpt lat="44.69768793610541" lon="8.05750630307085"><ele>191.0</ele><time>2026-03-29T11:01:37.999Z</time></trkpt><trkpt lat="44.69760822016812" lon="8.057247532504778"><ele>196.0</ele><time>2026-03-29T11:01:38.999Z</time></trkpt><trkpt lat="44.69754337079372" lon="8.056940545155367"><ele>201.0</ele><time>2026-03-29T11:01:40Z</time></trkpt><trkpt lat="44.69746945176837" lon="8.056635041937529"><ele>199.33333333333331</ele><time>2026-03-29T11:01:41Z</time></trkpt><trkpt lat="44.697407387494856" lon="8.056357773287518"><ele>197.66666666666666</ele><time>2026-03-29T11:01:42Z</time></trkpt><trkpt lat="44.697318924983406" lon="8.056067413690736"><ele>196.0</ele><time>2026-03-29T11:01:43Z</time></trkpt><trkpt lat="44.69721137288151" lon="8.055782890785482"><ele>196.0</ele><time>2026-03-29T11:01:44Z</time></trkpt><trkpt lat="44.697115185692084" lon="8.05552097132697"><ele>196.0</ele><time>2026-03-29T11:01:45Z</time></trkpt><trkpt lat="44.69703479769128" lon="8.055290750794283"><ele>196.0</ele><time>2026-03-29T11:01:46Z</time></trkpt><trkpt lat="44.696966849897194" lon="8.055090021761123"><ele>198.0</ele><time>2026-03-29T11:01:47Z</time></trkpt><trkpt lat="44.696904999863904" lon="8.054916579736824"><ele>200.0</ele><time>2026-03-29T11:01:48Z</time></trkpt><trkpt lat="44.696842566613185" lon="8.054776725729216"><ele>202.0</ele><time>2026-03-29T11:01:49Z</time></trkpt><trkpt lat="44.69675678513834" lon="8.054683338816533"><ele>204.0</ele><time>2026-03-29T11:01:50Z</time></trkpt><trkpt lat="44.69666698532914" lon="8.054601016183106"><ele>204.0</ele><time>2026-03-29T11:01:51Z</time></trkpt><trkpt lat="44.6965697821159" lon="8.05450927541679"><ele>204.0</ele><time>2026-03-29T11:01:52Z</time></trkpt><trkpt lat="44.69647290418944" lon="8.054442112786381"><ele>204.0</ele><time>2026-03-29T11:01:53Z</time></trkpt><trkpt lat="44.696390024240884" lon="8.054387305083825"><ele>204.0</ele><time>2026-03-29T11:01:54Z</time></trkpt><trkpt lat="44.69632606017432" lon="8.054341870845015"><ele>204.0</ele><time>2026-03-29T11:01:55Z</time></trkpt><trkpt lat="44.69625442164056" lon="8.054285563426825"><ele>204.0</ele><time>2026-03-29T11:01:57Z</time></trkpt><trkpt lat="44.69619788576477" lon="8.054239884896747"><ele>204.0</ele><time>2026-03-29T11:02:01Z</time></trkpt><trkpt lat="44.69632896955663" lon="8.054215215336432"><ele>204.0</ele><time>2026-03-29T11:02:06Z</time></trkpt><trkpt lat="44.69644223350595" lon="8.054219356908314"><ele>204.0</ele><time>2026-03-29T11:02:07Z</time></trkpt><trkpt lat="44.696545059897225" lon="8.054262164539104"><ele>204.0</ele><time>2026-03-29T11:02:08Z</time></trkpt><trkpt lat="44.69666339753931" lon="8.054284795234564"><ele>204.0</ele><time>2026-03-29T11:02:09Z</time></trkpt><trkpt lat="44.69678868655896" lon="8.054300915996935"><ele>204.0</ele><time>2026-03-29T11:02:10Z</time></trkpt><trkpt lat="44.69692832695391" lon="8.05432670298233"><ele>204.0</ele><time>2026-03-29T11:02:11Z</time></trkpt><trkpt lat="44.69707711803246" lon="8.054360861984403"><ele>204.0</ele><time>2026-03-29T11:02:12Z</time></trkpt><trkpt lat="44.69720791971922" lon="8.054400009442444"><ele>203.5</ele><time>2026-03-29T11:02:13Z</time></trkpt><trkpt lat="44.69733488835583" lon="8.054460958406354"><ele>203.0</ele><time>2026-03-29T11:02:14Z</time></trkpt><trkpt lat="44.697457506011915" lon="8.054561605326846"><ele>202.5</ele><time>2026-03-29T11:02:15Z</time></trkpt><trkpt lat="44.697572196769" lon="8.054722661398454"><ele>202.0</ele><time>2026-03-29T11:02:16Z</time></trkpt><trkpt lat="44.69766825263077" lon="8.054949742804062"><ele>202.5</ele><time>2026-03-29T11:02:17Z</time></trkpt><trkpt lat="44.69778096702988" lon="8.055240726053169"><ele>203.0</ele><time>2026-03-29T11:02:18Z</time></trkpt><trkpt lat="44.69791327460617" lon="8.055590186668852"><ele>199.5</ele><time>2026-03-29T11:02:19Z</time></trkpt><trkpt lat="44.698075811697414" lon="8.055971107269562"><ele>196.0</ele><time>2026-03-29T11:02:20Z</time></trkpt><trkpt lat="44.698199358800366" lon="8.05635010933742"><ele>193.5</ele><time>2026-03-29T11:02:21Z</time></trkpt><trkpt lat="44.69835992118705" lon="8.056738546759528"><ele>191.0</ele><time>2026-03-29T11:02:22Z</time></trkpt><trkpt lat="44.69855335472851" lon="8.057154256370568"><ele>191.5</ele><time>2026-03-29T11:02:23Z</time></trkpt><trkpt lat="44.698759653370296" lon="8.057572285510018"><ele>192.0</ele><time>2026-03-29T11:02:24Z</time></trkpt><trkpt lat="44.698963808075156" lon="8.05799352681406"><ele>189.5</ele><time>2026-03-29T11:02:25Z</time></trkpt><trkpt lat="44.699150599938235" lon="8.05838109206045"><ele>187.0</ele><time>2026-03-29T11:02:26Z</time></trkpt><trkpt lat="44.699322427285516" lon="8.05873497645963"><ele>187.0</ele><time>2026-03-29T11:02:27Z</time></trkpt><trkpt lat="44.69948646975175" lon="8.059065300659718"><ele>187.0</ele><time>2026-03-29T11:02:28Z</time></trkpt><trkpt lat="44.69964081464745" lon="8.059371376857818"><ele>187.0</ele><time>2026-03-29T11:02:29Z</time></trkpt><trkpt lat="44.699778491777444" lon="8.059651143294916"><ele>187.0</ele><time>2026-03-29T11:02:30Z</time></trkpt><trkpt lat="44.69990904853067" lon="8.059924156139695"><ele>185.0</ele><time>2026-03-29T11:02:31Z</time></trkpt><trkpt lat="44.700031349129006" lon="8.060183547762275"><ele>183.0</ele><time>2026-03-29T11:02:32Z</time></trkpt><trkpt lat="44.70013671499318" lon="8.060398778336946"><ele>181.0</ele><time>2026-03-29T11:02:33Z</time></trkpt><trkpt lat="44.700232840657044" lon="8.060594364087532"><ele>180.66666666666669</ele><time>2026-03-29T11:02:34Z</time></trkpt><trkpt lat="44.70032062974423" lon="8.06077505439704"><ele>180.33333333333334</ele><time>2026-03-29T11:02:35Z</time></trkpt><trkpt lat="44.70039823004365" lon="8.06096434439934"><ele>180.0</ele><time>2026-03-29T11:02:36Z</time></trkpt><trkpt lat="44.700455914282365" lon="8.061168137995212"><ele>180.0</ele><time>2026-03-29T11:02:37Z</time></trkpt><trkpt lat="44.70049044750862" lon="8.06139645371845"><ele>180.0</ele><time>2026-03-29T11:02:37.999Z</time></trkpt><trkpt lat="44.7005077623651" lon="8.061626731363221"><ele>180.0</ele><time>2026-03-29T11:02:38.999Z</time></trkpt><trkpt lat="44.700518656982645" lon="8.061850040128332"><ele>178.25</ele><time>2026-03-29T11:02:39.999Z</time></trkpt><trkpt lat="44.70053688079195" lon="8.062064420461487"><ele>176.5</ele><time>2026-03-29T11:02:40.999Z</time></trkpt><trkpt lat="44.70054886266944" lon="8.062265999064307"><ele>174.75</ele><time>2026-03-29T11:02:41.999Z</time></trkpt><trkpt lat="44.70055873084322" lon="8.062463636438428"><ele>173.0</ele><time>2026-03-29T11:02:42.999Z</time></trkpt><trkpt lat="44.700570174112826" lon="8.062646400551008"><ele>172.0</ele><time>2026-03-29T11:02:43.999Z</time></trkpt><trkpt lat="44.70058667344742" lon="8.06283037604703"><ele>171.0</ele><time>2026-03-29T11:02:44.999Z</time></trkpt><trkpt lat="44.700633968105386" lon="8.06297519011576"><ele>170.0</ele><time>2026-03-29T11:02:45.999Z</time></trkpt><trkpt lat="44.700724312514076" lon="8.06309281220668"><ele>169.0</ele><time>2026-03-29T11:02:46.999Z</time></trkpt><trkpt lat="44.700858537037895" lon="8.063185114844968"><ele>169.0</ele><time>2026-03-29T11:02:47.999Z</time></trkpt><trkpt lat="44.701029153630905" lon="8.063263015599546"><ele>169.0</ele><time>2026-03-29T11:02:48.999Z</time></trkpt><trkpt lat="44.701234058790384" lon="8.063342918530086"><ele>169.0</ele><time>2026-03-29T11:02:49.999Z</time></trkpt><trkpt lat="44.70144922789559" lon="8.06344460740559"><ele>169.5</ele><time>2026-03-29T11:02:50.999Z</time></trkpt><trkpt lat="44.70167235304159" lon="8.063568138337036"><ele>170.0</ele><time>2026-03-29T11:02:51.999Z</time></trkpt><trkpt lat="44.70190321121123" lon="8.063693485755492"><ele>170.0</ele><time>2026-03-29T11:02:52.999Z</time></trkpt><trkpt lat="44.70214107760146" lon="8.063819324651375"><ele>170.0</ele><time>2026-03-29T11:02:53.999Z</time></trkpt><trkpt lat="44.70236748387095" lon="8.063973533549326"><ele>170.5</ele><time>2026-03-29T11:02:54.999Z</time></trkpt><trkpt lat="44.70258401029079" lon="8.064131399616995"><ele>171.0</ele><time>2026-03-29T11:02:55.999Z</time></trkpt><trkpt lat="44.70278624480121" lon="8.064261380449548"><ele>172.66666666666666</ele><time>2026-03-29T11:02:56.999Z</time></trkpt><trkpt lat="44.702959612731426" lon="8.064410419245805"><ele>174.33333333333331</ele><time>2026-03-29T11:02:57.999Z</time></trkpt><trkpt lat="44.70312498069619" lon="8.064536700995397"><ele>176.0</ele><time>2026-03-29T11:02:58.999Z</time></trkpt><trkpt lat="44.70328146172887" lon="8.064640317177572"><ele>176.0</ele><time>2026-03-29T11:02:59.999Z</time></trkpt><trkpt lat="44.70345215231074" lon="8.064699249693977"><ele>176.0</ele><time>2026-03-29T11:03:00.999Z</time></trkpt><trkpt lat="44.703649123519895" lon="8.064703615016471"><ele>176.0</ele><time>2026-03-29T11:03:01.999Z</time></trkpt><trkpt lat="44.703869071899646" lon="8.064664086583853"><ele>177.0</ele><time>2026-03-29T11:03:02.999Z</time></trkpt><trkpt lat="44.70409335562595" lon="8.06464816803903"><ele>178.0</ele><time>2026-03-29T11:03:03.999Z</time></trkpt><trkpt lat="44.704286360144756" lon="8.0646409722894"><ele>179.0</ele><time>2026-03-29T11:03:04.999Z</time></trkpt><trkpt lat="44.70444778157675" lon="8.064646302474086"><ele>179.0</ele><time>2026-03-29T11:03:05.999Z</time></trkpt><trkpt lat="44.70458193935313" lon="8.064684174435838"><ele>179.0</ele><time>2026-03-29T11:03:06.999Z</time></trkpt><trkpt lat="44.70469342340443" lon="8.064754967193938"><ele>179.0</ele><time>2026-03-29T11:03:07.999Z</time></trkpt><trkpt lat="44.704804030468985" lon="8.064883472214513"><ele>179.0</ele><time>2026-03-29T11:03:08.999Z</time></trkpt><trkpt lat="44.7049227960328" lon="8.065057288269442"><ele>181.66666666666666</ele><time>2026-03-29T11:03:09.999Z</time></trkpt><trkpt lat="44.705060725179045" lon="8.065241320619242"><ele>184.33333333333334</ele><time>2026-03-29T11:03:10.999Z</time></trkpt><trkpt lat="44.7052004346309" lon="8.065465788119221"><ele>187.0</ele><time>2026-03-29T11:03:11.999Z</time></trkpt><trkpt lat="44.70535408675385" lon="8.065689688010243"><ele>189.0</ele><time>2026-03-29T11:03:12.999Z</time></trkpt><trkpt lat="44.705490125619846" lon="8.065882630665717"><ele>191.0</ele><time>2026-03-29T11:03:13.999Z</time></trkpt><trkpt lat="44.705602921281574" lon="8.066036969231357"><ele>193.0</ele><time>2026-03-29T11:03:14.999Z</time></trkpt><trkpt lat="44.7057044489608" lon="8.066146695849815"><ele>193.0</ele><time>2026-03-29T11:03:15.999Z</time></trkpt><trkpt lat="44.70581272598681" lon="8.066202047173116"><ele>193.0</ele><time>2026-03-29T11:03:16.999Z</time></trkpt><trkpt lat="44.705928253817135" lon="8.066212762658905"><ele>193.0</ele><time>2026-03-29T11:03:17.999Z</time></trkpt><trkpt lat="44.70605035646712" lon="8.066149447026879"><ele>193.0</ele><time>2026-03-29T11:03:18.999Z</time></trkpt><trkpt lat="44.7061463317261" lon="8.066007440295575"><ele>197.33333333333331</ele><time>2026-03-29T11:03:19.999Z</time></trkpt><trkpt lat="44.706173116420125" lon="8.065800047811397"><ele>201.66666666666669</ele><time>2026-03-29T11:03:20.999Z</time></trkpt><trkpt lat="44.70619177543706" lon="8.065571386559487"><ele>206.0</ele><time>2026-03-29T11:03:21.999Z</time></trkpt><trkpt lat="44.70619749647239" lon="8.065298865310652"><ele>206.0</ele><time>2026-03-29T11:03:22.999Z</time></trkpt><trkpt lat="44.70618393576908" lon="8.064989758981218"><ele>206.0</ele><time>2026-03-29T11:03:23.999Z</time></trkpt><trkpt lat="44.70619719363463" lon="8.06474410790937"><ele>206.0</ele><time>2026-03-29T11:03:24.999Z</time></trkpt><trkpt lat="44.70620983895335" lon="8.06456114264284"><ele>203.8</ele><time>2026-03-29T11:03:25.999Z</time></trkpt><trkpt lat="44.70623878937842" lon="8.064419198984103"><ele>201.60000000000002</ele><time>2026-03-29T11:03:26.999Z</time></trkpt><trkpt lat="44.7062969140289" lon="8.06429707820561"><ele>199.4</ele><time>2026-03-29T11:03:27.999Z</time></trkpt><trkpt lat="44.70638933308503" lon="8.064215034953376"><ele>197.2</ele><time>2026-03-29T11:03:28.999Z</time></trkpt><trkpt lat="44.70648996344436" lon="8.064181442308964"><ele>195.0</ele><time>2026-03-29T11:03:29.999Z</time></trkpt><trkpt lat="44.706582540274525" lon="8.064218686128882"><ele>195.0</ele><time>2026-03-29T11:03:30.999Z</time></trkpt><trkpt lat="44.706655305355405" lon="8.064284420103096"><ele>195.0</ele><time>2026-03-29T11:03:31.999Z</time></trkpt><trkpt lat="44.70670413903647" lon="8.064402311616877"><ele>195.0</ele><time>2026-03-29T11:03:32.999Z</time></trkpt><trkpt lat="44.70677252978323" lon="8.064537970499726"><ele>195.0</ele><time>2026-03-29T11:03:33.999Z</time></trkpt><trkpt lat="44.70687090015238" lon="8.064681414528724"><ele>195.0</ele><time>2026-03-29T11:03:34.999Z</time></trkpt><trkpt lat="44.70702712851262" lon="8.064777351114"><ele>195.66666666666669</ele><time>2026-03-29T11:03:35.999Z</time></trkpt><trkpt lat="44.70722320579181" lon="8.064851051479314"><ele>196.33333333333334</ele><time>2026-03-29T11:03:36.999Z</time></trkpt><trkpt lat="44.70746353417551" lon="8.064889770044584"><ele>197.0</ele><time>2026-03-29T11:03:37.999Z</time></trkpt><trkpt lat="44.70770300605046" lon="8.064960253311378"><ele>201.0</ele><time>2026-03-29T11:03:38.999Z</time></trkpt><trkpt lat="44.70791186953864" lon="8.064999870673422"><ele>205.0</ele><time>2026-03-29T11:03:39.999Z</time></trkpt><trkpt lat="44.708068163629875" lon="8.065039866509405"><ele>209.0</ele><time>2026-03-29T11:03:40.999Z</time></trkpt><trkpt lat="44.70822737824561" lon="8.06510844568796"><ele>209.0</ele><time>2026-03-29T11:03:41.999Z</time></trkpt><trkpt lat="44.70834895983242" lon="8.065222025442111"><ele>209.0</ele><time>2026-03-29T11:03:42.999Z</time></trkpt><trkpt lat="44.70846262049288" lon="8.065288942572874"><ele>209.0</ele><time>2026-03-29T11:03:43.999Z</time></trkpt><trkpt lat="44.70857281386057" lon="8.065357530059087"><ele>209.0</ele><time>2026-03-29T11:03:44.999Z</time></trkpt><trkpt lat="44.70871867677596" lon="8.065359262935077"><ele>212.75</ele><time>2026-03-29T11:03:46Z</time></trkpt><trkpt lat="44.70885339211204" lon="8.065337407696363"><ele>216.5</ele><time>2026-03-29T11:03:47Z</time></trkpt><trkpt lat="44.708963210043294" lon="8.065306303089999"><ele>220.25</ele><time>2026-03-29T11:03:48Z</time></trkpt><trkpt lat="44.70905419177093" lon="8.06520002101637"><ele>224.0</ele><time>2026-03-29T11:03:49Z</time></trkpt><trkpt lat="44.709078833265536" lon="8.064975376585343"><ele>222.33333333333334</ele><time>2026-03-29T11:03:50Z</time></trkpt><trkpt lat="44.709100970708285" lon="8.064754248002137"><ele>220.66666666666669</ele><time>2026-03-29T11:03:51Z</time></trkpt><trkpt lat="44.7091200079202" lon="8.06451603133119"><ele>219.0</ele><time>2026-03-29T11:03:52Z</time></trkpt><trkpt lat="44.7091391316101" lon="8.06426836117157"><ele>218.0</ele><time>2026-03-29T11:03:53Z</time></trkpt><trkpt lat="44.70916839507274" lon="8.064037791921603"><ele>217.0</ele><time>2026-03-29T11:03:54Z</time></trkpt><trkpt lat="44.70920993295911" lon="8.063811421331906"><ele>216.0</ele><time>2026-03-29T11:03:55Z</time></trkpt><trkpt lat="44.70925438347009" lon="8.063569240394422"><ele>216.0</ele><time>2026-03-29T11:03:56Z</time></trkpt><trkpt lat="44.709288825416074" lon="8.06333954207529"><ele>216.0</ele><time>2026-03-29T11:03:57Z</time></trkpt><trkpt lat="44.70931210008634" lon="8.063136731553566"><ele>216.0</ele><time>2026-03-29T11:03:58Z</time></trkpt><trkpt lat="44.7093233600997" lon="8.062964762809887"><ele>216.0</ele><time>2026-03-29T11:03:59Z</time></trkpt><trkpt lat="44.70934032307877" lon="8.062816665293186"><ele>215.60000000000002</ele><time>2026-03-29T11:04:00Z</time></trkpt><trkpt lat="44.70937483982425" lon="8.062693637786715"><ele>215.20000000000002</ele><time>2026-03-29T11:04:01Z</time></trkpt><trkpt lat="44.709464392887504" lon="8.062624891429145"><ele>214.79999999999998</ele><time>2026-03-29T11:04:02Z</time></trkpt><trkpt lat="44.70955944397393" lon="8.062569114282324"><ele>214.39999999999998</ele><time>2026-03-29T11:04:03Z</time></trkpt><trkpt lat="44.70967914287076" lon="8.062536336212766"><ele>214.0</ele><time>2026-03-29T11:04:04Z</time></trkpt><trkpt lat="44.70980362646606" lon="8.06250520245107"><ele>215.83333333333331</ele><time>2026-03-29T11:04:05Z</time></trkpt><trkpt lat="44.709892596992866" lon="8.062573302868172"><ele>217.66666666666666</ele><time>2026-03-29T11:04:06Z</time></trkpt><trkpt lat="44.70994776845397" lon="8.062643043448512"><ele>219.5</ele><time>2026-03-29T11:04:07Z</time></trkpt><trkpt lat="44.70999460136609" lon="8.062739839773947"><ele>221.33333333333331</ele><time>2026-03-29T11:04:08Z</time></trkpt><trkpt lat="44.7100036967303" lon="8.062876874801244"><ele>223.16666666666666</ele><time>2026-03-29T11:04:09Z</time></trkpt><trkpt lat="44.70997286622133" lon="8.062997311698519"><ele>225.0</ele><time>2026-03-29T11:04:10Z</time></trkpt><trkpt lat="44.709906936398276" lon="8.063104629306029"><ele>225.0</ele><time>2026-03-29T11:04:11Z</time></trkpt><trkpt lat="44.70981002171835" lon="8.063209027509043"><ele>225.0</ele><time>2026-03-29T11:04:12Z</time></trkpt><trkpt lat="44.70968883960636" lon="8.063339002760607"><ele>225.0</ele><time>2026-03-29T11:04:13Z</time></trkpt><trkpt lat="44.709590146688164" lon="8.063460574706959"><ele>225.0</ele><time>2026-03-29T11:04:14Z</time></trkpt><trkpt lat="44.70952524101754" lon="8.06357883779575"><ele>227.5</ele><time>2026-03-29T11:04:15Z</time></trkpt><trkpt lat="44.709493059478845" lon="8.063712463175472"><ele>230.0</ele><time>2026-03-29T11:04:16Z</time></trkpt><trkpt lat="44.70948030559187" lon="8.063888893468466"><ele>232.5</ele><time>2026-03-29T11:04:17Z</time></trkpt><trkpt lat="44.70949168450761" lon="8.064108506083121"><ele>235.0</ele><time>2026-03-29T11:04:18Z</time></trkpt><trkpt lat="44.709522246260384" lon="8.064383958997391"><ele>236.33333333333331</ele><time>2026-03-29T11:04:19Z</time></trkpt><trkpt lat="44.70954406574263" lon="8.064677582710324"><ele>237.66666666666669</ele><time>2026-03-29T11:04:20Z</time></trkpt><trkpt lat="44.709559952764124" lon="8.06497003095311"><ele>239.0</ele><time>2026-03-29T11:04:21Z</time></trkpt><trkpt lat="44.709571154864406" lon="8.065229058622524"><ele>241.33333333333334</ele><time>2026-03-29T11:04:22Z</time></trkpt><trkpt lat="44.709575825389024" lon="8.065466630504043"><ele>243.66666666666669</ele><time>2026-03-29T11:04:23Z</time></trkpt><trkpt lat="44.70955199379094" lon="8.06569838392465"><ele>246.0</ele><time>2026-03-29T11:04:24Z</time></trkpt><trkpt lat="44.709480066666025" lon="8.065935021708171"><ele>246.66666666666669</ele><time>2026-03-29T11:04:25Z</time></trkpt><trkpt lat="44.709389292505215" lon="8.06619523251613"><ele>247.33333333333334</ele><time>2026-03-29T11:04:26Z</time></trkpt><trkpt lat="44.709309234513846" lon="8.066465811385488"><ele>248.0</ele><time>2026-03-29T11:04:27Z</time></trkpt><trkpt lat="44.70923798828398" lon="8.06670787574546"><ele>248.0</ele><time>2026-03-29T11:04:28Z</time></trkpt><trkpt lat="44.70914740863251" lon="8.066909666810686"><ele>248.0</ele><time>2026-03-29T11:04:29Z</time></trkpt><trkpt lat="44.70899493948665" lon="8.06706437686373"><ele>248.0</ele><time>2026-03-29T11:04:30Z</time></trkpt><trkpt lat="44.70882159415368" lon="8.067233620214049"><ele>248.0</ele><time>2026-03-29T11:04:31Z</time></trkpt><trkpt lat="44.70861325534434" lon="8.067365447931598"><ele>248.0</ele><time>2026-03-29T11:04:32Z</time></trkpt><trkpt lat="44.708412786401084" lon="8.067485016838214"><ele>248.0</ele><time>2026-03-29T11:04:33Z</time></trkpt><trkpt lat="44.708239033574856" lon="8.06755922506972"><ele>248.25</ele><time>2026-03-29T11:04:34Z</time></trkpt><trkpt lat="44.70807946684659" lon="8.067574752156633"><ele>248.5</ele><time>2026-03-29T11:04:35Z</time></trkpt><trkpt lat="44.7079357159968" lon="8.067552827197447"><ele>248.75</ele><time>2026-03-29T11:04:36Z</time></trkpt><trkpt lat="44.707815524574876" lon="8.067535306210909"><ele>249.0</ele><time>2026-03-29T11:04:37Z</time></trkpt><trkpt lat="44.7077049921157" lon="8.067575696296814"><ele>249.0</ele><time>2026-03-29T11:04:38Z</time></trkpt><trkpt lat="44.70759487442298" lon="8.067683496791098"><ele>249.0</ele><time>2026-03-29T11:04:39Z</time></trkpt><trkpt lat="44.70751116472279" lon="8.067843425141946"><ele>249.0</ele><time>2026-03-29T11:04:40Z</time></trkpt><trkpt lat="44.70745185143803" lon="8.068063268064137"><ele>249.0</ele><time>2026-03-29T11:04:41Z</time></trkpt><trkpt lat="44.70740389478575" lon="8.06833766578305"><ele>255.0</ele><time>2026-03-29T11:04:42Z</time></trkpt><trkpt lat="44.7073434209678" lon="8.068655958295292"><ele>261.0</ele><time>2026-03-29T11:04:43Z</time></trkpt><trkpt lat="44.70727218749688" lon="8.068969131837624"><ele>264.6666666666667</ele><time>2026-03-29T11:04:43.999Z</time></trkpt><trkpt lat="44.70720964748522" lon="8.069236229450985"><ele>268.33333333333337</ele><time>2026-03-29T11:04:44.999Z</time></trkpt><trkpt lat="44.70711333618849" lon="8.069465485202041"><ele>272.0</ele><time>2026-03-29T11:04:45.999Z</time></trkpt><trkpt lat="44.70699842211783" lon="8.06968472559624"><ele>272.0</ele><time>2026-03-29T11:04:46.999Z</time></trkpt><trkpt lat="44.706871225452616" lon="8.069904124972613"><ele>272.0</ele><time>2026-03-29T11:04:47.999Z</time></trkpt><trkpt lat="44.706706524410706" lon="8.070063720043965"><ele>272.0</ele><time>2026-03-29T11:04:48.999Z</time></trkpt><trkpt lat="44.70651661192498" lon="8.070147426938387"><ele>272.0</ele><time>2026-03-29T11:04:49.999Z</time></trkpt><trkpt lat="44.7063405090637" lon="8.070238637696258"><ele>272.0</ele><time>2026-03-29T11:04:50.999Z</time></trkpt><trkpt lat="44.70617997216527" lon="8.070306274660801"><ele>272.0</ele><time>2026-03-29T11:04:51.999Z</time></trkpt><trkpt lat="44.70604456517237" lon="8.070372309617243"><ele>272.75</ele><time>2026-03-29T11:04:52.999Z</time></trkpt><trkpt lat="44.70593210568042" lon="8.070448298950136"><ele>273.5</ele><time>2026-03-29T11:04:53.999Z</time></trkpt><trkpt lat="44.705843979452084" lon="8.07055944222662"><ele>274.25</ele><time>2026-03-29T11:04:54.999Z</time></trkpt><trkpt lat="44.70578913232024" lon="8.070728055406693"><ele>275.0</ele><time>2026-03-29T11:04:55.999Z</time></trkpt><trkpt lat="44.70577784165921" lon="8.070923480081689"><ele>275.0</ele><time>2026-03-29T11:04:56.999Z</time></trkpt><trkpt lat="44.70580619283865" lon="8.071152304645299"><ele>275.0</ele><time>2026-03-29T11:04:57.999Z</time></trkpt><trkpt lat="44.705849916870264" lon="8.071417531159394"><ele>275.0</ele><time>2026-03-29T11:04:58.999Z</time></trkpt><trkpt lat="44.705865079871536" lon="8.07170605414518"><ele>276.0</ele><time>2026-03-29T11:04:59.999Z</time></trkpt><trkpt lat="44.705810408538746" lon="8.07199145008651"><ele>277.0</ele><time>2026-03-29T11:05:00.999Z</time></trkpt><trkpt lat="44.705759226637966" lon="8.07230661611572"><ele>278.0</ele><time>2026-03-29T11:05:01.999Z</time></trkpt><trkpt lat="44.70569016056255" lon="8.072634287756664"><ele>279.5</ele><time>2026-03-29T11:05:02.999Z</time></trkpt><trkpt lat="44.70564884739882" lon="8.072992042400902"><ele>281.0</ele><time>2026-03-29T11:05:03.999Z</time></trkpt><trkpt lat="44.70564179998018" lon="8.073380170682947"><ele>281.5</ele><time>2026-03-29T11:05:04.999Z</time></trkpt><trkpt lat="44.705647881413995" lon="8.073737179214422"><ele>282.0</ele><time>2026-03-29T11:05:05.999Z</time></trkpt><trkpt lat="44.70565119807559" lon="8.074051145637727"><ele>283.0</ele><time>2026-03-29T11:05:06.999Z</time></trkpt><trkpt lat="44.70564617558886" lon="8.074338985598862"><ele>284.0</ele><time>2026-03-29T11:05:07.999Z</time></trkpt><trkpt lat="44.70563058430446" lon="8.074600484785334"><ele>285.0</ele><time>2026-03-29T11:05:08.999Z</time></trkpt><trkpt lat="44.70559957194441" lon="8.074848375997647"><ele>285.6666666666667</ele><time>2026-03-29T11:05:09.999Z</time></trkpt><trkpt lat="44.7055447462137" lon="8.075101240365498"><ele>286.33333333333337</ele><time>2026-03-29T11:05:10.999Z</time></trkpt><trkpt lat="44.70547894564385" lon="8.075356301669807"><ele>287.0</ele><time>2026-03-29T11:05:11.999Z</time></trkpt><trkpt lat="44.70541684804826" lon="8.075614377774157"><ele>286.6666666666667</ele><time>2026-03-29T11:05:12.999Z</time></trkpt><trkpt lat="44.70536544946338" lon="8.075847757305537"><ele>286.3333333333333</ele><time>2026-03-29T11:05:13.999Z</time></trkpt><trkpt lat="44.705311756302905" lon="8.076057774484969"><ele>286.0</ele><time>2026-03-29T11:05:14.999Z</time></trkpt><trkpt lat="44.70524616993352" lon="8.076263370844977"><ele>291.3333333333333</ele><time>2026-03-29T11:05:15.999Z</time></trkpt><trkpt lat="44.70515373319147" lon="8.076448863037688"><ele>296.6666666666667</ele><time>2026-03-29T11:05:16.999Z</time></trkpt><trkpt lat="44.70505516102712" lon="8.07662419957843"><ele>302.0</ele><time>2026-03-29T11:05:17.999Z</time></trkpt><trkpt lat="44.70497634104888" lon="8.076847785721494"><ele>302.33333333333337</ele><time>2026-03-29T11:05:18.999Z</time></trkpt><trkpt lat="44.70494885878241" lon="8.077098471353292"><ele>302.6666666666667</ele><time>2026-03-29T11:05:19.999Z</time></trkpt><trkpt lat="44.70495513084769" lon="8.077378850857484"><ele>303.0</ele><time>2026-03-29T11:05:20.999Z</time></trkpt><trkpt lat="44.70497674177376" lon="8.077686939034342"><ele>303.0</ele><time>2026-03-29T11:05:21.999Z</time></trkpt><trkpt lat="44.70499090588456" lon="8.077998724046079"><ele>303.0</ele><time>2026-03-29T11:05:22.999Z</time></trkpt><trkpt lat="44.70499441171478" lon="8.078291784529714"><ele>303.0</ele><time>2026-03-29T11:05:23.999Z</time></trkpt><trkpt lat="44.704975205920235" lon="8.078527790623083"><ele>303.5</ele><time>2026-03-29T11:05:24.999Z</time></trkpt><trkpt lat="44.70492065260166" lon="8.078698910874586"><ele>304.0</ele><time>2026-03-29T11:05:25.999Z</time></trkpt><trkpt lat="44.704834184318145" lon="8.078853574557593"><ele>304.5</ele><time>2026-03-29T11:05:26.999Z</time></trkpt><trkpt lat="44.70474163057861" lon="8.079015277275202"><ele>305.0</ele><time>2026-03-29T11:05:27.999Z</time></trkpt><trkpt lat="44.70464964611631" lon="8.07919352399269"><ele>303.0</ele><time>2026-03-29T11:05:28.999Z</time></trkpt><trkpt lat="44.70455454339466" lon="8.07937431471445"><ele>301.0</ele><time>2026-03-29T11:05:29.999Z</time></trkpt><trkpt lat="44.70446490847096" lon="8.079555300034484"><ele>299.0</ele><time>2026-03-29T11:05:30.999Z</time></trkpt><trkpt lat="44.70438204312368" lon="8.079716975551758"><ele>303.25</ele><time>2026-03-29T11:05:31.999Z</time></trkpt><trkpt lat="44.70430374836556" lon="8.07986976552778"><ele>307.5</ele><time>2026-03-29T11:05:32.999Z</time></trkpt><trkpt lat="44.704233967046726" lon="8.080020031360093"><ele>311.75</ele><time>2026-03-29T11:05:33.999Z</time></trkpt><trkpt lat="44.704166288410704" lon="8.08018808030644"><ele>316.0</ele><time>2026-03-29T11:05:34.999Z</time></trkpt><trkpt lat="44.704110253330064" lon="8.08039307709269"><ele>316.0</ele><time>2026-03-29T11:05:35.999Z</time></trkpt><trkpt lat="44.70409503383315" lon="8.080608685396745"><ele>316.0</ele><time>2026-03-29T11:05:36.999Z</time></trkpt><trkpt lat="44.704135074106546" lon="8.080836821642627"><ele>316.0</ele><time>2026-03-29T11:05:37.999Z</time></trkpt><trkpt lat="44.704208679678906" lon="8.08104120665117"><ele>317.0</ele><time>2026-03-29T11:05:38.999Z</time></trkpt><trkpt lat="44.70431613993414" lon="8.081210477544227"><ele>318.0</ele><time>2026-03-29T11:05:39.999Z</time></trkpt><trkpt lat="44.70442183397304" lon="8.08137756863156"><ele>319.0</ele><time>2026-03-29T11:05:40.999Z</time></trkpt><trkpt lat="44.704543090424714" lon="8.081610206950996"><ele>315.3333333333333</ele><time>2026-03-29T11:05:41.999Z</time></trkpt><trkpt lat="44.70468469655065" lon="8.081835329452197"><ele>311.6666666666667</ele><time>2026-03-29T11:05:42.999Z</time></trkpt><trkpt lat="44.704807130564326" lon="8.082033558373476"><ele>308.0</ele><time>2026-03-29T11:05:43.999Z</time></trkpt><trkpt lat="44.70492091597923" lon="8.082215862230232"><ele>308.0</ele><time>2026-03-29T11:05:44.999Z</time></trkpt><trkpt lat="44.705038540628536" lon="8.08240020644666"><ele>308.0</ele><time>2026-03-29T11:05:45.999Z</time></trkpt><trkpt lat="44.7051669676073" lon="8.082602782878336"><ele>308.0</ele><time>2026-03-29T11:05:46.999Z</time></trkpt><trkpt lat="44.70529972336033" lon="8.08281577756381"><ele>308.33333333333337</ele><time>2026-03-29T11:05:47.999Z</time></trkpt><trkpt lat="44.70541682210271" lon="8.083013905961966"><ele>308.6666666666667</ele><time>2026-03-29T11:05:48.999Z</time></trkpt><trkpt lat="44.70552257082622" lon="8.083192943843299"><ele>309.0</ele><time>2026-03-29T11:05:49.999Z</time></trkpt><trkpt lat="44.705620112856366" lon="8.08335723032178"><ele>311.6666666666667</ele><time>2026-03-29T11:05:51Z</time></trkpt><trkpt lat="44.705706347245126" lon="8.083519180785794"><ele>314.33333333333337</ele><time>2026-03-29T11:05:52Z</time></trkpt><trkpt lat="44.70578632039486" lon="8.083720985640937"><ele>317.0</ele><time>2026-03-29T11:05:53Z</time></trkpt><trkpt lat="44.70587458847491" lon="8.08396575578305"><ele>318.5</ele><time>2026-03-29T11:05:54Z</time></trkpt><trkpt lat="44.70597638988507" lon="8.08425344734509"><ele>320.0</ele><time>2026-03-29T11:05:55Z</time></trkpt><trkpt lat="44.706092695191806" lon="8.084565203904285"><ele>316.33333333333337</ele><time>2026-03-29T11:05:56Z</time></trkpt><trkpt lat="44.70619718363128" lon="8.084846861508488"><ele>312.6666666666667</ele><time>2026-03-29T11:05:57Z</time></trkpt><trkpt lat="44.70629033255664" lon="8.0850979036154"><ele>309.0</ele><time>2026-03-29T11:05:58Z</time></trkpt><trkpt lat="44.70636911248891" lon="8.08532718601936"><ele>309.0</ele><time>2026-03-29T11:05:59Z</time></trkpt><trkpt lat="44.7064462000435" lon="8.08554161766419"><ele>309.0</ele><time>2026-03-29T11:06:00Z</time></trkpt><trkpt lat="44.706525588494614" lon="8.085739778141411"><ele>309.0</ele><time>2026-03-29T11:06:01Z</time></trkpt><trkpt lat="44.706613996206556" lon="8.085909591654172"><ele>307.75</ele><time>2026-03-29T11:06:02Z</time></trkpt><trkpt lat="44.70671238716817" lon="8.086062030844136"><ele>306.5</ele><time>2026-03-29T11:06:03Z</time></trkpt><trkpt lat="44.706824233626186" lon="8.086186888433227"><ele>305.25</ele><time>2026-03-29T11:06:04Z</time></trkpt><trkpt lat="44.706915385206095" lon="8.086330321993364"><ele>304.0</ele><time>2026-03-29T11:06:05Z</time></trkpt><trkpt lat="44.70700554701975" lon="8.086454415373606"><ele>304.0</ele><time>2026-03-29T11:06:06Z</time></trkpt><trkpt lat="44.707098387453804" lon="8.086557244907953"><ele>304.0</ele><time>2026-03-29T11:06:07Z</time></trkpt><trkpt lat="44.707169157707305" lon="8.08667060942257"><ele>304.0</ele><time>2026-03-29T11:06:08Z</time></trkpt><trkpt lat="44.70722945693049" lon="8.086764242425733"><ele>304.0</ele><time>2026-03-29T11:06:09Z</time></trkpt><trkpt lat="44.70728192645399" lon="8.086844221324464"><ele>304.0</ele><time>2026-03-29T11:06:10Z</time></trkpt><trkpt lat="44.70731713422848" lon="8.08691917893663"><ele>306.59999999999997</ele><time>2026-03-29T11:06:11Z</time></trkpt><trkpt lat="44.70734707267284" lon="8.087056273237865"><ele>309.2</ele><time>2026-03-29T11:06:13Z</time></trkpt><trkpt lat="44.707369502306946" lon="8.087141520456871"><ele>311.79999999999995</ele><time>2026-03-29T11:06:16Z</time></trkpt><trkpt lat="44.70742748515916" lon="8.08699382502133"><ele>314.4</ele><time>2026-03-29T11:06:23Z</time></trkpt><trkpt lat="44.70733046379293" lon="8.086892714844982"><ele>317.0</ele><time>2026-03-29T11:06:25Z</time></trkpt><trkpt lat="44.70727248414414" lon="8.08680632329409"><ele>317.0</ele><time>2026-03-29T11:06:26Z</time></trkpt><trkpt lat="44.70720084344018" lon="8.086680557179491"><ele>317.0</ele><time>2026-03-29T11:06:27Z</time></trkpt><trkpt lat="44.70710363087318" lon="8.086529975765336"><ele>317.0</ele><time>2026-03-29T11:06:28Z</time></trkpt><trkpt lat="44.70698205248913" lon="8.086360911136703"><ele>317.0</ele><time>2026-03-29T11:06:29Z</time></trkpt><trkpt lat="44.70684555102235" lon="8.08617609811095"><ele>317.33333333333337</ele><time>2026-03-29T11:06:30Z</time></trkpt><trkpt lat="44.70672127959472" lon="8.086002258231625"><ele>317.6666666666667</ele><time>2026-03-29T11:06:31Z</time></trkpt><trkpt lat="44.70661216326086" lon="8.085842701115041"><ele>318.0</ele><time>2026-03-29T11:06:32Z</time></trkpt><trkpt lat="44.70651483991202" lon="8.085674001266526"><ele>315.0</ele><time>2026-03-29T11:06:33Z</time></trkpt><trkpt lat="44.706438933716115" lon="8.08544198376909"><ele>312.0</ele><time>2026-03-29T11:06:34Z</time></trkpt><trkpt lat="44.706334762780365" lon="8.085200794135929"><ele>309.0</ele><time>2026-03-29T11:06:35Z</time></trkpt><trkpt lat="44.706263279589045" lon="8.084970714902761"><ele>307.59999999999997</ele><time>2026-03-29T11:06:36Z</time></trkpt><trkpt lat="44.70620520815473" lon="8.084779499780645"><ele>306.2</ele><time>2026-03-29T11:06:37Z</time></trkpt><trkpt lat="44.7061523216934" lon="8.084623005007309"><ele>304.79999999999995</ele><time>2026-03-29T11:06:38Z</time></trkpt><trkpt lat="44.706110622041614" lon="8.084505373427781"><ele>303.4</ele><time>2026-03-29T11:06:39Z</time></trkpt><trkpt lat="44.70607592518359" lon="8.084405347929977"><ele>302.0</ele><time>2026-03-29T11:06:40Z</time></trkpt><trkpt lat="44.70604694624447" lon="8.08432498354822"><ele>305.6</ele><time>2026-03-29T11:06:41Z</time></trkpt><trkpt lat="44.70600460312961" lon="8.084203465957192"><ele>309.2</ele><time>2026-03-29T11:06:43Z</time></trkpt><trkpt lat="44.705880820577796" lon="8.08427761983292"><ele>312.8</ele><time>2026-03-29T11:06:46.999Z</time></trkpt><trkpt lat="44.70587071497999" lon="8.08438405849201"><ele>316.4</ele><time>2026-03-29T11:06:47.999Z</time></trkpt><trkpt lat="44.70586306774698" lon="8.084533539406557"><ele>320.0</ele><time>2026-03-29T11:06:48.999Z</time></trkpt><trkpt lat="44.70583133934753" lon="8.084669902448905"><ele>320.0</ele><time>2026-03-29T11:06:49.999Z</time></trkpt><trkpt lat="44.705777865157515" lon="8.084787868502183"><ele>320.0</ele><time>2026-03-29T11:06:50.999Z</time></trkpt><trkpt lat="44.70570113784139" lon="8.084891550242727"><ele>320.0</ele><time>2026-03-29T11:06:51.999Z</time></trkpt><trkpt lat="44.70559085399112" lon="8.084977248167206"><ele>320.0</ele><time>2026-03-29T11:06:52.999Z</time></trkpt><trkpt lat="44.70545261374988" lon="8.085015008563584"><ele>320.0</ele><time>2026-03-29T11:06:53.999Z</time></trkpt><trkpt lat="44.70531921890316" lon="8.085050180239728"><ele>320.0</ele><time>2026-03-29T11:06:54.999Z</time></trkpt><trkpt lat="44.7052151137914" lon="8.085129570375495"><ele>320.0</ele><time>2026-03-29T11:06:55.999Z</time></trkpt><trkpt lat="44.705142786866034" lon="8.085262932372208"><ele>320.0</ele><time>2026-03-29T11:06:56.999Z</time></trkpt><trkpt lat="44.705110002045394" lon="8.085422550092359"><ele>320.0</ele><time>2026-03-29T11:06:57.999Z</time></trkpt><trkpt lat="44.70512490354559" lon="8.085592662884773"><ele>320.0</ele><time>2026-03-29T11:06:58.999Z</time></trkpt><trkpt lat="44.70518628349244" lon="8.085745588331749"><ele>320.0</ele><time>2026-03-29T11:06:59.999Z</time></trkpt><trkpt lat="44.70526476705653" lon="8.085885326603416"><ele>320.0</ele><time>2026-03-29T11:07:00.999Z</time></trkpt><trkpt lat="44.705405285054745" lon="8.08596200276297"><ele>317.25</ele><time>2026-03-29T11:07:01.999Z</time></trkpt><trkpt lat="44.70555322096752" lon="8.085954497377559"><ele>314.5</ele><time>2026-03-29T11:07:02.999Z</time></trkpt><trkpt lat="44.70567836310369" lon="8.085851482143251"><ele>311.75</ele><time>2026-03-29T11:07:03.999Z</time></trkpt><trkpt lat="44.70579666305798" lon="8.085817832476119"><ele>309.0</ele><time>2026-03-29T11:07:04.999Z</time></trkpt><trkpt lat="44.70591073328436" lon="8.085842241888706"><ele>309.0</ele><time>2026-03-29T11:07:05.999Z</time></trkpt><trkpt lat="44.706011889495606" lon="8.085942936614485"><ele>309.0</ele><time>2026-03-29T11:07:06.999Z</time></trkpt><trkpt lat="44.706065134267526" lon="8.08612882856094"><ele>309.0</ele><time>2026-03-29T11:07:07.999Z</time></trkpt><trkpt lat="44.70614549743296" lon="8.086345587034673"><ele>309.0</ele><time>2026-03-29T11:07:08.999Z</time></trkpt><trkpt lat="44.70624753611018" lon="8.086615846557772"><ele>312.0</ele><time>2026-03-29T11:07:09.999Z</time></trkpt><trkpt lat="44.70633156398006" lon="8.086922192166773"><ele>315.0</ele><time>2026-03-29T11:07:10.999Z</time></trkpt><trkpt lat="44.706390688264314" lon="8.08721583838537"><ele>312.3333333333333</ele><time>2026-03-29T11:07:11.999Z</time></trkpt><trkpt lat="44.70642357538505" lon="8.087490529076048"><ele>309.66666666666663</ele><time>2026-03-29T11:07:12.999Z</time></trkpt><trkpt lat="44.70640228173061" lon="8.087759510600502"><ele>307.0</ele><time>2026-03-29T11:07:13.999Z</time></trkpt><trkpt lat="44.706369829165084" lon="8.088011970841675"><ele>307.0</ele><time>2026-03-29T11:07:14.999Z</time></trkpt><trkpt lat="44.706367362162055" lon="8.088257506884144"><ele>307.0</ele><time>2026-03-29T11:07:15.999Z</time></trkpt><trkpt lat="44.706394737361286" lon="8.088514804496096"><ele>307.0</ele><time>2026-03-29T11:07:16.999Z</time></trkpt><trkpt lat="44.70646786123805" lon="8.088778141690135"><ele>305.5</ele><time>2026-03-29T11:07:17.999Z</time></trkpt><trkpt lat="44.70657950478481" lon="8.089056557930482"><ele>304.0</ele><time>2026-03-29T11:07:18.999Z</time></trkpt><trkpt lat="44.706717642427684" lon="8.089339716765334"><ele>310.0</ele><time>2026-03-29T11:07:19.999Z</time></trkpt><trkpt lat="44.70685146109864" lon="8.08962648785591"><ele>316.0</ele><time>2026-03-29T11:07:20.999Z</time></trkpt><trkpt lat="44.706985468703394" lon="8.089900381388388"><ele>307.0</ele><time>2026-03-29T11:07:21.999Z</time></trkpt><trkpt lat="44.707150662432134" lon="8.09016342145233"><ele>298.0</ele><time>2026-03-29T11:07:22.999Z</time></trkpt><trkpt lat="44.707332052070996" lon="8.090402778092292"><ele>298.0</ele><time>2026-03-29T11:07:23.999Z</time></trkpt><trkpt lat="44.707522024666915" lon="8.090607873684707"><ele>298.0</ele><time>2026-03-29T11:07:24.999Z</time></trkpt><trkpt lat="44.7077161226258" lon="8.090808089927668"><ele>297.5</ele><time>2026-03-29T11:07:25.999Z</time></trkpt><trkpt lat="44.70785955106443" lon="8.09107483799072"><ele>297.0</ele><time>2026-03-29T11:07:26.999Z</time></trkpt><trkpt lat="44.70799310924043" lon="8.091336255523679"><ele>297.0</ele><time>2026-03-29T11:07:27.999Z</time></trkpt><trkpt lat="44.7081128050992" lon="8.091573644265452"><ele>297.0</ele><time>2026-03-29T11:07:28.999Z</time></trkpt><trkpt lat="44.708210535832485" lon="8.091801251011379"><ele>297.0</ele><time>2026-03-29T11:07:29.999Z</time></trkpt><trkpt lat="44.70825942742614" lon="8.092039477566273"><ele>292.3333333333333</ele><time>2026-03-29T11:07:30.999Z</time></trkpt><trkpt lat="44.7082946735331" lon="8.092322845925404"><ele>287.66666666666663</ele><time>2026-03-29T11:07:31.999Z</time></trkpt><trkpt lat="44.7083278227443" lon="8.0926296833906"><ele>283.0</ele><time>2026-03-29T11:07:32.999Z</time></trkpt><trkpt lat="44.708358599818524" lon="8.092922293867757"><ele>278.5</ele><time>2026-03-29T11:07:33.999Z</time></trkpt><trkpt lat="44.70841036058894" lon="8.093223353225765"><ele>274.0</ele><time>2026-03-29T11:07:34.999Z</time></trkpt><trkpt lat="44.70848515736607" lon="8.09354248571915"><ele>272.0</ele><time>2026-03-29T11:07:35.999Z</time></trkpt><trkpt lat="44.70857618255369" lon="8.093885221969986"><ele>270.0</ele><time>2026-03-29T11:07:36.999Z</time></trkpt><trkpt lat="44.708708482409016" lon="8.094252598954785"><ele>267.5</ele><time>2026-03-29T11:07:37.999Z</time></trkpt><trkpt lat="44.70886478543343" lon="8.094617073387388"><ele>265.0</ele><time>2026-03-29T11:07:38.999Z</time></trkpt><trkpt lat="44.70900604213177" lon="8.094956654349613"><ele>265.0</ele><time>2026-03-29T11:07:39.999Z</time></trkpt><trkpt lat="44.70913486266468" lon="8.095276615512095"><ele>265.0</ele><time>2026-03-29T11:07:40.999Z</time></trkpt><trkpt lat="44.70925760225065" lon="8.09559486386369"><ele>262.0</ele><time>2026-03-29T11:07:41.999Z</time></trkpt><trkpt lat="44.70933730279236" lon="8.095949491236015"><ele>259.0</ele><time>2026-03-29T11:07:42.999Z</time></trkpt><trkpt lat="44.709411750217896" lon="8.096363084979686"><ele>265.0</ele><time>2026-03-29T11:07:43.999Z</time></trkpt><trkpt lat="44.70949161231737" lon="8.096802469127773"><ele>271.0</ele><time>2026-03-29T11:07:44.999Z</time></trkpt><trkpt lat="44.709553593444866" lon="8.09721166210663"><ele>266.5</ele><time>2026-03-29T11:07:45.999Z</time></trkpt><trkpt lat="44.70961922590051" lon="8.09758632780475"><ele>262.0</ele><time>2026-03-29T11:07:46.999Z</time></trkpt><trkpt lat="44.70969164183251" lon="8.097942285201098"><ele>257.5</ele><time>2026-03-29T11:07:47.999Z</time></trkpt><trkpt lat="44.709730445747944" lon="8.0983258749591"><ele>253.0</ele><time>2026-03-29T11:07:48.999Z</time></trkpt><trkpt lat="44.709750002720824" lon="8.098738457078934"><ele>252.0</ele><time>2026-03-29T11:07:49.999Z</time></trkpt><trkpt lat="44.70977193554848" lon="8.09918711626057"><ele>251.0</ele><time>2026-03-29T11:07:50.999Z</time></trkpt><trkpt lat="44.70978258865206" lon="8.099655505507476"><ele>249.0</ele><time>2026-03-29T11:07:51.999Z</time></trkpt><trkpt lat="44.709794795187136" lon="8.100149192538689"><ele>247.0</ele><time>2026-03-29T11:07:52.999Z</time></trkpt><trkpt lat="44.709792705471976" lon="8.100652789007551"><ele>246.0</ele><time>2026-03-29T11:07:53.999Z</time></trkpt><trkpt lat="44.7097558443242" lon="8.101138389026902"><ele>245.0</ele><time>2026-03-29T11:07:54.999Z</time></trkpt><trkpt lat="44.7096998191103" lon="8.101584149040178"><ele>244.5</ele><time>2026-03-29T11:07:55.999Z</time></trkpt><trkpt lat="44.709644675597275" lon="8.102001506944722"><ele>244.0</ele><time>2026-03-29T11:07:57Z</time></trkpt><trkpt lat="44.70958659123354" lon="8.102387837235776"><ele>244.0</ele><time>2026-03-29T11:07:58Z</time></trkpt><trkpt lat="44.709526815666884" lon="8.102763597766247"><ele>244.0</ele><time>2026-03-29T11:07:59Z</time></trkpt><trkpt lat="44.709472512586736" lon="8.10312678578043"><ele>243.5</ele><time>2026-03-29T11:08:00Z</time></trkpt><trkpt lat="44.70942325590789" lon="8.103464802077548"><ele>243.0</ele><time>2026-03-29T11:08:01Z</time></trkpt><trkpt lat="44.7093800819519" lon="8.103766770581553"><ele>241.33333333333331</ele><time>2026-03-29T11:08:02Z</time></trkpt><trkpt lat="44.709352669524336" lon="8.104043477056543"><ele>239.66666666666666</ele><time>2026-03-29T11:08:03Z</time></trkpt><trkpt lat="44.70935170447842" lon="8.104304374643116"><ele>238.0</ele><time>2026-03-29T11:08:04Z</time></trkpt><trkpt lat="44.70937733727851" lon="8.104547874670605"><ele>239.0</ele><time>2026-03-29T11:08:05Z</time></trkpt><trkpt lat="44.70940730709526" lon="8.1047799422077"><ele>240.0</ele><time>2026-03-29T11:08:06Z</time></trkpt><trkpt lat="44.70944215511967" lon="8.105005921809857"><ele>241.0</ele><time>2026-03-29T11:08:07Z</time></trkpt><trkpt lat="44.70948410718193" lon="8.105256663834798"><ele>241.0</ele><time>2026-03-29T11:08:08Z</time></trkpt><trkpt lat="44.70953168513344" lon="8.105548873304803"><ele>241.0</ele><time>2026-03-29T11:08:09Z</time></trkpt><trkpt lat="44.70959027334784" lon="8.10585934555942"><ele>241.0</ele><time>2026-03-29T11:08:10Z</time></trkpt><trkpt lat="44.70982930919134" lon="8.106078738974077"><ele>238.0</ele><time>2026-03-29T11:08:11Z</time></trkpt><trkpt lat="44.70991035360032" lon="8.106312154018822"><ele>235.0</ele><time>2026-03-29T11:08:12Z</time></trkpt><trkpt lat="44.70996702311045" lon="8.106526250058161"><ele>232.0</ele><time>2026-03-29T11:08:13Z</time></trkpt><trkpt lat="44.70998391714677" lon="8.10672981348243"><ele>231.0</ele><time>2026-03-29T11:08:14Z</time></trkpt><trkpt lat="44.70995726390796" lon="8.106925910042076"><ele>230.0</ele><time>2026-03-29T11:08:15Z</time></trkpt><trkpt lat="44.70991719452446" lon="8.107123914772409"><ele>229.0</ele><time>2026-03-29T11:08:16Z</time></trkpt><trkpt lat="44.709855427867815" lon="8.107358726812429"><ele>228.33333333333331</ele><time>2026-03-29T11:08:17Z</time></trkpt><trkpt lat="44.70979367359947" lon="8.107616029536006"><ele>227.66666666666669</ele><time>2026-03-29T11:08:18Z</time></trkpt><trkpt lat="44.709739097255756" lon="8.107850853585473"><ele>227.0</ele><time>2026-03-29T11:08:19Z</time></trkpt><trkpt lat="44.70968284840715" lon="8.10807324227521"><ele>226.33333333333334</ele><time>2026-03-29T11:08:20Z</time></trkpt><trkpt lat="44.709636219163244" lon="8.108282210147856"><ele>225.66666666666669</ele><time>2026-03-29T11:08:21Z</time></trkpt><trkpt lat="44.709584549714634" lon="8.108506907381813"><ele>225.0</ele><time>2026-03-29T11:08:22Z</time></trkpt><trkpt lat="44.709524108434685" lon="8.108737604722522"><ele>225.0</ele><time>2026-03-29T11:08:23Z</time></trkpt><trkpt lat="44.70946204412116" lon="8.108945318163952"><ele>225.0</ele><time>2026-03-29T11:08:24Z</time></trkpt><trkpt lat="44.709398911883085" lon="8.109124655199272"><ele>225.0</ele><time>2026-03-29T11:08:25Z</time></trkpt><trkpt lat="44.70932786730775" lon="8.109303498199823"><ele>225.0</ele><time>2026-03-29T11:08:26Z</time></trkpt><trkpt lat="44.70914756730438" lon="8.109346197555695"><ele>226.33333333333331</ele><time>2026-03-29T11:08:28Z</time></trkpt><trkpt lat="44.708994603761894" lon="8.109338698000705"><ele>227.66666666666666</ele><time>2026-03-29T11:08:29Z</time></trkpt><trkpt lat="44.70881293178307" lon="8.109279709819171"><ele>229.0</ele><time>2026-03-29T11:08:30Z</time></trkpt><trkpt lat="44.708609437451386" lon="8.109200272543442"><ele>228.5</ele><time>2026-03-29T11:08:31Z</time></trkpt><trkpt lat="44.70836763955134" lon="8.109131118209902"><ele>228.0</ele><time>2026-03-29T11:08:32Z</time></trkpt><trkpt lat="44.70810207476948" lon="8.109062689904617"><ele>228.0</ele><time>2026-03-29T11:08:33Z</time></trkpt><trkpt lat="44.70786115638829" lon="8.108997383975744"><ele>228.0</ele><time>2026-03-29T11:08:34Z</time></trkpt><trkpt lat="44.70766083741292" lon="8.108953867076467"><ele>228.0</ele><time>2026-03-29T11:08:35Z</time></trkpt><trkpt lat="44.70749887811957" lon="8.108916204378595"><ele>229.0</ele><time>2026-03-29T11:08:36Z</time></trkpt><trkpt lat="44.707349193166685" lon="8.108919161376969"><ele>230.0</ele><time>2026-03-29T11:08:37Z</time></trkpt><trkpt lat="44.7071859818508" lon="8.108976262709138"><ele>231.0</ele><time>2026-03-29T11:08:38Z</time></trkpt><trkpt lat="44.70701103530596" lon="8.109087412721806"><ele>235.33333333333331</ele><time>2026-03-29T11:08:39Z</time></trkpt><trkpt lat="44.70682907656829" lon="8.10926003146809"><ele>239.66666666666666</ele><time>2026-03-29T11:08:40Z</time></trkpt><trkpt lat="44.706649942423674" lon="8.109444083576502"><ele>244.0</ele><time>2026-03-29T11:08:41Z</time></trkpt><trkpt lat="44.70648053642907" lon="8.109579193103508"><ele>244.0</ele><time>2026-03-29T11:08:42Z</time></trkpt><trkpt lat="44.70630262971713" lon="8.109648976041965"><ele>244.0</ele><time>2026-03-29T11:08:43Z</time></trkpt><trkpt lat="44.70610640473199" lon="8.10969242105193"><ele>244.0</ele><time>2026-03-29T11:08:44Z</time></trkpt><trkpt lat="44.70589131884536" lon="8.109706972363705"><ele>244.33333333333331</ele><time>2026-03-29T11:08:45Z</time></trkpt><trkpt lat="44.70570224955493" lon="8.109682085310077"><ele>244.66666666666669</ele><time>2026-03-29T11:08:46Z</time></trkpt><trkpt lat="44.705545511327145" lon="8.109652728751719"><ele>245.0</ele><time>2026-03-29T11:08:46.999Z</time></trkpt><trkpt lat="44.705426444088765" lon="8.109636751304"><ele>245.0</ele><time>2026-03-29T11:08:47.999Z</time></trkpt><trkpt lat="44.70533001563111" lon="8.10963198660183"><ele>245.0</ele><time>2026-03-29T11:08:48.999Z</time></trkpt><trkpt lat="44.70524164844372" lon="8.109663093212866"><ele>245.0</ele><time>2026-03-29T11:08:49.999Z</time></trkpt><trkpt lat="44.70519029019134" lon="8.109762233834607"><ele>245.0</ele><time>2026-03-29T11:08:50.999Z</time></trkpt><trkpt lat="44.70518697219369" lon="8.109907257834012"><ele>245.0</ele><time>2026-03-29T11:08:51.999Z</time></trkpt><trkpt lat="44.705245056439395" lon="8.110059402970457"><ele>248.0</ele><time>2026-03-29T11:08:52.999Z</time></trkpt><trkpt lat="44.70533611315556" lon="8.110150297500104"><ele>251.0</ele><time>2026-03-29T11:08:53.999Z</time></trkpt><trkpt lat="44.7054603868287" lon="8.110177388001466"><ele>254.0</ele><time>2026-03-29T11:08:54.999Z</time></trkpt><trkpt lat="44.70560959483906" lon="8.110180368961517"><ele>257.0</ele><time>2026-03-29T11:08:55.999Z</time></trkpt><trkpt lat="44.70573916687651" lon="8.110184328819951"><ele>257.0</ele><time>2026-03-29T11:08:56.999Z</time></trkpt><trkpt lat="44.705830626091824" lon="8.110223848554288"><ele>257.0</ele><time>2026-03-29T11:08:57.999Z</time></trkpt><trkpt lat="44.70586838654052" lon="8.110325108724684"><ele>257.0</ele><time>2026-03-29T11:08:58.999Z</time></trkpt><trkpt lat="44.705853016264854" lon="8.110445266038575"><ele>257.0</ele><time>2026-03-29T11:08:59.999Z</time></trkpt><trkpt lat="44.70578499143302" lon="8.110546267060073"><ele>257.0</ele><time>2026-03-29T11:09:00.999Z</time></trkpt><trkpt lat="44.70568218278963" lon="8.110591058491936"><ele>257.0</ele><time>2026-03-29T11:09:01.999Z</time></trkpt><trkpt lat="44.705561247866825" lon="8.110569567761786"><ele>257.0</ele><time>2026-03-29T11:09:02.999Z</time></trkpt><trkpt lat="44.70541474485964" lon="8.110513789145523"><ele>257.0</ele><time>2026-03-29T11:09:03.999Z</time></trkpt><trkpt lat="44.70523669798379" lon="8.110462979967721"><ele>259.0</ele><time>2026-03-29T11:09:04.999Z</time></trkpt><trkpt lat="44.70501927472933" lon="8.1104224706028"><ele>261.0</ele><time>2026-03-29T11:09:05.999Z</time></trkpt><trkpt lat="44.704778107024644" lon="8.110390547711395"><ele>261.0</ele><time>2026-03-29T11:09:06.999Z</time></trkpt><trkpt lat="44.70455867544183" lon="8.110366133938344"><ele>261.0</ele><time>2026-03-29T11:09:07.999Z</time></trkpt><trkpt lat="44.7043700688247" lon="8.110342484998666"><ele>261.0</ele><time>2026-03-29T11:09:08.999Z</time></trkpt><trkpt lat="44.704214660748" lon="8.110326390158667"><ele>261.6666666666667</ele><time>2026-03-29T11:09:09.999Z</time></trkpt><trkpt lat="44.70406933758682" lon="8.110332559178172"><ele>262.33333333333337</ele><time>2026-03-29T11:09:10.999Z</time></trkpt><trkpt lat="44.703915415031254" lon="8.110386548290622"><ele>263.0</ele><time>2026-03-29T11:09:11.999Z</time></trkpt><trkpt lat="44.70375448075136" lon="8.110520180865079"><ele>263.0</ele><time>2026-03-29T11:09:12.999Z</time></trkpt><trkpt lat="44.70358395822179" lon="8.110685272135694"><ele>263.0</ele><time>2026-03-29T11:09:13.999Z</time></trkpt><trkpt lat="44.703407834112134" lon="8.110797681273588"><ele>263.0</ele><time>2026-03-29T11:09:14.999Z</time></trkpt><trkpt lat="44.7032082594957" lon="8.110834866379236"><ele>268.5</ele><time>2026-03-29T11:09:15.999Z</time></trkpt><trkpt lat="44.70299021083217" lon="8.110790246275068"><ele>274.0</ele><time>2026-03-29T11:09:16.999Z</time></trkpt><trkpt lat="44.70274574420097" lon="8.110670221619747"><ele>274.0</ele><time>2026-03-29T11:09:17.999Z</time></trkpt><trkpt lat="44.70249771802009" lon="8.110629239889759"><ele>274.0</ele><time>2026-03-29T11:09:18.999Z</time></trkpt><trkpt lat="44.70230181647432" lon="8.110581649291227"><ele>274.0</ele><time>2026-03-29T11:09:19.999Z</time></trkpt><trkpt lat="44.70213908066317" lon="8.110548893011135"><ele>274.0</ele><time>2026-03-29T11:09:20.999Z</time></trkpt><trkpt lat="44.70202092658862" lon="8.110513905432272"><ele>274.0</ele><time>2026-03-29T11:09:21.999Z</time></trkpt><trkpt lat="44.701942642061205" lon="8.11050187871114"><ele>274.0</ele><time>2026-03-29T11:09:22.999Z</time></trkpt><trkpt lat="44.70185852187145" lon="8.110626954907765"><ele>274.0</ele><time>2026-03-29T11:09:24.999Z</time></trkpt><trkpt lat="44.701876993357544" lon="8.110754130089822"><ele>274.0</ele><time>2026-03-29T11:09:25.999Z</time></trkpt><trkpt lat="44.70195317772461" lon="8.110869246376431"><ele>276.4</ele><time>2026-03-29T11:09:26.999Z</time></trkpt><trkpt lat="44.702055677554924" lon="8.110957157415429"><ele>278.79999999999995</ele><time>2026-03-29T11:09:27.999Z</time></trkpt><trkpt lat="44.70215783836335" lon="8.111018440668305"><ele>281.20000000000005</ele><time>2026-03-29T11:09:28.999Z</time></trkpt><trkpt lat="44.7022237793918" lon="8.111094379944332"><ele>283.6</ele><time>2026-03-29T11:09:29.999Z</time></trkpt><trkpt lat="44.7022405645566" lon="8.11120373062977"><ele>286.0</ele><time>2026-03-29T11:09:30.999Z</time></trkpt><trkpt lat="44.702202657692936" lon="8.111305227674443"><ele>286.0</ele><time>2026-03-29T11:09:31.999Z</time></trkpt><trkpt lat="44.70211765475287" lon="8.11135735037761"><ele>286.0</ele><time>2026-03-29T11:09:32.999Z</time></trkpt><trkpt lat="44.702017550318445" lon="8.111296357256194"><ele>286.0</ele><time>2026-03-29T11:09:33.999Z</time></trkpt><trkpt lat="44.701935542063794" lon="8.11118439863032"><ele>286.0</ele><time>2026-03-29T11:09:34.999Z</time></trkpt><trkpt lat="44.70179957119833" lon="8.111065392301766"><ele>286.8</ele><time>2026-03-29T11:09:35.999Z</time></trkpt><trkpt lat="44.701678615315274" lon="8.11096938844885"><ele>287.6</ele><time>2026-03-29T11:09:36.999Z</time></trkpt><trkpt lat="44.701591472506195" lon="8.110901253463012"><ele>288.4</ele><time>2026-03-29T11:09:37.999Z</time></trkpt><trkpt lat="44.70151125295521" lon="8.110907783786768"><ele>289.2</ele><time>2026-03-29T11:09:38.999Z</time></trkpt><trkpt lat="44.70145056225243" lon="8.111003835861423"><ele>290.0</ele><time>2026-03-29T11:09:39.999Z</time></trkpt><trkpt lat="44.70143074587199" lon="8.1111473157688"><ele>290.0</ele><time>2026-03-29T11:09:40.999Z</time></trkpt><trkpt lat="44.70146635228244" lon="8.111322544375843"><ele>290.0</ele><time>2026-03-29T11:09:41.999Z</time></trkpt><trkpt lat="44.70156111354801" lon="8.111508691691345"><ele>290.0</ele><time>2026-03-29T11:09:42.999Z</time></trkpt><trkpt lat="44.70169294933043" lon="8.11170698587258"><ele>291.33333333333337</ele><time>2026-03-29T11:09:43.999Z</time></trkpt><trkpt lat="44.701818059647216" lon="8.111913755358463"><ele>292.6666666666667</ele><time>2026-03-29T11:09:44.999Z</time></trkpt><trkpt lat="44.70191300011663" lon="8.112104557198116"><ele>294.0</ele><time>2026-03-29T11:09:45.999Z</time></trkpt><trkpt lat="44.70198887266686" lon="8.11226297049436"><ele>295.59999999999997</ele><time>2026-03-29T11:09:46.999Z</time></trkpt><trkpt lat="44.702005622360154" lon="8.112423291770627"><ele>297.2</ele><time>2026-03-29T11:09:47.999Z</time></trkpt><trkpt lat="44.70199604797792" lon="8.112567141967661"><ele>298.79999999999995</ele><time>2026-03-29T11:09:48.999Z</time></trkpt><trkpt lat="44.70194877443062" lon="8.112710512943774"><ele>300.4</ele><time>2026-03-29T11:09:49.999Z</time></trkpt><trkpt lat="44.701855451996614" lon="8.11279739687924"><ele>302.0</ele><time>2026-03-29T11:09:50.999Z</time></trkpt><trkpt lat="44.70173739423848" lon="8.112851960850044"><ele>302.75</ele><time>2026-03-29T11:09:51.999Z</time></trkpt><trkpt lat="44.70159378393486" lon="8.112924965460063"><ele>303.5</ele><time>2026-03-29T11:09:52.999Z</time></trkpt><trkpt lat="44.70147736508397" lon="8.11299532830732"><ele>304.25</ele><time>2026-03-29T11:09:53.999Z</time></trkpt><trkpt lat="44.70139176039139" lon="8.113082470427138"><ele>305.0</ele><time>2026-03-29T11:09:54.999Z</time></trkpt><trkpt lat="44.70136120173018" lon="8.113221798112294"><ele>305.5</ele><time>2026-03-29T11:09:55.999Z</time></trkpt><trkpt lat="44.70138040815869" lon="8.113400653699571"><ele>306.0</ele><time>2026-03-29T11:09:56.999Z</time></trkpt><trkpt lat="44.70143452243752" lon="8.11360595831766"><ele>306.5</ele><time>2026-03-29T11:09:57.999Z</time></trkpt><trkpt lat="44.701439795043896" lon="8.113788202329845"><ele>307.0</ele><time>2026-03-29T11:09:58.999Z</time></trkpt><trkpt lat="44.70140465122853" lon="8.113918833565664"><ele>307.0</ele><time>2026-03-29T11:09:59.999Z</time></trkpt><trkpt lat="44.70129592629471" lon="8.113974830034971"><ele>307.0</ele><time>2026-03-29T11:10:00.999Z</time></trkpt><trkpt lat="44.70115492254044" lon="8.114060192340414"><ele>307.0</ele><time>2026-03-29T11:10:02Z</time></trkpt><trkpt lat="44.700970792594866" lon="8.114181731933614"><ele>312.5</ele><time>2026-03-29T11:10:03Z</time></trkpt><trkpt lat="44.70075545967926" lon="8.11431847684018"><ele>318.0</ele><time>2026-03-29T11:10:04Z</time></trkpt><trkpt lat="44.70052724759971" lon="8.11446321444104"><ele>318.0</ele><time>2026-03-29T11:10:05Z</time></trkpt><trkpt lat="44.70028045530356" lon="8.114602396657832"><ele>318.0</ele><time>2026-03-29T11:10:06Z</time></trkpt><trkpt lat="44.700018517696854" lon="8.114693134720298"><ele>321.5</ele><time>2026-03-29T11:10:07Z</time></trkpt><trkpt lat="44.69974648434172" lon="8.114766628648862"><ele>325.0</ele><time>2026-03-29T11:10:08Z</time></trkpt><trkpt lat="44.6995198162186" lon="8.114849825060103"><ele>329.5</ele><time>2026-03-29T11:10:09Z</time></trkpt><trkpt lat="44.6992749980945" lon="8.114981829410308"><ele>334.0</ele><time>2026-03-29T11:10:10Z</time></trkpt><trkpt lat="44.69904633068296" lon="8.115148490895804"><ele>334.0</ele><time>2026-03-29T11:10:11Z</time></trkpt><trkpt lat="44.69880268960033" lon="8.115318807988492"><ele>334.0</ele><time>2026-03-29T11:10:12Z</time></trkpt><trkpt lat="44.69855882855138" lon="8.115460723673529"><ele>339.0</ele><time>2026-03-29T11:10:13Z</time></trkpt><trkpt lat="44.698318264630586" lon="8.11555438513673"><ele>344.0</ele><time>2026-03-29T11:10:14Z</time></trkpt><trkpt lat="44.6981109488954" lon="8.11566578658153"><ele>346.5</ele><time>2026-03-29T11:10:15Z</time></trkpt><trkpt lat="44.69789446915425" lon="8.115776520951277"><ele>349.0</ele><time>2026-03-29T11:10:16Z</time></trkpt><trkpt lat="44.69767229568676" lon="8.115930064933334"><ele>349.0</ele><time>2026-03-29T11:10:17Z</time></trkpt><trkpt lat="44.69744184342957" lon="8.116127074665604"><ele>349.0</ele><time>2026-03-29T11:10:18Z</time></trkpt><trkpt lat="44.69719397435759" lon="8.116318622395209"><ele>349.0</ele><time>2026-03-29T11:10:19Z</time></trkpt><trkpt lat="44.69694204142614" lon="8.116498608679983"><ele>349.0</ele><time>2026-03-29T11:10:20Z</time></trkpt><trkpt lat="44.69669776164849" lon="8.116689743661793"><ele>354.0</ele><time>2026-03-29T11:10:21Z</time></trkpt><trkpt lat="44.69645001969581" lon="8.11692621145215"><ele>359.0</ele><time>2026-03-29T11:10:22Z</time></trkpt><trkpt lat="44.69621342122578" lon="8.117158947824368"><ele>366.0</ele><time>2026-03-29T11:10:23Z</time></trkpt><trkpt lat="44.695996474924755" lon="8.117386090095403"><ele>373.0</ele><time>2026-03-29T11:10:24Z</time></trkpt><trkpt lat="44.69580217311672" lon="8.11757456525423"><ele>373.0</ele><time>2026-03-29T11:10:25Z</time></trkpt><trkpt lat="44.69561227806219" lon="8.117716559207869"><ele>373.0</ele><time>2026-03-29T11:10:26Z</time></trkpt><trkpt lat="44.69541957122311" lon="8.117753579016918"><ele>373.0</ele><time>2026-03-29T11:10:27Z</time></trkpt><trkpt lat="44.695238939459" lon="8.117800383010088"><ele>374.75</ele><time>2026-03-29T11:10:28Z</time></trkpt><trkpt lat="44.69506246676955" lon="8.117796947726589"><ele>376.5</ele><time>2026-03-29T11:10:29Z</time></trkpt><trkpt lat="44.694910137098276" lon="8.117808276335595"><ele>378.25</ele><time>2026-03-29T11:10:30Z</time></trkpt><trkpt lat="44.69480157364884" lon="8.117831753444245"><ele>380.0</ele><time>2026-03-29T11:10:31Z</time></trkpt><trkpt lat="44.694725387521956" lon="8.117861141691568"><ele>380.0</ele><time>2026-03-29T11:10:32Z</time></trkpt><trkpt lat="44.69465838718773" lon="8.117970608690593"><ele>380.0</ele><time>2026-03-29T11:10:34Z</time></trkpt><trkpt lat="44.694706090159414" lon="8.118143410316556"><ele>380.0</ele><time>2026-03-29T11:10:35Z</time></trkpt><trkpt lat="44.694806027100164" lon="8.118233769348539"><ele>380.0</ele><time>2026-03-29T11:10:36Z</time></trkpt><trkpt lat="44.69493969210207" lon="8.118192283699623"><ele>380.0</ele><time>2026-03-29T11:10:37Z</time></trkpt><trkpt lat="44.69506701344924" lon="8.118167706821367"><ele>380.0</ele><time>2026-03-29T11:10:38Z</time></trkpt><trkpt lat="44.69521568280916" lon="8.118208840649464"><ele>380.0</ele><time>2026-03-29T11:10:39Z</time></trkpt><trkpt lat="44.695397929139226" lon="8.11826768161824"><ele>382.6666666666667</ele><time>2026-03-29T11:10:40Z</time></trkpt><trkpt lat="44.69557841538681" lon="8.1183013052272"><ele>385.33333333333337</ele><time>2026-03-29T11:10:41Z</time></trkpt><trkpt lat="44.69573634805179" lon="8.118262672130427"><ele>388.0</ele><time>2026-03-29T11:10:42Z</time></trkpt><trkpt lat="44.695857953934535" lon="8.118275764604041"><ele>388.0</ele><time>2026-03-29T11:10:43Z</time></trkpt><trkpt lat="44.69595695279345" lon="8.118287651637717"><ele>388.0</ele><time>2026-03-29T11:10:44Z</time></trkpt><trkpt lat="44.696037452147834" lon="8.118324615064383"><ele>388.0</ele><time>2026-03-29T11:10:45Z</time></trkpt><trkpt lat="44.696097884497576" lon="8.118396785727398"><ele>388.0</ele><time>2026-03-29T11:10:46Z</time></trkpt><trkpt lat="44.69614300361911" lon="8.118470922831234"><ele>388.0</ele><time>2026-03-29T11:10:47Z</time></trkpt><trkpt lat="44.696070488279396" lon="8.118617966413163"><ele>388.0</ele><time>2026-03-29T11:10:49Z</time></trkpt><trkpt lat="44.696000172205835" lon="8.118628960221944"><ele>388.0</ele><time>2026-03-29T11:10:50Z</time></trkpt><trkpt lat="44.69589467797825" lon="8.118565446377021"><ele>388.0</ele><time>2026-03-29T11:10:51Z</time></trkpt><trkpt lat="44.695764943660954" lon="8.118557446893101"><ele>388.0</ele><time>2026-03-29T11:10:52Z</time></trkpt><trkpt lat="44.69559429115475" lon="8.118568963900023"><ele>388.0</ele><time>2026-03-29T11:10:52.999Z</time></trkpt><trkpt lat="44.69541167865161" lon="8.118615493666423"><ele>388.0</ele><time>2026-03-29T11:10:53.999Z</time></trkpt><trkpt lat="44.69526617442093" lon="8.118635541414692"><ele>388.0</ele><time>2026-03-29T11:10:54.999Z</time></trkpt><trkpt lat="44.6951558467397" lon="8.118636163131963"><ele>388.0</ele><time>2026-03-29T11:10:55.999Z</time></trkpt><trkpt lat="44.695070299370286" lon="8.118647410778951"><ele>387.79999999999995</ele><time>2026-03-29T11:10:56.999Z</time></trkpt><trkpt lat="44.69500619950691" lon="8.118683859136011"><ele>387.6</ele><time>2026-03-29T11:10:57.999Z</time></trkpt><trkpt lat="44.69497853330373" lon="8.118766385521308"><ele>387.4</ele><time>2026-03-29T11:10:58.999Z</time></trkpt><trkpt lat="44.69496484968795" lon="8.118882254424065"><ele>387.20000000000005</ele><time>2026-03-29T11:10:59.999Z</time></trkpt><trkpt lat="44.695038102334216" lon="8.119037299552854"><ele>387.0</ele><time>2026-03-29T11:11:00.999Z</time></trkpt><trkpt lat="44.69517078940916" lon="8.119131070336897"><ele>390.25</ele><time>2026-03-29T11:11:01.999Z</time></trkpt><trkpt lat="44.695309247162506" lon="8.119215868411317"><ele>393.5</ele><time>2026-03-29T11:11:02.999Z</time></trkpt><trkpt lat="44.69540535769753" lon="8.119331603918132"><ele>396.75</ele><time>2026-03-29T11:11:03.999Z</time></trkpt><trkpt lat="44.69546733655471" lon="8.119452719966842"><ele>400.0</ele><time>2026-03-29T11:11:04.999Z</time></trkpt><trkpt lat="44.69550289547819" lon="8.119630171077121"><ele>400.0</ele><time>2026-03-29T11:11:05.999Z</time></trkpt><trkpt lat="44.695536249886956" lon="8.119871654796341"><ele>400.0</ele><time>2026-03-29T11:11:06.999Z</time></trkpt><trkpt lat="44.69557147048711" lon="8.120109693278792"><ele>400.0</ele><time>2026-03-29T11:11:07.999Z</time></trkpt><trkpt lat="44.695583385270886" lon="8.120262067045994"><ele>400.8</ele><time>2026-03-29T11:11:08.999Z</time></trkpt><trkpt lat="44.69557235611122" lon="8.120363194928428"><ele>401.6</ele><time>2026-03-29T11:11:09.999Z</time></trkpt><trkpt lat="44.69551843382811" lon="8.1204210483411"><ele>402.4</ele><time>2026-03-29T11:11:10.999Z</time></trkpt><trkpt lat="44.695416323483485" lon="8.120423248269171"><ele>403.2</ele><time>2026-03-29T11:11:11.999Z</time></trkpt><trkpt lat="44.695288839753324" lon="8.120368375943688"><ele>404.0</ele><time>2026-03-29T11:11:12.999Z</time></trkpt><trkpt lat="44.69514525812949" lon="8.120285406925612"><ele>406.66666666666663</ele><time>2026-03-29T11:11:13.999Z</time></trkpt><trkpt lat="44.694966336715346" lon="8.120195673777356"><ele>409.33333333333337</ele><time>2026-03-29T11:11:14.999Z</time></trkpt><trkpt lat="44.69480493611227" lon="8.120134962528072"><ele>412.0</ele><time>2026-03-29T11:11:15.999Z</time></trkpt><trkpt lat="44.694669728379274" lon="8.120091495668854"><ele>412.0</ele><time>2026-03-29T11:11:16.999Z</time></trkpt><trkpt lat="44.69452377326292" lon="8.120073289064681"><ele>412.0</ele><time>2026-03-29T11:11:17.999Z</time></trkpt><trkpt lat="44.69434910475386" lon="8.120115248862847"><ele>412.0</ele><time>2026-03-29T11:11:18.999Z</time></trkpt><trkpt lat="44.69416151855405" lon="8.120168634129582"><ele>414.6666666666667</ele><time>2026-03-29T11:11:19.999Z</time></trkpt><trkpt lat="44.693986480476745" lon="8.12014747356726"><ele>417.33333333333337</ele><time>2026-03-29T11:11:20.999Z</time></trkpt><trkpt lat="44.69384419844391" lon="8.120054880289848"><ele>420.0</ele><time>2026-03-29T11:11:21.999Z</time></trkpt><trkpt lat="44.69373747124411" lon="8.119906774709674"><ele>420.33333333333337</ele><time>2026-03-29T11:11:22.999Z</time></trkpt><trkpt lat="44.69361462714938" lon="8.119752460137288"><ele>420.6666666666667</ele><time>2026-03-29T11:11:23.999Z</time></trkpt><trkpt lat="44.69350894669899" lon="8.119612055590883"><ele>421.0</ele><time>2026-03-29T11:11:24.999Z</time></trkpt><trkpt lat="44.693356715530975" lon="8.119538630284568"><ele>421.0</ele><time>2026-03-29T11:11:25.999Z</time></trkpt><trkpt lat="44.69316462222637" lon="8.11952857149069"><ele>421.0</ele><time>2026-03-29T11:11:26.999Z</time></trkpt><trkpt lat="44.692985013823524" lon="8.119514698601037"><ele>421.0</ele><time>2026-03-29T11:11:27.999Z</time></trkpt><trkpt lat="44.69284152405153" lon="8.119485736126913"><ele>424.75</ele><time>2026-03-29T11:11:28.999Z</time></trkpt><trkpt lat="44.69271660370423" lon="8.11944203723396"><ele>428.5</ele><time>2026-03-29T11:11:29.999Z</time></trkpt><trkpt lat="44.692606714068134" lon="8.119381808142306"><ele>432.25</ele><time>2026-03-29T11:11:30.999Z</time></trkpt><trkpt lat="44.692502104319274" lon="8.11929568948934"><ele>436.0</ele><time>2026-03-29T11:11:31.999Z</time></trkpt><trkpt lat="44.69239828884435" lon="8.1191848761214"><ele>436.0</ele><time>2026-03-29T11:11:32.999Z</time></trkpt><trkpt lat="44.69230699461011" lon="8.119076554219657"><ele>436.0</ele><time>2026-03-29T11:11:33.999Z</time></trkpt><trkpt lat="44.69223264548808" lon="8.118976248025803"><ele>436.0</ele><time>2026-03-29T11:11:34.999Z</time></trkpt><trkpt lat="44.692175428386975" lon="8.118885085603148"><ele>436.0</ele><time>2026-03-29T11:11:35.999Z</time></trkpt><trkpt lat="44.69212421710304" lon="8.118819321441112"><ele>436.0</ele><time>2026-03-29T11:11:36.999Z</time></trkpt><trkpt lat="44.69201934808911" lon="8.118872280123918"><ele>436.00000000000006</ele><time>2026-03-29T11:11:38.999Z</time></trkpt><trkpt lat="44.69198191958744" lon="8.118960360257987"><ele>436.0</ele><time>2026-03-29T11:11:39.999Z</time></trkpt><trkpt lat="44.69195403394987" lon="8.119080300562338"><ele>436.0</ele><time>2026-03-29T11:11:40.999Z</time></trkpt><trkpt lat="44.6919302996371" lon="8.119189222330906"><ele>436.0</ele><time>2026-03-29T11:11:41.999Z</time></trkpt><trkpt lat="44.69188619993085" lon="8.119267771177428"><ele>436.00000000000006</ele><time>2026-03-29T11:11:42.999Z</time></trkpt><trkpt lat="44.69181660330877" lon="8.119306163632789"><ele>436.0</ele><time>2026-03-29T11:11:43.999Z</time></trkpt><trkpt lat="44.69172282375834" lon="8.119278649201894"><ele>438.25</ele><time>2026-03-29T11:11:44.999Z</time></trkpt><trkpt lat="44.69160340207592" lon="8.119312765180002"><ele>440.5</ele><time>2026-03-29T11:11:45.999Z</time></trkpt><trkpt lat="44.691460386979564" lon="8.11931696450123"><ele>442.75</ele><time>2026-03-29T11:11:46.999Z</time></trkpt><trkpt lat="44.691337573273564" lon="8.119351706809098"><ele>445.0</ele><time>2026-03-29T11:11:47.999Z</time></trkpt><trkpt lat="44.69124999058877" lon="8.119386212829516"><ele>445.0</ele><time>2026-03-29T11:11:48.999Z</time></trkpt><trkpt lat="44.69113904553303" lon="8.119424317378666"><ele>445.0</ele><time>2026-03-29T11:11:50.999Z</time></trkpt><trkpt lat="44.69107916355656" lon="8.119567805806712"><ele>445.0</ele><time>2026-03-29T11:11:52.999Z</time></trkpt><trkpt lat="44.691074434543765" lon="8.119692779725849"><ele>445.0</ele><time>2026-03-29T11:11:53.999Z</time></trkpt><trkpt lat="44.691063600106745" lon="8.119858826396483"><ele>445.0</ele><time>2026-03-29T11:11:54.999Z</time></trkpt><trkpt lat="44.69102487370021" lon="8.120069058172147"><ele>445.6666666666667</ele><time>2026-03-29T11:11:55.999Z</time></trkpt><trkpt lat="44.69097113470762" lon="8.120303219119766"><ele>446.33333333333337</ele><time>2026-03-29T11:11:56.999Z</time></trkpt><trkpt lat="44.690915749637114" lon="8.120550125622382"><ele>447.0</ele><time>2026-03-29T11:11:57.999Z</time></trkpt><trkpt lat="44.69085593928692" lon="8.120828452180481"><ele>449.0</ele><time>2026-03-29T11:11:58.999Z</time></trkpt><trkpt lat="44.690804702772446" lon="8.12108255556412"><ele>451.0</ele><time>2026-03-29T11:11:59.999Z</time></trkpt><trkpt lat="44.69076304076425" lon="8.121296684897365"><ele>453.0</ele><time>2026-03-29T11:12:00.999Z</time></trkpt><trkpt lat="44.6907265546094" lon="8.121481846916275"><ele>455.0</ele><time>2026-03-29T11:12:01.999Z</time></trkpt><trkpt lat="44.69068848302928" lon="8.12163958152668"><ele>457.0</ele><time>2026-03-29T11:12:02.999Z</time></trkpt><trkpt lat="44.6906261856528" lon="8.121785960681553"><ele>459.0</ele><time>2026-03-29T11:12:03.999Z</time></trkpt><trkpt lat="44.69052455859504" lon="8.12193434422603"><ele>461.0</ele><time>2026-03-29T11:12:04.999Z</time></trkpt><trkpt lat="44.690378045312336" lon="8.122081129051555"><ele>462.3333333333333</ele><time>2026-03-29T11:12:05.999Z</time></trkpt><trkpt lat="44.69019624864281" lon="8.122242776398847"><ele>463.66666666666663</ele><time>2026-03-29T11:12:06.999Z</time></trkpt><trkpt lat="44.69001662705277" lon="8.122410092850108"><ele>465.0</ele><time>2026-03-29T11:12:08Z</time></trkpt><trkpt lat="44.68984264833828" lon="8.122588801045584"><ele>465.0</ele><time>2026-03-29T11:12:09Z</time></trkpt><trkpt lat="44.689687994075065" lon="8.122781660342444"><ele>465.0</ele><time>2026-03-29T11:12:10Z</time></trkpt><trkpt lat="44.689555838708586" lon="8.123001506279163"><ele>465.0</ele><time>2026-03-29T11:12:11Z</time></trkpt><trkpt lat="44.689448388799" lon="8.123245406732634"><ele>465.33333333333337</ele><time>2026-03-29T11:12:12Z</time></trkpt><trkpt lat="44.6893226984261" lon="8.12343317258073"><ele>465.6666666666667</ele><time>2026-03-29T11:12:13Z</time></trkpt><trkpt lat="44.689157652494636" lon="8.12359015640869"><ele>466.0</ele><time>2026-03-29T11:12:14Z</time></trkpt><trkpt lat="44.68895781123305" lon="8.123754639741502"><ele>466.0</ele><time>2026-03-29T11:12:15Z</time></trkpt><trkpt lat="44.6887333560172" lon="8.123891484570763"><ele>466.0</ele><time>2026-03-29T11:12:16Z</time></trkpt><trkpt lat="44.6885323148699" lon="8.124020599758593"><ele>469.0</ele><time>2026-03-29T11:12:17Z</time></trkpt><trkpt lat="44.68835985530372" lon="8.12414537132862"><ele>472.0</ele><time>2026-03-29T11:12:18Z</time></trkpt><trkpt lat="44.688213844096204" lon="8.124301135939177"><ele>475.0</ele><time>2026-03-29T11:12:19Z</time></trkpt><trkpt lat="44.688092003438214" lon="8.12447353424731"><ele>475.0</ele><time>2026-03-29T11:12:20Z</time></trkpt><trkpt lat="44.6879818446283" lon="8.124606333682383"><ele>475.0</ele><time>2026-03-29T11:12:21Z</time></trkpt><trkpt lat="44.68786083172236" lon="8.124665267950125"><ele>475.0</ele><time>2026-03-29T11:12:22Z</time></trkpt><trkpt lat="44.687718081689" lon="8.124649846746776"><ele>475.0</ele><time>2026-03-29T11:12:23Z</time></trkpt><trkpt lat="44.6875593539205" lon="8.124640739323443"><ele>475.6666666666667</ele><time>2026-03-29T11:12:24Z</time></trkpt><trkpt lat="44.6873830721688" lon="8.124653366560274"><ele>476.33333333333337</ele><time>2026-03-29T11:12:25Z</time></trkpt><trkpt lat="44.68720140600273" lon="8.124706038631633"><ele>477.0</ele><time>2026-03-29T11:12:26Z</time></trkpt><trkpt lat="44.68701261692277" lon="8.1247889367961"><ele>481.66666666666663</ele><time>2026-03-29T11:12:27Z</time></trkpt><trkpt lat="44.68684053320795" lon="8.124862887080416"><ele>486.3333333333333</ele><time>2026-03-29T11:12:28Z</time></trkpt><trkpt lat="44.68668902985695" lon="8.124920650943677"><ele>491.0</ele><time>2026-03-29T11:12:29Z</time></trkpt><trkpt lat="44.6865481855893" lon="8.125000942994733"><ele>494.3333333333333</ele><time>2026-03-29T11:12:30Z</time></trkpt><trkpt lat="44.68640119209684" lon="8.125163281747778"><ele>497.66666666666663</ele><time>2026-03-29T11:12:31Z</time></trkpt><trkpt lat="44.686236359599086" lon="8.125378582948654"><ele>501.0</ele><time>2026-03-29T11:12:32Z</time></trkpt><trkpt lat="44.68607226453597" lon="8.125589819654044"><ele>504.66666666666663</ele><time>2026-03-29T11:12:33Z</time></trkpt><trkpt lat="44.68593201567924" lon="8.125766688463937"><ele>508.3333333333333</ele><time>2026-03-29T11:12:34Z</time></trkpt><trkpt lat="44.685812999749984" lon="8.125925560366602"><ele>512.0</ele><time>2026-03-29T11:12:35Z</time></trkpt><trkpt lat="44.685721224748704" lon="8.12609796413069"><ele>512.0</ele><time>2026-03-29T11:12:36Z</time></trkpt><trkpt lat="44.6856583048006" lon="8.126284469350376"><ele>512.0</ele><time>2026-03-29T11:12:37Z</time></trkpt><trkpt lat="44.68558900600277" lon="8.126457665230914"><ele>512.0</ele><time>2026-03-29T11:12:38Z</time></trkpt><trkpt lat="44.68548314567222" lon="8.126600603725807"><ele>512.0</ele><time>2026-03-29T11:12:39Z</time></trkpt><trkpt lat="44.68534489696832" lon="8.126726134789267"><ele>512.6666666666666</ele><time>2026-03-29T11:12:40Z</time></trkpt><trkpt lat="44.68518323090771" lon="8.126875391635442"><ele>513.3333333333334</ele><time>2026-03-29T11:12:41Z</time></trkpt><trkpt lat="44.685007653633534" lon="8.126991637872157"><ele>514.0</ele><time>2026-03-29T11:12:42Z</time></trkpt><trkpt lat="44.68486530930804" lon="8.1271121144674"><ele>514.0</ele><time>2026-03-29T11:12:43Z</time></trkpt><trkpt lat="44.68474650749715" lon="8.127232631164691"><ele>514.0</ele><time>2026-03-29T11:12:44Z</time></trkpt><trkpt lat="44.684621197612046" lon="8.127327051311315"><ele>514.0</ele><time>2026-03-29T11:12:45Z</time></trkpt><trkpt lat="44.68450028886393" lon="8.12737018503535"><ele>514.0</ele><time>2026-03-29T11:12:46Z</time></trkpt><trkpt lat="44.68435693101664" lon="8.127358006269857"><ele>514.3333333333334</ele><time>2026-03-29T11:12:47Z</time></trkpt><trkpt lat="44.684189022198716" lon="8.127275154336921"><ele>514.6666666666666</ele><time>2026-03-29T11:12:48Z</time></trkpt><trkpt lat="44.68401407506832" lon="8.127155633973473"><ele>515.0</ele><time>2026-03-29T11:12:49Z</time></trkpt><trkpt lat="44.68384108767865" lon="8.127050105000007"><ele>515.0</ele><time>2026-03-29T11:12:50Z</time></trkpt><trkpt lat="44.68367543978583" lon="8.126979287425907"><ele>515.0</ele><time>2026-03-29T11:12:51Z</time></trkpt><trkpt lat="44.683495624836176" lon="8.126950130621047"><ele>515.0</ele><time>2026-03-29T11:12:52Z</time></trkpt><trkpt lat="44.68329353836559" lon="8.126990903320621"><ele>510.0</ele><time>2026-03-29T11:12:53Z</time></trkpt><trkpt lat="44.68305781525238" lon="8.127074390451577"><ele>505.0</ele><time>2026-03-29T11:12:54Z</time></trkpt><trkpt lat="44.68283364122557" lon="8.1271559427217"><ele>502.33333333333337</ele><time>2026-03-29T11:12:55Z</time></trkpt><trkpt lat="44.682629441147995" lon="8.127220309738354"><ele>499.66666666666663</ele><time>2026-03-29T11:12:56Z</time></trkpt><trkpt lat="44.68243291256123" lon="8.127311366021003"><ele>497.0</ele><time>2026-03-29T11:12:57Z</time></trkpt><trkpt lat="44.682231263175645" lon="8.12746171933389"><ele>495.3333333333333</ele><time>2026-03-29T11:12:58Z</time></trkpt><trkpt lat="44.682035534681866" lon="8.127624747490488"><ele>493.66666666666663</ele><time>2026-03-29T11:12:59Z</time></trkpt><trkpt lat="44.68185883332243" lon="8.127756206352249"><ele>492.0</ele><time>2026-03-29T11:13:00Z</time></trkpt><trkpt lat="44.6816971899109" lon="8.127865373891165"><ele>492.0</ele><time>2026-03-29T11:13:01Z</time></trkpt><trkpt lat="44.68155770970955" lon="8.127967152821896"><ele>492.0</ele><time>2026-03-29T11:13:01.999Z</time></trkpt><trkpt lat="44.68144566889694" lon="8.128085223708785"><ele>492.0</ele><time>2026-03-29T11:13:02.999Z</time></trkpt><trkpt lat="44.681363176413456" lon="8.128256947369254"><ele>492.0</ele><time>2026-03-29T11:13:03.999Z</time></trkpt><trkpt lat="44.68129034043693" lon="8.128511022835823"><ele>492.0</ele><time>2026-03-29T11:13:04.999Z</time></trkpt><trkpt lat="44.681206062487874" lon="8.128810921721715"><ele>492.0</ele><time>2026-03-29T11:13:05.999Z</time></trkpt><trkpt lat="44.681122456187225" lon="8.129080509551496"><ele>492.0</ele><time>2026-03-29T11:13:06.999Z</time></trkpt><trkpt lat="44.68106803560892" lon="8.129310328757052"><ele>492.0</ele><time>2026-03-29T11:13:07.999Z</time></trkpt><trkpt lat="44.681066749560145" lon="8.12952799045382"><ele>492.0</ele><time>2026-03-29T11:13:08.999Z</time></trkpt><trkpt lat="44.681091328015754" lon="8.129722760655323"><ele>492.0</ele><time>2026-03-29T11:13:09.999Z</time></trkpt><trkpt lat="44.681161199111614" lon="8.12992271055272"><ele>485.66666666666663</ele><time>2026-03-29T11:13:10.999Z</time></trkpt><trkpt lat="44.68124754935618" lon="8.130156497029711"><ele>479.3333333333333</ele><time>2026-03-29T11:13:11.999Z</time></trkpt><trkpt lat="44.68137899521563" lon="8.130394203076698"><ele>473.0</ele><time>2026-03-29T11:13:12.999Z</time></trkpt><trkpt lat="44.68146194486989" lon="8.130697445157201"><ele>475.66666666666663</ele><time>2026-03-29T11:13:13.999Z</time></trkpt><trkpt lat="44.681554858947464" lon="8.131006185743255"><ele>478.33333333333337</ele><time>2026-03-29T11:13:14.999Z</time></trkpt><trkpt lat="44.681627687861265" lon="8.131258616206583"><ele>481.0</ele><time>2026-03-29T11:13:15.999Z</time></trkpt><trkpt lat="44.681693291073664" lon="8.131461771542273"><ele>482.25</ele><time>2026-03-29T11:13:16.999Z</time></trkpt><trkpt lat="44.68175252203565" lon="8.131651846377405"><ele>483.5</ele><time>2026-03-29T11:13:17.999Z</time></trkpt><trkpt lat="44.681763097731874" lon="8.131851228389845"><ele>484.75</ele><time>2026-03-29T11:13:18.999Z</time></trkpt><trkpt lat="44.6817561678319" lon="8.132041354548159"><ele>486.0</ele><time>2026-03-29T11:13:19.999Z</time></trkpt><trkpt lat="44.681697623960474" lon="8.13217790531683"><ele>486.0</ele><time>2026-03-29T11:13:20.999Z</time></trkpt><trkpt lat="44.68161933238154" lon="8.132286857199592"><ele>486.0</ele><time>2026-03-29T11:13:21.999Z</time></trkpt><trkpt lat="44.681508489327896" lon="8.132425580756399"><ele>486.0</ele><time>2026-03-29T11:13:22.999Z</time></trkpt><trkpt lat="44.681368400937956" lon="8.132585388715377"><ele>486.0</ele><time>2026-03-29T11:13:23.999Z</time></trkpt><trkpt lat="44.68121114977953" lon="8.13277805478937"><ele>488.33333333333337</ele><time>2026-03-29T11:13:24.999Z</time></trkpt><trkpt lat="44.68103718612889" lon="8.132947851011288"><ele>490.6666666666667</ele><time>2026-03-29T11:13:25.999Z</time></trkpt><trkpt lat="44.680863931003614" lon="8.133116135025583"><ele>493.0</ele><time>2026-03-29T11:13:26.999Z</time></trkpt><trkpt lat="44.680707466603245" lon="8.133312228995258"><ele>486.0</ele><time>2026-03-29T11:13:27.999Z</time></trkpt><trkpt lat="44.68060876740382" lon="8.133567566057796"><ele>479.0</ele><time>2026-03-29T11:13:28.999Z</time></trkpt><trkpt lat="44.680511489528286" lon="8.13383243079065"><ele>472.0</ele><time>2026-03-29T11:13:29.999Z</time></trkpt><trkpt lat="44.68044009770786" lon="8.134098159204108"><ele>473.6666666666667</ele><time>2026-03-29T11:13:30.999Z</time></trkpt><trkpt lat="44.68035441293135" lon="8.134329016657203"><ele>475.33333333333337</ele><time>2026-03-29T11:13:31.999Z</time></trkpt><trkpt lat="44.68027201824707" lon="8.134544583002086"><ele>477.0</ele><time>2026-03-29T11:13:32.999Z</time></trkpt><trkpt lat="44.68023481530181" lon="8.134821575932627"><ele>475.0</ele><time>2026-03-29T11:13:33.999Z</time></trkpt><trkpt lat="44.680221053025434" lon="8.135168884964697"><ele>473.0</ele><time>2026-03-29T11:13:34.999Z</time></trkpt><trkpt lat="44.68020039056912" lon="8.135551498377785"><ele>470.0</ele><time>2026-03-29T11:13:35.999Z</time></trkpt><trkpt lat="44.680155270557854" lon="8.135967235163665"><ele>467.0</ele><time>2026-03-29T11:13:36.999Z</time></trkpt><trkpt lat="44.68011285770499" lon="8.136349439957398"><ele>465.0</ele><time>2026-03-29T11:13:37.999Z</time></trkpt><trkpt lat="44.68008220650155" lon="8.136699821859583"><ele>463.0</ele><time>2026-03-29T11:13:38.999Z</time></trkpt><trkpt lat="44.680065902221315" lon="8.137031023090447"><ele>463.0</ele><time>2026-03-29T11:13:39.999Z</time></trkpt><trkpt lat="44.68007695836329" lon="8.137353531132131"><ele>463.0</ele><time>2026-03-29T11:13:40.999Z</time></trkpt><trkpt lat="44.68010536826685" lon="8.13766622466"><ele>463.33333333333337</ele><time>2026-03-29T11:13:41.999Z</time></trkpt><trkpt lat="44.68013357794198" lon="8.137944981482246"><ele>463.66666666666663</ele><time>2026-03-29T11:13:42.999Z</time></trkpt><trkpt lat="44.68015108236643" lon="8.138208058646244"><ele>464.0</ele><time>2026-03-29T11:13:43.999Z</time></trkpt><trkpt lat="44.68013132625766" lon="8.138449816842527"><ele>464.66666666666663</ele><time>2026-03-29T11:13:44.999Z</time></trkpt><trkpt lat="44.68011348522418" lon="8.138714193088097"><ele>465.33333333333337</ele><time>2026-03-29T11:13:45.999Z</time></trkpt><trkpt lat="44.68008045695115" lon="8.139023540776115"><ele>466.0</ele><time>2026-03-29T11:13:46.999Z</time></trkpt><trkpt lat="44.680060115363624" lon="8.139339423381017"><ele>467.0</ele><time>2026-03-29T11:13:47.999Z</time></trkpt><trkpt lat="44.68002091172566" lon="8.139609564143909"><ele>468.0</ele><time>2026-03-29T11:13:48.999Z</time></trkpt><trkpt lat="44.67999368232959" lon="8.139857356355844"><ele>469.0</ele><time>2026-03-29T11:13:49.999Z</time></trkpt><trkpt lat="44.67996936889617" lon="8.140085388406051"><ele>469.0</ele><time>2026-03-29T11:13:50.999Z</time></trkpt><trkpt lat="44.67994740379427" lon="8.14029561735482"><ele>469.0</ele><time>2026-03-29T11:13:51.999Z</time></trkpt><trkpt lat="44.67992860982387" lon="8.140467742720297"><ele>469.0</ele><time>2026-03-29T11:13:52.999Z</time></trkpt><trkpt lat="44.67990798436219" lon="8.140601731922626"><ele>469.0</ele><time>2026-03-29T11:13:53.999Z</time></trkpt><trkpt lat="44.67989547114188" lon="8.140704759287079"><ele>469.0</ele><time>2026-03-29T11:13:54.999Z</time></trkpt><trkpt lat="44.67986515439921" lon="8.140823759218398"><ele>469.5</ele><time>2026-03-29T11:13:56.999Z</time></trkpt><trkpt lat="44.67985904607335" lon="8.14093797708584"><ele>470.0</ele><time>2026-03-29T11:14:00.999Z</time></trkpt><trkpt lat="44.67995069035808" lon="8.141039391199579"><ele>470.5</ele><time>2026-03-29T11:14:01.999Z</time></trkpt><trkpt lat="44.68006336800165" lon="8.141151051042835"><ele>471.0</ele><time>2026-03-29T11:14:02.999Z</time></trkpt><trkpt lat="44.680199956728984" lon="8.141298794566739"><ele>469.5</ele><time>2026-03-29T11:14:03.999Z</time></trkpt><trkpt lat="44.68036285606318" lon="8.141484954011082"><ele>468.0</ele><time>2026-03-29T11:14:04.999Z</time></trkpt><trkpt lat="44.68071989037269" lon="8.141945011190144"><ele>468.33333333333337</ele><time>2026-03-29T11:14:06.999Z</time></trkpt><trkpt lat="44.68085817750005" lon="8.142184229105446"><ele>468.6666666666667</ele><time>2026-03-29T11:14:07.999Z</time></trkpt><trkpt lat="44.68098101567475" lon="8.142418704569495"><ele>469.0</ele><time>2026-03-29T11:14:08.999Z</time></trkpt><trkpt lat="44.681093963274314" lon="8.142649905307138"><ele>474.0</ele><time>2026-03-29T11:14:09.999Z</time></trkpt><trkpt lat="44.68120128409822" lon="8.14290161095352"><ele>479.0</ele><time>2026-03-29T11:14:10.999Z</time></trkpt><trkpt lat="44.68129133547548" lon="8.143154224216525"><ele>484.0</ele><time>2026-03-29T11:14:11.999Z</time></trkpt><trkpt lat="44.68136948081731" lon="8.143390399517475"><ele>484.0</ele><time>2026-03-29T11:14:12.999Z</time></trkpt><trkpt lat="44.68145302732587" lon="8.143609763162067"><ele>484.0</ele><time>2026-03-29T11:14:14Z</time></trkpt><trkpt lat="44.681518845947856" lon="8.143835835268648"><ele>484.0</ele><time>2026-03-29T11:14:15Z</time></trkpt><trkpt lat="44.68158382334703" lon="8.144059709862622"><ele>482.0</ele><time>2026-03-29T11:14:16Z</time></trkpt><trkpt lat="44.681653738741815" lon="8.144272094993902"><ele>480.0</ele><time>2026-03-29T11:14:17Z</time></trkpt><trkpt lat="44.681726323796816" lon="8.144483464478546"><ele>478.0</ele><time>2026-03-29T11:14:18Z</time></trkpt><trkpt lat="44.68180002299605" lon="8.144658988022936"><ele>478.0</ele><time>2026-03-29T11:14:19Z</time></trkpt><trkpt lat="44.68188331204939" lon="8.144817363067853"><ele>478.0</ele><time>2026-03-29T11:14:20Z</time></trkpt><trkpt lat="44.681967249234816" lon="8.144980725630862"><ele>478.0</ele><time>2026-03-29T11:14:21Z</time></trkpt><trkpt lat="44.682043537037835" lon="8.145136008969926"><ele>478.0</ele><time>2026-03-29T11:14:22Z</time></trkpt><trkpt lat="44.6820873245217" lon="8.145303400882788"><ele>477.75</ele><time>2026-03-29T11:14:23Z</time></trkpt><trkpt lat="44.68214634423934" lon="8.145455561119228"><ele>477.5</ele><time>2026-03-29T11:14:24Z</time></trkpt><trkpt lat="44.68219453024464" lon="8.145625252406392"><ele>477.25</ele><time>2026-03-29T11:14:25Z</time></trkpt><trkpt lat="44.68225262096933" lon="8.145812460199238"><ele>477.0</ele><time>2026-03-29T11:14:26Z</time></trkpt><trkpt lat="44.6823145845971" lon="8.146013887957398"><ele>477.0</ele><time>2026-03-29T11:14:27Z</time></trkpt><trkpt lat="44.682372414246565" lon="8.146220284726436"><ele>477.0</ele><time>2026-03-29T11:14:28Z</time></trkpt><trkpt lat="44.68242470583461" lon="8.14640239671268"><ele>477.0</ele><time>2026-03-29T11:14:29Z</time></trkpt><trkpt lat="44.68247471378629" lon="8.14656491944121"><ele>477.0</ele><time>2026-03-29T11:14:30Z</time></trkpt><trkpt lat="44.68252609874701" lon="8.14673470544303"><ele>479.25</ele><time>2026-03-29T11:14:31Z</time></trkpt><trkpt lat="44.68257833997076" lon="8.14691549748256"><ele>481.5</ele><time>2026-03-29T11:14:32Z</time></trkpt><trkpt lat="44.68262869950109" lon="8.147081001744827"><ele>483.75</ele><time>2026-03-29T11:14:33Z</time></trkpt><trkpt lat="44.68266931316782" lon="8.147233874672205"><ele>486.0</ele><time>2026-03-29T11:14:34Z</time></trkpt><trkpt lat="44.682686517649245" lon="8.147392808727396"><ele>487.75</ele><time>2026-03-29T11:14:35Z</time></trkpt><trkpt lat="44.682663920930175" lon="8.14755010450247"><ele>489.5</ele><time>2026-03-29T11:14:36Z</time></trkpt><trkpt lat="44.682604089401" lon="8.14770130230737"><ele>491.25</ele><time>2026-03-29T11:14:37Z</time></trkpt><trkpt lat="44.68255178579242" lon="8.147857857144517"><ele>493.0</ele><time>2026-03-29T11:14:38Z</time></trkpt><trkpt lat="44.68252587152918" lon="8.148001750804843"><ele>493.0</ele><time>2026-03-29T11:14:39Z</time></trkpt><trkpt lat="44.68254423468712" lon="8.14812907677479"><ele>492.99999999999994</ele><time>2026-03-29T11:14:40Z</time></trkpt><trkpt lat="44.68259788347794" lon="8.148229729713664"><ele>492.99999999999994</ele><time>2026-03-29T11:14:41Z</time></trkpt><trkpt lat="44.68267738237429" lon="8.148292789748002"><ele>493.0</ele><time>2026-03-29T11:14:42Z</time></trkpt><trkpt lat="44.68276874907309" lon="8.148341266919687"><ele>493.0</ele><time>2026-03-29T11:14:43Z</time></trkpt><trkpt lat="44.68284850184182" lon="8.148427014515887"><ele>494.5</ele><time>2026-03-29T11:14:44Z</time></trkpt><trkpt lat="44.68294712773667" lon="8.148508481348568"><ele>496.0</ele><time>2026-03-29T11:14:45Z</time></trkpt><trkpt lat="44.683055381122976" lon="8.148571890691493"><ele>497.5</ele><time>2026-03-29T11:14:46Z</time></trkpt><trkpt lat="44.6831622283868" lon="8.148668401095156"><ele>499.0</ele><time>2026-03-29T11:14:47Z</time></trkpt><trkpt lat="44.683286216393206" lon="8.148731166607266"><ele>499.0</ele><time>2026-03-29T11:14:48Z</time></trkpt><trkpt lat="44.68340936036263" lon="8.148781972686994"><ele>499.0</ele><time>2026-03-29T11:14:49Z</time></trkpt><trkpt lat="44.68351346519262" lon="8.148834290529136"><ele>499.0</ele><time>2026-03-29T11:14:50Z</time></trkpt><trkpt lat="44.683593565518244" lon="8.14886049929837"><ele>499.0</ele><time>2026-03-29T11:14:51Z</time></trkpt><trkpt lat="44.68366147813636" lon="8.148882410657222"><ele>499.0</ele><time>2026-03-29T11:14:52Z</time></trkpt><trkpt lat="44.68372632416152" lon="8.14889735254998"><ele>499.0</ele><time>2026-03-29T11:14:54Z</time></trkpt><trkpt lat="44.683665963929556" lon="8.14894304882844"><ele>499.0</ele><time>2026-03-29T11:14:58Z</time></trkpt><trkpt lat="44.683520941932834" lon="8.14896072872625"><ele>499.0</ele><time>2026-03-29T11:15:00Z</time></trkpt><trkpt lat="44.68342076966673" lon="8.14896977010224"><ele>499.0</ele><time>2026-03-29T11:15:01Z</time></trkpt><trkpt lat="44.68334981897947" lon="8.149009613615378"><ele>499.0</ele><time>2026-03-29T11:15:02Z</time></trkpt><trkpt lat="44.68327228368128" lon="8.149134008136462"><ele>500.83333333333337</ele><time>2026-03-29T11:15:04Z</time></trkpt><trkpt lat="44.6832687391199" lon="8.14924130597078"><ele>502.6666666666667</ele><time>2026-03-29T11:15:05Z</time></trkpt><trkpt lat="44.683290275047895" lon="8.149353978838745"><ele>504.5</ele><time>2026-03-29T11:15:06Z</time></trkpt><trkpt lat="44.683323331578016" lon="8.149442693884728"><ele>506.33333333333337</ele><time>2026-03-29T11:15:07Z</time></trkpt><trkpt lat="44.683397807318784" lon="8.149482317959377"><ele>508.1666666666667</ele><time>2026-03-29T11:15:08Z</time></trkpt><trkpt lat="44.6834452912453" lon="8.149550605503883"><ele>510.0</ele><time>2026-03-29T11:15:09Z</time></trkpt><trkpt lat="44.68351089961981" lon="8.149615307163852"><ele>510.0</ele><time>2026-03-29T11:15:10Z</time></trkpt><trkpt lat="44.68358795894836" lon="8.149690766888032"><ele>510.0</ele><time>2026-03-29T11:15:11Z</time></trkpt><trkpt lat="44.68366852271786" lon="8.1497696582098"><ele>510.0</ele><time>2026-03-29T11:15:11.999Z</time></trkpt><trkpt lat="44.68375853281348" lon="8.14983620160651"><ele>510.0</ele><time>2026-03-29T11:15:12.999Z</time></trkpt><trkpt lat="44.68382738648091" lon="8.149935213281733"><ele>510.0</ele><time>2026-03-29T11:15:13.999Z</time></trkpt><trkpt lat="44.683899358952836" lon="8.15001787093335"><ele>510.8</ele><time>2026-03-29T11:15:14.999Z</time></trkpt><trkpt lat="44.68396751299912" lon="8.150096541321988"><ele>511.6</ele><time>2026-03-29T11:15:15.999Z</time></trkpt><trkpt lat="44.684040347829445" lon="8.150167838814168"><ele>512.4</ele><time>2026-03-29T11:15:16.999Z</time></trkpt><trkpt lat="44.68410454051615" lon="8.15026092211978"><ele>513.2</ele><time>2026-03-29T11:15:17.999Z</time></trkpt><trkpt lat="44.684167278603326" lon="8.150352481420509"><ele>514.0</ele><time>2026-03-29T11:15:18.999Z</time></trkpt><trkpt lat="44.68423581950056" lon="8.150442533982089"><ele>514.0</ele><time>2026-03-29T11:15:19.999Z</time></trkpt><trkpt lat="44.68429431962909" lon="8.15053863630035"><ele>514.0</ele><time>2026-03-29T11:15:20.999Z</time></trkpt><trkpt lat="44.68436764315881" lon="8.150614136084782"><ele>514.0</ele><time>2026-03-29T11:15:21.999Z</time></trkpt><trkpt lat="44.684443810488325" lon="8.150671666352741"><ele>514.0</ele><time>2026-03-29T11:15:22.999Z</time></trkpt><trkpt lat="44.68450301168751" lon="8.150707727807779"><ele>514.0</ele><time>2026-03-29T11:15:23.999Z</time></trkpt><trkpt lat="44.684609543442235" lon="8.15078236990638"><ele>515.1666666666667</ele><time>2026-03-29T11:15:25.999Z</time></trkpt><trkpt lat="44.68468005860568" lon="8.150793714775856"><ele>516.3333333333334</ele><time>2026-03-29T11:15:26.999Z</time></trkpt><trkpt lat="44.68476234099029" lon="8.150846627808974"><ele>517.5</ele><time>2026-03-29T11:15:27.999Z</time></trkpt><trkpt lat="44.68485467981335" lon="8.150907002749552"><ele>518.6666666666666</ele><time>2026-03-29T11:15:28.999Z</time></trkpt><trkpt lat="44.684924942900196" lon="8.15094921181394"><ele>519.8333333333333</ele><time>2026-03-29T11:15:29.999Z</time></trkpt><trkpt lat="44.68500396215438" lon="8.151005751986677"><ele>521.0</ele><time>2026-03-29T11:15:31.999Z</time></trkpt><trkpt lat="44.68505804528401" lon="8.151087092193707"><ele>521.0</ele><time>2026-03-29T11:15:33.999Z</time></trkpt><trkpt lat="44.68512430757854" lon="8.151221029080967"><ele>521.0</ele><time>2026-03-29T11:15:35.999Z</time></trkpt><trkpt lat="44.68513973047862" lon="8.151319782898252"><ele>521.0</ele><time>2026-03-29T11:15:37.999Z</time></trkpt><trkpt lat="44.685191504849406" lon="8.15141715198362"><ele>521.0</ele><time>2026-03-29T11:16:50Z</time></trkpt><trkpt lat="44.68522956594126" lon="8.15157212629186"><ele>521.0</ele><time>2026-03-29T11:16:52Z</time></trkpt><trkpt lat="44.68521478158303" lon="8.151676852358364"><ele>520.8333333333333</ele><time>2026-03-29T11:16:53Z</time></trkpt><trkpt lat="44.685192346639596" lon="8.151780565778552"><ele>520.6666666666666</ele><time>2026-03-29T11:16:54Z</time></trkpt><trkpt lat="44.68516748682874" lon="8.151865953831745"><ele>520.5</ele><time>2026-03-29T11:16:55Z</time></trkpt><trkpt lat="44.685141226287016" lon="8.151949696760024"><ele>520.3333333333334</ele><time>2026-03-29T11:16:56Z</time></trkpt><trkpt lat="44.68514310050629" lon="8.152050404163175"><ele>520.1666666666667</ele><time>2026-03-29T11:16:57Z</time></trkpt><trkpt lat="44.68512368412888" lon="8.152197882100948"><ele>520.0</ele><time>2026-03-29T11:16:59Z</time></trkpt><trkpt lat="44.68511811161651" lon="8.15229076308802"><ele>520.2</ele><time>2026-03-29T11:17:00Z</time></trkpt><trkpt lat="44.685112710218576" lon="8.15238882078332"><ele>520.4</ele><time>2026-03-29T11:17:01Z</time></trkpt><trkpt lat="44.68513004107173" lon="8.152498203887085"><ele>520.6</ele><time>2026-03-29T11:17:02Z</time></trkpt><trkpt lat="44.68515267183173" lon="8.152604249160897"><ele>520.8</ele><time>2026-03-29T11:17:03Z</time></trkpt><trkpt lat="44.6851717981527" lon="8.152796398682387"><ele>521.0</ele><time>2026-03-29T11:17:04Z</time></trkpt><trkpt lat="44.68521333099461" lon="8.153020043298186"><ele>521.3333333333333</ele><time>2026-03-29T11:17:05Z</time></trkpt><trkpt lat="44.68525521033839" lon="8.153256415360843"><ele>521.6666666666666</ele><time>2026-03-29T11:17:06Z</time></trkpt><trkpt lat="44.68529215122865" lon="8.153493138880988"><ele>522.0</ele><time>2026-03-29T11:17:07Z</time></trkpt><trkpt lat="44.685334114667754" lon="8.15372014335643"><ele>519.25</ele><time>2026-03-29T11:17:08Z</time></trkpt><trkpt lat="44.68537736965405" lon="8.153921241170266"><ele>516.5</ele><time>2026-03-29T11:17:09Z</time></trkpt><trkpt lat="44.685417006081614" lon="8.154112425862753"><ele>513.75</ele><time>2026-03-29T11:17:09.999Z</time></trkpt><trkpt lat="44.68546057151965" lon="8.154299569360715"><ele>511.0</ele><time>2026-03-29T11:17:10.999Z</time></trkpt><trkpt lat="44.68550895182532" lon="8.154512429982352"><ele>511.0</ele><time>2026-03-29T11:17:11.999Z</time></trkpt><trkpt lat="44.68556565657229" lon="8.154758846137423"><ele>511.0</ele><time>2026-03-29T11:17:12.999Z</time></trkpt><trkpt lat="44.68563460400535" lon="8.155062780687883"><ele>511.0</ele><time>2026-03-29T11:17:13.999Z</time></trkpt><trkpt lat="44.68569957173407" lon="8.155388997676033"><ele>511.33333333333337</ele><time>2026-03-29T11:17:14.999Z</time></trkpt><trkpt lat="44.685762654564876" lon="8.155705771461413"><ele>511.66666666666663</ele><time>2026-03-29T11:17:15.999Z</time></trkpt><trkpt lat="44.68581745977892" lon="8.155968817056877"><ele>512.0</ele><time>2026-03-29T11:17:16.999Z</time></trkpt><trkpt lat="44.6858702283223" lon="8.156193268267533"><ele>512.0</ele><time>2026-03-29T11:17:17.999Z</time></trkpt><trkpt lat="44.68591403865309" lon="8.156397431566148"><ele>512.0</ele><time>2026-03-29T11:17:18.999Z</time></trkpt><trkpt lat="44.68595973603255" lon="8.156590874582909"><ele>512.0</ele><time>2026-03-29T11:17:19.999Z</time></trkpt><trkpt lat="44.68600908004654" lon="8.156776448142098"><ele>512.0</ele><time>2026-03-29T11:17:20.999Z</time></trkpt><trkpt lat="44.68609071985679" lon="8.1569732632777"><ele>512.3333333333333</ele><time>2026-03-29T11:17:21.999Z</time></trkpt><trkpt lat="44.6862058188333" lon="8.157180652494114"><ele>512.6666666666666</ele><time>2026-03-29T11:17:22.999Z</time></trkpt><trkpt lat="44.686347865499485" lon="8.1573985349329"><ele>513.0</ele><time>2026-03-29T11:17:23.999Z</time></trkpt><trkpt lat="44.68649277836902" lon="8.157584350729572"><ele>513.0</ele><time>2026-03-29T11:17:24.999Z</time></trkpt><trkpt lat="44.68661800243729" lon="8.157752186928697"><ele>513.0</ele><time>2026-03-29T11:17:25.999Z</time></trkpt><trkpt lat="44.686730634429956" lon="8.157906398628551"><ele>513.0</ele><time>2026-03-29T11:17:26.999Z</time></trkpt><trkpt lat="44.68683837823176" lon="8.158037608756542"><ele>510.66666666666663</ele><time>2026-03-29T11:17:27.999Z</time></trkpt><trkpt lat="44.68696306321574" lon="8.158165851001561"><ele>508.3333333333333</ele><time>2026-03-29T11:17:28.999Z</time></trkpt><trkpt lat="44.68711771582741" lon="8.158272924569022"><ele>506.0</ele><time>2026-03-29T11:17:29.999Z</time></trkpt><trkpt lat="44.68730096362691" lon="8.158331381697527"><ele>511.66666666666663</ele><time>2026-03-29T11:17:30.999Z</time></trkpt><trkpt lat="44.68750193854231" lon="8.158346214185132"><ele>517.3333333333334</ele><time>2026-03-29T11:17:31.999Z</time></trkpt><trkpt lat="44.68769552760708" lon="8.158312492435254"><ele>523.0</ele><time>2026-03-29T11:17:32.999Z</time></trkpt><trkpt lat="44.68787608132123" lon="8.15824267812228"><ele>525.6666666666667</ele><time>2026-03-29T11:17:33.999Z</time></trkpt><trkpt lat="44.68805493855504" lon="8.158225437241189"><ele>528.3333333333334</ele><time>2026-03-29T11:17:34.999Z</time></trkpt><trkpt lat="44.68823814696111" lon="8.15821483102124"><ele>531.0</ele><time>2026-03-29T11:17:35.999Z</time></trkpt><trkpt lat="44.688444228406944" lon="8.158147333933867"><ele>526.6666666666666</ele><time>2026-03-29T11:17:36.999Z</time></trkpt><trkpt lat="44.68863223559627" lon="8.158062485214717"><ele>522.3333333333333</ele><time>2026-03-29T11:17:37.999Z</time></trkpt><trkpt lat="44.688794423153034" lon="8.157978431094511"><ele>518.0</ele><time>2026-03-29T11:17:38.999Z</time></trkpt><trkpt lat="44.688924962727796" lon="8.157899124926118"><ele>518.0</ele><time>2026-03-29T11:17:39.999Z</time></trkpt><trkpt lat="44.68903526113304" lon="8.157788552995772"><ele>518.0</ele><time>2026-03-29T11:17:40.999Z</time></trkpt><trkpt lat="44.68912536176232" lon="8.157715630187214"><ele>518.0</ele><time>2026-03-29T11:17:41.999Z</time></trkpt><trkpt lat="44.6892031550571" lon="8.157682390116399"><ele>518.0</ele><time>2026-03-29T11:17:42.999Z</time></trkpt><trkpt lat="44.68927695611004" lon="8.157684005189754"><ele>518.0</ele><time>2026-03-29T11:17:43.999Z</time></trkpt><trkpt lat="44.6893497522837" lon="8.157720196717982"><ele>515.6666666666666</ele><time>2026-03-29T11:17:44.999Z</time></trkpt><trkpt lat="44.68944636282706" lon="8.157792465091946"><ele>513.3333333333334</ele><time>2026-03-29T11:17:45.999Z</time></trkpt><trkpt lat="44.68957648121797" lon="8.157915121058153"><ele>511.0</ele><time>2026-03-29T11:17:46.999Z</time></trkpt><trkpt lat="44.68972934746279" lon="8.158060009362622"><ele>512.3333333333334</ele><time>2026-03-29T11:17:47.999Z</time></trkpt><trkpt lat="44.689881120795" lon="8.158259740272305"><ele>513.6666666666666</ele><time>2026-03-29T11:17:48.999Z</time></trkpt><trkpt lat="44.69002616668801" lon="8.158480229010273"><ele>515.0</ele><time>2026-03-29T11:17:49.999Z</time></trkpt><trkpt lat="44.69016075522834" lon="8.158704074872679"><ele>510.0</ele><time>2026-03-29T11:17:50.999Z</time></trkpt><trkpt lat="44.69028153493097" lon="8.15890548814301"><ele>505.0</ele><time>2026-03-29T11:17:51.999Z</time></trkpt><trkpt lat="44.69038731583654" lon="8.159089280666644"><ele>500.0</ele><time>2026-03-29T11:17:52.999Z</time></trkpt><trkpt lat="44.69047563502341" lon="8.159261948239903"><ele>500.0</ele><time>2026-03-29T11:17:53.999Z</time></trkpt><trkpt lat="44.69055057968254" lon="8.159437328093215"><ele>500.0</ele><time>2026-03-29T11:17:54.999Z</time></trkpt><trkpt lat="44.69058136306373" lon="8.159581566589363"><ele>500.0</ele><time>2026-03-29T11:17:55.999Z</time></trkpt><trkpt lat="44.69057798065834" lon="8.15970896149639"><ele>500.0</ele><time>2026-03-29T11:17:56.999Z</time></trkpt><trkpt lat="44.69053723649053" lon="8.159834726743316"><ele>500.0</ele><time>2026-03-29T11:17:57.999Z</time></trkpt><trkpt lat="44.69045314699327" lon="8.159910617659852"><ele>497.75</ele><time>2026-03-29T11:17:58.999Z</time></trkpt><trkpt lat="44.690348906564324" lon="8.159976745294392"><ele>495.5</ele><time>2026-03-29T11:17:59.999Z</time></trkpt><trkpt lat="44.69021873776202" lon="8.160079917777024"><ele>493.25</ele><time>2026-03-29T11:18:00.999Z</time></trkpt><trkpt lat="44.69005719937301" lon="8.160193140964388"><ele>491.0</ele><time>2026-03-29T11:18:01.999Z</time></trkpt><trkpt lat="44.689913858975196" lon="8.16032587048102"><ele>492.0</ele><time>2026-03-29T11:18:02.999Z</time></trkpt><trkpt lat="44.68980612786099" lon="8.160474037028756"><ele>493.0</ele><time>2026-03-29T11:18:03.999Z</time></trkpt><trkpt lat="44.68973562153967" lon="8.16065270495347"><ele>494.0</ele><time>2026-03-29T11:18:04.999Z</time></trkpt><trkpt lat="44.68968289467949" lon="8.16087455716519"><ele>494.0</ele><time>2026-03-29T11:18:05.999Z</time></trkpt><trkpt lat="44.689640501818786" lon="8.161129104792973"><ele>494.0</ele><time>2026-03-29T11:18:06.999Z</time></trkpt><trkpt lat="44.68959968830997" lon="8.161378130124982"><ele>494.0</ele><time>2026-03-29T11:18:07.999Z</time></trkpt><trkpt lat="44.68955530712337" lon="8.161605746500511"><ele>492.66666666666663</ele><time>2026-03-29T11:18:08.999Z</time></trkpt><trkpt lat="44.68950611661895" lon="8.161826694558975"><ele>491.33333333333337</ele><time>2026-03-29T11:18:09.999Z</time></trkpt><trkpt lat="44.68945953712308" lon="8.162048681777867"><ele>490.0</ele><time>2026-03-29T11:18:10.999Z</time></trkpt><trkpt lat="44.68942373199826" lon="8.16226160134306"><ele>491.6666666666667</ele><time>2026-03-29T11:18:11.999Z</time></trkpt><trkpt lat="44.689392007715945" lon="8.162472281525265"><ele>493.33333333333337</ele><time>2026-03-29T11:18:12.999Z</time></trkpt><trkpt lat="44.68936353096021" lon="8.16268087401044"><ele>495.0</ele><time>2026-03-29T11:18:13.999Z</time></trkpt><trkpt lat="44.689334036436584" lon="8.162902758342868"><ele>495.0</ele><time>2026-03-29T11:18:14.999Z</time></trkpt><trkpt lat="44.68929615523627" lon="8.163160258306842"><ele>495.0</ele><time>2026-03-29T11:18:15.999Z</time></trkpt><trkpt lat="44.6892533142474" lon="8.163453372286869"><ele>495.0</ele><time>2026-03-29T11:18:16.999Z</time></trkpt><trkpt lat="44.689210684195736" lon="8.163763899996251"><ele>489.66666666666663</ele><time>2026-03-29T11:18:17.999Z</time></trkpt><trkpt lat="44.68916523555502" lon="8.164057415028253"><ele>484.3333333333333</ele><time>2026-03-29T11:18:18.999Z</time></trkpt><trkpt lat="44.68912483843257" lon="8.164330926680114"><ele>479.0</ele><time>2026-03-29T11:18:19.999Z</time></trkpt><trkpt lat="44.68910030627628" lon="8.164568104297942"><ele>479.0</ele><time>2026-03-29T11:18:20.999Z</time></trkpt><trkpt lat="44.689103334001906" lon="8.164770880311869"><ele>479.0</ele><time>2026-03-29T11:18:21.999Z</time></trkpt><trkpt lat="44.689111210463786" lon="8.164961762439182"><ele>479.0</ele><time>2026-03-29T11:18:22.999Z</time></trkpt><trkpt lat="44.689064779563495" lon="8.165122305750344"><ele>479.0</ele><time>2026-03-29T11:18:23.999Z</time></trkpt><trkpt lat="44.689017034693016" lon="8.165269602578302"><ele>477.5</ele><time>2026-03-29T11:18:24.999Z</time></trkpt><trkpt lat="44.68896340625368" lon="8.165429522711156"><ele>476.0</ele><time>2026-03-29T11:18:26Z</time></trkpt><trkpt lat="44.68889400426729" lon="8.16557425292283"><ele>474.5</ele><time>2026-03-29T11:18:27Z</time></trkpt><trkpt lat="44.688838409139706" lon="8.16570868353224"><ele>473.0</ele><time>2026-03-29T11:18:28Z</time></trkpt><trkpt lat="44.68879764146114" lon="8.165844003375705"><ele>471.25</ele><time>2026-03-29T11:18:29Z</time></trkpt><trkpt lat="44.688762069945284" lon="8.16600315408556"><ele>469.5</ele><time>2026-03-29T11:18:30Z</time></trkpt><trkpt lat="44.688744425604035" lon="8.166178971655972"><ele>467.75</ele><time>2026-03-29T11:18:31Z</time></trkpt><trkpt lat="44.688762298690854" lon="8.166348589477343"><ele>466.0</ele><time>2026-03-29T11:18:32Z</time></trkpt><trkpt lat="44.68879820844998" lon="8.166531821126892"><ele>464.25</ele><time>2026-03-29T11:18:33Z</time></trkpt><trkpt lat="44.688824926112815" lon="8.166707753117834"><ele>462.5</ele><time>2026-03-29T11:18:34Z</time></trkpt><trkpt lat="44.68882221554027" lon="8.166880505876211"><ele>460.75</ele><time>2026-03-29T11:18:35Z</time></trkpt><trkpt lat="44.688789873954626" lon="8.167043713369656"><ele>459.0</ele><time>2026-03-29T11:18:36Z</time></trkpt><trkpt lat="44.688734225324666" lon="8.167196858013808"><ele>459.0</ele><time>2026-03-29T11:18:37Z</time></trkpt><trkpt lat="44.6886389452278" lon="8.167303622727369"><ele>459.0</ele><time>2026-03-29T11:18:38Z</time></trkpt><trkpt lat="44.68856444558997" lon="8.167421504151354"><ele>459.0</ele><time>2026-03-29T11:18:39Z</time></trkpt><trkpt lat="44.688503836227774" lon="8.167521324021893"><ele>459.0</ele><time>2026-03-29T11:18:40Z</time></trkpt><trkpt lat="44.688475726430795" lon="8.16763533374207"><ele>459.0</ele><time>2026-03-29T11:18:41Z</time></trkpt><trkpt lat="44.68849807436456" lon="8.167752344069292"><ele>459.4</ele><time>2026-03-29T11:18:42Z</time></trkpt><trkpt lat="44.68855212014517" lon="8.167852522528289"><ele>459.79999999999995</ele><time>2026-03-29T11:18:43Z</time></trkpt><trkpt lat="44.68862454005642" lon="8.167947614879193"><ele>460.20000000000005</ele><time>2026-03-29T11:18:44Z</time></trkpt><trkpt lat="44.68870088409795" lon="8.168069651708734"><ele>460.6</ele><time>2026-03-29T11:18:45Z</time></trkpt><trkpt lat="44.68876152136579" lon="8.16823425831233"><ele>461.0</ele><time>2026-03-29T11:18:46Z</time></trkpt><trkpt lat="44.68880337332409" lon="8.168457265272483"><ele>455.0</ele><time>2026-03-29T11:18:47Z</time></trkpt><trkpt lat="44.68882829455762" lon="8.16872080377657"><ele>449.0</ele><time>2026-03-29T11:18:48Z</time></trkpt><trkpt lat="44.68885081936981" lon="8.168996207326742"><ele>443.0</ele><time>2026-03-29T11:18:49Z</time></trkpt><trkpt lat="44.68888383988817" lon="8.169274661763282"><ele>443.0</ele><time>2026-03-29T11:18:50Z</time></trkpt><trkpt lat="44.68890729257651" lon="8.169514130321177"><ele>443.0</ele><time>2026-03-29T11:18:51Z</time></trkpt><trkpt lat="44.688893474679915" lon="8.169718944645526"><ele>443.0</ele><time>2026-03-29T11:18:52Z</time></trkpt><trkpt lat="44.68886551682204" lon="8.169894848629172"><ele>443.0</ele><time>2026-03-29T11:18:53Z</time></trkpt><trkpt lat="44.688858742173984" lon="8.170048905566082"><ele>442.75</ele><time>2026-03-29T11:18:54Z</time></trkpt><trkpt lat="44.68886952835809" lon="8.17020521634806"><ele>442.5</ele><time>2026-03-29T11:18:55Z</time></trkpt><trkpt lat="44.68891481811293" lon="8.170393348428917"><ele>442.25</ele><time>2026-03-29T11:18:56Z</time></trkpt><trkpt lat="44.68897047791848" lon="8.170623283811516"><ele>442.0</ele><time>2026-03-29T11:18:57Z</time></trkpt><trkpt lat="44.68900406574341" lon="8.170843246671941"><ele>441.25</ele><time>2026-03-29T11:18:58Z</time></trkpt><trkpt lat="44.688983094472235" lon="8.171045046427155"><ele>440.5</ele><time>2026-03-29T11:18:59Z</time></trkpt><trkpt lat="44.68897486462697" lon="8.171238590346613"><ele>439.75</ele><time>2026-03-29T11:19:00Z</time></trkpt><trkpt lat="44.68894112147008" lon="8.171427560225046"><ele>439.0</ele><time>2026-03-29T11:19:01Z</time></trkpt><trkpt lat="44.68893024528415" lon="8.171648761400979"><ele>437.33333333333337</ele><time>2026-03-29T11:19:02Z</time></trkpt><trkpt lat="44.688947659243816" lon="8.171925270626977"><ele>435.66666666666663</ele><time>2026-03-29T11:19:03Z</time></trkpt><trkpt lat="44.68895586114131" lon="8.172239031491891"><ele>434.0</ele><time>2026-03-29T11:19:04Z</time></trkpt><trkpt lat="44.68893479001487" lon="8.172543248641574"><ele>430.3333333333333</ele><time>2026-03-29T11:19:05Z</time></trkpt><trkpt lat="44.68891848182718" lon="8.172814159914562"><ele>426.66666666666663</ele><time>2026-03-29T11:19:06Z</time></trkpt><trkpt lat="44.68893963166868" lon="8.173058624073455"><ele>423.0</ele><time>2026-03-29T11:19:07Z</time></trkpt><trkpt lat="44.68898026442404" lon="8.17329821763292"><ele>423.0</ele><time>2026-03-29T11:19:08Z</time></trkpt><trkpt lat="44.689026103956216" lon="8.173539846319605"><ele>423.0</ele><time>2026-03-29T11:19:09Z</time></trkpt><trkpt lat="44.68906781792618" lon="8.173787666426632"><ele>423.0</ele><time>2026-03-29T11:19:09.999Z</time></trkpt><trkpt lat="44.689099050106684" lon="8.174062152516836"><ele>423.0</ele><time>2026-03-29T11:19:10.999Z</time></trkpt><trkpt lat="44.68912078918282" lon="8.174369748227116"><ele>423.0</ele><time>2026-03-29T11:19:11.999Z</time></trkpt><trkpt lat="44.68913956336924" lon="8.174735568880878"><ele>418.5</ele><time>2026-03-29T11:19:12.999Z</time></trkpt><trkpt lat="44.68915972490898" lon="8.175131176524951"><ele>414.0</ele><time>2026-03-29T11:19:13.999Z</time></trkpt><trkpt lat="44.68917968093902" lon="8.1755194598103"><ele>409.5</ele><time>2026-03-29T11:19:14.999Z</time></trkpt><trkpt lat="44.689198582116745" lon="8.175866720760602"><ele>405.0</ele><time>2026-03-29T11:19:15.999Z</time></trkpt><trkpt lat="44.689214410643196" lon="8.176182449425655"><ele>405.0</ele><time>2026-03-29T11:19:16.999Z</time></trkpt><trkpt lat="44.68923202134315" lon="8.176483861517422"><ele>405.0</ele><time>2026-03-29T11:19:17.999Z</time></trkpt><trkpt lat="44.689251380011335" lon="8.176777037383216"><ele>405.0</ele><time>2026-03-29T11:19:18.999Z</time></trkpt><trkpt lat="44.68927077414804" lon="8.17706864288863"><ele>399.66666666666663</ele><time>2026-03-29T11:19:19.999Z</time></trkpt><trkpt lat="44.68928963120329" lon="8.177358850287591"><ele>394.3333333333333</ele><time>2026-03-29T11:19:20.999Z</time></trkpt><trkpt lat="44.68930228193968" lon="8.177626947029937"><ele>389.0</ele><time>2026-03-29T11:19:21.999Z</time></trkpt><trkpt lat="44.68930427598882" lon="8.177857505536572"><ele>389.0</ele><time>2026-03-29T11:19:22.999Z</time></trkpt><trkpt lat="44.68929181311777" lon="8.178051631823166"><ele>389.0</ele><time>2026-03-29T11:19:23.999Z</time></trkpt><trkpt lat="44.68926362285769" lon="8.178219763538927"><ele>389.0</ele><time>2026-03-29T11:19:24.999Z</time></trkpt><trkpt lat="44.6892107407721" lon="8.178373419157058"><ele>389.0</ele><time>2026-03-29T11:19:25.999Z</time></trkpt><trkpt lat="44.68913752558734" lon="8.178507988850988"><ele>389.25</ele><time>2026-03-29T11:19:26.999Z</time></trkpt><trkpt lat="44.689053882221835" lon="8.178657477940066"><ele>389.5</ele><time>2026-03-29T11:19:27.999Z</time></trkpt><trkpt lat="44.68898407236093" lon="8.178837155776153"><ele>389.75</ele><time>2026-03-29T11:19:28.999Z</time></trkpt><trkpt lat="44.688924216731856" lon="8.17902511031839"><ele>390.0</ele><time>2026-03-29T11:19:29.999Z</time></trkpt><trkpt lat="44.688864363323056" lon="8.1791780046101"><ele>390.0</ele><time>2026-03-29T11:19:30.999Z</time></trkpt><trkpt lat="44.68880123788409" lon="8.179311061231791"><ele>390.0</ele><time>2026-03-29T11:19:31.999Z</time></trkpt><trkpt lat="44.688734933364195" lon="8.17943295870184"><ele>390.0</ele><time>2026-03-29T11:19:32.999Z</time></trkpt><trkpt lat="44.68867907798366" lon="8.179560206053118"><ele>390.0</ele><time>2026-03-29T11:19:33.999Z</time></trkpt><trkpt lat="44.688643215748854" lon="8.179717617033718"><ele>390.0</ele><time>2026-03-29T11:19:34.999Z</time></trkpt><trkpt lat="44.688634910039056" lon="8.17988823938865"><ele>388.75</ele><time>2026-03-29T11:19:35.999Z</time></trkpt><trkpt lat="44.68864938666409" lon="8.1800563108487"><ele>387.5</ele><time>2026-03-29T11:19:36.999Z</time></trkpt><trkpt lat="44.68868474504559" lon="8.180233938136382"><ele>386.25</ele><time>2026-03-29T11:19:37.999Z</time></trkpt><trkpt lat="44.68873888951229" lon="8.18041425138258"><ele>385.0</ele><time>2026-03-29T11:19:38.999Z</time></trkpt><trkpt lat="44.688782834753425" lon="8.18059238654678"><ele>381.75</ele><time>2026-03-29T11:19:39.999Z</time></trkpt><trkpt lat="44.68879672926543" lon="8.180772521729192"><ele>378.5</ele><time>2026-03-29T11:19:40.999Z</time></trkpt><trkpt lat="44.68879366761661" lon="8.180948759134438"><ele>375.25</ele><time>2026-03-29T11:19:41.999Z</time></trkpt><trkpt lat="44.68877553126758" lon="8.181116974875659"><ele>372.0</ele><time>2026-03-29T11:19:42.999Z</time></trkpt><trkpt lat="44.68873534803437" lon="8.1812887130122"><ele>372.0</ele><time>2026-03-29T11:19:43.999Z</time></trkpt><trkpt lat="44.68867504151503" lon="8.181465128948824"><ele>372.0</ele><time>2026-03-29T11:19:44.999Z</time></trkpt><trkpt lat="44.68860033781441" lon="8.18165567095015"><ele>372.0</ele><time>2026-03-29T11:19:45.999Z</time></trkpt><trkpt lat="44.688533191250755" lon="8.18185293685508"><ele>372.0</ele><time>2026-03-29T11:19:46.999Z</time></trkpt><trkpt lat="44.688460961514195" lon="8.182051837133518"><ele>368.0</ele><time>2026-03-29T11:19:47.999Z</time></trkpt><trkpt lat="44.68838918530698" lon="8.18223770195994"><ele>364.0</ele><time>2026-03-29T11:19:48.999Z</time></trkpt><trkpt lat="44.68834325071321" lon="8.182396663239864"><ele>360.0</ele><time>2026-03-29T11:19:49.999Z</time></trkpt><trkpt lat="44.68832171492123" lon="8.182542291705158"><ele>356.0</ele><time>2026-03-29T11:19:50.999Z</time></trkpt><trkpt lat="44.688313638581704" lon="8.182693027888734"><ele>354.75</ele><time>2026-03-29T11:19:51.999Z</time></trkpt><trkpt lat="44.68833154118405" lon="8.18284895646731"><ele>353.5</ele><time>2026-03-29T11:19:52.999Z</time></trkpt><trkpt lat="44.688379865590214" lon="8.183021808108036"><ele>352.25</ele><time>2026-03-29T11:19:53.999Z</time></trkpt><trkpt lat="44.68843403619972" lon="8.183229180700529"><ele>351.0</ele><time>2026-03-29T11:19:54.999Z</time></trkpt><trkpt lat="44.68851522581925" lon="8.18345760532521"><ele>349.5</ele><time>2026-03-29T11:19:55.999Z</time></trkpt><trkpt lat="44.68859251930746" lon="8.183656577874839"><ele>348.0</ele><time>2026-03-29T11:19:56.999Z</time></trkpt><trkpt lat="44.6886674584103" lon="8.18383538601047"><ele>346.5</ele><time>2026-03-29T11:19:57.999Z</time></trkpt><trkpt lat="44.688709507156744" lon="8.184014720262144"><ele>345.0</ele><time>2026-03-29T11:19:58.999Z</time></trkpt><trkpt lat="44.6887269324997" lon="8.184202323870839"><ele>345.0</ele><time>2026-03-29T11:19:59.999Z</time></trkpt><trkpt lat="44.68872041292202" lon="8.184409880178226"><ele>345.0</ele><time>2026-03-29T11:20:00.999Z</time></trkpt><trkpt lat="44.68868287385542" lon="8.184623536554026"><ele>345.0</ele><time>2026-03-29T11:20:01.999Z</time></trkpt><trkpt lat="44.68864161473321" lon="8.184830864637137"><ele>346.0</ele><time>2026-03-29T11:20:02.999Z</time></trkpt><trkpt lat="44.6886145240045" lon="8.184972743603923"><ele>347.0</ele><time>2026-03-29T11:20:03.999Z</time></trkpt><trkpt lat="44.68859111596897" lon="8.185112294930525"><ele>348.0</ele><time>2026-03-29T11:20:04.999Z</time></trkpt><trkpt lat="44.68859815795391" lon="8.185256116369525"><ele>349.0</ele><time>2026-03-29T11:20:05.999Z</time></trkpt><trkpt lat="44.6886297029987" lon="8.185431801400425"><ele>350.0</ele><time>2026-03-29T11:20:06.999Z</time></trkpt><trkpt lat="44.68866163533009" lon="8.185608114547257"><ele>348.75</ele><time>2026-03-29T11:20:07.999Z</time></trkpt><trkpt lat="44.688688786212076" lon="8.185778329469025"><ele>347.5</ele><time>2026-03-29T11:20:08.999Z</time></trkpt><trkpt lat="44.68872074388773" lon="8.185957153520818"><ele>346.25</ele><time>2026-03-29T11:20:09.999Z</time></trkpt><trkpt lat="44.6887768512819" lon="8.186136161722478"><ele>345.0</ele><time>2026-03-29T11:20:10.999Z</time></trkpt><trkpt lat="44.688843823602724" lon="8.186295908965818"><ele>345.0</ele><time>2026-03-29T11:20:11.999Z</time></trkpt><trkpt lat="44.688901411413006" lon="8.1864544938443"><ele>345.0</ele><time>2026-03-29T11:20:12.999Z</time></trkpt><trkpt lat="44.68891828738534" lon="8.186626412893354"><ele>345.0</ele><time>2026-03-29T11:20:13.999Z</time></trkpt><trkpt lat="44.68891995306145" lon="8.18679893727547"><ele>345.0</ele><time>2026-03-29T11:20:14.999Z</time></trkpt><trkpt lat="44.68890777427946" lon="8.18698592272015"><ele>341.0</ele><time>2026-03-29T11:20:15.999Z</time></trkpt><trkpt lat="44.688900978256896" lon="8.187200046428751"><ele>337.0</ele><time>2026-03-29T11:20:16.999Z</time></trkpt><trkpt lat="44.68887099184122" lon="8.187442009185531"><ele>333.0</ele><time>2026-03-29T11:20:17.999Z</time></trkpt><trkpt lat="44.68884054902879" lon="8.187711454856114"><ele>329.0</ele><time>2026-03-29T11:20:18.999Z</time></trkpt><trkpt lat="44.68881043674114" lon="8.18794995086666"><ele>325.0</ele><time>2026-03-29T11:20:19.999Z</time></trkpt><trkpt lat="44.68878695569057" lon="8.188159378091395"><ele>321.0</ele><time>2026-03-29T11:20:20.999Z</time></trkpt><trkpt lat="44.68873855597004" lon="8.18835318377573"><ele>319.40000000000003</ele><time>2026-03-29T11:20:21.999Z</time></trkpt><trkpt lat="44.688710676042376" lon="8.188539840605596"><ele>317.8</ele><time>2026-03-29T11:20:22.999Z</time></trkpt><trkpt lat="44.68866145509141" lon="8.188685521134087"><ele>316.20000000000005</ele><time>2026-03-29T11:20:23.999Z</time></trkpt><trkpt lat="44.68861658836157" lon="8.188803448271335"><ele>314.6</ele><time>2026-03-29T11:20:24.999Z</time></trkpt><trkpt lat="44.68852566188155" lon="8.1888741224854"><ele>313.0</ele><time>2026-03-29T11:20:25.999Z</time></trkpt><trkpt lat="44.68842248924826" lon="8.188920047114975"><ele>313.25</ele><time>2026-03-29T11:20:26.999Z</time></trkpt><trkpt lat="44.688330978097106" lon="8.189012559703631"><ele>313.5</ele><time>2026-03-29T11:20:27.999Z</time></trkpt><trkpt lat="44.68823807583726" lon="8.189135048664246"><ele>313.75</ele><time>2026-03-29T11:20:28.999Z</time></trkpt><trkpt lat="44.68817373792681" lon="8.189268488724306"><ele>314.0</ele><time>2026-03-29T11:20:29.999Z</time></trkpt><trkpt lat="44.68813705728878" lon="8.189421102121504"><ele>314.0</ele><time>2026-03-29T11:20:30.999Z</time></trkpt><trkpt lat="44.688073746439294" lon="8.189628217779266"><ele>314.0</ele><time>2026-03-29T11:20:32Z</time></trkpt><trkpt lat="44.68798416666653" lon="8.189863638905882"><ele>314.0</ele><time>2026-03-29T11:20:33Z</time></trkpt><trkpt lat="44.687890657319706" lon="8.190086556742347"><ele>314.5</ele><time>2026-03-29T11:20:34Z</time></trkpt><trkpt lat="44.68781734433057" lon="8.190258914336242"><ele>315.0</ele><time>2026-03-29T11:20:35Z</time></trkpt><trkpt lat="44.68773966622111" lon="8.190414178801237"><ele>315.5</ele><time>2026-03-29T11:20:36Z</time></trkpt><trkpt lat="44.687628988240895" lon="8.190518658702327"><ele>316.0</ele><time>2026-03-29T11:20:37Z</time></trkpt><trkpt lat="44.687517938015816" lon="8.190630712663733"><ele>316.5</ele><time>2026-03-29T11:20:38Z</time></trkpt><trkpt lat="44.68740672872554" lon="8.19073166598883"><ele>317.0</ele><time>2026-03-29T11:20:39Z</time></trkpt><trkpt lat="44.687306757557884" lon="8.190802598401158"><ele>317.5</ele><time>2026-03-29T11:20:40Z</time></trkpt><trkpt lat="44.68722649797658" lon="8.190878300494191"><ele>318.0</ele><time>2026-03-29T11:20:41Z</time></trkpt><trkpt lat="44.68715825800729" lon="8.190998233553197"><ele>318.0</ele><time>2026-03-29T11:20:42Z</time></trkpt><trkpt lat="44.687106326613076" lon="8.191088289420811"><ele>318.0</ele><time>2026-03-29T11:20:43Z</time></trkpt><trkpt lat="44.68703951449394" lon="8.191259882590938"><ele>318.0</ele><time>2026-03-29T11:20:44Z</time></trkpt><trkpt lat="44.68692568814375" lon="8.19139843765574"><ele>318.0</ele><time>2026-03-29T11:20:45Z</time></trkpt><trkpt lat="44.68682540329647" lon="8.191482242285916"><ele>312.25</ele><time>2026-03-29T11:20:46Z</time></trkpt><trkpt lat="44.68675437862081" lon="8.191644230434326"><ele>306.5</ele><time>2026-03-29T11:20:47Z</time></trkpt><trkpt lat="44.68669420196443" lon="8.191804805418732"><ele>300.75</ele><time>2026-03-29T11:20:48Z</time></trkpt><trkpt lat="44.686636833557976" lon="8.191950898496815"><ele>295.0</ele><time>2026-03-29T11:20:49Z</time></trkpt><trkpt lat="44.68658883207319" lon="8.192124932478324"><ele>295.0</ele><time>2026-03-29T11:20:50Z</time></trkpt><trkpt lat="44.68655476997036" lon="8.192278540494291"><ele>295.0</ele><time>2026-03-29T11:20:51Z</time></trkpt><trkpt lat="44.68651982917613" lon="8.192418053483953"><ele>295.0</ele><time>2026-03-29T11:20:52Z</time></trkpt><trkpt lat="44.686519315573626" lon="8.192562135862527"><ele>295.0</ele><time>2026-03-29T11:20:53Z</time></trkpt><trkpt lat="44.68657023359163" lon="8.192739242131015"><ele>298.0</ele><time>2026-03-29T11:20:54Z</time></trkpt><trkpt lat="44.68662679172423" lon="8.192932254969508"><ele>301.0</ele><time>2026-03-29T11:20:55Z</time></trkpt><trkpt lat="44.68659630383187" lon="8.193088830511137"><ele>304.0</ele><time>2026-03-29T11:20:56Z</time></trkpt><trkpt lat="44.68655153609757" lon="8.19322798809963"><ele>307.0</ele><time>2026-03-29T11:20:57Z</time></trkpt><trkpt lat="44.686515312000154" lon="8.193372798642311"><ele>307.0</ele><time>2026-03-29T11:20:58Z</time></trkpt><trkpt lat="44.68647327910689" lon="8.19351207130347"><ele>307.0</ele><time>2026-03-29T11:20:59Z</time></trkpt><trkpt lat="44.686430230561314" lon="8.193611100558657"><ele>307.0</ele><time>2026-03-29T11:21:00Z</time></trkpt><trkpt lat="44.686372959601194" lon="8.193690360312445"><ele>307.0</ele><time>2026-03-29T11:21:01Z</time></trkpt><trkpt lat="44.68631435364481" lon="8.193731092777334"><ele>307.0</ele><time>2026-03-29T11:21:02Z</time></trkpt><trkpt lat="44.68623077295924" lon="8.193748882524392"><ele>307.0</ele><time>2026-03-29T11:21:03Z</time></trkpt><trkpt lat="44.68616960792171" lon="8.193790435300588"><ele>307.0</ele><time>2026-03-29T11:21:04Z</time></trkpt><trkpt lat="44.68611555192392" lon="8.193846789316773"><ele>307.0</ele><time>2026-03-29T11:21:05Z</time></trkpt><trkpt lat="44.68609978816287" lon="8.19394811128136"><ele>307.0</ele><time>2026-03-29T11:21:06Z</time></trkpt><trkpt lat="44.686089471907565" lon="8.194070580758138"><ele>307.0</ele><time>2026-03-29T11:21:07Z</time></trkpt><trkpt lat="44.686085455620365" lon="8.19422538697631"><ele>307.0</ele><time>2026-03-29T11:21:08Z</time></trkpt><trkpt lat="44.686049036105466" lon="8.194382447265445"><ele>300.66666666666663</ele><time>2026-03-29T11:21:09Z</time></trkpt><trkpt lat="44.686004413179965" lon="8.194520755331162"><ele>294.3333333333333</ele><time>2026-03-29T11:21:10Z</time></trkpt><trkpt lat="44.685968215134714" lon="8.194641219354098"><ele>288.0</ele><time>2026-03-29T11:21:11Z</time></trkpt><trkpt lat="44.68594049612376" lon="8.194758062520975"><ele>281.6666666666667</ele><time>2026-03-29T11:21:12Z</time></trkpt><trkpt lat="44.68593088635555" lon="8.194871144438833"><ele>275.33333333333337</ele><time>2026-03-29T11:21:13Z</time></trkpt><trkpt lat="44.68594827718312" lon="8.194976570879497"><ele>269.0</ele><time>2026-03-29T11:21:14Z</time></trkpt><trkpt lat="44.68597976717499" lon="8.19509204431712"><ele>269.0</ele><time>2026-03-29T11:21:15Z</time></trkpt><trkpt lat="44.68598112084973" lon="8.195225192316899"><ele>269.0</ele><time>2026-03-29T11:21:16Z</time></trkpt><trkpt lat="44.68593259224641" lon="8.195351448593277"><ele>269.0</ele><time>2026-03-29T11:21:17Z</time></trkpt><trkpt lat="44.68590100684079" lon="8.195465260695828"><ele>269.0</ele><time>2026-03-29T11:21:18Z</time></trkpt><trkpt lat="44.685917511520245" lon="8.195578358438786"><ele>269.0</ele><time>2026-03-29T11:21:19Z</time></trkpt><trkpt lat="44.685948936968884" lon="8.195682697113797"><ele>269.0</ele><time>2026-03-29T11:21:20Z</time></trkpt><trkpt lat="44.68599548832419" lon="8.195818084534896"><ele>267.25</ele><time>2026-03-29T11:21:21Z</time></trkpt><trkpt lat="44.685994656151415" lon="8.195994614129322"><ele>265.5</ele><time>2026-03-29T11:21:21.999Z</time></trkpt><trkpt lat="44.686019867422615" lon="8.196176099562873"><ele>263.75</ele><time>2026-03-29T11:21:22.999Z</time></trkpt><trkpt lat="44.686023100954394" lon="8.19635173065383"><ele>262.0</ele><time>2026-03-29T11:21:23.999Z</time></trkpt><trkpt lat="44.68598158545629" lon="8.196525234866694"><ele>260.2</ele><time>2026-03-29T11:21:24.999Z</time></trkpt><trkpt lat="44.68598868621479" lon="8.196693876707773"><ele>258.4</ele><time>2026-03-29T11:21:25.999Z</time></trkpt><trkpt lat="44.685995202555006" lon="8.196838482011051"><ele>256.6</ele><time>2026-03-29T11:21:26.999Z</time></trkpt><trkpt lat="44.68601984083023" lon="8.196945544540815"><ele>254.8</ele><time>2026-03-29T11:21:27.999Z</time></trkpt><trkpt lat="44.68605055373485" lon="8.197052901303497"><ele>253.0</ele><time>2026-03-29T11:21:28.999Z</time></trkpt><trkpt lat="44.68614575305277" lon="8.197118361437068"><ele>255.2</ele><time>2026-03-29T11:21:29.999Z</time></trkpt><trkpt lat="44.6862282299165" lon="8.19719113223471"><ele>257.4</ele><time>2026-03-29T11:21:30.999Z</time></trkpt><trkpt lat="44.686268744974555" lon="8.19731590952861"><ele>259.59999999999997</ele><time>2026-03-29T11:21:31.999Z</time></trkpt><trkpt lat="44.68627676602557" lon="8.197451673101634"><ele>261.8</ele><time>2026-03-29T11:21:32.999Z</time></trkpt><trkpt lat="44.68627475285503" lon="8.197596261766376"><ele>264.0</ele><time>2026-03-29T11:21:33.999Z</time></trkpt><trkpt lat="44.68627548438664" lon="8.197734391552073"><ele>264.0</ele><time>2026-03-29T11:21:34.999Z</time></trkpt><trkpt lat="44.68628219050978" lon="8.197870456579892"><ele>264.0</ele><time>2026-03-29T11:21:35.999Z</time></trkpt><trkpt lat="44.686318319977964" lon="8.198022028664228"><ele>264.0</ele><time>2026-03-29T11:21:36.999Z</time></trkpt><trkpt lat="44.68637017537696" lon="8.198161138323998"><ele>264.0</ele><time>2026-03-29T11:21:37.999Z</time></trkpt><trkpt lat="44.686407601518745" lon="8.198283349613238"><ele>264.0</ele><time>2026-03-29T11:21:38.999Z</time></trkpt><trkpt lat="44.686459335359984" lon="8.198381173822401"><ele>261.4</ele><time>2026-03-29T11:21:39.999Z</time></trkpt><trkpt lat="44.68653353485302" lon="8.19847549512553"><ele>258.79999999999995</ele><time>2026-03-29T11:21:40.999Z</time></trkpt><trkpt lat="44.68662670841352" lon="8.198565567256084"><ele>256.20000000000005</ele><time>2026-03-29T11:21:41.999Z</time></trkpt><trkpt lat="44.686720913582356" lon="8.198644477190054"><ele>253.60000000000002</ele><time>2026-03-29T11:21:42.999Z</time></trkpt><trkpt lat="44.686834764979764" lon="8.198710409764168"><ele>251.0</ele><time>2026-03-29T11:21:43.999Z</time></trkpt><trkpt lat="44.686959869061226" lon="8.198752772202328"><ele>249.60000000000002</ele><time>2026-03-29T11:21:44.999Z</time></trkpt><trkpt lat="44.68707269242807" lon="8.198806017562005"><ele>248.20000000000002</ele><time>2026-03-29T11:21:45.999Z</time></trkpt><trkpt lat="44.68717443015184" lon="8.198789008781914"><ele>246.79999999999998</ele><time>2026-03-29T11:21:46.999Z</time></trkpt><trkpt lat="44.687266725140354" lon="8.198779022752046"><ele>245.39999999999998</ele><time>2026-03-29T11:21:47.999Z</time></trkpt><trkpt lat="44.687348242008525" lon="8.198716662293187"><ele>244.0</ele><time>2026-03-29T11:21:48.999Z</time></trkpt><trkpt lat="44.68742257645941" lon="8.198674795325868"><ele>243.99999999999997</ele><time>2026-03-29T11:21:49.999Z</time></trkpt><trkpt lat="44.68749619503129" lon="8.198651433509122"><ele>244.0</ele><time>2026-03-29T11:21:50.999Z</time></trkpt><trkpt lat="44.68756216825692" lon="8.198690629148377"><ele>244.0</ele><time>2026-03-29T11:21:51.999Z</time></trkpt><trkpt lat="44.68761859154323" lon="8.198752649128561"><ele>244.0</ele><time>2026-03-29T11:21:52.999Z</time></trkpt><trkpt lat="44.68762353991722" lon="8.19892326682846"><ele>243.99999999999997</ele><time>2026-03-29T11:21:54.999Z</time></trkpt><trkpt lat="44.68756816407672" lon="8.198989715765698"><ele>244.0</ele><time>2026-03-29T11:21:55.999Z</time></trkpt><trkpt lat="44.687492149177835" lon="8.199018889220959"><ele>244.0</ele><time>2026-03-29T11:21:56.999Z</time></trkpt><trkpt lat="44.68740088017278" lon="8.19899066051794"><ele>243.99999999999997</ele><time>2026-03-29T11:21:57.999Z</time></trkpt><trkpt lat="44.68729630549909" lon="8.198974675527383"><ele>243.99999999999997</ele><time>2026-03-29T11:21:58.999Z</time></trkpt><trkpt lat="44.68718415749287" lon="8.19901281923992"><ele>244.0</ele><time>2026-03-29T11:21:59.999Z</time></trkpt><trkpt lat="44.68707131992089" lon="8.19906196146172"><ele>244.0</ele><time>2026-03-29T11:22:00.999Z</time></trkpt><trkpt lat="44.686954228113684" lon="8.199122541927354"><ele>241.25</ele><time>2026-03-29T11:22:01.999Z</time></trkpt><trkpt lat="44.686839814226275" lon="8.19912058020619"><ele>238.5</ele><time>2026-03-29T11:22:02.999Z</time></trkpt><trkpt lat="44.68671944460732" lon="8.199147192179211"><ele>235.75</ele><time>2026-03-29T11:22:03.999Z</time></trkpt><trkpt lat="44.68658262109178" lon="8.19915905353892"><ele>233.0</ele><time>2026-03-29T11:22:04.999Z</time></trkpt><trkpt lat="44.68643147874037" lon="8.199181280788354"><ele>233.0</ele><time>2026-03-29T11:22:05.999Z</time></trkpt><trkpt lat="44.68629126793309" lon="8.19920907694198"><ele>233.0</ele><time>2026-03-29T11:22:06.999Z</time></trkpt><trkpt lat="44.686173849738175" lon="8.199252373124143"><ele>233.0</ele><time>2026-03-29T11:22:07.999Z</time></trkpt><trkpt lat="44.68607868822284" lon="8.199306342020076"><ele>233.0</ele><time>2026-03-29T11:22:08.999Z</time></trkpt><trkpt lat="44.68600130373831" lon="8.199361515023112"><ele>232.33333333333334</ele><time>2026-03-29T11:22:09.999Z</time></trkpt><trkpt lat="44.685927079307405" lon="8.199401504643665"><ele>231.66666666666669</ele><time>2026-03-29T11:22:10.999Z</time></trkpt><trkpt lat="44.68585732649219" lon="8.199399855734848"><ele>231.0</ele><time>2026-03-29T11:22:11.999Z</time></trkpt><trkpt lat="44.68579467778879" lon="8.199352429448497"><ele>230.33333333333331</ele><time>2026-03-29T11:22:12.999Z</time></trkpt><trkpt lat="44.68575183341897" lon="8.199255528908129"><ele>229.66666666666666</ele><time>2026-03-29T11:22:13.999Z</time></trkpt><trkpt lat="44.68575744553178" lon="8.199102656406543"><ele>229.0</ele><time>2026-03-29T11:22:14.999Z</time></trkpt><trkpt lat="44.68572771942299" lon="8.19892025254605"><ele>229.0</ele><time>2026-03-29T11:22:15.999Z</time></trkpt><trkpt lat="44.68568639254869" lon="8.19871829547387"><ele>229.0</ele><time>2026-03-29T11:22:16.999Z</time></trkpt><trkpt lat="44.685667102733966" lon="8.198503106131566"><ele>229.0</ele><time>2026-03-29T11:22:17.999Z</time></trkpt><trkpt lat="44.685645221456056" lon="8.198321402222518"><ele>229.0</ele><time>2026-03-29T11:22:18.999Z</time></trkpt><trkpt lat="44.68560880403557" lon="8.198178541544817"><ele>231.2</ele><time>2026-03-29T11:22:19.999Z</time></trkpt><trkpt lat="44.68557985584737" lon="8.198048320520623"><ele>233.39999999999998</ele><time>2026-03-29T11:22:20.999Z</time></trkpt><trkpt lat="44.68552508607979" lon="8.1979537595847"><ele>235.6</ele><time>2026-03-29T11:22:21.999Z</time></trkpt><trkpt lat="44.68547554337201" lon="8.197868667291747"><ele>237.8</ele><time>2026-03-29T11:22:22.999Z</time></trkpt><trkpt lat="44.68538374404429" lon="8.1978608451087"><ele>240.0</ele><time>2026-03-29T11:22:23.999Z</time></trkpt><trkpt lat="44.685300028587946" lon="8.197959345801944"><ele>234.6</ele><time>2026-03-29T11:22:24.999Z</time></trkpt><trkpt lat="44.68522059173029" lon="8.198044058243715"><ele>229.2</ele><time>2026-03-29T11:22:25.999Z</time></trkpt><trkpt lat="44.6851006760822" lon="8.19811358217786"><ele>223.8</ele><time>2026-03-29T11:22:26.999Z</time></trkpt><trkpt lat="44.685007316872735" lon="8.198202864694546"><ele>218.4</ele><time>2026-03-29T11:22:27.999Z</time></trkpt><trkpt lat="44.68492936065995" lon="8.19826176534594"><ele>213.0</ele><time>2026-03-29T11:22:28.999Z</time></trkpt><trkpt lat="44.68492232363495" lon="8.198405008078092"><ele>212.0</ele><time>2026-03-29T11:22:29.999Z</time></trkpt><trkpt lat="44.68494333980904" lon="8.198548400136684"><ele>211.0</ele><time>2026-03-29T11:22:30.999Z</time></trkpt><trkpt lat="44.68499240965042" lon="8.19871783113311"><ele>210.0</ele><time>2026-03-29T11:22:31.999Z</time></trkpt><trkpt lat="44.68503670193561" lon="8.198866856385875"><ele>209.0</ele><time>2026-03-29T11:22:32.999Z</time></trkpt><trkpt lat="44.685052659127145" lon="8.198977873151017"><ele>208.0</ele><time>2026-03-29T11:22:33.999Z</time></trkpt><trkpt lat="44.685036611745375" lon="8.199068921753065"><ele>206.8</ele><time>2026-03-29T11:22:34.999Z</time></trkpt><trkpt lat="44.684940118258744" lon="8.199121344039101"><ele>205.60000000000002</ele><time>2026-03-29T11:22:36.999Z</time></trkpt><trkpt lat="44.68486683940883" lon="8.199083713684827"><ele>204.39999999999998</ele><time>2026-03-29T11:22:38Z</time></trkpt><trkpt lat="44.684777702230726" lon="8.199133281726747"><ele>203.2</ele><time>2026-03-29T11:22:39Z</time></trkpt><trkpt lat="44.68467353225259" lon="8.199187475291106"><ele>202.0</ele><time>2026-03-29T11:22:40Z</time></trkpt><trkpt lat="44.68456644977899" lon="8.199273489701584"><ele>202.0</ele><time>2026-03-29T11:22:41Z</time></trkpt><trkpt lat="44.684465154488585" lon="8.199341538146994"><ele>202.0</ele><time>2026-03-29T11:22:42Z</time></trkpt><trkpt lat="44.684356465088435" lon="8.199364478826679"><ele>202.0</ele><time>2026-03-29T11:22:43Z</time></trkpt><trkpt lat="44.68424210759301" lon="8.199315763304886"><ele>202.0</ele><time>2026-03-29T11:22:44Z</time></trkpt><trkpt lat="44.6840915585517" lon="8.199303053588574"><ele>204.66666666666666</ele><time>2026-03-29T11:22:45Z</time></trkpt><trkpt lat="44.68390821747857" lon="8.199256418449371"><ele>207.33333333333331</ele><time>2026-03-29T11:22:46Z</time></trkpt><trkpt lat="44.68369533899184" lon="8.199214994513284"><ele>210.0</ele><time>2026-03-29T11:22:47Z</time></trkpt><trkpt lat="44.68351191684787" lon="8.199193516548904"><ele>210.5</ele><time>2026-03-29T11:22:48Z</time></trkpt><trkpt lat="44.68335334986916" lon="8.199192183487524"><ele>211.0</ele><time>2026-03-29T11:22:49Z</time></trkpt><trkpt lat="44.68321997053825" lon="8.19919643902659"><ele>211.5</ele><time>2026-03-29T11:22:50Z</time></trkpt><trkpt lat="44.683115542598564" lon="8.199201550965839"><ele>212.0</ele><time>2026-03-29T11:22:51Z</time></trkpt><trkpt lat="44.683041474756735" lon="8.199204202679057"><ele>212.0</ele><time>2026-03-29T11:22:52Z</time></trkpt><trkpt lat="44.68292621403472" lon="8.199249849739587"><ele>212.0</ele><time>2026-03-29T11:22:54Z</time></trkpt><trkpt lat="44.6828795261943" lon="8.199358813679973"><ele>212.0</ele><time>2026-03-29T11:22:55Z</time></trkpt><trkpt lat="44.68286103170817" lon="8.199530950189938"><ele>212.0</ele><time>2026-03-29T11:22:56Z</time></trkpt><trkpt lat="44.68281802983184" lon="8.199748191535795"><ele>206.0</ele><time>2026-03-29T11:22:57Z</time></trkpt><trkpt lat="44.68275801912696" lon="8.200039943415607"><ele>200.0</ele><time>2026-03-29T11:22:58Z</time></trkpt><trkpt lat="44.68268010279693" lon="8.20036826866072"><ele>200.33333333333334</ele><time>2026-03-29T11:22:59Z</time></trkpt><trkpt lat="44.682609300819394" lon="8.2006668320703"><ele>200.66666666666669</ele><time>2026-03-29T11:23:00Z</time></trkpt><trkpt lat="44.68254669214563" lon="8.200921745994306"><ele>201.0</ele><time>2026-03-29T11:23:01Z</time></trkpt><trkpt lat="44.68248875563324" lon="8.201151357070772"><ele>201.0</ele><time>2026-03-29T11:23:02Z</time></trkpt><trkpt lat="44.6824403229494" lon="8.20135587531078"><ele>201.0</ele><time>2026-03-29T11:23:03Z</time></trkpt><trkpt lat="44.682401322149445" lon="8.201519679152609"><ele>201.0</ele><time>2026-03-29T11:23:04Z</time></trkpt><trkpt lat="44.68236604719969" lon="8.201674458698038"><ele>201.0</ele><time>2026-03-29T11:23:05Z</time></trkpt><trkpt lat="44.68233412878456" lon="8.201802793065658"><ele>201.0</ele><time>2026-03-29T11:23:06Z</time></trkpt><trkpt lat="44.68231063125585" lon="8.20190511188586"><ele>201.0</ele><time>2026-03-29T11:23:07Z</time></trkpt><trkpt lat="44.68227932058231" lon="8.202020956563839"><ele>201.0</ele><time>2026-03-29T11:23:09Z</time></trkpt><trkpt lat="44.682264988652996" lon="8.202110984616292"><ele>201.0</ele><time>2026-03-29T11:23:12Z</time></trkpt><trkpt lat="44.6824149026441" lon="8.202197470383608"><ele>201.0</ele><time>2026-03-29T11:23:14Z</time></trkpt><trkpt lat="44.682516980690195" lon="8.202221097126499"><ele>201.0</ele><time>2026-03-29T11:23:15Z</time></trkpt><trkpt lat="44.68267412952568" lon="8.202268274988867"><ele>201.0</ele><time>2026-03-29T11:23:16Z</time></trkpt><trkpt lat="44.68287805116879" lon="8.202345853780884"><ele>201.0</ele><time>2026-03-29T11:23:17Z</time></trkpt><trkpt lat="44.68311537101714" lon="8.202442712718627"><ele>202.5</ele><time>2026-03-29T11:23:18Z</time></trkpt><trkpt lat="44.683356141772414" lon="8.202537481082553"><ele>204.0</ele><time>2026-03-29T11:23:19Z</time></trkpt><trkpt lat="44.68358793824002" lon="8.2026278737575"><ele>202.0</ele><time>2026-03-29T11:23:20Z</time></trkpt><trkpt lat="44.68398349003112" lon="8.202785654110508"><ele>200.0</ele><time>2026-03-29T11:23:21Z</time></trkpt><trkpt lat="44.684322250770485" lon="8.202924640354937"><ele>199.5</ele><time>2026-03-29T11:23:22Z</time></trkpt><trkpt lat="44.684684851247766" lon="8.203066557071319"><ele>199.0</ele><time>2026-03-29T11:23:23Z</time></trkpt><trkpt lat="44.68506039548627" lon="8.203214345836125"><ele>198.0</ele><time>2026-03-29T11:23:24Z</time></trkpt><trkpt lat="44.68543680128323" lon="8.203362559188196"><ele>197.0</ele><time>2026-03-29T11:23:25Z</time></trkpt><trkpt lat="44.685829182862214" lon="8.203514548695612"><ele>197.0</ele><time>2026-03-29T11:23:26Z</time></trkpt><trkpt lat="44.686232723853614" lon="8.203673365327242"><ele>197.0</ele><time>2026-03-29T11:23:27Z</time></trkpt><trkpt lat="44.68664142946723" lon="8.20383434856183"><ele>197.0</ele><time>2026-03-29T11:23:28Z</time></trkpt><trkpt lat="44.6870493047564" lon="8.203997950969944"><ele>197.0</ele><time>2026-03-29T11:23:28.999Z</time></trkpt><trkpt lat="44.68741434277741" lon="8.204150501888137"><ele>197.0</ele><time>2026-03-29T11:23:29.999Z</time></trkpt><trkpt lat="44.687741278813675" lon="8.204279027452701"><ele>197.0</ele><time>2026-03-29T11:23:30.999Z</time></trkpt><trkpt lat="44.68803736705583" lon="8.20438894154456"><ele>196.0</ele><time>2026-03-29T11:23:31.999Z</time></trkpt><trkpt lat="44.688307555685135" lon="8.204496699687784"><ele>195.0</ele><time>2026-03-29T11:23:32.999Z</time></trkpt><trkpt lat="44.68856706497823" lon="8.204600665005051"><ele>194.5</ele><time>2026-03-29T11:23:33.999Z</time></trkpt><trkpt lat="44.68881381277212" lon="8.204697836041111"><ele>194.0</ele><time>2026-03-29T11:23:34.999Z</time></trkpt><trkpt lat="44.68905094479692" lon="8.20478548134007"><ele>195.5</ele><time>2026-03-29T11:23:35.999Z</time></trkpt><trkpt lat="44.68930478043463" lon="8.204882164060974"><ele>197.0</ele><time>2026-03-29T11:23:36.999Z</time></trkpt><trkpt lat="44.689531460706306" lon="8.204979074817386"><ele>197.33333333333334</ele><time>2026-03-29T11:23:37.999Z</time></trkpt><trkpt lat="44.68974718515835" lon="8.205061087819859"><ele>197.66666666666669</ele><time>2026-03-29T11:23:38.999Z</time></trkpt><trkpt lat="44.68994473073646" lon="8.205141607192328"><ele>198.0</ele><time>2026-03-29T11:23:39.999Z</time></trkpt><trkpt lat="44.690143697742734" lon="8.205282570517795"><ele>196.0</ele><time>2026-03-29T11:23:40.999Z</time></trkpt><trkpt lat="44.69036181756627" lon="8.205460753507602"><ele>194.0</ele><time>2026-03-29T11:23:41.999Z</time></trkpt><trkpt lat="44.69060289768759" lon="8.205663296149616"><ele>194.0</ele><time>2026-03-29T11:23:42.999Z</time></trkpt><trkpt lat="44.69086850091796" lon="8.205868793037455"><ele>194.0</ele><time>2026-03-29T11:23:43.999Z</time></trkpt><trkpt lat="44.69114597139082" lon="8.206105619059754"><ele>193.5</ele><time>2026-03-29T11:23:44.999Z</time></trkpt><trkpt lat="44.691410567663624" lon="8.206332359863072"><ele>193.0</ele><time>2026-03-29T11:23:45.999Z</time></trkpt><trkpt lat="44.691643056566434" lon="8.206533060128367"><ele>193.0</ele><time>2026-03-29T11:23:46.999Z</time></trkpt><trkpt lat="44.69185945241428" lon="8.206718617915323"><ele>193.0</ele><time>2026-03-29T11:23:47.999Z</time></trkpt><trkpt lat="44.692067787140815" lon="8.20689101423907"><ele>191.5</ele><time>2026-03-29T11:23:48.999Z</time></trkpt><trkpt lat="44.69227534503227" lon="8.207061856039651"><ele>190.0</ele><time>2026-03-29T11:23:49.999Z</time></trkpt><trkpt lat="44.692481271803885" lon="8.20724291097338"><ele>189.5</ele><time>2026-03-29T11:23:50.999Z</time></trkpt><trkpt lat="44.69269948391151" lon="8.207477355633428"><ele>189.0</ele><time>2026-03-29T11:23:51.999Z</time></trkpt><trkpt lat="44.692914841752035" lon="8.207741092218246"><ele>189.0</ele><time>2026-03-29T11:23:52.999Z</time></trkpt><trkpt lat="44.69317332180913" lon="8.208046852397187"><ele>189.0</ele><time>2026-03-29T11:23:53.999Z</time></trkpt><trkpt lat="44.69343771789484" lon="8.208365380310669"><ele>187.0</ele><time>2026-03-29T11:23:54.999Z</time></trkpt><trkpt lat="44.693666700804584" lon="8.208665381476331"><ele>185.0</ele><time>2026-03-29T11:23:55.999Z</time></trkpt><trkpt lat="44.69387075424783" lon="8.208954760533764"><ele>188.0</ele><time>2026-03-29T11:23:56.999Z</time></trkpt><trkpt lat="44.694076773051016" lon="8.209270229239067"><ele>191.0</ele><time>2026-03-29T11:23:57.999Z</time></trkpt><trkpt lat="44.69429215390127" lon="8.209605812550043"><ele>191.0</ele><time>2026-03-29T11:23:58.999Z</time></trkpt><trkpt lat="44.69452264275184" lon="8.20994557191345"><ele>191.0</ele><time>2026-03-29T11:23:59.999Z</time></trkpt><trkpt lat="44.69475922288121" lon="8.210291895053608"><ele>191.0</ele><time>2026-03-29T11:24:00.999Z</time></trkpt><trkpt lat="44.69497794577258" lon="8.210613392116565"><ele>191.0</ele><time>2026-03-29T11:24:01.999Z</time></trkpt><trkpt lat="44.69518712984224" lon="8.210910354162573"><ele>189.5</ele><time>2026-03-29T11:24:02.999Z</time></trkpt><trkpt lat="44.695398302163966" lon="8.211209106348743"><ele>188.0</ele><time>2026-03-29T11:24:03.999Z</time></trkpt><trkpt lat="44.695607753343054" lon="8.211515236684196"><ele>188.0</ele><time>2026-03-29T11:24:04.999Z</time></trkpt><trkpt lat="44.69581678661874" lon="8.211824305007896"><ele>188.0</ele><time>2026-03-29T11:24:05.999Z</time></trkpt><trkpt lat="44.69603530040035" lon="8.212147663242659"><ele>185.0</ele><time>2026-03-29T11:24:06.999Z</time></trkpt><trkpt lat="44.69626547870897" lon="8.212483404164825"><ele>182.0</ele><time>2026-03-29T11:24:07.999Z</time></trkpt><trkpt lat="44.69651683744613" lon="8.212845290106996"><ele>182.0</ele><time>2026-03-29T11:24:08.999Z</time></trkpt><trkpt lat="44.696766447290834" lon="8.213208377528028"><ele>182.0</ele><time>2026-03-29T11:24:09.999Z</time></trkpt><trkpt lat="44.697023789097535" lon="8.21358751132121"><ele>182.0</ele><time>2026-03-29T11:24:10.999Z</time></trkpt><trkpt lat="44.697291949938084" lon="8.213980815074299"><ele>182.0</ele><time>2026-03-29T11:24:11.999Z</time></trkpt><trkpt lat="44.697563534840654" lon="8.214374986292613"><ele>181.5</ele><time>2026-03-29T11:24:12.999Z</time></trkpt><trkpt lat="44.69783994374355" lon="8.214774071939962"><ele>181.0</ele><time>2026-03-29T11:24:13.999Z</time></trkpt><trkpt lat="44.69809731870643" lon="8.215153068873422"><ele>181.0</ele><time>2026-03-29T11:24:14.999Z</time></trkpt><trkpt lat="44.69833220711186" lon="8.215500071566934"><ele>181.0</ele><time>2026-03-29T11:24:15.999Z</time></trkpt><trkpt lat="44.69854987138117" lon="8.215816126759057"><ele>181.0</ele><time>2026-03-29T11:24:16.999Z</time></trkpt><trkpt lat="44.69875050971647" lon="8.216106582585581"><ele>181.0</ele><time>2026-03-29T11:24:17.999Z</time></trkpt><trkpt lat="44.698937155525286" lon="8.216375857340976"><ele>181.66666666666669</ele><time>2026-03-29T11:24:18.999Z</time></trkpt><trkpt lat="44.6990996186222" lon="8.216613564507966"><ele>182.33333333333334</ele><time>2026-03-29T11:24:19.999Z</time></trkpt><trkpt lat="44.699243338662775" lon="8.21682772283939"><ele>183.0</ele><time>2026-03-29T11:24:20.999Z</time></trkpt><trkpt lat="44.69937900791352" lon="8.217030121702347"><ele>182.33333333333334</ele><time>2026-03-29T11:24:21.999Z</time></trkpt><trkpt lat="44.69949733662394" lon="8.217202304792151"><ele>181.66666666666669</ele><time>2026-03-29T11:24:22.999Z</time></trkpt><trkpt lat="44.6995988285949" lon="8.217356270745366"><ele>181.0</ele><time>2026-03-29T11:24:23.999Z</time></trkpt><trkpt lat="44.69969711343631" lon="8.217494529069453"><ele>181.0</ele><time>2026-03-29T11:24:24.999Z</time></trkpt><trkpt lat="44.69978507484652" lon="8.217625025684645"><ele>181.0</ele><time>2026-03-29T11:24:25.999Z</time></trkpt><trkpt lat="44.69987052214942" lon="8.217749470508748"><ele>181.0</ele><time>2026-03-29T11:24:26.999Z</time></trkpt><trkpt lat="44.69995156903677" lon="8.21786533257491"><ele>181.0</ele><time>2026-03-29T11:24:27.999Z</time></trkpt><trkpt lat="44.70003092782041" lon="8.21798356989435"><ele>181.0</ele><time>2026-03-29T11:24:28.999Z</time></trkpt><trkpt lat="44.70010937195355" lon="8.218101321018766"><ele>181.0</ele><time>2026-03-29T11:24:29.999Z</time></trkpt><trkpt lat="44.700187566110785" lon="8.218219767822552"><ele>181.0</ele><time>2026-03-29T11:24:30.999Z</time></trkpt><trkpt lat="44.70026663875926" lon="8.218332594274212"><ele>181.0</ele><time>2026-03-29T11:24:31.999Z</time></trkpt><trkpt lat="44.700340966255055" lon="8.21843820203809"><ele>181.0</ele><time>2026-03-29T11:24:32.999Z</time></trkpt><trkpt lat="44.700415375709646" lon="8.218547391902241"><ele>181.0</ele><time>2026-03-29T11:24:33.999Z</time></trkpt><trkpt lat="44.70049098055904" lon="8.218657510860332"><ele>181.0</ele><time>2026-03-29T11:24:34.999Z</time></trkpt><trkpt lat="44.70056548221574" lon="8.21876515548492"><ele>181.0</ele><time>2026-03-29T11:24:35.999Z</time></trkpt><trkpt lat="44.70064268452661" lon="8.218873143506963"><ele>181.0</ele><time>2026-03-29T11:24:36.999Z</time></trkpt><trkpt lat="44.70072381803583" lon="8.21898429836313"><ele>181.0</ele><time>2026-03-29T11:24:37.999Z</time></trkpt><trkpt lat="44.70080781687757" lon="8.21910546984933"><ele>180.75</ele><time>2026-03-29T11:24:38.999Z</time></trkpt><trkpt lat="44.700896713656" lon="8.219232330175172"><ele>180.5</ele><time>2026-03-29T11:24:39.999Z</time></trkpt><trkpt lat="44.70098456903749" lon="8.219361276455292"><ele>180.25</ele><time>2026-03-29T11:24:40.999Z</time></trkpt><trkpt lat="44.701081940507954" lon="8.219502581273677"><ele>180.0</ele><time>2026-03-29T11:24:41.999Z</time></trkpt><trkpt lat="44.70119341593026" lon="8.219676472670908"><ele>179.33333333333334</ele><time>2026-03-29T11:24:42.999Z</time></trkpt><trkpt lat="44.70132886985561" lon="8.21987858866338"><ele>178.66666666666669</ele><time>2026-03-29T11:24:44Z</time></trkpt><trkpt lat="44.70148447828976" lon="8.22010866449688"><ele>178.0</ele><time>2026-03-29T11:24:45Z</time></trkpt><trkpt lat="44.70165797302424" lon="8.220353148442289"><ele>178.0</ele><time>2026-03-29T11:24:46Z</time></trkpt><trkpt lat="44.70183989808924" lon="8.220623439623283"><ele>178.0</ele><time>2026-03-29T11:24:47Z</time></trkpt><trkpt lat="44.702031538091575" lon="8.220910963782783"><ele>178.0</ele><time>2026-03-29T11:24:48Z</time></trkpt><trkpt lat="44.70223455410146" lon="8.221208665452282"><ele>178.0</ele><time>2026-03-29T11:24:49Z</time></trkpt><trkpt lat="44.70242182393984" lon="8.221479380026036"><ele>179.0</ele><time>2026-03-29T11:24:50Z</time></trkpt><trkpt lat="44.70259877423692" lon="8.22172899669708"><ele>180.0</ele><time>2026-03-29T11:24:51Z</time></trkpt><trkpt lat="44.70276458336629" lon="8.221966328237226"><ele>178.66666666666666</ele><time>2026-03-29T11:24:52Z</time></trkpt><trkpt lat="44.7029193759543" lon="8.222194861599759"><ele>177.33333333333331</ele><time>2026-03-29T11:24:53Z</time></trkpt><trkpt lat="44.7030685085017" lon="8.22241372563782"><ele>176.0</ele><time>2026-03-29T11:24:54Z</time></trkpt><trkpt lat="44.70321343665614" lon="8.222626658051286"><ele>176.0</ele><time>2026-03-29T11:24:55Z</time></trkpt><trkpt lat="44.70335809451431" lon="8.222834536363587"><ele>176.0</ele><time>2026-03-29T11:24:56Z</time></trkpt><trkpt lat="44.703499891208686" lon="8.223038132177365"><ele>176.0</ele><time>2026-03-29T11:24:57Z</time></trkpt><trkpt lat="44.703641029912326" lon="8.223241606616915"><ele>175.66666666666666</ele><time>2026-03-29T11:24:58Z</time></trkpt><trkpt lat="44.703781042666876" lon="8.223453738452461"><ele>175.33333333333334</ele><time>2026-03-29T11:24:59Z</time></trkpt><trkpt lat="44.7039300438148" lon="8.223673388943409"><ele>175.0</ele><time>2026-03-29T11:25:00Z</time></trkpt><trkpt lat="44.70407190085344" lon="8.223882653031051"><ele>175.66666666666669</ele><time>2026-03-29T11:25:01Z</time></trkpt><trkpt lat="44.704206783190706" lon="8.224080326658761"><ele>176.33333333333334</ele><time>2026-03-29T11:25:02Z</time></trkpt><trkpt lat="44.70434385057621" lon="8.22428207421475"><ele>177.0</ele><time>2026-03-29T11:25:03Z</time></trkpt><trkpt lat="44.704490220180936" lon="8.22450484889635"><ele>176.5</ele><time>2026-03-29T11:25:04Z</time></trkpt><trkpt lat="44.704646873869706" lon="8.224739234211095"><ele>176.0</ele><time>2026-03-29T11:25:05Z</time></trkpt><trkpt lat="44.70481724933305" lon="8.22498920563301"><ele>176.0</ele><time>2026-03-29T11:25:06Z</time></trkpt><trkpt lat="44.70499029162704" lon="8.225244156065484"><ele>176.0</ele><time>2026-03-29T11:25:07Z</time></trkpt><trkpt lat="44.705147303647074" lon="8.22547968782802"><ele>175.66666666666666</ele><time>2026-03-29T11:25:08Z</time></trkpt><trkpt lat="44.70529938235105" lon="8.225700227717974"><ele>175.33333333333334</ele><time>2026-03-29T11:25:09Z</time></trkpt><trkpt lat="44.70544194649286" lon="8.225904510480744"><ele>175.0</ele><time>2026-03-29T11:25:10Z</time></trkpt><trkpt lat="44.70557546512389" lon="8.22609762060771"><ele>175.0</ele><time>2026-03-29T11:25:11Z</time></trkpt><trkpt lat="44.705701395404574" lon="8.226283163133848"><ele>175.0</ele><time>2026-03-29T11:25:12Z</time></trkpt><trkpt lat="44.70582214347053" lon="8.226457564168312"><ele>175.0</ele><time>2026-03-29T11:25:13Z</time></trkpt><trkpt lat="44.705937555730436" lon="8.226626636316125"><ele>175.66666666666669</ele><time>2026-03-29T11:25:14Z</time></trkpt><trkpt lat="44.706056776365244" lon="8.226800539725504"><ele>176.33333333333334</ele><time>2026-03-29T11:25:15Z</time></trkpt><trkpt lat="44.70617369049789" lon="8.226963175837334"><ele>177.0</ele><time>2026-03-29T11:25:16Z</time></trkpt><trkpt lat="44.70627611823801" lon="8.227117607180539"><ele>176.25</ele><time>2026-03-29T11:25:17Z</time></trkpt><trkpt lat="44.70637296995146" lon="8.22726222864578"><ele>175.5</ele><time>2026-03-29T11:25:18Z</time></trkpt><trkpt lat="44.7064724488312" lon="8.22740663293122"><ele>174.75</ele><time>2026-03-29T11:25:19Z</time></trkpt><trkpt lat="44.706577555990584" lon="8.227561139257132"><ele>174.0</ele><time>2026-03-29T11:25:20Z</time></trkpt><trkpt lat="44.706692103494916" lon="8.227725832609126"><ele>174.0</ele><time>2026-03-29T11:25:21Z</time></trkpt><trkpt lat="44.70681917080177" lon="8.227912814793466"><ele>174.0</ele><time>2026-03-29T11:25:22Z</time></trkpt><trkpt lat="44.70695824839174" lon="8.228112972166347"><ele>174.0</ele><time>2026-03-29T11:25:23Z</time></trkpt><trkpt lat="44.7070865768033" lon="8.228303266641323"><ele>173.66666666666666</ele><time>2026-03-29T11:25:24Z</time></trkpt><trkpt lat="44.70720325666191" lon="8.22847313209669"><ele>173.33333333333331</ele><time>2026-03-29T11:25:25Z</time></trkpt><trkpt lat="44.707311195420104" lon="8.228633113875466"><ele>173.0</ele><time>2026-03-29T11:25:26Z</time></trkpt><trkpt lat="44.70741810376621" lon="8.228784297222655"><ele>173.0</ele><time>2026-03-29T11:25:27Z</time></trkpt><trkpt lat="44.707517607017046" lon="8.228929952566634"><ele>173.0</ele><time>2026-03-29T11:25:28Z</time></trkpt><trkpt lat="44.70760593582815" lon="8.229062734788503"><ele>173.0</ele><time>2026-03-29T11:25:29Z</time></trkpt><trkpt lat="44.70768892240761" lon="8.229184125854974"><ele>173.0</ele><time>2026-03-29T11:25:30Z</time></trkpt><trkpt lat="44.70776018451337" lon="8.2292882543838"><ele>173.0</ele><time>2026-03-29T11:25:31Z</time></trkpt><trkpt lat="44.707806051707536" lon="8.229351939304534"><ele>173.0</ele><time>2026-03-29T11:25:31.999Z</time></trkpt><trkpt lat="44.70784860857651" lon="8.229439278887472"><ele>173.0</ele><time>2026-03-29T11:25:33.999Z</time></trkpt><trkpt lat="44.707900095328206" lon="8.229521019785633"><ele>173.0</ele><time>2026-03-29T11:25:35.999Z</time></trkpt><trkpt lat="44.708014714760765" lon="8.229660608011818"><ele>173.0</ele><time>2026-03-29T11:25:37.999Z</time></trkpt><trkpt lat="44.70809243037863" lon="8.229764745793634"><ele>173.0</ele><time>2026-03-29T11:25:38.999Z</time></trkpt><trkpt lat="44.70816039768614" lon="8.229865355378509"><ele>173.0</ele><time>2026-03-29T11:25:39.999Z</time></trkpt><trkpt lat="44.70821762172445" lon="8.229953383465014"><ele>173.0</ele><time>2026-03-29T11:25:40.999Z</time></trkpt><trkpt lat="44.70827273084008" lon="8.230036615903932"><ele>173.0</ele><time>2026-03-29T11:25:41.999Z</time></trkpt><trkpt lat="44.708325151943605" lon="8.23011110806207"><ele>173.0</ele><time>2026-03-29T11:25:42.999Z</time></trkpt><trkpt lat="44.708381493330585" lon="8.230192571297684"><ele>173.0</ele><time>2026-03-29T11:25:44.999Z</time></trkpt><trkpt lat="44.70845513115006" lon="8.230298867296032"><ele>173.0</ele><time>2026-03-29T11:25:46.999Z</time></trkpt><trkpt lat="44.70853041819707" lon="8.230385743316022"><ele>173.0</ele><time>2026-03-29T11:25:48.999Z</time></trkpt><trkpt lat="44.708645227904896" lon="8.230261558254266"><ele>173.0</ele><time>2026-03-29T11:25:49.999Z</time></trkpt><trkpt lat="44.70873866045706" lon="8.230144642110917"><ele>173.0</ele><time>2026-03-29T11:25:50.999Z</time></trkpt><trkpt lat="44.708860026366196" lon="8.22999042668612"><ele>172.33333333333331</ele><time>2026-03-29T11:25:51.999Z</time></trkpt><trkpt lat="44.70899142503556" lon="8.229818902571653"><ele>171.66666666666666</ele><time>2026-03-29T11:25:52.999Z</time></trkpt><trkpt lat="44.70912831973525" lon="8.229639197958807"><ele>171.0</ele><time>2026-03-29T11:25:53.999Z</time></trkpt><trkpt lat="44.70926881895731" lon="8.229458333592765"><ele>171.0</ele><time>2026-03-29T11:25:54.999Z</time></trkpt><trkpt lat="44.7094004454277" lon="8.229294554667465"><ele>171.0</ele><time>2026-03-29T11:25:55.999Z</time></trkpt><trkpt lat="44.70952912746982" lon="8.229139506790098"><ele>171.0</ele><time>2026-03-29T11:25:56.999Z</time></trkpt><trkpt lat="44.709649518247296" lon="8.228996168290987"><ele>171.0</ele><time>2026-03-29T11:25:57.999Z</time></trkpt><trkpt lat="44.70975691931031" lon="8.228865257182058"><ele>171.0</ele><time>2026-03-29T11:25:58.999Z</time></trkpt><trkpt lat="44.70985627919011" lon="8.228737251838396"><ele>171.0</ele><time>2026-03-29T11:25:59.999Z</time></trkpt><trkpt lat="44.70994809392441" lon="8.228616838194153"><ele>171.0</ele><time>2026-03-29T11:26:00.999Z</time></trkpt><trkpt lat="44.7100339748939" lon="8.228508266575759"><ele>171.0</ele><time>2026-03-29T11:26:01.999Z</time></trkpt><trkpt lat="44.71012058425352" lon="8.228416508408142"><ele>171.0</ele><time>2026-03-29T11:26:02.999Z</time></trkpt><trkpt lat="44.71021426095663" lon="8.228348560622765"><ele>171.0</ele><time>2026-03-29T11:26:03.999Z</time></trkpt><trkpt lat="44.710317751265954" lon="8.22832700325361"><ele>171.0</ele><time>2026-03-29T11:26:04.999Z</time></trkpt><trkpt lat="44.71043938315488" lon="8.228366695719059"><ele>171.0</ele><time>2026-03-29T11:26:05.999Z</time></trkpt><trkpt lat="44.7105527553781" lon="8.228465026357087"><ele>172.0</ele><time>2026-03-29T11:26:06.999Z</time></trkpt><trkpt lat="44.71065769800619" lon="8.2286227459636"><ele>173.0</ele><time>2026-03-29T11:26:07.999Z</time></trkpt><trkpt lat="44.71076220567584" lon="8.22885328328824"><ele>174.0</ele><time>2026-03-29T11:26:08.999Z</time></trkpt><trkpt lat="44.71088284137397" lon="8.229122044139354"><ele>174.0</ele><time>2026-03-29T11:26:09.999Z</time></trkpt><trkpt lat="44.711017465062426" lon="8.22939683069466"><ele>174.0</ele><time>2026-03-29T11:26:10.999Z</time></trkpt><trkpt lat="44.71115567332278" lon="8.229657106417866"><ele>174.66666666666666</ele><time>2026-03-29T11:26:11.999Z</time></trkpt><trkpt lat="44.711280007785874" lon="8.229899516376655"><ele>175.33333333333331</ele><time>2026-03-29T11:26:12.999Z</time></trkpt><trkpt lat="44.711406501130966" lon="8.230145291750313"><ele>176.0</ele><time>2026-03-29T11:26:13.999Z</time></trkpt><trkpt lat="44.71154005206493" lon="8.230403340547342"><ele>173.5</ele><time>2026-03-29T11:26:14.999Z</time></trkpt><trkpt lat="44.71168028769301" lon="8.230677813298374"><ele>171.0</ele><time>2026-03-29T11:26:15.999Z</time></trkpt><trkpt lat="44.71181416472038" lon="8.23094310694967"><ele>171.66666666666666</ele><time>2026-03-29T11:26:16.999Z</time></trkpt><trkpt lat="44.711937149143" lon="8.231186176708844"><ele>172.33333333333331</ele><time>2026-03-29T11:26:17.999Z</time></trkpt><trkpt lat="44.71205433454389" lon="8.231410508866443"><ele>173.0</ele><time>2026-03-29T11:26:18.999Z</time></trkpt><trkpt lat="44.712165835369234" lon="8.231629602781458"><ele>173.0</ele><time>2026-03-29T11:26:19.999Z</time></trkpt><trkpt lat="44.71226778918578" lon="8.231832746108552"><ele>173.0</ele><time>2026-03-29T11:26:20.999Z</time></trkpt><trkpt lat="44.712366440040014" lon="8.232026398617815"><ele>173.0</ele><time>2026-03-29T11:26:21.999Z</time></trkpt><trkpt lat="44.712460428902716" lon="8.232210392670039"><ele>172.0</ele><time>2026-03-29T11:26:22.999Z</time></trkpt><trkpt lat="44.71255266536738" lon="8.232386132737359"><ele>171.0</ele><time>2026-03-29T11:26:23.999Z</time></trkpt><trkpt lat="44.71263610083974" lon="8.232554125969665"><ele>170.0</ele><time>2026-03-29T11:26:24.999Z</time></trkpt><trkpt lat="44.71272086392097" lon="8.232719466071506"><ele>169.0</ele><time>2026-03-29T11:26:25.999Z</time></trkpt><trkpt lat="44.7128014213032" lon="8.232879174361853"><ele>170.0</ele><time>2026-03-29T11:26:26.999Z</time></trkpt><trkpt lat="44.7128803603548" lon="8.23303604227084"><ele>171.0</ele><time>2026-03-29T11:26:27.999Z</time></trkpt><trkpt lat="44.71295894060992" lon="8.233184157081967"><ele>172.0</ele><time>2026-03-29T11:26:28.999Z</time></trkpt><trkpt lat="44.71303586909234" lon="8.233329610326146"><ele>173.0</ele><time>2026-03-29T11:26:29.999Z</time></trkpt><trkpt lat="44.71311120716537" lon="8.23347360569877"><ele>173.0</ele><time>2026-03-29T11:26:30.999Z</time></trkpt><trkpt lat="44.713184296399525" lon="8.233612607198317"><ele>173.0</ele><time>2026-03-29T11:26:31.999Z</time></trkpt><trkpt lat="44.71325273902124" lon="8.233746098011945"><ele>173.0</ele><time>2026-03-29T11:26:32.999Z</time></trkpt><trkpt lat="44.71331853610513" lon="8.233883470095387"><ele>173.0</ele><time>2026-03-29T11:26:33.999Z</time></trkpt><trkpt lat="44.71338615274872" lon="8.234020221774694"><ele>171.0</ele><time>2026-03-29T11:26:34.999Z</time></trkpt><trkpt lat="44.71346711940114" lon="8.234182485466924"><ele>169.0</ele><time>2026-03-29T11:26:35.999Z</time></trkpt><trkpt lat="44.713572298553515" lon="8.234377785827087"><ele>167.0</ele><time>2026-03-29T11:26:36.999Z</time></trkpt><trkpt lat="44.71369299436667" lon="8.234593482835065"><ele>168.5</ele><time>2026-03-29T11:26:37.999Z</time></trkpt><trkpt lat="44.71381425024082" lon="8.234861130852702"><ele>170.0</ele><time>2026-03-29T11:26:38.999Z</time></trkpt><trkpt lat="44.71398503194979" lon="8.235171765609849"><ele>170.0</ele><time>2026-03-29T11:26:39.999Z</time></trkpt><trkpt lat="44.714148352061386" lon="8.235496584464705"><ele>170.0</ele><time>2026-03-29T11:26:40.999Z</time></trkpt><trkpt lat="44.714301392011286" lon="8.235792924880231"><ele>170.5</ele><time>2026-03-29T11:26:41.999Z</time></trkpt><trkpt lat="44.71447569904598" lon="8.236145615759256"><ele>171.0</ele><time>2026-03-29T11:26:42.999Z</time></trkpt><trkpt lat="44.71465211268004" lon="8.236484605970883"><ele>170.0</ele><time>2026-03-29T11:26:43.999Z</time></trkpt><trkpt lat="44.71480248359636" lon="8.236792432016557"><ele>169.0</ele><time>2026-03-29T11:26:44.999Z</time></trkpt><trkpt lat="44.71494612002325" lon="8.237070825890651"><ele>169.0</ele><time>2026-03-29T11:26:45.999Z</time></trkpt><trkpt lat="44.71507997288072" lon="8.237315866008304"><ele>169.0</ele><time>2026-03-29T11:26:46.999Z</time></trkpt><trkpt lat="44.71518965793607" lon="8.23753208894686"><ele>169.0</ele><time>2026-03-29T11:26:47.999Z</time></trkpt><trkpt lat="44.71528978188425" lon="8.237727313658292"><ele>169.66666666666669</ele><time>2026-03-29T11:26:48.999Z</time></trkpt><trkpt lat="44.71538863682291" lon="8.237901891038836"><ele>170.33333333333334</ele><time>2026-03-29T11:26:50Z</time></trkpt><trkpt lat="44.71551450318554" lon="8.238060970800184"><ele>171.0</ele><time>2026-03-29T11:26:51Z</time></trkpt><trkpt lat="44.715659553191564" lon="8.238198171904838"><ele>169.66666666666666</ele><time>2026-03-29T11:26:52Z</time></trkpt><trkpt lat="44.715823915585865" lon="8.238299307832959"><ele>168.33333333333331</ele><time>2026-03-29T11:26:53Z</time></trkpt><trkpt lat="44.71601233114257" lon="8.23836146214252"><ele>167.0</ele><time>2026-03-29T11:26:54Z</time></trkpt><trkpt lat="44.71622289824986" lon="8.238396460409"><ele>167.0</ele><time>2026-03-29T11:26:55Z</time></trkpt><trkpt lat="44.71643773645715" lon="8.238391350647655"><ele>167.0</ele><time>2026-03-29T11:26:56Z</time></trkpt><trkpt lat="44.71667147600452" lon="8.238341230628286"><ele>166.33333333333331</ele><time>2026-03-29T11:26:57Z</time></trkpt><trkpt lat="44.71691128123212" lon="8.238277536688559"><ele>165.66666666666666</ele><time>2026-03-29T11:26:58Z</time></trkpt><trkpt lat="44.71710934258757" lon="8.238243130144978"><ele>165.0</ele><time>2026-03-29T11:26:59Z</time></trkpt><trkpt lat="44.71727475880948" lon="8.238220407036527"><ele>165.0</ele><time>2026-03-29T11:27:00Z</time></trkpt><trkpt lat="44.71740130640592" lon="8.238194860427607"><ele>165.0</ele><time>2026-03-29T11:27:01Z</time></trkpt><trkpt lat="44.71748825813288" lon="8.238175795934833"><ele>165.0</ele><time>2026-03-29T11:27:02Z</time></trkpt><trkpt lat="44.71755490180193" lon="8.238156306961328"><ele>165.0</ele><time>2026-03-29T11:27:03Z</time></trkpt><trkpt lat="44.7176246689185" lon="8.23814073772638"><ele>165.0</ele><time>2026-03-29T11:27:04Z</time></trkpt><trkpt lat="44.71768964788734" lon="8.238130569462925"><ele>165.0</ele><time>2026-03-29T11:27:05Z</time></trkpt><trkpt lat="44.717804684919656" lon="8.238114685209624"><ele>164.33333333333334</ele><time>2026-03-29T11:27:07Z</time></trkpt><trkpt lat="44.717878255078084" lon="8.238312923233396"><ele>163.66666666666669</ele><time>2026-03-29T11:27:09Z</time></trkpt><trkpt lat="44.71796042086505" lon="8.23846300227345"><ele>163.0</ele><time>2026-03-29T11:27:10Z</time></trkpt><trkpt lat="44.71805808835736" lon="8.238646193829497"><ele>163.0</ele><time>2026-03-29T11:27:11Z</time></trkpt><trkpt lat="44.71814351416363" lon="8.238796070852818"><ele>163.0</ele><time>2026-03-29T11:27:12Z</time></trkpt><trkpt lat="44.71820363629243" lon="8.238932543882871"><ele>163.0</ele><time>2026-03-29T11:27:13Z</time></trkpt><trkpt lat="44.71826037487061" lon="8.239045140419126"><ele>163.0</ele><time>2026-03-29T11:27:14Z</time></trkpt><trkpt lat="44.7183139043226" lon="8.23911962553902"><ele>163.0</ele><time>2026-03-29T11:27:15Z</time></trkpt><trkpt lat="44.71838078489981" lon="8.23921621248598"><ele>163.0</ele><time>2026-03-29T11:27:17Z</time></trkpt><trkpt lat="44.71830567189971" lon="8.239371768389313"><ele>163.0</ele><time>2026-03-29T11:27:20Z</time></trkpt><trkpt lat="44.71826169543857" lon="8.239476518984182"><ele>163.0</ele><time>2026-03-29T11:27:21Z</time></trkpt><trkpt lat="44.7181903196214" lon="8.239586985541486"><ele>163.0</ele><time>2026-03-29T11:27:22Z</time></trkpt><trkpt lat="44.71814624240598" lon="8.239684201385808"><ele>163.0</ele><time>2026-03-29T11:27:23Z</time></trkpt><trkpt lat="44.718127513329776" lon="8.23977083650164"><ele>163.75</ele><time>2026-03-29T11:27:24Z</time></trkpt><trkpt lat="44.7181481850358" lon="8.23986495018771"><ele>164.5</ele><time>2026-03-29T11:27:25Z</time></trkpt><trkpt lat="44.71821282139831" lon="8.239980912199629"><ele>165.25</ele><time>2026-03-29T11:27:26Z</time></trkpt><trkpt lat="44.718325879259105" lon="8.240124005344772"><ele>166.0</ele><time>2026-03-29T11:27:27Z</time></trkpt><trkpt lat="44.718455194772986" lon="8.240329726867147"><ele>165.66666666666669</ele><time>2026-03-29T11:27:28Z</time></trkpt><trkpt lat="44.71859366841348" lon="8.240531669267893"><ele>165.33333333333334</ele><time>2026-03-29T11:27:29Z</time></trkpt><trkpt lat="44.718701047880685" lon="8.240689868189628"><ele>165.0</ele><time>2026-03-29T11:27:30Z</time></trkpt><trkpt lat="44.71878195784655" lon="8.240810963280842"><ele>166.75</ele><time>2026-03-29T11:27:31Z</time></trkpt><trkpt lat="44.71883805129403" lon="8.240899114683472"><ele>168.5</ele><time>2026-03-29T11:27:31.999Z</time></trkpt><trkpt lat="44.71885915898551" lon="8.241028558785164"><ele>170.25</ele><time>2026-03-29T11:27:33.999Z</time></trkpt><trkpt lat="44.718685197227614" lon="8.241185143250297"><ele>172.0</ele><time>2026-03-29T11:27:35.999Z</time></trkpt><trkpt lat="44.71855997202193" lon="8.241311090653735"><ele>178.33333333333334</ele><time>2026-03-29T11:27:36.999Z</time></trkpt><trkpt lat="44.718419022937226" lon="8.241469808848365"><ele>184.66666666666666</ele><time>2026-03-29T11:27:37.999Z</time></trkpt><trkpt lat="44.71824497950432" lon="8.241637045964563"><ele>191.0</ele><time>2026-03-29T11:27:38.999Z</time></trkpt><trkpt lat="44.71809323630977" lon="8.241777683109866"><ele>191.0</ele><time>2026-03-29T11:27:39.999Z</time></trkpt><trkpt lat="44.71797439928852" lon="8.241883572619697"><ele>191.0</ele><time>2026-03-29T11:27:40.999Z</time></trkpt><trkpt lat="44.71787298421291" lon="8.241969482209315"><ele>191.0</ele><time>2026-03-29T11:27:41.999Z</time></trkpt><trkpt lat="44.717784269264264" lon="8.242031030284135"><ele>191.0</ele><time>2026-03-29T11:27:42.999Z</time></trkpt><trkpt lat="44.71770812993482" lon="8.242106539097827"><ele>190.5</ele><time>2026-03-29T11:27:43.999Z</time></trkpt><trkpt lat="44.71765940286191" lon="8.242214508200767"><ele>190.0</ele><time>2026-03-29T11:27:44.999Z</time></trkpt><trkpt lat="44.717615143658335" lon="8.242371893629988"><ele>189.5</ele><time>2026-03-29T11:27:45.999Z</time></trkpt><trkpt lat="44.717571177521684" lon="8.242588757797304"><ele>189.0</ele><time>2026-03-29T11:27:46.999Z</time></trkpt><trkpt lat="44.717513097976045" lon="8.242787715136236"><ele>189.0</ele><time>2026-03-29T11:27:47.999Z</time></trkpt><trkpt lat="44.71742885683809" lon="8.242916029536794"><ele>189.0</ele><time>2026-03-29T11:27:48.999Z</time></trkpt><trkpt lat="44.71736711368197" lon="8.243027215575216"><ele>189.0</ele><time>2026-03-29T11:27:49.999Z</time></trkpt><trkpt lat="44.71730071548952" lon="8.243099078804617"><ele>189.0</ele><time>2026-03-29T11:27:50.999Z</time></trkpt><trkpt lat="44.717219082621824" lon="8.243177704724832"><ele>189.0</ele><time>2026-03-29T11:27:52.999Z</time></trkpt><trkpt lat="44.71728564206765" lon="8.243298536733427"><ele>189.0</ele><time>2026-03-29T11:27:55.999Z</time></trkpt><trkpt lat="44.71736694776062" lon="8.243189239029629"><ele>189.0</ele><time>2026-03-29T11:27:57.999Z</time></trkpt><trkpt lat="44.717475852687876" lon="8.243100774386118"><ele>189.0</ele><time>2026-03-29T11:27:59.999Z</time></trkpt><trkpt lat="44.717525460859505" lon="8.243044725086909"><ele>189.0</ele><time>2026-03-29T11:28:00.999Z</time></trkpt><trkpt lat="44.71757342878515" lon="8.242986034678808"><ele>189.0</ele><time>2026-03-29T11:28:01.999Z</time></trkpt><trkpt lat="44.71766849922505" lon="8.242861281860883"><ele>189.0</ele><time>2026-03-29T11:28:03.999Z</time></trkpt><trkpt lat="44.71770548115645" lon="8.242782458182349"><ele>189.0</ele><time>2026-03-29T11:28:04.999Z</time></trkpt><trkpt lat="44.71775096720796" lon="8.242675535841585"><ele>189.0</ele><time>2026-03-29T11:28:06.999Z</time></trkpt><trkpt lat="44.717780564640286" lon="8.24258914547992"><ele>189.0</ele><time>2026-03-29T11:28:09.999Z</time></trkpt><trkpt lat="44.717722534483826" lon="8.24252507528438"><ele>189.0</ele><time>2026-03-29T11:30:59.999Z</time></trkpt><trkpt lat="44.71779622718193" lon="8.242518652604142"><ele>189.0</ele><time>2026-03-29T11:34:24.999Z</time></trkpt><trkpt lat="44.717737229961" lon="8.242413446124441"><ele>189.0</ele><time>2026-03-29T12:07:33.982Z</time></trkpt><trkpt lat="44.71769433050411" lon="8.242346086430967"><ele>189.0</ele><time>2026-03-29T12:07:34.982Z</time></trkpt><trkpt lat="44.717577201820006" lon="8.24218329159392"><ele>189.0</ele><time>2026-03-29T12:07:35.982Z</time></trkpt><trkpt lat="44.717641935439715" lon="8.242235553073451"><ele>189.0</ele><time>2026-03-29T12:07:37.982Z</time></trkpt><trkpt lat="44.71769128259619" lon="8.242308690209189"><ele>189.0</ele><time>2026-03-29T12:07:38.982Z</time></trkpt><trkpt lat="44.717539430896295" lon="8.242254718686047"><ele>189.0</ele><time>2026-03-29T12:07:39.982Z</time></trkpt><trkpt lat="44.717616733532836" lon="8.24239033046012"><ele>189.0</ele><time>2026-03-29T12:07:40.982Z</time></trkpt><trkpt lat="44.71773280035306" lon="8.242395313894553"><ele>189.0</ele><time>2026-03-29T12:07:41.982Z</time></trkpt><trkpt lat="44.71778968085386" lon="8.242445128199028"><ele>189.0</ele><time>2026-03-29T12:08:09Z</time></trkpt><trkpt lat="44.717469479500565" lon="8.24240940335607"><ele>199.33333333333331</ele><time>2026-03-29T12:52:48.407Z</time></trkpt><trkpt lat="44.71784886847156" lon="8.24246022557703"><ele>209.66666666666666</ele><time>2026-03-29T12:53:00.411Z</time></trkpt><trkpt lat="44.71780214932459" lon="8.242520293276923"><ele>220.0</ele><time>2026-03-29T12:57:58Z</time></trkpt><trkpt lat="44.71785479367258" lon="8.242465276389353"><ele>219.99999999999997</ele><time>2026-03-29T13:05:13Z</time></trkpt><trkpt lat="44.717759712629196" lon="8.242368827064665"><ele>220.0</ele><time>2026-03-29T13:38:26.413Z</time></trkpt><trkpt lat="44.71777816528471" lon="8.2424542781895"><ele>220.0</ele><time>2026-03-29T13:38:32.99Z</time></trkpt><trkpt lat="44.71785188741572" lon="8.242486692754465"><ele>220.0</ele><time>2026-03-29T13:38:34.99Z</time></trkpt><trkpt lat="44.71793086155491" lon="8.242485117284028"><ele>219.99999999999997</ele><time>2026-03-29T13:54:54Z</time></trkpt><trkpt lat="44.71801050538814" lon="8.242506944119828"><ele>220.0</ele><time>2026-03-29T13:55:10.078Z</time></trkpt><trkpt lat="44.71788704019501" lon="8.242411685651492"><ele>220.0</ele><time>2026-03-29T13:56:28.705Z</time></trkpt><trkpt lat="44.71784134129045" lon="8.242494739120628"><ele>220.0</ele><time>2026-03-29T14:08:33.998Z</time></trkpt></trkseg></trk></gpx>